<?xml version="1.0" encoding="UTF-8" standalone="no" ?>
<gpx xmlns="http://www.topografix.com/GPX/1/1" xmlns:xsi="http://www.w3.org/2001/XMLSchema-instance" xsi:schemaLocation="http://www.topografix.com/GPX/1/1 http://www.topografix.com/GPX/1/1/gpx.xsd" version="1.1" creator="VisuGPX - https://www.visugpx.com">
  <metadata>
    <name>Raid VTT IFV 2022 de l'enfer</name>
    <desc><![CDATA[Tracé du raid avec le découpage en segments de guidage individuels avec thème d'animation imposé]]></desc>
  </metadata>
  <trk>
    <name><![CDATA[J1 - RUN 1 - Jérémy]]></name>
    <desc><![CDATA[Physio : gestion de l'effort long]]></desc>
    <extensions>
      <line xmlns="http://www.topografix.com/GPX/gpx_style/0/2">
        <color>0000FF</color>
        <width>4</width>
          <extensions>
            <sens>1</sens>
          </extensions>
      </line>
    </extensions>
    <trkseg>
      <trkpt lat="44.18139" lon="6.62771">
        <ele>1247</ele>
        <time>2021-11-16T01:58:49Z</time>
      </trkpt>
      <trkpt lat="44.18116" lon="6.62759">
        <ele>1248</ele>
        <time>2021-11-16T01:58:55Z</time>
      </trkpt>
      <trkpt lat="44.18081" lon="6.62711">
        <ele>1249</ele>
        <time>2021-11-16T01:59:06Z</time>
      </trkpt>
      <trkpt lat="44.18071" lon="6.62686">
        <ele>1249</ele>
        <time>2021-11-16T01:59:11Z</time>
      </trkpt>
      <trkpt lat="44.18057" lon="6.62611">
        <ele>1247</ele>
        <time>2021-11-16T01:59:24Z</time>
      </trkpt>
      <trkpt lat="44.18052" lon="6.62598">
        <ele>1246</ele>
        <time>2021-11-16T01:59:26Z</time>
      </trkpt>
      <trkpt lat="44.18037" lon="6.62584">
        <ele>1245</ele>
        <time>2021-11-16T01:59:31Z</time>
      </trkpt>
      <trkpt lat="44.18007" lon="6.62577">
        <ele>1243</ele>
        <time>2021-11-16T01:59:38Z</time>
      </trkpt>
      <trkpt lat="44.17981" lon="6.62565">
        <ele>1242</ele>
        <time>2021-11-16T01:59:44Z</time>
      </trkpt>
      <trkpt lat="44.17966" lon="6.62553">
        <ele>1242</ele>
        <time>2021-11-16T01:59:48Z</time>
      </trkpt>
      <trkpt lat="44.1796" lon="6.62539">
        <ele>1241</ele>
        <time>2021-11-16T01:59:51Z</time>
      </trkpt>
      <trkpt lat="44.1795" lon="6.62564">
        <ele>1241</ele>
        <time>2021-11-16T01:59:56Z</time>
      </trkpt>
      <trkpt lat="44.17931" lon="6.62568">
        <ele>1240</ele>
        <time>2021-11-16T02:00:00Z</time>
      </trkpt>
      <trkpt lat="44.17899" lon="6.62579">
        <ele>1246</ele>
        <time>2021-11-16T02:00:08Z</time>
      </trkpt>
      <trkpt lat="44.17888" lon="6.62562">
        <ele>1248</ele>
        <time>2021-11-16T02:00:12Z</time>
      </trkpt>
      <trkpt lat="44.17865" lon="6.62464">
        <ele>1246</ele>
        <time>2021-11-16T02:00:29Z</time>
      </trkpt>
      <trkpt lat="44.17847" lon="6.62365">
        <ele>1238</ele>
        <time>2021-11-16T02:00:46Z</time>
      </trkpt>
      <trkpt lat="44.17808" lon="6.62294">
        <ele>1240</ele>
        <time>2021-11-16T02:01:01Z</time>
      </trkpt>
      <trkpt lat="44.1779" lon="6.62232">
        <ele>1239</ele>
        <time>2021-11-16T02:01:12Z</time>
      </trkpt>
      <trkpt lat="44.17789" lon="6.62195">
        <ele>1238</ele>
        <time>2021-11-16T02:01:19Z</time>
      </trkpt>
      <trkpt lat="44.17786" lon="6.62181">
        <ele>1238</ele>
        <time>2021-11-16T02:01:21Z</time>
      </trkpt>
      <trkpt lat="44.17778" lon="6.62173">
        <ele>1239</ele>
        <time>2021-11-16T02:01:23Z</time>
      </trkpt>
      <trkpt lat="44.17763" lon="6.62171">
        <ele>1241</ele>
        <time>2021-11-16T02:01:27Z</time>
      </trkpt>
      <trkpt lat="44.17737" lon="6.62159">
        <ele>1244</ele>
        <time>2021-11-16T02:01:33Z</time>
      </trkpt>
      <trkpt lat="44.17723" lon="6.62157">
        <ele>1246</ele>
        <time>2021-11-16T02:01:36Z</time>
      </trkpt>
      <trkpt lat="44.17722" lon="6.62154">
        <ele>1246</ele>
        <time>2021-11-16T02:01:37Z</time>
      </trkpt>
      <trkpt lat="44.17702" lon="6.62153">
        <ele>1248</ele>
        <time>2021-11-16T02:01:42Z</time>
      </trkpt>
      <trkpt lat="44.1769" lon="6.62149">
        <ele>1250</ele>
        <time>2021-11-16T02:01:45Z</time>
      </trkpt>
      <trkpt lat="44.17681" lon="6.62142">
        <ele>1250</ele>
        <time>2021-11-16T02:01:47Z</time>
      </trkpt>
      <trkpt lat="44.17667" lon="6.62123">
        <ele>1250</ele>
        <time>2021-11-16T02:01:52Z</time>
      </trkpt>
      <trkpt lat="44.17655" lon="6.62099">
        <ele>1248</ele>
        <time>2021-11-16T02:01:56Z</time>
      </trkpt>
      <trkpt lat="44.17633" lon="6.62069">
        <ele>1246</ele>
        <time>2021-11-16T02:02:04Z</time>
      </trkpt>
      <trkpt lat="44.17625" lon="6.62051">
        <ele>1245</ele>
        <time>2021-11-16T02:02:07Z</time>
      </trkpt>
      <trkpt lat="44.17597" lon="6.62029">
        <ele>1243</ele>
        <time>2021-11-16T02:02:15Z</time>
      </trkpt>
      <trkpt lat="44.17591" lon="6.62029">
        <ele>1243</ele>
        <time>2021-11-16T02:02:16Z</time>
      </trkpt>
      <trkpt lat="44.17584" lon="6.62039">
        <ele>1244</ele>
        <time>2021-11-16T02:02:18Z</time>
      </trkpt>
      <trkpt lat="44.17566" lon="6.62045">
        <ele>1242</ele>
        <time>2021-11-16T02:02:23Z</time>
      </trkpt>
      <trkpt lat="44.17555" lon="6.6203">
        <ele>1240</ele>
        <time>2021-11-16T02:02:26Z</time>
      </trkpt>
      <trkpt lat="44.17541" lon="6.62004">
        <ele>1237</ele>
        <time>2021-11-16T02:02:32Z</time>
      </trkpt>
      <trkpt lat="44.17544" lon="6.62007">
        <ele>1237</ele>
        <time>2021-11-16T02:02:33Z</time>
      </trkpt>
      <trkpt lat="44.17506" lon="6.6195">
        <ele>1228</ele>
        <time>2021-11-16T02:02:46Z</time>
      </trkpt>
      <trkpt lat="44.17491" lon="6.6191">
        <ele>1225</ele>
        <time>2021-11-16T02:02:53Z</time>
      </trkpt>
      <trkpt lat="44.17489" lon="6.61867">
        <ele>1223</ele>
        <time>2021-11-16T02:03:00Z</time>
      </trkpt>
      <trkpt lat="44.17483" lon="6.61853">
        <ele>1222</ele>
        <time>2021-11-16T02:03:03Z</time>
      </trkpt>
      <trkpt lat="44.17473" lon="6.61839">
        <ele>1221</ele>
        <time>2021-11-16T02:03:07Z</time>
      </trkpt>
      <trkpt lat="44.17447" lon="6.61822">
        <ele>1220</ele>
        <time>2021-11-16T02:03:13Z</time>
      </trkpt>
      <trkpt lat="44.1742" lon="6.6181">
        <ele>1219</ele>
        <time>2021-11-16T02:03:20Z</time>
      </trkpt>
      <trkpt lat="44.174" lon="6.61804">
        <ele>1219</ele>
        <time>2021-11-16T02:03:25Z</time>
      </trkpt>
      <trkpt lat="44.17347" lon="6.61808">
        <ele>1218</ele>
        <time>2021-11-16T02:03:37Z</time>
      </trkpt>
      <trkpt lat="44.17296" lon="6.6182">
        <ele>1221</ele>
        <time>2021-11-16T02:03:49Z</time>
      </trkpt>
      <trkpt lat="44.17269" lon="6.61812">
        <ele>1221</ele>
        <time>2021-11-16T02:03:56Z</time>
      </trkpt>
      <trkpt lat="44.17227" lon="6.61786">
        <ele>1220</ele>
        <time>2021-11-16T02:04:06Z</time>
      </trkpt>
      <trkpt lat="44.17205" lon="6.61778">
        <ele>1220</ele>
        <time>2021-11-16T02:04:12Z</time>
      </trkpt>
      <trkpt lat="44.17137" lon="6.61784">
        <ele>1223</ele>
        <time>2021-11-16T02:04:27Z</time>
      </trkpt>
      <trkpt lat="44.1712" lon="6.61794">
        <ele>1226</ele>
        <time>2021-11-16T02:04:32Z</time>
      </trkpt>
      <trkpt lat="44.17087" lon="6.61819">
        <ele>1233</ele>
        <time>2021-11-16T02:04:41Z</time>
      </trkpt>
      <trkpt lat="44.17073" lon="6.61817">
        <ele>1234</ele>
        <time>2021-11-16T02:04:44Z</time>
      </trkpt>
      <trkpt lat="44.17047" lon="6.61808">
        <ele>1237</ele>
        <time>2021-11-16T02:04:50Z</time>
      </trkpt>
      <trkpt lat="44.17" lon="6.6178">
        <ele>1238</ele>
        <time>2021-11-16T02:05:02Z</time>
      </trkpt>
      <trkpt lat="44.1698" lon="6.61772">
        <ele>1238</ele>
        <time>2021-11-16T02:05:07Z</time>
      </trkpt>
      <trkpt lat="44.16958" lon="6.61771">
        <ele>1240</ele>
        <time>2021-11-16T02:05:12Z</time>
      </trkpt>
      <trkpt lat="44.16933" lon="6.61774">
        <ele>1244</ele>
        <time>2021-11-16T02:05:18Z</time>
      </trkpt>
      <trkpt lat="44.16916" lon="6.61781">
        <ele>1248</ele>
        <time>2021-11-16T02:05:22Z</time>
      </trkpt>
      <trkpt lat="44.16898" lon="6.61784">
        <ele>1253</ele>
        <time>2021-11-16T02:05:26Z</time>
      </trkpt>
      <trkpt lat="44.16879" lon="6.6178">
        <ele>1255</ele>
        <time>2021-11-16T02:05:31Z</time>
      </trkpt>
      <trkpt lat="44.16824" lon="6.61754">
        <ele>1253</ele>
        <time>2021-11-16T02:05:44Z</time>
      </trkpt>
      <trkpt lat="44.16811" lon="6.61743">
        <ele>1251</ele>
        <time>2021-11-16T02:05:48Z</time>
      </trkpt>
      <trkpt lat="44.16797" lon="6.61741">
        <ele>1251</ele>
        <time>2021-11-16T02:05:51Z</time>
      </trkpt>
      <trkpt lat="44.16767" lon="6.61748">
        <ele>1256</ele>
        <time>2021-11-16T02:05:58Z</time>
      </trkpt>
      <trkpt lat="44.16753" lon="6.61749">
        <ele>1257</ele>
        <time>2021-11-16T02:06:02Z</time>
      </trkpt>
      <trkpt lat="44.16729" lon="6.61766">
        <ele>1266</ele>
        <time>2021-11-16T02:06:08Z</time>
      </trkpt>
      <trkpt lat="44.16718" lon="6.61768">
        <ele>1268</ele>
        <time>2021-11-16T02:06:10Z</time>
      </trkpt>
      <trkpt lat="44.16693" lon="6.61759">
        <ele>1267</ele>
        <time>2021-11-16T02:06:16Z</time>
      </trkpt>
      <trkpt lat="44.16673" lon="6.61741">
        <ele>1263</ele>
        <time>2021-11-16T02:06:22Z</time>
      </trkpt>
      <trkpt lat="44.16663" lon="6.61737">
        <ele>1263</ele>
        <time>2021-11-16T02:06:24Z</time>
      </trkpt>
      <trkpt lat="44.16625" lon="6.6174">
        <ele>1269</ele>
        <time>2021-11-16T02:06:33Z</time>
      </trkpt>
      <trkpt lat="44.16612" lon="6.61744">
        <ele>1272</ele>
        <time>2021-11-16T02:06:36Z</time>
      </trkpt>
      <trkpt lat="44.16575" lon="6.61776">
        <ele>1287</ele>
        <time>2021-11-16T02:06:47Z</time>
      </trkpt>
      <trkpt lat="44.16568" lon="6.61777">
        <ele>1289</ele>
        <time>2021-11-16T02:06:48Z</time>
      </trkpt>
      <trkpt lat="44.16558" lon="6.61768">
        <ele>1288</ele>
        <time>2021-11-16T02:06:51Z</time>
      </trkpt>
      <trkpt lat="44.16513" lon="6.61739">
        <ele>1287</ele>
        <time>2021-11-16T02:07:03Z</time>
      </trkpt>
      <trkpt lat="44.16492" lon="6.61733">
        <ele>1290</ele>
        <time>2021-11-16T02:07:08Z</time>
      </trkpt>
      <trkpt lat="44.16474" lon="6.6172">
        <ele>1292</ele>
        <time>2021-11-16T02:07:12Z</time>
      </trkpt>
      <trkpt lat="44.16463" lon="6.61715">
        <ele>1294</ele>
        <time>2021-11-16T02:07:15Z</time>
      </trkpt>
      <trkpt lat="44.16424" lon="6.61708">
        <ele>1302</ele>
        <time>2021-11-16T02:07:24Z</time>
      </trkpt>
      <trkpt lat="44.16382" lon="6.61681">
        <ele>1304</ele>
        <time>2021-11-16T02:07:35Z</time>
      </trkpt>
      <trkpt lat="44.16343" lon="6.61668">
        <ele>1307</ele>
        <time>2021-11-16T02:07:44Z</time>
      </trkpt>
      <trkpt lat="44.16308" lon="6.61642">
        <ele>1309</ele>
        <time>2021-11-16T02:07:54Z</time>
      </trkpt>
      <trkpt lat="44.16285" lon="6.61633">
        <ele>1312</ele>
        <time>2021-11-16T02:07:59Z</time>
      </trkpt>
      <trkpt lat="44.16263" lon="6.61616">
        <ele>1312</ele>
        <time>2021-11-16T02:08:05Z</time>
      </trkpt>
      <trkpt lat="44.16234" lon="6.61616">
        <ele>1319</ele>
        <time>2021-11-16T02:08:12Z</time>
      </trkpt>
      <trkpt lat="44.16218" lon="6.61606">
        <ele>1321</ele>
        <time>2021-11-16T02:08:16Z</time>
      </trkpt>
      <trkpt lat="44.16215" lon="6.61597">
        <ele>1320</ele>
        <time>2021-11-16T02:08:18Z</time>
      </trkpt>
      <trkpt lat="44.16213" lon="6.61568">
        <ele>1314</ele>
        <time>2021-11-16T02:08:23Z</time>
      </trkpt>
      <trkpt lat="44.16201" lon="6.61524">
        <ele>1307</ele>
        <time>2021-11-16T02:08:30Z</time>
      </trkpt>
      <trkpt lat="44.16186" lon="6.61503">
        <ele>1308</ele>
        <time>2021-11-16T02:08:35Z</time>
      </trkpt>
      <trkpt lat="44.16166" lon="6.61491">
        <ele>1312</ele>
        <time>2021-11-16T02:08:40Z</time>
      </trkpt>
      <trkpt lat="44.16124" lon="6.61472">
        <ele>1313</ele>
        <time>2021-11-16T02:08:51Z</time>
      </trkpt>
      <trkpt lat="44.16088" lon="6.61447">
        <ele>1315</ele>
        <time>2021-11-16T02:09:00Z</time>
      </trkpt>
      <trkpt lat="44.16065" lon="6.61443">
        <ele>1317</ele>
        <time>2021-11-16T02:09:06Z</time>
      </trkpt>
      <trkpt lat="44.16035" lon="6.61454">
        <ele>1321</ele>
        <time>2021-11-16T02:09:13Z</time>
      </trkpt>
      <trkpt lat="44.16012" lon="6.61459">
        <ele>1324</ele>
        <time>2021-11-16T02:09:18Z</time>
      </trkpt>
      <trkpt lat="44.15999" lon="6.61452">
        <ele>1324</ele>
        <time>2021-11-16T02:09:22Z</time>
      </trkpt>
      <trkpt lat="44.1598" lon="6.61404">
        <ele>1322</ele>
        <time>2021-11-16T02:09:31Z</time>
      </trkpt>
      <trkpt lat="44.15956" lon="6.61364">
        <ele>1322</ele>
        <time>2021-11-16T02:09:39Z</time>
      </trkpt>
      <trkpt lat="44.15944" lon="6.61338">
        <ele>1321</ele>
        <time>2021-11-16T02:09:45Z</time>
      </trkpt>
      <trkpt lat="44.15919" lon="6.61257">
        <ele>1310</ele>
        <time>2021-11-16T02:09:59Z</time>
      </trkpt>
      <trkpt lat="44.15902" lon="6.61234">
        <ele>1307</ele>
        <time>2021-11-16T02:10:05Z</time>
      </trkpt>
      <trkpt lat="44.15868" lon="6.61226">
        <ele>1310</ele>
        <time>2021-11-16T02:10:13Z</time>
      </trkpt>
      <trkpt lat="44.1583" lon="6.612">
        <ele>1309</ele>
        <time>2021-11-16T02:10:23Z</time>
      </trkpt>
      <trkpt lat="44.1582" lon="6.61184">
        <ele>1307</ele>
        <time>2021-11-16T02:10:26Z</time>
      </trkpt>
      <trkpt lat="44.158" lon="6.61171">
        <ele>1308</ele>
        <time>2021-11-16T02:10:32Z</time>
      </trkpt>
      <trkpt lat="44.1579" lon="6.61149">
        <ele>1306</ele>
        <time>2021-11-16T02:10:36Z</time>
      </trkpt>
      <trkpt lat="44.15783" lon="6.61111">
        <ele>1299</ele>
        <time>2021-11-16T02:10:42Z</time>
      </trkpt>
      <trkpt lat="44.1579" lon="6.61101">
        <ele>1296</ele>
        <time>2021-11-16T02:10:45Z</time>
      </trkpt>
      <trkpt lat="44.15793" lon="6.61084">
        <ele>1292</ele>
        <time>2021-11-16T02:10:48Z</time>
      </trkpt>
      <trkpt lat="44.15792" lon="6.61066">
        <ele>1288</ele>
        <time>2021-11-16T02:10:51Z</time>
      </trkpt>
      <trkpt lat="44.15787" lon="6.61048">
        <ele>1284</ele>
        <time>2021-11-16T02:10:54Z</time>
      </trkpt>
      <trkpt lat="44.15769" lon="6.61015">
        <ele>1279</ele>
        <time>2021-11-16T02:11:01Z</time>
      </trkpt>
      <trkpt lat="44.15753" lon="6.61">
        <ele>1278</ele>
        <time>2021-11-16T02:11:05Z</time>
      </trkpt>
      <trkpt lat="44.15745" lon="6.60998">
        <ele>1279</ele>
        <time>2021-11-16T02:11:07Z</time>
      </trkpt>
      <trkpt lat="44.15712" lon="6.60974">
        <ele>1281</ele>
        <time>2021-11-16T02:11:16Z</time>
      </trkpt>
      <trkpt lat="44.15699" lon="6.60957">
        <ele>1280</ele>
        <time>2021-11-16T02:11:20Z</time>
      </trkpt>
      <trkpt lat="44.15695" lon="6.60934">
        <ele>1277</ele>
        <time>2021-11-16T02:11:24Z</time>
      </trkpt>
      <trkpt lat="44.1568" lon="6.60897">
        <ele>1274</ele>
        <time>2021-11-16T02:11:31Z</time>
      </trkpt>
      <trkpt lat="44.1567" lon="6.60891">
        <ele>1276</ele>
        <time>2021-11-16T02:11:34Z</time>
      </trkpt>
      <trkpt lat="44.15665" lon="6.60883">
        <ele>1276</ele>
        <time>2021-11-16T02:11:36Z</time>
      </trkpt>
      <trkpt lat="44.15674" lon="6.60821">
        <ele>1264</ele>
        <time>2021-11-16T02:11:46Z</time>
      </trkpt>
      <trkpt lat="44.15656" lon="6.60802">
        <ele>1265</ele>
        <time>2021-11-16T02:11:52Z</time>
      </trkpt>
      <trkpt lat="44.15644" lon="6.60764">
        <ele>1261</ele>
        <time>2021-11-16T02:11:58Z</time>
      </trkpt>
      <trkpt lat="44.15633" lon="6.60739">
        <ele>1258</ele>
        <time>2021-11-16T02:12:03Z</time>
      </trkpt>
      <trkpt lat="44.15626" lon="6.6073">
        <ele>1258</ele>
        <time>2021-11-16T02:12:06Z</time>
      </trkpt>
      <trkpt lat="44.15613" lon="6.60695">
        <ele>1254</ele>
        <time>2021-11-16T02:12:12Z</time>
      </trkpt>
      <trkpt lat="44.15579" lon="6.60655">
        <ele>1249</ele>
        <time>2021-11-16T02:12:23Z</time>
      </trkpt>
      <trkpt lat="44.15543" lon="6.60629">
        <ele>1242</ele>
        <time>2021-11-16T02:12:32Z</time>
      </trkpt>
      <trkpt lat="44.15511" lon="6.60617">
        <ele>1240</ele>
        <time>2021-11-16T02:12:40Z</time>
      </trkpt>
      <trkpt lat="44.15488" lon="6.60594">
        <ele>1235</ele>
        <time>2021-11-16T02:12:46Z</time>
      </trkpt>
      <trkpt lat="44.15454" lon="6.60523">
        <ele>1225</ele>
        <time>2021-11-16T02:13:01Z</time>
      </trkpt>
      <trkpt lat="44.15431" lon="6.60485">
        <ele>1223</ele>
        <time>2021-11-16T02:13:09Z</time>
      </trkpt>
      <trkpt lat="44.15429" lon="6.60466">
        <ele>1219</ele>
        <time>2021-11-16T02:13:12Z</time>
      </trkpt>
      <trkpt lat="44.15423" lon="6.60449">
        <ele>1217</ele>
        <time>2021-11-16T02:13:15Z</time>
      </trkpt>
      <trkpt lat="44.15409" lon="6.60434">
        <ele>1217</ele>
        <time>2021-11-16T02:13:20Z</time>
      </trkpt>
      <trkpt lat="44.15387" lon="6.60417">
        <ele>1217</ele>
        <time>2021-11-16T02:13:25Z</time>
      </trkpt>
      <trkpt lat="44.15371" lon="6.60408">
        <ele>1217</ele>
        <time>2021-11-16T02:13:29Z</time>
      </trkpt>
      <trkpt lat="44.15348" lon="6.604">
        <ele>1220</ele>
        <time>2021-11-16T02:13:35Z</time>
      </trkpt>
      <trkpt lat="44.15302" lon="6.60362">
        <ele>1220</ele>
        <time>2021-11-16T02:13:47Z</time>
      </trkpt>
      <trkpt lat="44.15263" lon="6.60336">
        <ele>1219</ele>
        <time>2021-11-16T02:13:58Z</time>
      </trkpt>
      <trkpt lat="44.15239" lon="6.60323">
        <ele>1219</ele>
        <time>2021-11-16T02:14:04Z</time>
      </trkpt>
      <trkpt lat="44.15186" lon="6.60265">
        <ele>1211</ele>
        <time>2021-11-16T02:14:19Z</time>
      </trkpt>
      <trkpt lat="44.1518" lon="6.60251">
        <ele>1208</ele>
        <time>2021-11-16T02:14:22Z</time>
      </trkpt>
      <trkpt lat="44.15158" lon="6.60225">
        <ele>1202</ele>
        <time>2021-11-16T02:14:29Z</time>
      </trkpt>
      <trkpt lat="44.15127" lon="6.60201">
        <ele>1199</ele>
        <time>2021-11-16T02:14:37Z</time>
      </trkpt>
      <trkpt lat="44.1508" lon="6.60189">
        <ele>1203</ele>
        <time>2021-11-16T02:14:48Z</time>
      </trkpt>
      <trkpt lat="44.15045" lon="6.60199">
        <ele>1208</ele>
        <time>2021-11-16T02:14:57Z</time>
      </trkpt>
      <trkpt lat="44.15024" lon="6.60211">
        <ele>1212</ele>
        <time>2021-11-16T02:15:02Z</time>
      </trkpt>
      <trkpt lat="44.14994" lon="6.60199">
        <ele>1210</ele>
        <time>2021-11-16T02:15:09Z</time>
      </trkpt>
      <trkpt lat="44.14969" lon="6.60203">
        <ele>1215</ele>
        <time>2021-11-16T02:15:15Z</time>
      </trkpt>
      <trkpt lat="44.14948" lon="6.602">
        <ele>1218</ele>
        <time>2021-11-16T02:15:20Z</time>
      </trkpt>
      <trkpt lat="44.14922" lon="6.60191">
        <ele>1219</ele>
        <time>2021-11-16T02:15:26Z</time>
      </trkpt>
      <trkpt lat="44.14904" lon="6.60178">
        <ele>1219</ele>
        <time>2021-11-16T02:15:31Z</time>
      </trkpt>
      <trkpt lat="44.14894" lon="6.6016">
        <ele>1217</ele>
        <time>2021-11-16T02:15:35Z</time>
      </trkpt>
      <trkpt lat="44.14896" lon="6.60147">
        <ele>1214</ele>
        <time>2021-11-16T02:15:37Z</time>
      </trkpt>
      <trkpt lat="44.14893" lon="6.60128">
        <ele>1210</ele>
        <time>2021-11-16T02:15:40Z</time>
      </trkpt>
      <trkpt lat="44.14856" lon="6.6009">
        <ele>1211</ele>
        <time>2021-11-16T02:15:51Z</time>
      </trkpt>
      <trkpt lat="44.14832" lon="6.60061">
        <ele>1207</ele>
        <time>2021-11-16T02:15:58Z</time>
      </trkpt>
      <trkpt lat="44.14779" lon="6.60035">
        <ele>1208</ele>
        <time>2021-11-16T02:16:12Z</time>
      </trkpt>
      <trkpt lat="44.14736" lon="6.59995">
        <ele>1204</ele>
        <time>2021-11-16T02:16:24Z</time>
      </trkpt>
      <trkpt lat="44.147" lon="6.59972">
        <ele>1203</ele>
        <time>2021-11-16T02:16:33Z</time>
      </trkpt>
      <trkpt lat="44.1469" lon="6.59963">
        <ele>1201</ele>
        <time>2021-11-16T02:16:36Z</time>
      </trkpt>
      <trkpt lat="44.14593" lon="6.59905">
        <ele>1195</ele>
        <time>2021-11-16T02:17:00Z</time>
      </trkpt>
      <trkpt lat="44.14483" lon="6.59832">
        <ele>1189</ele>
        <time>2021-11-16T02:17:29Z</time>
      </trkpt>
      <trkpt lat="44.14449" lon="6.59813">
        <ele>1190</ele>
        <time>2021-11-16T02:17:37Z</time>
      </trkpt>
      <trkpt lat="44.14371" lon="6.59741">
        <ele>1180</ele>
        <time>2021-11-16T02:17:59Z</time>
      </trkpt>
      <trkpt lat="44.14344" lon="6.59709">
        <ele>1174</ele>
        <time>2021-11-16T02:18:07Z</time>
      </trkpt>
      <trkpt lat="44.14319" lon="6.59689">
        <ele>1170</ele>
        <time>2021-11-16T02:18:14Z</time>
      </trkpt>
      <trkpt lat="44.14302" lon="6.59682">
        <ele>1169</ele>
        <time>2021-11-16T02:18:18Z</time>
      </trkpt>
      <trkpt lat="44.14291" lon="6.59637">
        <ele>1162</ele>
        <time>2021-11-16T02:18:26Z</time>
      </trkpt>
      <trkpt lat="44.1426" lon="6.59608">
        <ele>1158</ele>
        <time>2021-11-16T02:18:35Z</time>
      </trkpt>
    </trkseg>
  </trk>
  <trk>
    <name><![CDATA[J1 - RUN 2]]></name>
    <desc><![CDATA[Patrimoine/Géologie : Le Verdon]]></desc>
    <extensions>
      <line xmlns="http://www.topografix.com/GPX/gpx_style/0/2">
        <color>00FF00</color>
        <width>4</width>
          <extensions>
            <sens>1</sens>
          </extensions>
      </line>
    </extensions>
    <trkseg>
      <trkpt lat="44.1426" lon="6.59608">
        <ele>1158</ele>
        <time>2021-11-16T02:18:35Z</time>
      </trkpt>
      <trkpt lat="44.14218" lon="6.59585">
        <ele>1155</ele>
        <time>2021-11-16T02:18:46Z</time>
      </trkpt>
      <trkpt lat="44.14099" lon="6.59548">
        <ele>1155</ele>
        <time>2021-11-16T02:19:14Z</time>
      </trkpt>
      <trkpt lat="44.14068" lon="6.59545">
        <ele>1156</ele>
        <time>2021-11-16T02:19:21Z</time>
      </trkpt>
      <trkpt lat="44.13962" lon="6.59544">
        <ele>1161</ele>
        <time>2021-11-16T02:19:46Z</time>
      </trkpt>
      <trkpt lat="44.13943" lon="6.5954">
        <ele>1162</ele>
        <time>2021-11-16T02:19:51Z</time>
      </trkpt>
      <trkpt lat="44.13897" lon="6.5954">
        <ele>1168</ele>
        <time>2021-11-16T02:20:01Z</time>
      </trkpt>
      <trkpt lat="44.1387" lon="6.59529">
        <ele>1170</ele>
        <time>2021-11-16T02:20:08Z</time>
      </trkpt>
      <trkpt lat="44.13845" lon="6.59501">
        <ele>1166</ele>
        <time>2021-11-16T02:20:15Z</time>
      </trkpt>
      <trkpt lat="44.13816" lon="6.59479">
        <ele>1165</ele>
        <time>2021-11-16T02:20:23Z</time>
      </trkpt>
      <trkpt lat="44.13788" lon="6.59453">
        <ele>1163</ele>
        <time>2021-11-16T02:20:31Z</time>
      </trkpt>
      <trkpt lat="44.13761" lon="6.59433">
        <ele>1162</ele>
        <time>2021-11-16T02:20:38Z</time>
      </trkpt>
      <trkpt lat="44.13726" lon="6.59412">
        <ele>1164</ele>
        <time>2021-11-16T02:20:47Z</time>
      </trkpt>
      <trkpt lat="44.13663" lon="6.59365">
        <ele>1169</ele>
        <time>2021-11-16T02:21:04Z</time>
      </trkpt>
      <trkpt lat="44.13657" lon="6.59353">
        <ele>1168</ele>
        <time>2021-11-16T02:21:06Z</time>
      </trkpt>
      <trkpt lat="44.1366" lon="6.59335">
        <ele>1164</ele>
        <time>2021-11-16T02:21:09Z</time>
      </trkpt>
      <trkpt lat="44.1365" lon="6.59335">
        <ele>1166</ele>
        <time>2021-11-16T02:21:11Z</time>
      </trkpt>
      <trkpt lat="44.13648" lon="6.59337">
        <ele>1167</ele>
        <time>2021-11-16T02:21:12Z</time>
      </trkpt>
      <trkpt lat="44.13633" lon="6.59319">
        <ele>1167</ele>
        <time>2021-11-16T02:21:17Z</time>
      </trkpt>
      <trkpt lat="44.13621" lon="6.59313">
        <ele>1168</ele>
        <time>2021-11-16T02:21:20Z</time>
      </trkpt>
      <trkpt lat="44.1361" lon="6.59298">
        <ele>1167</ele>
        <time>2021-11-16T02:21:23Z</time>
      </trkpt>
      <trkpt lat="44.13585" lon="6.59246">
        <ele>1159</ele>
        <time>2021-11-16T02:21:34Z</time>
      </trkpt>
      <trkpt lat="44.13577" lon="6.59239">
        <ele>1158</ele>
        <time>2021-11-16T02:21:36Z</time>
      </trkpt>
      <trkpt lat="44.13557" lon="6.59228">
        <ele>1159</ele>
        <time>2021-11-16T02:21:41Z</time>
      </trkpt>
      <trkpt lat="44.13551" lon="6.59216">
        <ele>1157</ele>
        <time>2021-11-16T02:21:43Z</time>
      </trkpt>
      <trkpt lat="44.13541" lon="6.59206">
        <ele>1155</ele>
        <time>2021-11-16T02:21:46Z</time>
      </trkpt>
      <trkpt lat="44.13507" lon="6.59182">
        <ele>1154</ele>
        <time>2021-11-16T02:21:55Z</time>
      </trkpt>
      <trkpt lat="44.13439" lon="6.59177">
        <ele>1155</ele>
        <time>2021-11-16T02:22:11Z</time>
      </trkpt>
      <trkpt lat="44.13423" lon="6.59172">
        <ele>1154</ele>
        <time>2021-11-16T02:22:15Z</time>
      </trkpt>
      <trkpt lat="44.13417" lon="6.59167">
        <ele>1153</ele>
        <time>2021-11-16T02:22:17Z</time>
      </trkpt>
      <trkpt lat="44.13395" lon="6.59164">
        <ele>1154</ele>
        <time>2021-11-16T02:22:22Z</time>
      </trkpt>
      <trkpt lat="44.13376" lon="6.59169">
        <ele>1156</ele>
        <time>2021-11-16T02:22:26Z</time>
      </trkpt>
      <trkpt lat="44.13275" lon="6.59164">
        <ele>1158</ele>
        <time>2021-11-16T02:22:50Z</time>
      </trkpt>
      <trkpt lat="44.13235" lon="6.59179">
        <ele>1160</ele>
        <time>2021-11-16T02:23:00Z</time>
      </trkpt>
      <trkpt lat="44.13197" lon="6.59197">
        <ele>1163</ele>
        <time>2021-11-16T02:23:09Z</time>
      </trkpt>
      <trkpt lat="44.13146" lon="6.59237">
        <ele>1167</ele>
        <time>2021-11-16T02:23:23Z</time>
      </trkpt>
      <trkpt lat="44.13132" lon="6.59239">
        <ele>1168</ele>
        <time>2021-11-16T02:23:26Z</time>
      </trkpt>
      <trkpt lat="44.13117" lon="6.59237">
        <ele>1169</ele>
        <time>2021-11-16T02:23:29Z</time>
      </trkpt>
      <trkpt lat="44.13101" lon="6.59238">
        <ele>1171</ele>
        <time>2021-11-16T02:23:33Z</time>
      </trkpt>
      <trkpt lat="44.13073" lon="6.59246">
        <ele>1173</ele>
        <time>2021-11-16T02:23:40Z</time>
      </trkpt>
      <trkpt lat="44.13043" lon="6.59249">
        <ele>1175</ele>
        <time>2021-11-16T02:23:47Z</time>
      </trkpt>
      <trkpt lat="44.13019" lon="6.59243">
        <ele>1176</ele>
        <time>2021-11-16T02:23:52Z</time>
      </trkpt>
      <trkpt lat="44.12997" lon="6.59232">
        <ele>1177</ele>
        <time>2021-11-16T02:23:58Z</time>
      </trkpt>
      <trkpt lat="44.1299" lon="6.59222">
        <ele>1176</ele>
        <time>2021-11-16T02:24:00Z</time>
      </trkpt>
      <trkpt lat="44.12957" lon="6.59199">
        <ele>1173</ele>
        <time>2021-11-16T02:24:09Z</time>
      </trkpt>
      <trkpt lat="44.12953" lon="6.59192">
        <ele>1172</ele>
        <time>2021-11-16T02:24:10Z</time>
      </trkpt>
      <trkpt lat="44.12953" lon="6.59169">
        <ele>1170</ele>
        <time>2021-11-16T02:24:14Z</time>
      </trkpt>
      <trkpt lat="44.12948" lon="6.59168">
        <ele>1170</ele>
        <time>2021-11-16T02:24:15Z</time>
      </trkpt>
      <trkpt lat="44.12938" lon="6.5919">
        <ele>1171</ele>
        <time>2021-11-16T02:24:20Z</time>
      </trkpt>
      <trkpt lat="44.12912" lon="6.59226">
        <ele>1174</ele>
        <time>2021-11-16T02:24:28Z</time>
      </trkpt>
      <trkpt lat="44.12882" lon="6.59262">
        <ele>1177</ele>
        <time>2021-11-16T02:24:38Z</time>
      </trkpt>
      <trkpt lat="44.12866" lon="6.59264">
        <ele>1177</ele>
        <time>2021-11-16T02:24:41Z</time>
      </trkpt>
      <trkpt lat="44.12859" lon="6.59247">
        <ele>1176</ele>
        <time>2021-11-16T02:24:45Z</time>
      </trkpt>
      <trkpt lat="44.12855" lon="6.59228">
        <ele>1175</ele>
        <time>2021-11-16T02:24:48Z</time>
      </trkpt>
      <trkpt lat="44.12854" lon="6.59208">
        <ele>1173</ele>
        <time>2021-11-16T02:24:51Z</time>
      </trkpt>
      <trkpt lat="44.12872" lon="6.59141">
        <ele>1170</ele>
        <time>2021-11-16T02:25:03Z</time>
      </trkpt>
      <trkpt lat="44.12892" lon="6.59124">
        <ele>1168</ele>
        <time>2021-11-16T02:25:09Z</time>
      </trkpt>
      <trkpt lat="44.12905" lon="6.59106">
        <ele>1167</ele>
        <time>2021-11-16T02:25:13Z</time>
      </trkpt>
      <trkpt lat="44.12904" lon="6.59061">
        <ele>1166</ele>
        <time>2021-11-16T02:25:21Z</time>
      </trkpt>
      <trkpt lat="44.12908" lon="6.59024">
        <ele>1165</ele>
        <time>2021-11-16T02:25:27Z</time>
      </trkpt>
      <trkpt lat="44.129" lon="6.59002">
        <ele>1165</ele>
        <time>2021-11-16T02:25:31Z</time>
      </trkpt>
      <trkpt lat="44.12878" lon="6.58978">
        <ele>1166</ele>
        <time>2021-11-16T02:25:38Z</time>
      </trkpt>
      <trkpt lat="44.1287" lon="6.58962">
        <ele>1165</ele>
        <time>2021-11-16T02:25:41Z</time>
      </trkpt>
      <trkpt lat="44.12863" lon="6.5894">
        <ele>1165</ele>
        <time>2021-11-16T02:25:45Z</time>
      </trkpt>
      <trkpt lat="44.12851" lon="6.58931">
        <ele>1165</ele>
        <time>2021-11-16T02:25:48Z</time>
      </trkpt>
      <trkpt lat="44.12832" lon="6.58928">
        <ele>1166</ele>
        <time>2021-11-16T02:25:53Z</time>
      </trkpt>
      <trkpt lat="44.12791" lon="6.58915">
        <ele>1169</ele>
        <time>2021-11-16T02:26:02Z</time>
      </trkpt>
      <trkpt lat="44.12738" lon="6.58882">
        <ele>1171</ele>
        <time>2021-11-16T02:26:16Z</time>
      </trkpt>
      <trkpt lat="44.12612" lon="6.58789">
        <ele>1164</ele>
        <time>2021-11-16T02:26:49Z</time>
      </trkpt>
      <trkpt lat="44.12575" lon="6.58746">
        <ele>1160</ele>
        <time>2021-11-16T02:27:00Z</time>
      </trkpt>
      <trkpt lat="44.12522" lon="6.58693">
        <ele>1161</ele>
        <time>2021-11-16T02:27:16Z</time>
      </trkpt>
      <trkpt lat="44.12479" lon="6.58665">
        <ele>1160</ele>
        <time>2021-11-16T02:27:27Z</time>
      </trkpt>
      <trkpt lat="44.12448" lon="6.58651">
        <ele>1159</ele>
        <time>2021-11-16T02:27:34Z</time>
      </trkpt>
      <trkpt lat="44.12432" lon="6.5863">
        <ele>1157</ele>
        <time>2021-11-16T02:27:40Z</time>
      </trkpt>
      <trkpt lat="44.12424" lon="6.58611">
        <ele>1154</ele>
        <time>2021-11-16T02:27:43Z</time>
      </trkpt>
      <trkpt lat="44.12404" lon="6.58587">
        <ele>1152</ele>
        <time>2021-11-16T02:27:49Z</time>
      </trkpt>
      <trkpt lat="44.12396" lon="6.58584">
        <ele>1152</ele>
        <time>2021-11-16T02:27:51Z</time>
      </trkpt>
      <trkpt lat="44.12336" lon="6.58543">
        <ele>1149</ele>
        <time>2021-11-16T02:28:07Z</time>
      </trkpt>
      <trkpt lat="44.12324" lon="6.58517">
        <ele>1145</ele>
        <time>2021-11-16T02:28:12Z</time>
      </trkpt>
      <trkpt lat="44.12323" lon="6.58506">
        <ele>1144</ele>
        <time>2021-11-16T02:28:14Z</time>
      </trkpt>
      <trkpt lat="44.12316" lon="6.58486">
        <ele>1140</ele>
        <time>2021-11-16T02:28:18Z</time>
      </trkpt>
      <trkpt lat="44.12295" lon="6.58465">
        <ele>1137</ele>
        <time>2021-11-16T02:28:24Z</time>
      </trkpt>
      <trkpt lat="44.12243" lon="6.58449">
        <ele>1136</ele>
        <time>2021-11-16T02:28:36Z</time>
      </trkpt>
      <trkpt lat="44.12216" lon="6.58447">
        <ele>1135</ele>
        <time>2021-11-16T02:28:42Z</time>
      </trkpt>
      <trkpt lat="44.12177" lon="6.5844">
        <ele>1132</ele>
        <time>2021-11-16T02:28:52Z</time>
      </trkpt>
      <trkpt lat="44.1215" lon="6.58455">
        <ele>1134</ele>
        <time>2021-11-16T02:28:58Z</time>
      </trkpt>
      <trkpt lat="44.12136" lon="6.58476">
        <ele>1138</ele>
        <time>2021-11-16T02:29:03Z</time>
      </trkpt>
      <trkpt lat="44.12116" lon="6.5849">
        <ele>1141</ele>
        <time>2021-11-16T02:29:08Z</time>
      </trkpt>
      <trkpt lat="44.12106" lon="6.58476">
        <ele>1138</ele>
        <time>2021-11-16T02:29:12Z</time>
      </trkpt>
      <trkpt lat="44.12103" lon="6.58463">
        <ele>1135</ele>
        <time>2021-11-16T02:29:14Z</time>
      </trkpt>
      <trkpt lat="44.12089" lon="6.58439">
        <ele>1129</ele>
        <time>2021-11-16T02:29:19Z</time>
      </trkpt>
      <trkpt lat="44.12064" lon="6.5844">
        <ele>1129</ele>
        <time>2021-11-16T02:29:25Z</time>
      </trkpt>
      <trkpt lat="44.12021" lon="6.58447">
        <ele>1130</ele>
        <time>2021-11-16T02:29:35Z</time>
      </trkpt>
      <trkpt lat="44.11984" lon="6.58446">
        <ele>1130</ele>
        <time>2021-11-16T02:29:44Z</time>
      </trkpt>
      <trkpt lat="44.11954" lon="6.58436">
        <ele>1129</ele>
        <time>2021-11-16T02:29:51Z</time>
      </trkpt>
      <trkpt lat="44.11869" lon="6.58394">
        <ele>1123</ele>
        <time>2021-11-16T02:30:12Z</time>
      </trkpt>
      <trkpt lat="44.1184" lon="6.58391">
        <ele>1124</ele>
        <time>2021-11-16T02:30:19Z</time>
      </trkpt>
      <trkpt lat="44.11733" lon="6.58414">
        <ele>1121</ele>
        <time>2021-11-16T02:30:44Z</time>
      </trkpt>
      <trkpt lat="44.11711" lon="6.58421">
        <ele>1122</ele>
        <time>2021-11-16T02:30:49Z</time>
      </trkpt>
      <trkpt lat="44.11685" lon="6.58419">
        <ele>1121</ele>
        <time>2021-11-16T02:30:56Z</time>
      </trkpt>
      <trkpt lat="44.11653" lon="6.58406">
        <ele>1119</ele>
        <time>2021-11-16T02:31:03Z</time>
      </trkpt>
      <trkpt lat="44.11632" lon="6.58409">
        <ele>1119</ele>
        <time>2021-11-16T02:31:08Z</time>
      </trkpt>
      <trkpt lat="44.11613" lon="6.58404">
        <ele>1119</ele>
        <time>2021-11-16T02:31:13Z</time>
      </trkpt>
      <trkpt lat="44.1158" lon="6.58372">
        <ele>1117</ele>
        <time>2021-11-16T02:31:22Z</time>
      </trkpt>
      <trkpt lat="44.11535" lon="6.58318">
        <ele>1115</ele>
        <time>2021-11-16T02:31:36Z</time>
      </trkpt>
      <trkpt lat="44.11516" lon="6.58307">
        <ele>1115</ele>
        <time>2021-11-16T02:31:41Z</time>
      </trkpt>
      <trkpt lat="44.1148" lon="6.58302">
        <ele>1116</ele>
        <time>2021-11-16T02:31:49Z</time>
      </trkpt>
      <trkpt lat="44.11452" lon="6.58314">
        <ele>1117</ele>
        <time>2021-11-16T02:31:56Z</time>
      </trkpt>
      <trkpt lat="44.1143" lon="6.58316">
        <ele>1117</ele>
        <time>2021-11-16T02:32:01Z</time>
      </trkpt>
      <trkpt lat="44.11416" lon="6.58301">
        <ele>1117</ele>
        <time>2021-11-16T02:32:05Z</time>
      </trkpt>
      <trkpt lat="44.11409" lon="6.58246">
        <ele>1113</ele>
        <time>2021-11-16T02:32:15Z</time>
      </trkpt>
      <trkpt lat="44.11369" lon="6.5817">
        <ele>1109</ele>
        <time>2021-11-16T02:32:31Z</time>
      </trkpt>
      <trkpt lat="44.11353" lon="6.58153">
        <ele>1107</ele>
        <time>2021-11-16T02:32:35Z</time>
      </trkpt>
      <trkpt lat="44.11318" lon="6.58134">
        <ele>1104</ele>
        <time>2021-11-16T02:32:44Z</time>
      </trkpt>
      <trkpt lat="44.11294" lon="6.58133">
        <ele>1103</ele>
        <time>2021-11-16T02:32:50Z</time>
      </trkpt>
      <trkpt lat="44.11267" lon="6.58124">
        <ele>1101</ele>
        <time>2021-11-16T02:32:56Z</time>
      </trkpt>
      <trkpt lat="44.11269" lon="6.58113">
        <ele>1100</ele>
        <time>2021-11-16T02:32:58Z</time>
      </trkpt>
      <trkpt lat="44.11296" lon="6.581">
        <ele>1100</ele>
        <time>2021-11-16T02:33:05Z</time>
      </trkpt>
      <trkpt lat="44.11308" lon="6.58067">
        <ele>1098</ele>
        <time>2021-11-16T02:33:11Z</time>
      </trkpt>
      <trkpt lat="44.1131" lon="6.57933">
        <ele>1098</ele>
        <time>2021-11-16T02:33:33Z</time>
      </trkpt>
      <trkpt lat="44.11304" lon="6.57926">
        <ele>1098</ele>
        <time>2021-11-16T02:33:35Z</time>
      </trkpt>
      <trkpt lat="44.11288" lon="6.57926">
        <ele>1098</ele>
        <time>2021-11-16T02:33:39Z</time>
      </trkpt>
      <trkpt lat="44.11262" lon="6.5792">
        <ele>1099</ele>
        <time>2021-11-16T02:33:45Z</time>
      </trkpt>
      <trkpt lat="44.11201" lon="6.57918">
        <ele>1098</ele>
        <time>2021-11-16T02:33:59Z</time>
      </trkpt>
      <trkpt lat="44.11144" lon="6.57913">
        <ele>1097</ele>
        <time>2021-11-16T02:34:13Z</time>
      </trkpt>
      <trkpt lat="44.11105" lon="6.57903">
        <ele>1096</ele>
        <time>2021-11-16T02:34:22Z</time>
      </trkpt>
      <trkpt lat="44.11067" lon="6.57884">
        <ele>1096</ele>
        <time>2021-11-16T02:34:31Z</time>
      </trkpt>
      <trkpt lat="44.11027" lon="6.57855">
        <ele>1097</ele>
        <time>2021-11-16T02:34:42Z</time>
      </trkpt>
      <trkpt lat="44.10983" lon="6.5781">
        <ele>1098</ele>
        <time>2021-11-16T02:34:55Z</time>
      </trkpt>
      <trkpt lat="44.10939" lon="6.57742">
        <ele>1096</ele>
        <time>2021-11-16T02:35:10Z</time>
      </trkpt>
      <trkpt lat="44.10848" lon="6.57587">
        <ele>1094</ele>
        <time>2021-11-16T02:35:44Z</time>
      </trkpt>
      <trkpt lat="44.10845" lon="6.57581">
        <ele>1095</ele>
        <time>2021-11-16T02:35:45Z</time>
      </trkpt>
      <trkpt lat="44.10854" lon="6.57576">
        <ele>1097</ele>
        <time>2021-11-16T02:35:47Z</time>
      </trkpt>
      <trkpt lat="44.10845" lon="6.57567">
        <ele>1097</ele>
        <time>2021-11-16T02:35:50Z</time>
      </trkpt>
      <trkpt lat="44.10815" lon="6.57524">
        <ele>1098</ele>
        <time>2021-11-16T02:36:00Z</time>
      </trkpt>
      <trkpt lat="44.10744" lon="6.57431">
        <ele>1095</ele>
        <time>2021-11-16T02:36:22Z</time>
      </trkpt>
      <trkpt lat="44.10637" lon="6.57309">
        <ele>1096</ele>
        <time>2021-11-16T02:36:55Z</time>
      </trkpt>
      <trkpt lat="44.10589" lon="6.57263">
        <ele>1094</ele>
        <time>2021-11-16T02:37:08Z</time>
      </trkpt>
      <trkpt lat="44.10549" lon="6.572">
        <ele>1099</ele>
        <time>2021-11-16T02:37:22Z</time>
      </trkpt>
      <trkpt lat="44.10516" lon="6.57154">
        <ele>1100</ele>
        <time>2021-11-16T02:37:33Z</time>
      </trkpt>
      <trkpt lat="44.10471" lon="6.57105">
        <ele>1102</ele>
        <time>2021-11-16T02:37:47Z</time>
      </trkpt>
      <trkpt lat="44.10426" lon="6.57046">
        <ele>1102</ele>
        <time>2021-11-16T02:38:01Z</time>
      </trkpt>
      <trkpt lat="44.10387" lon="6.56985">
        <ele>1103</ele>
        <time>2021-11-16T02:38:15Z</time>
      </trkpt>
    </trkseg>
  </trk>
  <trk>
    <name><![CDATA[J1 - RUN 3 - Valentin]]></name>
    <desc><![CDATA[Patrimoine : Thorame-Haute]]></desc>
    <extensions>
      <line xmlns="http://www.topografix.com/GPX/gpx_style/0/2">
        <color>FF0000</color>
        <width>4</width>
          <extensions>
            <sens>1</sens>
          </extensions>
      </line>
    </extensions>
    <trkseg>
      <trkpt lat="44.10387" lon="6.56985">
        <ele>1103</ele>
        <time>2021-11-16T02:38:15Z</time>
      </trkpt>
      <trkpt lat="44.10376" lon="6.56954">
        <ele>1107</ele>
        <time>2021-11-16T02:38:21Z</time>
      </trkpt>
      <trkpt lat="44.10364" lon="6.56929">
        <ele>1109</ele>
        <time>2021-11-16T02:38:26Z</time>
      </trkpt>
      <trkpt lat="44.10286" lon="6.56839">
        <ele>1110</ele>
        <time>2021-11-16T02:38:49Z</time>
      </trkpt>
      <trkpt lat="44.10208" lon="6.56727">
        <ele>1110</ele>
        <time>2021-11-16T02:39:15Z</time>
      </trkpt>
      <trkpt lat="44.10186" lon="6.5669">
        <ele>1113</ele>
        <time>2021-11-16T02:39:24Z</time>
      </trkpt>
      <trkpt lat="44.10118" lon="6.56602">
        <ele>1114</ele>
        <time>2021-11-16T02:39:45Z</time>
      </trkpt>
      <trkpt lat="44.101" lon="6.56568">
        <ele>1116</ele>
        <time>2021-11-16T02:39:52Z</time>
      </trkpt>
      <trkpt lat="44.10055" lon="6.56522">
        <ele>1118</ele>
        <time>2021-11-16T02:40:05Z</time>
      </trkpt>
      <trkpt lat="44.10033" lon="6.56496">
        <ele>1118</ele>
        <time>2021-11-16T02:40:12Z</time>
      </trkpt>
      <trkpt lat="44.09997" lon="6.56426">
        <ele>1122</ele>
        <time>2021-11-16T02:40:27Z</time>
      </trkpt>
      <trkpt lat="44.09968" lon="6.56392">
        <ele>1123</ele>
        <time>2021-11-16T02:40:35Z</time>
      </trkpt>
      <trkpt lat="44.09848" lon="6.56282">
        <ele>1122</ele>
        <time>2021-11-16T02:41:09Z</time>
      </trkpt>
      <trkpt lat="44.09791" lon="6.56214">
        <ele>1121</ele>
        <time>2021-11-16T02:41:26Z</time>
      </trkpt>
      <trkpt lat="44.09698" lon="6.56065">
        <ele>1121</ele>
        <time>2021-11-16T02:42:00Z</time>
      </trkpt>
      <trkpt lat="44.09678" lon="6.56004">
        <ele>1122</ele>
        <time>2021-11-16T02:42:11Z</time>
      </trkpt>
      <trkpt lat="44.09676" lon="6.55975">
        <ele>1122</ele>
        <time>2021-11-16T02:42:16Z</time>
      </trkpt>
      <trkpt lat="44.09694" lon="6.55811">
        <ele>1130</ele>
        <time>2021-11-16T02:42:44Z</time>
      </trkpt>
      <trkpt lat="44.09694" lon="6.55699">
        <ele>1137</ele>
        <time>2021-11-16T02:43:02Z</time>
      </trkpt>
      <trkpt lat="44.09689" lon="6.55607">
        <ele>1144</ele>
        <time>2021-11-16T02:43:18Z</time>
      </trkpt>
      <trkpt lat="44.09682" lon="6.55594">
        <ele>1144</ele>
        <time>2021-11-16T02:43:21Z</time>
      </trkpt>
      <trkpt lat="44.09677" lon="6.5556">
        <ele>1145</ele>
        <time>2021-11-16T02:43:26Z</time>
      </trkpt>
      <trkpt lat="44.09666" lon="6.55544">
        <ele>1144</ele>
        <time>2021-11-16T02:43:30Z</time>
      </trkpt>
      <trkpt lat="44.09646" lon="6.55544">
        <ele>1143</ele>
        <time>2021-11-16T02:43:35Z</time>
      </trkpt>
      <trkpt lat="44.09604" lon="6.55564">
        <ele>1140</ele>
        <time>2021-11-16T02:43:45Z</time>
      </trkpt>
      <trkpt lat="44.09564" lon="6.55588">
        <ele>1136</ele>
        <time>2021-11-16T02:43:55Z</time>
      </trkpt>
      <trkpt lat="44.09544" lon="6.55597">
        <ele>1135</ele>
        <time>2021-11-16T02:44:00Z</time>
      </trkpt>
      <trkpt lat="44.09507" lon="6.55621">
        <ele>1130</ele>
        <time>2021-11-16T02:44:10Z</time>
      </trkpt>
      <trkpt lat="44.09484" lon="6.55618">
        <ele>1129</ele>
        <time>2021-11-16T02:44:15Z</time>
      </trkpt>
      <trkpt lat="44.09461" lon="6.5561">
        <ele>1127</ele>
        <time>2021-11-16T02:44:21Z</time>
      </trkpt>
      <trkpt lat="44.09445" lon="6.55597">
        <ele>1125</ele>
        <time>2021-11-16T02:44:25Z</time>
      </trkpt>
      <trkpt lat="44.09429" lon="6.55575">
        <ele>1125</ele>
        <time>2021-11-16T02:44:30Z</time>
      </trkpt>
      <trkpt lat="44.09407" lon="6.55559">
        <ele>1126</ele>
        <time>2021-11-16T02:44:36Z</time>
      </trkpt>
      <trkpt lat="44.09385" lon="6.55556">
        <ele>1124</ele>
        <time>2021-11-16T02:44:41Z</time>
      </trkpt>
      <trkpt lat="44.09356" lon="6.55563">
        <ele>1121</ele>
        <time>2021-11-16T02:44:48Z</time>
      </trkpt>
      <trkpt lat="44.0934" lon="6.55579">
        <ele>1117</ele>
        <time>2021-11-16T02:44:53Z</time>
      </trkpt>
      <trkpt lat="44.09314" lon="6.55585">
        <ele>1115</ele>
        <time>2021-11-16T02:44:59Z</time>
      </trkpt>
      <trkpt lat="44.09269" lon="6.55571">
        <ele>1116</ele>
        <time>2021-11-16T02:45:10Z</time>
      </trkpt>
      <trkpt lat="44.09226" lon="6.55568">
        <ele>1113</ele>
        <time>2021-11-16T02:45:20Z</time>
      </trkpt>
      <trkpt lat="44.09196" lon="6.5556">
        <ele>1111</ele>
        <time>2021-11-16T02:45:27Z</time>
      </trkpt>
      <trkpt lat="44.09165" lon="6.55562">
        <ele>1108</ele>
        <time>2021-11-16T02:45:34Z</time>
      </trkpt>
      <trkpt lat="44.09137" lon="6.5556">
        <ele>1107</ele>
        <time>2021-11-16T02:45:41Z</time>
      </trkpt>
      <trkpt lat="44.09065" lon="6.55566">
        <ele>1104</ele>
        <time>2021-11-16T02:45:57Z</time>
      </trkpt>
      <trkpt lat="44.09039" lon="6.55565">
        <ele>1104</ele>
        <time>2021-11-16T02:46:03Z</time>
      </trkpt>
      <trkpt lat="44.09017" lon="6.55561">
        <ele>1104</ele>
        <time>2021-11-16T02:46:09Z</time>
      </trkpt>
      <trkpt lat="44.0893" lon="6.55564">
        <ele>1107</ele>
        <time>2021-11-16T02:46:29Z</time>
      </trkpt>
      <trkpt lat="44.0885" lon="6.55563">
        <ele>1112</ele>
        <time>2021-11-16T02:46:48Z</time>
      </trkpt>
      <trkpt lat="44.0883" lon="6.5557">
        <ele>1113</ele>
        <time>2021-11-16T02:46:52Z</time>
      </trkpt>
      <trkpt lat="44.08814" lon="6.55592">
        <ele>1113</ele>
        <time>2021-11-16T02:46:58Z</time>
      </trkpt>
      <trkpt lat="44.08786" lon="6.55651">
        <ele>1113</ele>
        <time>2021-11-16T02:47:10Z</time>
      </trkpt>
      <trkpt lat="44.08775" lon="6.55666">
        <ele>1113</ele>
        <time>2021-11-15T18:51:04Z</time>
      </trkpt>
      <trkpt lat="44.08743" lon="6.55702">
        <ele>1110</ele>
        <time>2021-11-15T18:51:13Z</time>
      </trkpt>
      <trkpt lat="44.08707" lon="6.55728">
        <ele>1106</ele>
        <time>2021-11-15T18:51:23Z</time>
      </trkpt>
      <trkpt lat="44.08673" lon="6.5574">
        <ele>1104</ele>
        <time>2021-11-15T18:51:31Z</time>
      </trkpt>
      <trkpt lat="44.08606" lon="6.55742">
        <ele>1109</ele>
        <time>2021-11-15T18:51:47Z</time>
      </trkpt>
      <trkpt lat="44.08596" lon="6.55748">
        <ele>1109</ele>
        <time>2021-11-15T18:51:49Z</time>
      </trkpt>
      <trkpt lat="44.08597" lon="6.55767">
        <ele>1107</ele>
        <time>2021-11-15T18:51:52Z</time>
      </trkpt>
      <trkpt lat="44.08594" lon="6.55797">
        <ele>1104</ele>
        <time>2021-11-15T18:51:57Z</time>
      </trkpt>
      <trkpt lat="44.08581" lon="6.55825">
        <ele>1102</ele>
        <time>2021-11-15T18:52:03Z</time>
      </trkpt>
      <trkpt lat="44.08559" lon="6.5585">
        <ele>1100</ele>
        <time>2021-11-15T18:52:10Z</time>
      </trkpt>
      <trkpt lat="44.08537" lon="6.55865">
        <ele>1099</ele>
        <time>2021-11-15T18:52:15Z</time>
      </trkpt>
      <trkpt lat="44.08514" lon="6.55876">
        <ele>1099</ele>
        <time>2021-11-15T18:52:21Z</time>
      </trkpt>
      <trkpt lat="44.08439" lon="6.55904">
        <ele>1099</ele>
        <time>2021-11-15T18:52:39Z</time>
      </trkpt>
      <trkpt lat="44.08422" lon="6.55925">
        <ele>1097</ele>
        <time>2021-11-15T18:52:44Z</time>
      </trkpt>
      <trkpt lat="44.08405" lon="6.55939">
        <ele>1097</ele>
        <time>2021-11-15T18:52:49Z</time>
      </trkpt>
      <trkpt lat="44.08384" lon="6.55948">
        <ele>1098</ele>
        <time>2021-11-15T18:52:54Z</time>
      </trkpt>
      <trkpt lat="44.08376" lon="6.55949">
        <ele>1099</ele>
        <time>2021-11-15T18:52:56Z</time>
      </trkpt>
      <trkpt lat="44.08352" lon="6.5597">
        <ele>1099</ele>
        <time>2021-11-15T18:53:03Z</time>
      </trkpt>
      <trkpt lat="44.08235" lon="6.5604">
        <ele>1099</ele>
        <time>2021-11-15T18:53:32Z</time>
      </trkpt>
      <trkpt lat="44.08219" lon="6.56056">
        <ele>1099</ele>
        <time>2021-11-15T18:53:37Z</time>
      </trkpt>
      <trkpt lat="44.08186" lon="6.56126">
        <ele>1095</ele>
        <time>2021-11-15T18:53:51Z</time>
      </trkpt>
      <trkpt lat="44.08169" lon="6.56147">
        <ele>1096</ele>
        <time>2021-11-15T18:53:56Z</time>
      </trkpt>
      <trkpt lat="44.08075" lon="6.56231">
        <ele>1088</ele>
        <time>2021-11-15T18:54:23Z</time>
      </trkpt>
      <trkpt lat="44.08019" lon="6.56254">
        <ele>1090</ele>
        <time>2021-11-15T18:54:36Z</time>
      </trkpt>
      <trkpt lat="44.07933" lon="6.56387">
        <ele>1078</ele>
        <time>2021-11-15T18:55:06Z</time>
      </trkpt>
      <trkpt lat="44.07889" lon="6.56473">
        <ele>1073</ele>
        <time>2021-11-15T18:55:24Z</time>
      </trkpt>
      <trkpt lat="44.07862" lon="6.56505">
        <ele>1072</ele>
        <time>2021-11-15T18:55:32Z</time>
      </trkpt>
      <trkpt lat="44.07809" lon="6.56547">
        <ele>1077</ele>
        <time>2021-11-15T18:55:46Z</time>
      </trkpt>
      <trkpt lat="44.07788" lon="6.56567">
        <ele>1079</ele>
        <time>2021-11-15T18:55:52Z</time>
      </trkpt>
      <trkpt lat="44.07759" lon="6.5662">
        <ele>1075</ele>
        <time>2021-11-15T18:56:04Z</time>
      </trkpt>
      <trkpt lat="44.07711" lon="6.56721">
        <ele>1070</ele>
        <time>2021-11-15T18:56:24Z</time>
      </trkpt>
      <trkpt lat="44.07696" lon="6.56745">
        <ele>1067</ele>
        <time>2021-11-15T18:56:29Z</time>
      </trkpt>
      <trkpt lat="44.07632" lon="6.56809">
        <ele>1064</ele>
        <time>2021-11-15T18:56:48Z</time>
      </trkpt>
      <trkpt lat="44.07625" lon="6.56822">
        <ele>1062</ele>
        <time>2021-11-15T18:56:50Z</time>
      </trkpt>
      <trkpt lat="44.07622" lon="6.5685">
        <ele>1057</ele>
        <time>2021-11-15T18:56:55Z</time>
      </trkpt>
      <trkpt lat="44.07625" lon="6.56928">
        <ele>1052</ele>
        <time>2021-11-15T18:57:08Z</time>
      </trkpt>
      <trkpt lat="44.07614" lon="6.56965">
        <ele>1055</ele>
        <time>2021-11-15T18:57:15Z</time>
      </trkpt>
      <trkpt lat="44.07551" lon="6.57051">
        <ele>1059</ele>
        <time>2021-11-15T18:57:35Z</time>
      </trkpt>
      <trkpt lat="44.07538" lon="6.57087">
        <ele>1060</ele>
        <time>2021-11-15T18:57:42Z</time>
      </trkpt>
      <trkpt lat="44.07538" lon="6.571">
        <ele>1063</ele>
        <time>2021-11-15T18:57:44Z</time>
      </trkpt>
      <trkpt lat="44.07541" lon="6.57114">
        <ele>1068</ele>
        <time>2021-11-15T18:57:47Z</time>
      </trkpt>
      <trkpt lat="44.07561" lon="6.57087">
        <ele>1066</ele>
        <time>2021-11-15T18:57:53Z</time>
      </trkpt>
      <trkpt lat="44.07585" lon="6.57083">
        <ele>1070</ele>
        <time>2021-11-15T18:57:59Z</time>
      </trkpt>
      <trkpt lat="44.07598" lon="6.57086">
        <ele>1074</ele>
        <time>2021-11-15T18:58:02Z</time>
      </trkpt>
      <trkpt lat="44.07613" lon="6.57085">
        <ele>1077</ele>
        <time>2021-11-15T18:58:06Z</time>
      </trkpt>
      <trkpt lat="44.07631" lon="6.57076">
        <ele>1079</ele>
        <time>2021-11-15T18:58:10Z</time>
      </trkpt>
      <trkpt lat="44.0763" lon="6.5709">
        <ele>1082</ele>
        <time>2021-11-15T18:58:12Z</time>
      </trkpt>
      <trkpt lat="44.0762" lon="6.5711">
        <ele>1087</ele>
        <time>2021-11-15T18:58:17Z</time>
      </trkpt>
      <trkpt lat="44.07647" lon="6.57101">
        <ele>1090</ele>
        <time>2021-11-15T18:58:23Z</time>
      </trkpt>
      <trkpt lat="44.07648" lon="6.57106">
        <ele>1092</ele>
        <time>2021-11-15T18:58:24Z</time>
      </trkpt>
      <trkpt lat="44.07631" lon="6.57134">
        <ele>1098</ele>
        <time>2021-11-15T18:58:30Z</time>
      </trkpt>
      <trkpt lat="44.07623" lon="6.57141">
        <ele>1098</ele>
        <time>2021-11-15T18:58:32Z</time>
      </trkpt>
      <trkpt lat="44.07582" lon="6.57194">
        <ele>1107</ele>
        <time>2021-11-15T18:58:45Z</time>
      </trkpt>
      <trkpt lat="44.07575" lon="6.57212">
        <ele>1111</ele>
        <time>2021-11-15T18:58:49Z</time>
      </trkpt>
      <trkpt lat="44.0756" lon="6.57219">
        <ele>1108</ele>
        <time>2021-11-15T18:58:52Z</time>
      </trkpt>
      <trkpt lat="44.07563" lon="6.57222">
        <ele>1110</ele>
        <time>2021-11-15T18:58:53Z</time>
      </trkpt>
      <trkpt lat="44.0757" lon="6.57221">
        <ele>1112</ele>
        <time>2021-11-15T18:58:55Z</time>
      </trkpt>
      <trkpt lat="44.07569" lon="6.57225">
        <ele>1113</ele>
        <time>2021-11-15T18:58:56Z</time>
      </trkpt>
      <trkpt lat="44.07554" lon="6.57238">
        <ele>1113</ele>
        <time>2021-11-15T18:59:00Z</time>
      </trkpt>
      <trkpt lat="44.0752" lon="6.57279">
        <ele>1118</ele>
        <time>2021-11-15T18:59:10Z</time>
      </trkpt>
      <trkpt lat="44.07502" lon="6.57309">
        <ele>1125</ele>
        <time>2021-11-15T18:59:17Z</time>
      </trkpt>
      <trkpt lat="44.07482" lon="6.57352">
        <ele>1137</ele>
        <time>2021-11-15T18:59:25Z</time>
      </trkpt>
      <trkpt lat="44.07473" lon="6.57363">
        <ele>1138</ele>
        <time>2021-11-15T18:59:28Z</time>
      </trkpt>
      <trkpt lat="44.07475" lon="6.57367">
        <ele>1141</ele>
        <time>2021-11-15T18:59:29Z</time>
      </trkpt>
      <trkpt lat="44.07512" lon="6.57347">
        <ele>1146</ele>
        <time>2021-11-15T18:59:38Z</time>
      </trkpt>
      <trkpt lat="44.07548" lon="6.57322">
        <ele>1147</ele>
        <time>2021-11-15T18:59:48Z</time>
      </trkpt>
      <trkpt lat="44.07564" lon="6.57317">
        <ele>1150</ele>
        <time>2021-11-15T18:59:52Z</time>
      </trkpt>
      <trkpt lat="44.07569" lon="6.57322">
        <ele>1154</ele>
        <time>2021-11-15T18:59:53Z</time>
      </trkpt>
      <trkpt lat="44.07557" lon="6.57339">
        <ele>1158</ele>
        <time>2021-11-15T18:59:57Z</time>
      </trkpt>
      <trkpt lat="44.07525" lon="6.57395">
        <ele>1171</ele>
        <time>2021-11-15T19:00:09Z</time>
      </trkpt>
    </trkseg>
  </trk>
  <trk>
    <name><![CDATA[J1 - RUN 4 - Clément]]></name>
    <desc><![CDATA[Physio : les différents stades de l'effort]]></desc>
    <extensions>
      <line xmlns="http://www.topografix.com/GPX/gpx_style/0/2">
        <color>00FFFF</color>
        <width>4</width>
          <extensions>
            <sens>1</sens>
          </extensions>
      </line>
    </extensions>
    <trkseg>
      <trkpt lat="44.07525" lon="6.57395">
        <ele>1171</ele>
        <time>2021-11-15T19:00:09Z</time>
      </trkpt>
      <trkpt lat="44.07516" lon="6.57422">
        <ele>1180</ele>
        <time>2021-11-15T19:00:14Z</time>
      </trkpt>
      <trkpt lat="44.07476" lon="6.57489">
        <ele>1192</ele>
        <time>2021-11-15T19:00:29Z</time>
      </trkpt>
      <trkpt lat="44.07478" lon="6.57492">
        <ele>1194</ele>
        <time>2021-11-15T19:00:29Z</time>
      </trkpt>
      <trkpt lat="44.07535" lon="6.57456">
        <ele>1200</ele>
        <time>2021-11-15T19:00:44Z</time>
      </trkpt>
      <trkpt lat="44.07497" lon="6.57527">
        <ele>1217</ele>
        <time>2021-11-15T19:00:59Z</time>
      </trkpt>
      <trkpt lat="44.07472" lon="6.5758">
        <ele>1234</ele>
        <time>2021-11-15T19:01:09Z</time>
      </trkpt>
      <trkpt lat="44.07466" lon="6.57591">
        <ele>1237</ele>
        <time>2021-11-15T19:01:12Z</time>
      </trkpt>
      <trkpt lat="44.07416" lon="6.57639">
        <ele>1245</ele>
        <time>2021-11-15T19:01:26Z</time>
      </trkpt>
      <trkpt lat="44.07389" lon="6.57669">
        <ele>1251</ele>
        <time>2021-11-15T19:01:34Z</time>
      </trkpt>
      <trkpt lat="44.07427" lon="6.57664">
        <ele>1261</ele>
        <time>2021-11-15T19:01:43Z</time>
      </trkpt>
      <trkpt lat="44.07457" lon="6.57665">
        <ele>1269</ele>
        <time>2021-11-15T19:01:50Z</time>
      </trkpt>
      <trkpt lat="44.07437" lon="6.57678">
        <ele>1270</ele>
        <time>2021-11-15T19:01:55Z</time>
      </trkpt>
      <trkpt lat="44.0739" lon="6.57721">
        <ele>1273</ele>
        <time>2021-11-15T19:02:08Z</time>
      </trkpt>
      <trkpt lat="44.07373" lon="6.57739">
        <ele>1273</ele>
        <time>2021-11-15T19:02:13Z</time>
      </trkpt>
      <trkpt lat="44.07362" lon="6.57759">
        <ele>1273</ele>
        <time>2021-11-15T19:02:17Z</time>
      </trkpt>
      <trkpt lat="44.07362" lon="6.57789">
        <ele>1276</ele>
        <time>2021-11-15T19:02:22Z</time>
      </trkpt>
      <trkpt lat="44.07376" lon="6.57836">
        <ele>1290</ele>
        <time>2021-11-15T19:02:31Z</time>
      </trkpt>
      <trkpt lat="44.0738" lon="6.57863">
        <ele>1296</ele>
        <time>2021-11-15T19:02:36Z</time>
      </trkpt>
      <trkpt lat="44.0738" lon="6.57882">
        <ele>1299</ele>
        <time>2021-11-15T19:02:39Z</time>
      </trkpt>
      <trkpt lat="44.07371" lon="6.57919">
        <ele>1297</ele>
        <time>2021-11-15T19:02:45Z</time>
      </trkpt>
      <trkpt lat="44.07371" lon="6.57936">
        <ele>1300</ele>
        <time>2021-11-15T19:02:48Z</time>
      </trkpt>
      <trkpt lat="44.07377" lon="6.57977">
        <ele>1311</ele>
        <time>2021-11-15T19:02:55Z</time>
      </trkpt>
      <trkpt lat="44.07378" lon="6.58022">
        <ele>1320</ele>
        <time>2021-11-15T19:03:03Z</time>
      </trkpt>
      <trkpt lat="44.07375" lon="6.58053">
        <ele>1323</ele>
        <time>2021-11-15T19:03:08Z</time>
      </trkpt>
      <trkpt lat="44.07381" lon="6.58138">
        <ele>1339</ele>
        <time>2021-11-15T19:03:22Z</time>
      </trkpt>
      <trkpt lat="44.07384" lon="6.58142">
        <ele>1342</ele>
        <time>2021-11-15T19:03:23Z</time>
      </trkpt>
      <trkpt lat="44.0739" lon="6.58109">
        <ele>1341</ele>
        <time>2021-11-15T19:03:29Z</time>
      </trkpt>
      <trkpt lat="44.0741" lon="6.58046">
        <ele>1345</ele>
        <time>2021-11-15T19:03:41Z</time>
      </trkpt>
      <trkpt lat="44.07415" lon="6.5804">
        <ele>1348</ele>
        <time>2021-11-15T19:03:42Z</time>
      </trkpt>
      <trkpt lat="44.07412" lon="6.58054">
        <ele>1347</ele>
        <time>2021-11-15T19:03:45Z</time>
      </trkpt>
      <trkpt lat="44.07411" lon="6.58082">
        <ele>1350</ele>
        <time>2021-11-15T19:03:49Z</time>
      </trkpt>
      <trkpt lat="44.07418" lon="6.58152">
        <ele>1367</ele>
        <time>2021-11-15T19:04:01Z</time>
      </trkpt>
      <trkpt lat="44.07414" lon="6.58219">
        <ele>1372</ele>
        <time>2021-11-15T19:04:12Z</time>
      </trkpt>
      <trkpt lat="44.07415" lon="6.58259">
        <ele>1375</ele>
        <time>2021-11-15T19:04:19Z</time>
      </trkpt>
      <trkpt lat="44.07419" lon="6.58292">
        <ele>1380</ele>
        <time>2021-11-15T19:04:25Z</time>
      </trkpt>
      <trkpt lat="44.07426" lon="6.58316">
        <ele>1387</ele>
        <time>2021-11-15T19:04:29Z</time>
      </trkpt>
      <trkpt lat="44.07445" lon="6.58353">
        <ele>1405</ele>
        <time>2021-11-15T19:04:37Z</time>
      </trkpt>
      <trkpt lat="44.07442" lon="6.58363">
        <ele>1406</ele>
        <time>2021-11-15T19:04:39Z</time>
      </trkpt>
      <trkpt lat="44.07423" lon="6.58374">
        <ele>1395</ele>
        <time>2021-11-15T19:04:43Z</time>
      </trkpt>
      <trkpt lat="44.07406" lon="6.58399">
        <ele>1391</ele>
        <time>2021-11-15T19:04:49Z</time>
      </trkpt>
      <trkpt lat="44.07391" lon="6.58433">
        <ele>1391</ele>
        <time>2021-11-15T19:04:56Z</time>
      </trkpt>
      <trkpt lat="44.07387" lon="6.58455">
        <ele>1395</ele>
        <time>2021-11-15T19:05:00Z</time>
      </trkpt>
      <trkpt lat="44.07385" lon="6.58499">
        <ele>1405</ele>
        <time>2021-11-15T19:05:07Z</time>
      </trkpt>
      <trkpt lat="44.07387" lon="6.58517">
        <ele>1408</ele>
        <time>2021-11-15T19:05:10Z</time>
      </trkpt>
      <trkpt lat="44.07383" lon="6.58621">
        <ele>1411</ele>
        <time>2021-11-15T19:05:28Z</time>
      </trkpt>
      <trkpt lat="44.07406" lon="6.58726">
        <ele>1426</ele>
        <time>2021-11-15T19:05:46Z</time>
      </trkpt>
      <trkpt lat="44.07413" lon="6.58741">
        <ele>1431</ele>
        <time>2021-11-15T19:05:49Z</time>
      </trkpt>
      <trkpt lat="44.07422" lon="6.58797">
        <ele>1436</ele>
        <time>2021-11-15T19:05:59Z</time>
      </trkpt>
      <trkpt lat="44.07424" lon="6.58784">
        <ele>1437</ele>
        <time>2021-11-15T19:06:01Z</time>
      </trkpt>
      <trkpt lat="44.07426" lon="6.58786">
        <ele>1439</ele>
        <time>2021-11-15T19:06:01Z</time>
      </trkpt>
      <trkpt lat="44.07442" lon="6.58873">
        <ele>1449</ele>
        <time>2021-11-15T19:06:16Z</time>
      </trkpt>
      <trkpt lat="44.0745" lon="6.58898">
        <ele>1455</ele>
        <time>2021-11-15T19:06:21Z</time>
      </trkpt>
      <trkpt lat="44.07452" lon="6.58896">
        <ele>1456</ele>
        <time>2021-11-15T19:06:22Z</time>
      </trkpt>
    </trkseg>
  </trk>
  <trk>
    <name><![CDATA[J1 - RUN 5 - Gabriel]]></name>
    <desc><![CDATA[Tech VTT : Les pneus]]></desc>
    <extensions>
      <line xmlns="http://www.topografix.com/GPX/gpx_style/0/2">
        <color>FFFF00</color>
        <width>4</width>
          <extensions>
            <sens>1</sens>
          </extensions>
      </line>
    </extensions>
    <trkseg>
      <trkpt lat="44.07452" lon="6.58896">
        <ele>1456</ele>
        <time>2021-11-15T19:06:22Z</time>
      </trkpt>
      <trkpt lat="44.07453" lon="6.58877">
        <ele>1457</ele>
        <time>2021-11-15T19:06:25Z</time>
      </trkpt>
      <trkpt lat="44.07456" lon="6.58875">
        <ele>1458</ele>
        <time>2021-11-15T19:06:26Z</time>
      </trkpt>
      <trkpt lat="44.07461" lon="6.58891">
        <ele>1461</ele>
        <time>2021-11-15T19:06:29Z</time>
      </trkpt>
      <trkpt lat="44.07464" lon="6.58954">
        <ele>1453</ele>
        <time>2021-11-15T19:06:39Z</time>
      </trkpt>
      <trkpt lat="44.07467" lon="6.58966">
        <ele>1451</ele>
        <time>2021-11-15T19:06:41Z</time>
      </trkpt>
      <trkpt lat="44.07472" lon="6.58972">
        <ele>1452</ele>
        <time>2021-11-15T19:06:43Z</time>
      </trkpt>
      <trkpt lat="44.07556" lon="6.58996">
        <ele>1474</ele>
        <time>2021-11-15T19:07:03Z</time>
      </trkpt>
      <trkpt lat="44.07582" lon="6.58989">
        <ele>1485</ele>
        <time>2021-11-15T19:07:09Z</time>
      </trkpt>
      <trkpt lat="44.0761" lon="6.58972">
        <ele>1498</ele>
        <time>2021-11-15T19:07:16Z</time>
      </trkpt>
      <trkpt lat="44.07629" lon="6.58966">
        <ele>1504</ele>
        <time>2021-11-15T19:07:21Z</time>
      </trkpt>
      <trkpt lat="44.07644" lon="6.58967">
        <ele>1506</ele>
        <time>2021-11-15T19:07:24Z</time>
      </trkpt>
      <trkpt lat="44.07669" lon="6.58959">
        <ele>1513</ele>
        <time>2021-11-15T19:07:30Z</time>
      </trkpt>
      <trkpt lat="44.0768" lon="6.58964">
        <ele>1515</ele>
        <time>2021-11-15T19:07:33Z</time>
      </trkpt>
      <trkpt lat="44.07673" lon="6.58992">
        <ele>1500</ele>
        <time>2021-11-15T19:07:38Z</time>
      </trkpt>
      <trkpt lat="44.07673" lon="6.59008">
        <ele>1496</ele>
        <time>2021-11-15T19:07:41Z</time>
      </trkpt>
      <trkpt lat="44.07677" lon="6.59025">
        <ele>1496</ele>
        <time>2021-11-15T19:07:44Z</time>
      </trkpt>
      <trkpt lat="44.07726" lon="6.59098">
        <ele>1511</ele>
        <time>2021-11-15T19:08:00Z</time>
      </trkpt>
      <trkpt lat="44.07737" lon="6.59122">
        <ele>1512</ele>
        <time>2021-11-15T19:08:05Z</time>
      </trkpt>
      <trkpt lat="44.07738" lon="6.59139">
        <ele>1510</ele>
        <time>2021-11-15T19:08:08Z</time>
      </trkpt>
      <trkpt lat="44.07759" lon="6.59155">
        <ele>1513</ele>
        <time>2021-11-15T19:08:14Z</time>
      </trkpt>
      <trkpt lat="44.07816" lon="6.59182">
        <ele>1523</ele>
        <time>2021-11-15T19:08:28Z</time>
      </trkpt>
      <trkpt lat="44.07854" lon="6.59192">
        <ele>1532</ele>
        <time>2021-11-15T19:08:37Z</time>
      </trkpt>
      <trkpt lat="44.07873" lon="6.59192">
        <ele>1537</ele>
        <time>2021-11-15T19:08:41Z</time>
      </trkpt>
      <trkpt lat="44.0789" lon="6.59202">
        <ele>1541</ele>
        <time>2021-11-15T19:08:45Z</time>
      </trkpt>
      <trkpt lat="44.07892" lon="6.5921">
        <ele>1541</ele>
        <time>2021-11-15T19:08:47Z</time>
      </trkpt>
      <trkpt lat="44.07862" lon="6.59245">
        <ele>1527</ele>
        <time>2021-11-15T19:08:56Z</time>
      </trkpt>
      <trkpt lat="44.0785" lon="6.59263">
        <ele>1523</ele>
        <time>2021-11-15T19:09:00Z</time>
      </trkpt>
      <trkpt lat="44.0783" lon="6.59283">
        <ele>1518</ele>
        <time>2021-11-15T19:09:06Z</time>
      </trkpt>
      <trkpt lat="44.07817" lon="6.59292">
        <ele>1515</ele>
        <time>2021-11-15T19:09:09Z</time>
      </trkpt>
      <trkpt lat="44.07819" lon="6.59309">
        <ele>1516</ele>
        <time>2021-11-15T19:09:12Z</time>
      </trkpt>
      <trkpt lat="44.07854" lon="6.59343">
        <ele>1529</ele>
        <time>2021-11-15T19:09:22Z</time>
      </trkpt>
      <trkpt lat="44.07867" lon="6.59377">
        <ele>1534</ele>
        <time>2021-11-15T19:09:29Z</time>
      </trkpt>
      <trkpt lat="44.07887" lon="6.59416">
        <ele>1539</ele>
        <time>2021-11-15T19:09:37Z</time>
      </trkpt>
      <trkpt lat="44.07891" lon="6.5942">
        <ele>1537.47265625</ele>
      </trkpt>
      <trkpt lat="44.07932" lon="6.59469">
        <ele>1544.3203125</ele>
      </trkpt>
      <trkpt lat="44.0794" lon="6.59525">
        <ele>1552.9921875</ele>
      </trkpt>
      <trkpt lat="44.07932" lon="6.59469">
        <ele>1544.3203125</ele>
      </trkpt>
      <trkpt lat="44.0794" lon="6.59525">
        <ele>1552.9921875</ele>
      </trkpt>
      <trkpt lat="44.07906" lon="6.59718">
        <ele>1584.5625</ele>
      </trkpt>
      <trkpt lat="44.0791" lon="6.59763">
        <ele>1589.65625</ele>
      </trkpt>
      <trkpt lat="44.07932" lon="6.59804">
        <ele>1602.046875</ele>
      </trkpt>
      <trkpt lat="44.07919" lon="6.59828">
        <ele>1600.65625</ele>
      </trkpt>
      <trkpt lat="44.07805" lon="6.59802">
        <ele>1572.4453125</ele>
      </trkpt>
      <trkpt lat="44.07786" lon="6.59798">
        <ele>1570.35546875</ele>
      </trkpt>
      <trkpt lat="44.07766" lon="6.598">
        <ele>1570.40625</ele>
      </trkpt>
      <trkpt lat="44.07747" lon="6.59798">
        <ele>1570.2265625</ele>
      </trkpt>
      <trkpt lat="44.07627" lon="6.59796">
        <ele>1574.71875</ele>
      </trkpt>
      <trkpt lat="44.07541" lon="6.59817">
        <ele>1581.41796875</ele>
      </trkpt>
      <trkpt lat="44.07483" lon="6.59836">
        <ele>1585.4765625</ele>
      </trkpt>
      <trkpt lat="44.07447" lon="6.59854">
        <ele>1587.73828125</ele>
      </trkpt>
      <trkpt lat="44.07419" lon="6.5986">
        <ele>1588.8046875</ele>
      </trkpt>
      <trkpt lat="44.07406" lon="6.59862">
        <ele>1589.17578125</ele>
      </trkpt>
      <trkpt lat="44.07397" lon="6.59875">
        <ele>1590.17578125</ele>
      </trkpt>
      <trkpt lat="44.07366" lon="6.59839">
        <ele>1591.3046875</ele>
      </trkpt>
      <trkpt lat="44.07335" lon="6.59802">
        <ele>1590.25390625</ele>
      </trkpt>
      <trkpt lat="44.07241" lon="6.59731">
        <ele>1591.27734375</ele>
      </trkpt>
      <trkpt lat="44.07204" lon="6.59712">
        <ele>1590.53125</ele>
      </trkpt>
      <trkpt lat="44.07176" lon="6.59705">
        <ele>1591.87890625</ele>
      </trkpt>
      <trkpt lat="44.07116" lon="6.59703">
        <ele>1593.08203125</ele>
      </trkpt>
      <trkpt lat="44.07105" lon="6.59705">
        <ele>1593.3359375</ele>
      </trkpt>
      <trkpt lat="44.07078" lon="6.59718">
        <ele>1593.1796875</ele>
      </trkpt>
      <trkpt lat="44.0699" lon="6.59731">
        <ele>1586.7890625</ele>
      </trkpt>
      <trkpt lat="44.06946" lon="6.59766">
        <ele>1579.91796875</ele>
      </trkpt>
      <trkpt lat="44.0699" lon="6.59731">
        <ele>1586.7890625</ele>
      </trkpt>
      <trkpt lat="44.06906" lon="6.59798">
        <ele>1569.6015625</ele>
      </trkpt>
      <trkpt lat="44.06781" lon="6.5992">
        <ele>1547.48046875</ele>
      </trkpt>
      <trkpt lat="44.06556" lon="6.60055">
        <ele>1507.078125</ele>
      </trkpt>
      <trkpt lat="44.06515" lon="6.60132">
        <ele>1496.9296875</ele>
      </trkpt>
      <trkpt lat="44.06484" lon="6.60226">
        <ele>1505.05859375</ele>
      </trkpt>
    </trkseg>
  </trk>
  <trk>
    <name><![CDATA[J1 - RUN 6 - Pierre]]></name>
    <desc><![CDATA[Géologie : orogénèse des alpes du sud]]></desc>
    <extensions>
      <line xmlns="http://www.topografix.com/GPX/gpx_style/0/2">
        <color>FF00FF</color>
        <width>4</width>
          <extensions>
            <sens>1</sens>
          </extensions>
      </line>
    </extensions>
    <trkseg>
      <trkpt lat="44.06484" lon="6.60226">
        <ele>1505.05859375</ele>
      </trkpt>
      <trkpt lat="44.06451" lon="6.60328">
        <ele>1513.1796875</ele>
      </trkpt>
      <trkpt lat="44.06437" lon="6.60326">
        <ele>1522</ele>
        <time>2021-11-15T19:36:46Z</time>
      </trkpt>
      <trkpt lat="44.06416" lon="6.60317">
        <ele>1523</ele>
        <time>2021-11-15T19:36:51Z</time>
      </trkpt>
      <trkpt lat="44.06383" lon="6.60311">
        <ele>1527</ele>
        <time>2021-11-15T19:36:59Z</time>
      </trkpt>
      <trkpt lat="44.0636" lon="6.60313">
        <ele>1531</ele>
        <time>2021-11-15T19:37:04Z</time>
      </trkpt>
      <trkpt lat="44.06319" lon="6.60312">
        <ele>1537</ele>
        <time>2021-11-15T19:37:14Z</time>
      </trkpt>
      <trkpt lat="44.06252" lon="6.60324">
        <ele>1544</ele>
        <time>2021-11-15T19:37:29Z</time>
      </trkpt>
      <trkpt lat="44.06191" lon="6.60324">
        <ele>1551</ele>
        <time>2021-11-15T19:37:44Z</time>
      </trkpt>
      <trkpt lat="44.06173" lon="6.60327">
        <ele>1553</ele>
        <time>2021-11-15T19:37:48Z</time>
      </trkpt>
      <trkpt lat="44.06072" lon="6.60303">
        <ele>1559</ele>
        <time>2021-11-15T19:38:12Z</time>
      </trkpt>
      <trkpt lat="44.06039" lon="6.60304">
        <ele>1558</ele>
        <time>2021-11-15T19:38:20Z</time>
      </trkpt>
      <trkpt lat="44.06009" lon="6.60315">
        <ele>1558</ele>
        <time>2021-11-15T19:38:27Z</time>
      </trkpt>
      <trkpt lat="44.05971" lon="6.60344">
        <ele>1557</ele>
        <time>2021-11-15T19:38:37Z</time>
      </trkpt>
      <trkpt lat="44.05949" lon="6.6035">
        <ele>1556</ele>
        <time>2021-11-15T19:38:42Z</time>
      </trkpt>
      <trkpt lat="44.05938" lon="6.60356">
        <ele>1555</ele>
        <time>2021-11-15T19:38:45Z</time>
      </trkpt>
      <trkpt lat="44.05924" lon="6.60369">
        <ele>1555</ele>
        <time>2021-11-15T19:38:49Z</time>
      </trkpt>
      <trkpt lat="44.05912" lon="6.60371">
        <ele>1554</ele>
        <time>2021-11-15T19:38:52Z</time>
      </trkpt>
      <trkpt lat="44.05872" lon="6.60368">
        <ele>1552</ele>
        <time>2021-11-15T19:39:01Z</time>
      </trkpt>
      <trkpt lat="44.05849" lon="6.60353">
        <ele>1551</ele>
        <time>2021-11-15T19:39:07Z</time>
      </trkpt>
      <trkpt lat="44.05804" lon="6.60314">
        <ele>1551</ele>
        <time>2021-11-15T19:39:19Z</time>
      </trkpt>
      <trkpt lat="44.05792" lon="6.60288">
        <ele>1551</ele>
        <time>2021-11-15T19:39:25Z</time>
      </trkpt>
      <trkpt lat="44.05789" lon="6.60267">
        <ele>1551</ele>
        <time>2021-11-15T19:39:28Z</time>
      </trkpt>
      <trkpt lat="44.05778" lon="6.60247">
        <ele>1551</ele>
        <time>2021-11-15T19:39:32Z</time>
      </trkpt>
      <trkpt lat="44.05768" lon="6.60221">
        <ele>1551</ele>
        <time>2021-11-15T19:39:37Z</time>
      </trkpt>
      <trkpt lat="44.05757" lon="6.60137">
        <ele>1552</ele>
        <time>2021-11-15T19:39:52Z</time>
      </trkpt>
      <trkpt lat="44.05747" lon="6.60118">
        <ele>1553</ele>
        <time>2021-11-15T19:39:56Z</time>
      </trkpt>
      <trkpt lat="44.05732" lon="6.60117">
        <ele>1553</ele>
        <time>2021-11-15T19:39:59Z</time>
      </trkpt>
      <trkpt lat="44.05706" lon="6.60129">
        <ele>1552</ele>
        <time>2021-11-15T19:40:06Z</time>
      </trkpt>
      <trkpt lat="44.0568" lon="6.60131">
        <ele>1551</ele>
        <time>2021-11-15T19:40:12Z</time>
      </trkpt>
      <trkpt lat="44.05652" lon="6.60114">
        <ele>1553</ele>
        <time>2021-11-15T19:40:19Z</time>
      </trkpt>
      <trkpt lat="44.05633" lon="6.60113">
        <ele>1553</ele>
        <time>2021-11-15T19:40:23Z</time>
      </trkpt>
      <trkpt lat="44.05577" lon="6.60128">
        <ele>1549</ele>
        <time>2021-11-15T19:40:36Z</time>
      </trkpt>
      <trkpt lat="44.05545" lon="6.60128">
        <ele>1549</ele>
        <time>2021-11-15T19:40:44Z</time>
      </trkpt>
      <trkpt lat="44.05443" lon="6.60109">
        <ele>1547</ele>
        <time>2021-11-15T19:41:08Z</time>
      </trkpt>
      <trkpt lat="44.05423" lon="6.60101">
        <ele>1547</ele>
        <time>2021-11-15T19:41:13Z</time>
      </trkpt>
      <trkpt lat="44.05397" lon="6.60082">
        <ele>1546</ele>
        <time>2021-11-15T19:41:20Z</time>
      </trkpt>
      <trkpt lat="44.05381" lon="6.60062">
        <ele>1545</ele>
        <time>2021-11-15T19:41:25Z</time>
      </trkpt>
      <trkpt lat="44.05374" lon="6.60036">
        <ele>1545</ele>
        <time>2021-11-15T19:41:29Z</time>
      </trkpt>
      <trkpt lat="44.05371" lon="6.60013">
        <ele>1546</ele>
        <time>2021-11-15T19:41:33Z</time>
      </trkpt>
      <trkpt lat="44.0538" lon="6.59981">
        <ele>1547</ele>
        <time>2021-11-15T19:41:39Z</time>
      </trkpt>
      <trkpt lat="44.05402" lon="6.5996">
        <ele>1549</ele>
        <time>2021-11-15T19:41:45Z</time>
      </trkpt>
      <trkpt lat="44.05525" lon="6.59884">
        <ele>1553</ele>
        <time>2021-11-15T19:42:17Z</time>
      </trkpt>
      <trkpt lat="44.05568" lon="6.59849">
        <ele>1552</ele>
        <time>2021-11-15T19:42:28Z</time>
      </trkpt>
      <trkpt lat="44.05605" lon="6.59813">
        <ele>1552</ele>
        <time>2021-11-15T19:42:39Z</time>
      </trkpt>
      <trkpt lat="44.05615" lon="6.59798">
        <ele>1552</ele>
        <time>2021-11-15T19:42:42Z</time>
      </trkpt>
      <trkpt lat="44.05621" lon="6.59782">
        <ele>1552</ele>
        <time>2021-11-15T19:42:45Z</time>
      </trkpt>
      <trkpt lat="44.05616" lon="6.59759">
        <ele>1552</ele>
        <time>2021-11-15T19:42:49Z</time>
      </trkpt>
      <trkpt lat="44.05606" lon="6.59738">
        <ele>1552</ele>
        <time>2021-11-15T19:42:54Z</time>
      </trkpt>
      <trkpt lat="44.05594" lon="6.59725">
        <ele>1553</ele>
        <time>2021-11-15T19:42:57Z</time>
      </trkpt>
      <trkpt lat="44.05581" lon="6.59718">
        <ele>1553</ele>
        <time>2021-11-15T19:43:00Z</time>
      </trkpt>
      <trkpt lat="44.05564" lon="6.59714">
        <ele>1553</ele>
        <time>2021-11-15T19:43:04Z</time>
      </trkpt>
      <trkpt lat="44.05545" lon="6.59711">
        <ele>1552</ele>
        <time>2021-11-15T19:43:09Z</time>
      </trkpt>
      <trkpt lat="44.05528" lon="6.59713">
        <ele>1551</ele>
        <time>2021-11-15T19:43:13Z</time>
      </trkpt>
      <trkpt lat="44.05471" lon="6.59727">
        <ele>1545</ele>
        <time>2021-11-15T19:43:26Z</time>
      </trkpt>
      <trkpt lat="44.05435" lon="6.59731">
        <ele>1541</ele>
        <time>2021-11-15T19:43:35Z</time>
      </trkpt>
      <trkpt lat="44.05418" lon="6.59726">
        <ele>1540</ele>
        <time>2021-11-15T19:43:39Z</time>
      </trkpt>
      <trkpt lat="44.05403" lon="6.59711">
        <ele>1540</ele>
        <time>2021-11-15T19:43:43Z</time>
      </trkpt>
      <trkpt lat="44.0539" lon="6.59696">
        <ele>1539</ele>
        <time>2021-11-15T19:43:47Z</time>
      </trkpt>
      <trkpt lat="44.05383" lon="6.59676">
        <ele>1540</ele>
        <time>2021-11-15T19:43:51Z</time>
      </trkpt>
      <trkpt lat="44.0538" lon="6.59651">
        <ele>1541</ele>
        <time>2021-11-15T19:43:55Z</time>
      </trkpt>
      <trkpt lat="44.05373" lon="6.59626">
        <ele>1540</ele>
        <time>2021-11-15T19:44:00Z</time>
      </trkpt>
      <trkpt lat="44.05346" lon="6.5957">
        <ele>1536</ele>
        <time>2021-11-15T19:44:11Z</time>
      </trkpt>
      <trkpt lat="44.05335" lon="6.59538">
        <ele>1535</ele>
        <time>2021-11-15T19:44:17Z</time>
      </trkpt>
      <trkpt lat="44.05327" lon="6.59523">
        <ele>1535</ele>
        <time>2021-11-15T19:44:20Z</time>
      </trkpt>
      <trkpt lat="44.05296" lon="6.59486">
        <ele>1529</ele>
        <time>2021-11-15T19:44:30Z</time>
      </trkpt>
      <trkpt lat="44.05284" lon="6.59468">
        <ele>1528</ele>
        <time>2021-11-15T19:44:34Z</time>
      </trkpt>
      <trkpt lat="44.05268" lon="6.59456">
        <ele>1526</ele>
        <time>2021-11-15T19:44:38Z</time>
      </trkpt>
      <trkpt lat="44.05253" lon="6.59452">
        <ele>1523</ele>
        <time>2021-11-15T19:44:42Z</time>
      </trkpt>
      <trkpt lat="44.05239" lon="6.59442">
        <ele>1520</ele>
        <time>2021-11-15T19:44:45Z</time>
      </trkpt>
      <trkpt lat="44.05227" lon="6.59425">
        <ele>1519</ele>
        <time>2021-11-15T19:44:49Z</time>
      </trkpt>
      <trkpt lat="44.052" lon="6.59359">
        <ele>1518</ele>
        <time>2021-11-15T19:45:02Z</time>
      </trkpt>
      <trkpt lat="44.05167" lon="6.59262">
        <ele>1516</ele>
        <time>2021-11-15T19:45:20Z</time>
      </trkpt>
      <trkpt lat="44.05147" lon="6.59231">
        <ele>1514</ele>
        <time>2021-11-15T19:45:27Z</time>
      </trkpt>
      <trkpt lat="44.05135" lon="6.5922">
        <ele>1513</ele>
        <time>2021-11-15T19:45:30Z</time>
      </trkpt>
      <trkpt lat="44.05114" lon="6.59211">
        <ele>1510</ele>
        <time>2021-11-15T19:45:35Z</time>
      </trkpt>
      <trkpt lat="44.05097" lon="6.59214">
        <ele>1508</ele>
        <time>2021-11-15T19:45:39Z</time>
      </trkpt>
      <trkpt lat="44.05028" lon="6.59208">
        <ele>1500</ele>
        <time>2021-11-15T19:45:56Z</time>
      </trkpt>
      <trkpt lat="44.05011" lon="6.59192">
        <ele>1497</ele>
        <time>2021-11-15T19:46:00Z</time>
      </trkpt>
      <trkpt lat="44.05005" lon="6.5918">
        <ele>1497</ele>
        <time>2021-11-15T19:46:03Z</time>
      </trkpt>
      <trkpt lat="44.05003" lon="6.59167">
        <ele>1496</ele>
        <time>2021-11-15T19:46:05Z</time>
      </trkpt>
      <trkpt lat="44.04999" lon="6.59163">
        <ele>1496</ele>
        <time>2021-11-15T19:46:06Z</time>
      </trkpt>
      <trkpt lat="44.04976" lon="6.59172">
        <ele>1491</ele>
        <time>2021-11-15T19:46:12Z</time>
      </trkpt>
      <trkpt lat="44.04965" lon="6.59167">
        <ele>1488</ele>
        <time>2021-11-15T19:46:15Z</time>
      </trkpt>
      <trkpt lat="44.04966" lon="6.59142">
        <ele>1487</ele>
        <time>2021-11-15T19:46:19Z</time>
      </trkpt>
      <trkpt lat="44.04973" lon="6.59107">
        <ele>1486</ele>
        <time>2021-11-15T19:46:25Z</time>
      </trkpt>
      <trkpt lat="44.04978" lon="6.59098">
        <ele>1487</ele>
        <time>2021-11-15T19:46:27Z</time>
      </trkpt>
      <trkpt lat="44.04977" lon="6.59094">
        <ele>1486</ele>
        <time>2021-11-15T19:46:27Z</time>
      </trkpt>
      <trkpt lat="44.0497" lon="6.5909">
        <ele>1484</ele>
        <time>2021-11-15T19:46:29Z</time>
      </trkpt>
      <trkpt lat="44.04959" lon="6.59098">
        <ele>1483</ele>
        <time>2021-11-15T19:46:32Z</time>
      </trkpt>
      <trkpt lat="44.04918" lon="6.5915">
        <ele>1477</ele>
        <time>2021-11-15T19:46:45Z</time>
      </trkpt>
      <trkpt lat="44.04909" lon="6.59172">
        <ele>1476</ele>
        <time>2021-11-15T19:46:49Z</time>
      </trkpt>
      <trkpt lat="44.04901" lon="6.59247">
        <ele>1475</ele>
        <time>2021-11-15T19:47:02Z</time>
      </trkpt>
      <trkpt lat="44.04884" lon="6.59281">
        <ele>1468</ele>
        <time>2021-11-15T19:47:09Z</time>
      </trkpt>
      <trkpt lat="44.04882" lon="6.59308">
        <ele>1466</ele>
        <time>2021-11-15T19:47:14Z</time>
      </trkpt>
      <trkpt lat="44.04874" lon="6.59321">
        <ele>1464</ele>
        <time>2021-11-15T19:47:16Z</time>
      </trkpt>
      <trkpt lat="44.04853" lon="6.59333">
        <ele>1459</ele>
        <time>2021-11-15T19:47:22Z</time>
      </trkpt>
      <trkpt lat="44.04844" lon="6.59325">
        <ele>1457</ele>
        <time>2021-11-15T19:47:24Z</time>
      </trkpt>
      <trkpt lat="44.0483" lon="6.59319">
        <ele>1454</ele>
        <time>2021-11-15T19:47:28Z</time>
      </trkpt>
      <trkpt lat="44.04826" lon="6.59336">
        <ele>1453</ele>
        <time>2021-11-15T19:47:31Z</time>
      </trkpt>
      <trkpt lat="44.04817" lon="6.59345">
        <ele>1451</ele>
        <time>2021-11-15T19:47:33Z</time>
      </trkpt>
      <trkpt lat="44.04811" lon="6.59345">
        <ele>1449</ele>
        <time>2021-11-15T19:47:35Z</time>
      </trkpt>
      <trkpt lat="44.04744" lon="6.59326">
        <ele>1438</ele>
        <time>2021-11-15T19:47:51Z</time>
      </trkpt>
      <trkpt lat="44.04709" lon="6.59331">
        <ele>1435</ele>
        <time>2021-11-15T19:47:59Z</time>
      </trkpt>
    </trkseg>
  </trk>
  <trk>
    <name><![CDATA[J2 - RUN 1 - Baptiste]]></name>
    <desc><![CDATA[Tech VTT : pédales auto ou pédales plates ?]]></desc>
    <extensions>
      <line xmlns="http://www.topografix.com/GPX/gpx_style/0/2">
        <color>0000ff</color>
        <width>4</width>
        <dasharray>8</dasharray>
          <extensions>
            <sens>1</sens>
          </extensions>
      </line>
    </extensions>
    <trkseg>
      <trkpt lat="44.04679" lon="6.59319">
        <ele>1428.96875</ele>
      </trkpt>
      <trkpt lat="44.04681" lon="6.59304">
        <ele>1428.1875</ele>
      </trkpt>
      <trkpt lat="44.04625" lon="6.59263">
        <ele>1420.6640625</ele>
      </trkpt>
      <trkpt lat="44.04586" lon="6.59208">
        <ele>1417.765625</ele>
      </trkpt>
      <trkpt lat="44.04552" lon="6.59148">
        <ele>1417.60546875</ele>
      </trkpt>
      <trkpt lat="44.04554" lon="6.5913">
        <ele>1415.85546875</ele>
      </trkpt>
      <trkpt lat="44.04552" lon="6.59148">
        <ele>1417.60546875</ele>
      </trkpt>
      <trkpt lat="44.04586" lon="6.59208">
        <ele>1417.765625</ele>
      </trkpt>
      <trkpt lat="44.04552" lon="6.59148">
        <ele>1417.60546875</ele>
      </trkpt>
      <trkpt lat="44.04554" lon="6.5913">
        <ele>1415.85546875</ele>
      </trkpt>
      <trkpt lat="44.04556" lon="6.59109">
        <ele>1414.75</ele>
      </trkpt>
      <trkpt lat="44.04563" lon="6.59025">
        <ele>1409.25390625</ele>
      </trkpt>
      <trkpt lat="44.04561" lon="6.58942">
        <ele>1403.5703125</ele>
      </trkpt>
      <trkpt lat="44.04554" lon="6.58905">
        <ele>1400.1015625</ele>
      </trkpt>
      <trkpt lat="44.04535" lon="6.58894">
        <ele>1402.1640625</ele>
      </trkpt>
      <trkpt lat="44.04518" lon="6.58879">
        <ele>1403.00390625</ele>
      </trkpt>
      <trkpt lat="44.04505" lon="6.58851">
        <ele>1402.15625</ele>
      </trkpt>
      <trkpt lat="44.04505" lon="6.58832">
        <ele>1400.56640625</ele>
      </trkpt>
      <trkpt lat="44.04513" lon="6.58806">
        <ele>1394.65625</ele>
      </trkpt>
      <trkpt lat="44.04513" lon="6.58785">
        <ele>1391.7890625</ele>
      </trkpt>
      <trkpt lat="44.04509" lon="6.58751">
        <ele>1389.984375</ele>
      </trkpt>
      <trkpt lat="44.04503" lon="6.5874">
        <ele>1391.1875</ele>
      </trkpt>
      <trkpt lat="44.04486" lon="6.58733">
        <ele>1394.12890625</ele>
      </trkpt>
      <trkpt lat="44.04498" lon="6.58716">
        <ele>1391.10546875</ele>
      </trkpt>
      <trkpt lat="44.04522" lon="6.58697">
        <ele>1387.70703125</ele>
      </trkpt>
      <trkpt lat="44.04531" lon="6.58675">
        <ele>1386.94140625</ele>
      </trkpt>
      <trkpt lat="44.04526" lon="6.58658">
        <ele>1389.93359375</ele>
      </trkpt>
      <trkpt lat="44.04527" lon="6.58662">
        <ele>1389.19921875</ele>
      </trkpt>
      <trkpt lat="44.04526" lon="6.58658">
        <ele>1389.93359375</ele>
      </trkpt>
      <trkpt lat="44.04543" lon="6.58649">
        <ele>1386.66796875</ele>
      </trkpt>
      <trkpt lat="44.04526" lon="6.58658">
        <ele>1389.93359375</ele>
      </trkpt>
      <trkpt lat="44.0455" lon="6.58645">
        <ele>1385.765625</ele>
      </trkpt>
      <trkpt lat="44.04582" lon="6.58637">
        <ele>1380.43359375</ele>
      </trkpt>
      <trkpt lat="44.04612" lon="6.58613">
        <ele>1376.375</ele>
      </trkpt>
      <trkpt lat="44.04634" lon="6.58581">
        <ele>1377.3671875</ele>
      </trkpt>
      <trkpt lat="44.04655" lon="6.58538">
        <ele>1373.26171875</ele>
      </trkpt>
      <trkpt lat="44.04679" lon="6.58472">
        <ele>1366.9296875</ele>
      </trkpt>
      <trkpt lat="44.04692" lon="6.58399">
        <ele>1359.42578125</ele>
      </trkpt>
      <trkpt lat="44.04692" lon="6.58369">
        <ele>1357.79296875</ele>
      </trkpt>
      <trkpt lat="44.04696" lon="6.58358">
        <ele>1355.12890625</ele>
      </trkpt>
      <trkpt lat="44.04713" lon="6.58304">
        <ele>1347.609375</ele>
      </trkpt>
      <trkpt lat="44.04706" lon="6.58328">
        <ele>1350.53125</ele>
      </trkpt>
      <trkpt lat="44.04713" lon="6.58304">
        <ele>1347.609375</ele>
      </trkpt>
      <trkpt lat="44.04724" lon="6.5827">
        <ele>1343.70703125</ele>
      </trkpt>
      <trkpt lat="44.04739" lon="6.58212">
        <ele>1335.61328125</ele>
      </trkpt>
      <trkpt lat="44.04732" lon="6.5816">
        <ele>1339.3203125</ele>
      </trkpt>
      <trkpt lat="44.04739" lon="6.58212">
        <ele>1335.61328125</ele>
      </trkpt>
      <trkpt lat="44.04732" lon="6.5816">
        <ele>1339.3203125</ele>
      </trkpt>
      <trkpt lat="44.0474" lon="6.58126">
        <ele>1335.03515625</ele>
      </trkpt>
      <trkpt lat="44.04732" lon="6.5816">
        <ele>1339.3203125</ele>
      </trkpt>
      <trkpt lat="44.04752" lon="6.58073">
        <ele>1327.51171875</ele>
      </trkpt>
      <trkpt lat="44.04747" lon="6.58002">
        <ele>1323.93359375</ele>
      </trkpt>
      <trkpt lat="44.04734" lon="6.57942">
        <ele>1320.91015625</ele>
      </trkpt>
      <trkpt lat="44.0464" lon="6.57766">
        <ele>1298.421875</ele>
      </trkpt>
      <trkpt lat="44.04634" lon="6.57665">
        <ele>1284.2890625</ele>
      </trkpt>
      <trkpt lat="44.04614" lon="6.57615">
        <ele>1280.55078125</ele>
      </trkpt>
      <trkpt lat="44.04604" lon="6.57527">
        <ele>1260.02734375</ele>
      </trkpt>
      <trkpt lat="44.04584" lon="6.57461">
        <ele>1246.61328125</ele>
      </trkpt>
      <trkpt lat="44.04578" lon="6.57422">
        <ele>1240.671875</ele>
      </trkpt>
      <trkpt lat="44.04582" lon="6.57377">
        <ele>1230.546875</ele>
      </trkpt>
      <trkpt lat="44.04591" lon="6.57349">
        <ele>1224.51171875</ele>
      </trkpt>
      <trkpt lat="44.04606" lon="6.57341">
        <ele>1218.53125</ele>
      </trkpt>
      <trkpt lat="44.04606" lon="6.57326">
        <ele>1216.6953125</ele>
      </trkpt>
      <trkpt lat="44.04599" lon="6.57294">
        <ele>1215.3046875</ele>
      </trkpt>
      <trkpt lat="44.04589" lon="6.57261">
        <ele>1211.8515625</ele>
      </trkpt>
      <trkpt lat="44.04556" lon="6.57246">
        <ele>1211.64453125</ele>
      </trkpt>
      <trkpt lat="44.04531" lon="6.57242">
        <ele>1212.35546875</ele>
      </trkpt>
      <trkpt lat="44.04509" lon="6.57231">
        <ele>1210.15625</ele>
      </trkpt>
      <trkpt lat="44.04483" lon="6.57186">
        <ele>1196.40625</ele>
      </trkpt>
      <trkpt lat="44.04425" lon="6.57173">
        <ele>1199.77734375</ele>
      </trkpt>
      <trkpt lat="44.04393" lon="6.57156">
        <ele>1194.171875</ele>
      </trkpt>
      <trkpt lat="44.0435" lon="6.57124">
        <ele>1187.75</ele>
      </trkpt>
      <trkpt lat="44.04325" lon="6.57096">
        <ele>1184.74609375</ele>
      </trkpt>
      <trkpt lat="44.04303" lon="6.57069">
        <ele>1182.19140625</ele>
      </trkpt>
      <trkpt lat="44.04325" lon="6.57096">
        <ele>1184.74609375</ele>
      </trkpt>
      <trkpt lat="44.04299" lon="6.57064">
        <ele>1181.98828125</ele>
      </trkpt>
      <trkpt lat="44.04297" lon="6.57013">
        <ele>1171.4765625</ele>
      </trkpt>
      <trkpt lat="44.04265" lon="6.56965">
        <ele>1171.62109375</ele>
      </trkpt>
      <trkpt lat="44.04215" lon="6.56931">
        <ele>1168.5625</ele>
      </trkpt>
      <trkpt lat="44.04136" lon="6.56847">
        <ele>1147.26171875</ele>
      </trkpt>
      <trkpt lat="44.04097" lon="6.56841">
        <ele>1149.28515625</ele>
      </trkpt>
      <trkpt lat="44.0408" lon="6.56845">
        <ele>1152.625</ele>
      </trkpt>
      <trkpt lat="44.04069" lon="6.56815">
        <ele>1140.8046875</ele>
      </trkpt>
      <trkpt lat="44.04041" lon="6.56807">
        <ele>1140.671875</ele>
      </trkpt>
      <trkpt lat="44.04018" lon="6.56815">
        <ele>1145.421875</ele>
      </trkpt>
      <trkpt lat="44.04003" lon="6.56808">
        <ele>1140.52734375</ele>
      </trkpt>
      <trkpt lat="44.04018" lon="6.56815">
        <ele>1145.421875</ele>
      </trkpt>
      <trkpt lat="44.03994" lon="6.56804">
        <ele>1137.5390625</ele>
      </trkpt>
      <trkpt lat="44.03977" lon="6.56811">
        <ele>1139.6328125</ele>
      </trkpt>
      <trkpt lat="44.03919" lon="6.56813">
        <ele>1138.19921875</ele>
      </trkpt>
      <trkpt lat="44.03874" lon="6.56781">
        <ele>1126.19921875</ele>
      </trkpt>
      <trkpt lat="44.03857" lon="6.56787">
        <ele>1129.22265625</ele>
      </trkpt>
      <trkpt lat="44.03801" lon="6.56768">
        <ele>1123.78515625</ele>
      </trkpt>
      <trkpt lat="44.0376" lon="6.56768">
        <ele>1125.70703125</ele>
      </trkpt>
      <trkpt lat="44.03739" lon="6.56751">
        <ele>1120.01171875</ele>
      </trkpt>
      <trkpt lat="44.03715" lon="6.56751">
        <ele>1120.41796875</ele>
      </trkpt>
      <trkpt lat="44.03707" lon="6.56746">
        <ele>1119.625</ele>
      </trkpt>
      <trkpt lat="44.03709" lon="6.56736">
        <ele>1117.13671875</ele>
      </trkpt>
      <trkpt lat="44.03717" lon="6.56699">
        <ele>1110.2578125</ele>
      </trkpt>
      <trkpt lat="44.03694" lon="6.56676">
        <ele>1108.7109375</ele>
      </trkpt>
      <trkpt lat="44.03664" lon="6.56673">
        <ele>1110.05078125</ele>
      </trkpt>
      <trkpt lat="44.03645" lon="6.56653">
        <ele>1107.43359375</ele>
      </trkpt>
      <trkpt lat="44.03638" lon="6.56646">
        <ele>1106.625</ele>
      </trkpt>
      <trkpt lat="44.0364" lon="6.56631">
        <ele>1104.265625</ele>
      </trkpt>
      <trkpt lat="44.0378" lon="6.56665">
        <ele>1091.359375</ele>
      </trkpt>
      <trkpt lat="44.03818" lon="6.56669">
        <ele>1086.3828125</ele>
      </trkpt>
      <trkpt lat="44.03827" lon="6.56661">
        <ele>1083.4140625</ele>
      </trkpt>
      <trkpt lat="44.03797" lon="6.56635">
        <ele>1081.59765625</ele>
      </trkpt>
      <trkpt lat="44.03797" lon="6.56624">
        <ele>1078.3671875</ele>
      </trkpt>
      <trkpt lat="44.03876" lon="6.56656">
        <ele>1075.63671875</ele>
      </trkpt>
      <trkpt lat="44.03902" lon="6.56652">
        <ele>1072.72265625</ele>
      </trkpt>
      <trkpt lat="44.03962" lon="6.56607">
        <ele>1059.171875</ele>
      </trkpt>
      <trkpt lat="44.03996" lon="6.56609">
        <ele>1059.7421875</ele>
      </trkpt>
      <trkpt lat="44.04041" lon="6.56594">
        <ele>1052.953125</ele>
      </trkpt>
      <trkpt lat="44.04074" lon="6.56586">
        <ele>1047.5</ele>
      </trkpt>
      <trkpt lat="44.04104" lon="6.56596">
        <ele>1048.1328125</ele>
      </trkpt>
      <trkpt lat="44.04129" lon="6.56577">
        <ele>1041.00390625</ele>
      </trkpt>
      <trkpt lat="44.04174" lon="6.56568">
        <ele>1035.91015625</ele>
      </trkpt>
      <trkpt lat="44.04228" lon="6.56581">
        <ele>1033.22265625</ele>
      </trkpt>
      <trkpt lat="44.04273" lon="6.56558">
        <ele>1025.3125</ele>
      </trkpt>
      <trkpt lat="44.04303" lon="6.56558">
        <ele>1021.515625</ele>
      </trkpt>
      <trkpt lat="44.04342" lon="6.56555">
        <ele>1017.29296875</ele>
      </trkpt>
      <trkpt lat="44.04355" lon="6.56555">
        <ele>1015.76953125</ele>
      </trkpt>
    </trkseg>
  </trk>
  <trk>
    <name><![CDATA[J2 - RUN 2 - Léa]]></name>
    <desc><![CDATA[Patrimoine : La gare de Thorame-Haute]]></desc>
    <extensions>
      <line xmlns="http://www.topografix.com/GPX/gpx_style/0/2">
        <color>00ff00</color>
        <width>4</width>
        <dasharray>8</dasharray>
          <extensions>
            <sens>1</sens>
          </extensions>
      </line>
    </extensions>
    <trkseg>
      <trkpt lat="44.04355" lon="6.56555">
        <ele>1015.76953125</ele>
      </trkpt>
      <trkpt lat="44.04333" lon="6.56521">
        <ele>1012.953125</ele>
      </trkpt>
      <trkpt lat="44.04305" lon="6.56483">
        <ele>1007.72265625</ele>
      </trkpt>
      <trkpt lat="44.0426" lon="6.56467">
        <ele>1007.43359375</ele>
      </trkpt>
      <trkpt lat="44.04217" lon="6.5645">
        <ele>1008.26953125</ele>
      </trkpt>
      <trkpt lat="44.04164" lon="6.56427">
        <ele>1008.75390625</ele>
      </trkpt>
      <trkpt lat="44.04153" lon="6.56422">
        <ele>1008.328125</ele>
      </trkpt>
      <trkpt lat="44.04125" lon="6.56414">
        <ele>1007.9609375</ele>
      </trkpt>
      <trkpt lat="44.04099" lon="6.56414">
        <ele>1007.7421875</ele>
      </trkpt>
      <trkpt lat="44.04035" lon="6.56435">
        <ele>1009.28125</ele>
      </trkpt>
      <trkpt lat="44.04001" lon="6.5644">
        <ele>1009.5625</ele>
      </trkpt>
      <trkpt lat="44.03986" lon="6.56435">
        <ele>1008.01953125</ele>
      </trkpt>
      <trkpt lat="44.03981" lon="6.56435">
        <ele>1008.0390625</ele>
      </trkpt>
      <trkpt lat="44.03979" lon="6.5644">
        <ele>1009.34765625</ele>
      </trkpt>
      <trkpt lat="44.03981" lon="6.56435">
        <ele>1008.0390625</ele>
      </trkpt>
      <trkpt lat="44.03975" lon="6.56433">
        <ele>1007.66015625</ele>
      </trkpt>
      <trkpt lat="44.0396" lon="6.56427">
        <ele>1006.80859375</ele>
      </trkpt>
      <trkpt lat="44.03949" lon="6.5642">
        <ele>1006.234375</ele>
      </trkpt>
      <trkpt lat="44.0393" lon="6.56401">
        <ele>1004.08203125</ele>
      </trkpt>
      <trkpt lat="44.03898" lon="6.5638">
        <ele>1001.77734375</ele>
      </trkpt>
      <trkpt lat="44.03876" lon="6.56373">
        <ele>1001.36328125</ele>
      </trkpt>
      <trkpt lat="44.03859" lon="6.56371">
        <ele>1000.99609375</ele>
      </trkpt>
      <trkpt lat="44.03831" lon="6.56373">
        <ele>1001.24609375</ele>
      </trkpt>
      <trkpt lat="44.03795" lon="6.56369">
        <ele>1000.0625</ele>
      </trkpt>
      <trkpt lat="44.03771" lon="6.56369">
        <ele>1000.26953125</ele>
      </trkpt>
      <trkpt lat="44.03744" lon="6.56377">
        <ele>1003.65625</ele>
      </trkpt>
      <trkpt lat="44.03732" lon="6.56375">
        <ele>1004.953125</ele>
      </trkpt>
      <trkpt lat="44.03724" lon="6.56371">
        <ele>1004.96484375</ele>
      </trkpt>
      <trkpt lat="44.03715" lon="6.56362">
        <ele>1003.6484375</ele>
      </trkpt>
      <trkpt lat="44.03709" lon="6.56352">
        <ele>1002.2734375</ele>
      </trkpt>
      <trkpt lat="44.03709" lon="6.56337">
        <ele>999.67578125</ele>
      </trkpt>
      <trkpt lat="44.03711" lon="6.56324">
        <ele>997.171875</ele>
      </trkpt>
      <trkpt lat="44.03722" lon="6.56287">
        <ele>991.73828125</ele>
      </trkpt>
      <trkpt lat="44.03714" lon="6.56314">
        <ele>995.078125</ele>
      </trkpt>
      <trkpt lat="44.03722" lon="6.56287">
        <ele>991.73828125</ele>
      </trkpt>
      <trkpt lat="44.03732" lon="6.56255">
        <ele>991.6796875</ele>
      </trkpt>
      <trkpt lat="44.03737" lon="6.56244">
        <ele>993.5703125</ele>
      </trkpt>
      <trkpt lat="44.03737" lon="6.56238">
        <ele>994.58984375</ele>
      </trkpt>
      <trkpt lat="44.0373" lon="6.56227">
        <ele>995.3359375</ele>
      </trkpt>
      <trkpt lat="44.03724" lon="6.56223">
        <ele>994.85546875</ele>
      </trkpt>
      <trkpt lat="44.03679" lon="6.56206">
        <ele>995.16796875</ele>
      </trkpt>
      <trkpt lat="44.03666" lon="6.56197">
        <ele>996.265625</ele>
      </trkpt>
      <trkpt lat="44.03655" lon="6.56186">
        <ele>997.08984375</ele>
      </trkpt>
      <trkpt lat="44.03644" lon="6.56169">
        <ele>997.77734375</ele>
      </trkpt>
      <trkpt lat="44.03627" lon="6.56133">
        <ele>999.67578125</ele>
      </trkpt>
      <trkpt lat="44.03608" lon="6.56098">
        <ele>1003.4609375</ele>
      </trkpt>
      <trkpt lat="44.03595" lon="6.56088">
        <ele>1002.12109375</ele>
      </trkpt>
      <trkpt lat="44.03565" lon="6.56075">
        <ele>997.3125</ele>
      </trkpt>
      <trkpt lat="44.03535" lon="6.56071">
        <ele>1000.23828125</ele>
      </trkpt>
      <trkpt lat="44.03513" lon="6.56064">
        <ele>1002.1328125</ele>
      </trkpt>
      <trkpt lat="44.03486" lon="6.56053">
        <ele>1003.17578125</ele>
      </trkpt>
      <trkpt lat="44.03453" lon="6.56036">
        <ele>1006.02734375</ele>
      </trkpt>
      <trkpt lat="44.03421" lon="6.56015">
        <ele>1007.3359375</ele>
      </trkpt>
      <trkpt lat="44.03404" lon="6.56006">
        <ele>1006.96484375</ele>
      </trkpt>
      <trkpt lat="44.03333" lon="6.5598">
        <ele>1002.30078125</ele>
      </trkpt>
      <trkpt lat="44.03336" lon="6.55981">
        <ele>1002.6171875</ele>
      </trkpt>
      <trkpt lat="44.03333" lon="6.5598">
        <ele>1002.30078125</ele>
      </trkpt>
      <trkpt lat="44.03301" lon="6.55963">
        <ele>1001.43359375</ele>
      </trkpt>
      <trkpt lat="44.03304" lon="6.55965">
        <ele>1001.40234375</ele>
      </trkpt>
      <trkpt lat="44.03301" lon="6.55963">
        <ele>1001.43359375</ele>
      </trkpt>
      <trkpt lat="44.03273" lon="6.5594">
        <ele>1002.81640625</ele>
      </trkpt>
      <trkpt lat="44.0326" lon="6.55925">
        <ele>1002.5546875</ele>
      </trkpt>
      <trkpt lat="44.03179" lon="6.55792">
        <ele>1006.3359375</ele>
      </trkpt>
      <trkpt lat="44.03153" lon="6.55757">
        <ele>1007.56640625</ele>
      </trkpt>
      <trkpt lat="44.03097" lon="6.55695">
        <ele>1008.34375</ele>
      </trkpt>
      <trkpt lat="44.03039" lon="6.55641">
        <ele>1007.6953125</ele>
      </trkpt>
      <trkpt lat="44.03026" lon="6.55628">
        <ele>1007.359375</ele>
      </trkpt>
      <trkpt lat="44.02953" lon="6.55545">
        <ele>999.74609375</ele>
      </trkpt>
      <trkpt lat="44.02941" lon="6.55532">
        <ele>997.99609375</ele>
      </trkpt>
      <trkpt lat="44.02926" lon="6.55523">
        <ele>995.5</ele>
      </trkpt>
      <trkpt lat="44.02898" lon="6.55513">
        <ele>993.47265625</ele>
      </trkpt>
      <trkpt lat="44.02883" lon="6.55504">
        <ele>994.08984375</ele>
      </trkpt>
      <trkpt lat="44.02842" lon="6.55463">
        <ele>996.15625</ele>
      </trkpt>
      <trkpt lat="44.02793" lon="6.55422">
        <ele>994.93359375</ele>
      </trkpt>
      <trkpt lat="44.02758" lon="6.55397">
        <ele>997.35546875</ele>
      </trkpt>
      <trkpt lat="44.02743" lon="6.5539">
        <ele>995.2421875</ele>
      </trkpt>
      <trkpt lat="44.02726" lon="6.55386">
        <ele>993.171875</ele>
      </trkpt>
      <trkpt lat="44.02709" lon="6.55384">
        <ele>992.61328125</ele>
      </trkpt>
      <trkpt lat="44.02672" lon="6.55388">
        <ele>989.87109375</ele>
      </trkpt>
      <trkpt lat="44.02655" lon="6.55395">
        <ele>989.50390625</ele>
      </trkpt>
      <trkpt lat="44.02625" lon="6.55407">
        <ele>988.48828125</ele>
      </trkpt>
      <trkpt lat="44.0261" lon="6.55412">
        <ele>988.99609375</ele>
      </trkpt>
      <trkpt lat="44.02595" lon="6.55414">
        <ele>990.31640625</ele>
      </trkpt>
      <trkpt lat="44.02546" lon="6.55412">
        <ele>993.1015625</ele>
      </trkpt>
      <trkpt lat="44.02428" lon="6.55425">
        <ele>991.4609375</ele>
      </trkpt>
      <trkpt lat="44.02389" lon="6.55433">
        <ele>992.10546875</ele>
      </trkpt>
      <trkpt lat="44.0234" lon="6.55453">
        <ele>991.625</ele>
      </trkpt>
      <trkpt lat="44.02323" lon="6.55461">
        <ele>989.609375</ele>
      </trkpt>
      <trkpt lat="44.02308" lon="6.55472">
        <ele>986.62109375</ele>
      </trkpt>
      <trkpt lat="44.02275" lon="6.55498">
        <ele>983.953125</ele>
      </trkpt>
      <trkpt lat="44.0225" lon="6.55521">
        <ele>983.98046875</ele>
      </trkpt>
      <trkpt lat="44.02237" lon="6.55536">
        <ele>985.39453125</ele>
      </trkpt>
      <trkpt lat="44.0222" lon="6.55564">
        <ele>980.34765625</ele>
      </trkpt>
      <trkpt lat="44.02207" lon="6.55575">
        <ele>979.19921875</ele>
      </trkpt>
      <trkpt lat="44.02196" lon="6.55579">
        <ele>980.1796875</ele>
      </trkpt>
      <trkpt lat="44.02183" lon="6.55581">
        <ele>981.765625</ele>
      </trkpt>
      <trkpt lat="44.02172" lon="6.55577">
        <ele>982.6953125</ele>
      </trkpt>
      <trkpt lat="44.02172" lon="6.55571">
        <ele>984.37890625</ele>
      </trkpt>
      <trkpt lat="44.0217" lon="6.55566">
        <ele>984.90234375</ele>
      </trkpt>
      <trkpt lat="44.0216" lon="6.55558">
        <ele>984.0546875</ele>
      </trkpt>
      <trkpt lat="44.02157" lon="6.55553">
        <ele>984.15234375</ele>
      </trkpt>
      <trkpt lat="44.02157" lon="6.55543">
        <ele>985.74609375</ele>
      </trkpt>
      <trkpt lat="44.02183" lon="6.55431">
        <ele>996.80078125</ele>
      </trkpt>
      <trkpt lat="44.02222" lon="6.5532">
        <ele>1014.4609375</ele>
      </trkpt>
      <trkpt lat="44.02252" lon="6.55204">
        <ele>1019.2265625</ele>
      </trkpt>
      <trkpt lat="44.02256" lon="6.55197">
        <ele>1020.90625</ele>
      </trkpt>
      <trkpt lat="44.02252" lon="6.55204">
        <ele>1019.2265625</ele>
      </trkpt>
      <trkpt lat="44.02271" lon="6.55171">
        <ele>1024.31640625</ele>
      </trkpt>
      <trkpt lat="44.0232" lon="6.55118">
        <ele>1037.12109375</ele>
      </trkpt>
      <trkpt lat="44.02342" lon="6.55064">
        <ele>1038.28125</ele>
      </trkpt>
      <trkpt lat="44.02376" lon="6.55008">
        <ele>1042.265625</ele>
      </trkpt>
      <trkpt lat="44.0243" lon="6.54978">
        <ele>1052.44140625</ele>
      </trkpt>
      <trkpt lat="44.02456" lon="6.54955">
        <ele>1049.85546875</ele>
      </trkpt>
      <trkpt lat="44.02484" lon="6.54942">
        <ele>1050.66015625</ele>
      </trkpt>
      <trkpt lat="44.02518" lon="6.5494">
        <ele>1061.6796875</ele>
      </trkpt>
      <trkpt lat="44.02546" lon="6.54916">
        <ele>1064.625</ele>
      </trkpt>
      <trkpt lat="44.02561" lon="6.54871">
        <ele>1064.27734375</ele>
      </trkpt>
      <trkpt lat="44.02582" lon="6.54802">
        <ele>1066.3203125</ele>
      </trkpt>
      <trkpt lat="44.02595" lon="6.54787">
        <ele>1071.12109375</ele>
      </trkpt>
      <trkpt lat="44.02608" lon="6.54777">
        <ele>1070.390625</ele>
      </trkpt>
      <trkpt lat="44.02623" lon="6.5477">
        <ele>1071.9296875</ele>
      </trkpt>
      <trkpt lat="44.02664" lon="6.54757">
        <ele>1080.70703125</ele>
      </trkpt>
      <trkpt lat="44.02711" lon="6.54717">
        <ele>1079.53125</ele>
      </trkpt>
      <trkpt lat="44.02741" lon="6.54699">
        <ele>1082.74609375</ele>
      </trkpt>
      <trkpt lat="44.02769" lon="6.54669">
        <ele>1083.86328125</ele>
      </trkpt>
      <trkpt lat="44.02799" lon="6.54631">
        <ele>1083.6796875</ele>
      </trkpt>
      <trkpt lat="44.02829" lon="6.54607">
        <ele>1084.953125</ele>
      </trkpt>
      <trkpt lat="44.02928" lon="6.5456">
        <ele>1086.265625</ele>
      </trkpt>
      <trkpt lat="44.02963" lon="6.54544">
        <ele>1088.609375</ele>
      </trkpt>
      <trkpt lat="44.02928" lon="6.5456">
        <ele>1086.265625</ele>
      </trkpt>
      <trkpt lat="44.03001" lon="6.54528">
        <ele>1091.22265625</ele>
      </trkpt>
      <trkpt lat="44.03031" lon="6.54506">
        <ele>1096.41796875</ele>
      </trkpt>
      <trkpt lat="44.03041" lon="6.54481">
        <ele>1096.2421875</ele>
      </trkpt>
      <trkpt lat="44.03056" lon="6.54461">
        <ele>1099.59375</ele>
      </trkpt>
      <trkpt lat="44.03071" lon="6.54444">
        <ele>1099.35546875</ele>
      </trkpt>
      <trkpt lat="44.03127" lon="6.54433">
        <ele>1115.58203125</ele>
      </trkpt>
      <trkpt lat="44.03132" lon="6.5442">
        <ele>1111.203125</ele>
      </trkpt>
      <trkpt lat="44.03104" lon="6.5435">
        <ele>1112.99609375</ele>
      </trkpt>
      <trkpt lat="44.03104" lon="6.54328">
        <ele>1114.31640625</ele>
      </trkpt>
      <trkpt lat="44.0311" lon="6.54313">
        <ele>1116.9453125</ele>
      </trkpt>
      <trkpt lat="44.03123" lon="6.54287">
        <ele>1122</ele>
      </trkpt>
      <trkpt lat="44.03144" lon="6.54223">
        <ele>1125.12890625</ele>
      </trkpt>
      <trkpt lat="44.03185" lon="6.54195">
        <ele>1137.0546875</ele>
      </trkpt>
      <trkpt lat="44.03228" lon="6.54167">
        <ele>1143.98046875</ele>
      </trkpt>
      <trkpt lat="44.03241" lon="6.54154">
        <ele>1145.28125</ele>
      </trkpt>
      <trkpt lat="44.03273" lon="6.54094">
        <ele>1149.9609375</ele>
      </trkpt>
      <trkpt lat="44.03297" lon="6.54041">
        <ele>1150.36328125</ele>
      </trkpt>
      <trkpt lat="44.03312" lon="6.5403">
        <ele>1152.8828125</ele>
      </trkpt>
      <trkpt lat="44.03391" lon="6.53987">
        <ele>1169.28515625</ele>
      </trkpt>
      <trkpt lat="44.03404" lon="6.53966">
        <ele>1171.39453125</ele>
      </trkpt>
      <trkpt lat="44.03419" lon="6.53929">
        <ele>1174.328125</ele>
      </trkpt>
      <trkpt lat="44.03426" lon="6.5391">
        <ele>1175.3515625</ele>
      </trkpt>
    </trkseg>
  </trk>
  <trk>
    <name><![CDATA[J2 - RUN 3 - Antoine]]></name>
    <desc><![CDATA[Géologie : les grottes d'Argens
https://www.alpespeleo.fr/com/comdiv/papier/2009/2009%20Bigot%20et%20al%20Argens%20Spel%20115%20p%2025-30.pdf]]></desc>
    <extensions>
      <line xmlns="http://www.topografix.com/GPX/gpx_style/0/2">
        <color>ff0000</color>
        <width>4</width>
        <dasharray>8</dasharray>
          <extensions>
            <sens>1</sens>
          </extensions>
      </line>
    </extensions>
    <trkseg>
      <trkpt lat="44.03426" lon="6.5391">
        <ele>1175.3515625</ele>
      </trkpt>
      <trkpt lat="44.03417" lon="6.53888">
        <ele>1174.2890625</ele>
      </trkpt>
      <trkpt lat="44.03406" lon="6.53865">
        <ele>1173.63671875</ele>
      </trkpt>
      <trkpt lat="44.034" lon="6.53843">
        <ele>1174.2421875</ele>
      </trkpt>
      <trkpt lat="44.03398" lon="6.53777">
        <ele>1182.61328125</ele>
      </trkpt>
      <trkpt lat="44.03408" lon="6.53734">
        <ele>1185.36328125</ele>
      </trkpt>
      <trkpt lat="44.03423" lon="6.53719">
        <ele>1192.65234375</ele>
      </trkpt>
      <trkpt lat="44.03445" lon="6.53682">
        <ele>1196.23828125</ele>
      </trkpt>
      <trkpt lat="44.03464" lon="6.53637">
        <ele>1200.3046875</ele>
      </trkpt>
      <trkpt lat="44.03473" lon="6.53601">
        <ele>1202.0703125</ele>
      </trkpt>
      <trkpt lat="44.03505" lon="6.53536">
        <ele>1208.13671875</ele>
      </trkpt>
      <trkpt lat="44.03522" lon="6.53463">
        <ele>1214.6484375</ele>
      </trkpt>
      <trkpt lat="44.03541" lon="6.53429">
        <ele>1219.203125</ele>
      </trkpt>
      <trkpt lat="44.03576" lon="6.53399">
        <ele>1221.24609375</ele>
      </trkpt>
      <trkpt lat="44.03612" lon="6.53363">
        <ele>1221.34375</ele>
      </trkpt>
      <trkpt lat="44.03617" lon="6.53354">
        <ele>1221.2578125</ele>
      </trkpt>
      <trkpt lat="44.03612" lon="6.53363">
        <ele>1221.34375</ele>
      </trkpt>
      <trkpt lat="44.03642" lon="6.53305">
        <ele>1228.72265625</ele>
      </trkpt>
      <trkpt lat="44.03681" lon="6.53184">
        <ele>1236.62890625</ele>
      </trkpt>
      <trkpt lat="44.03689" lon="6.53163">
        <ele>1237.0703125</ele>
      </trkpt>
      <trkpt lat="44.03709" lon="6.53148">
        <ele>1240.421875</ele>
      </trkpt>
      <trkpt lat="44.03742" lon="6.53126">
        <ele>1248.3984375</ele>
      </trkpt>
      <trkpt lat="44.03709" lon="6.53148">
        <ele>1240.421875</ele>
      </trkpt>
      <trkpt lat="44.03754" lon="6.53118">
        <ele>1250.9921875</ele>
      </trkpt>
      <trkpt lat="44.03799" lon="6.53073">
        <ele>1254.86328125</ele>
      </trkpt>
      <trkpt lat="44.03825" lon="6.53056">
        <ele>1258.23046875</ele>
      </trkpt>
      <trkpt lat="44.03848" lon="6.53051">
        <ele>1262.3515625</ele>
      </trkpt>
      <trkpt lat="44.0388" lon="6.5306">
        <ele>1268.56640625</ele>
      </trkpt>
      <trkpt lat="44.03895" lon="6.5306">
        <ele>1271.93359375</ele>
      </trkpt>
      <trkpt lat="44.03958" lon="6.53019">
        <ele>1285.98046875</ele>
      </trkpt>
      <trkpt lat="44.04007" lon="6.52946">
        <ele>1296.46484375</ele>
      </trkpt>
      <trkpt lat="44.04022" lon="6.52899">
        <ele>1296.43359375</ele>
      </trkpt>
      <trkpt lat="44.04052" lon="6.52858">
        <ele>1304.16796875</ele>
      </trkpt>
      <trkpt lat="44.04129" lon="6.52769">
        <ele>1315.26171875</ele>
      </trkpt>
      <trkpt lat="44.04134" lon="6.52764">
        <ele>1315.3203125</ele>
      </trkpt>
      <trkpt lat="44.0414" lon="6.52747">
        <ele>1314.20703125</ele>
      </trkpt>
      <trkpt lat="44.04144" lon="6.52736">
        <ele>1314.73046875</ele>
      </trkpt>
      <trkpt lat="44.04157" lon="6.52715">
        <ele>1313.9765625</ele>
      </trkpt>
      <trkpt lat="44.04185" lon="6.5268">
        <ele>1318.0390625</ele>
      </trkpt>
      <trkpt lat="44.04197" lon="6.52654">
        <ele>1319.7734375</ele>
      </trkpt>
      <trkpt lat="44.04211" lon="6.52624">
        <ele>1321.01953125</ele>
      </trkpt>
      <trkpt lat="44.04225" lon="6.52606">
        <ele>1321.48828125</ele>
      </trkpt>
      <trkpt lat="44.04211" lon="6.52624">
        <ele>1321.01953125</ele>
      </trkpt>
      <trkpt lat="44.04237" lon="6.5259">
        <ele>1322.01171875</ele>
      </trkpt>
      <trkpt lat="44.04254" lon="6.5256">
        <ele>1321.33984375</ele>
      </trkpt>
      <trkpt lat="44.04265" lon="6.52554">
        <ele>1320.8984375</ele>
      </trkpt>
      <trkpt lat="44.04314" lon="6.52541">
        <ele>1325.39453125</ele>
      </trkpt>
      <trkpt lat="44.04327" lon="6.52539">
        <ele>1327.94921875</ele>
      </trkpt>
      <trkpt lat="44.0435" lon="6.52543">
        <ele>1331.8671875</ele>
      </trkpt>
      <trkpt lat="44.04355" lon="6.52536">
        <ele>1332.94921875</ele>
      </trkpt>
      <trkpt lat="44.04355" lon="6.52528">
        <ele>1333.50390625</ele>
      </trkpt>
      <trkpt lat="44.0435" lon="6.52524">
        <ele>1333.20703125</ele>
      </trkpt>
      <trkpt lat="44.04331" lon="6.52524">
        <ele>1330.1640625</ele>
      </trkpt>
      <trkpt lat="44.04312" lon="6.52511">
        <ele>1328.64453125</ele>
      </trkpt>
      <trkpt lat="44.04303" lon="6.52489">
        <ele>1329.28515625</ele>
      </trkpt>
      <trkpt lat="44.04307" lon="6.52459">
        <ele>1330.765625</ele>
      </trkpt>
      <trkpt lat="44.04329" lon="6.52416">
        <ele>1338.75390625</ele>
      </trkpt>
      <trkpt lat="44.04378" lon="6.52358">
        <ele>1346.49609375</ele>
      </trkpt>
      <trkpt lat="44.0444" lon="6.52296">
        <ele>1352.93359375</ele>
      </trkpt>
      <trkpt lat="44.04453" lon="6.52257">
        <ele>1352.05859375</ele>
      </trkpt>
      <trkpt lat="44.0446" lon="6.52249">
        <ele>1352.53515625</ele>
      </trkpt>
      <trkpt lat="44.04464" lon="6.52249">
        <ele>1353.44140625</ele>
      </trkpt>
      <trkpt lat="44.0447" lon="6.52253">
        <ele>1355.421875</ele>
      </trkpt>
      <trkpt lat="44.0447" lon="6.52262">
        <ele>1356.65234375</ele>
      </trkpt>
      <trkpt lat="44.04449" lon="6.52311">
        <ele>1357.671875</ele>
      </trkpt>
      <trkpt lat="44.04436" lon="6.52348">
        <ele>1358.33203125</ele>
      </trkpt>
      <trkpt lat="44.04395" lon="6.52386">
        <ele>1355.25</ele>
      </trkpt>
      <trkpt lat="44.04395" lon="6.52395">
        <ele>1356.25</ele>
      </trkpt>
      <trkpt lat="44.04406" lon="6.52393">
        <ele>1357.66015625</ele>
      </trkpt>
      <trkpt lat="44.04415" lon="6.52395">
        <ele>1358.24609375</ele>
      </trkpt>
      <trkpt lat="44.04432" lon="6.52378">
        <ele>1358.65234375</ele>
      </trkpt>
      <trkpt lat="44.04438" lon="6.52371">
        <ele>1359.19140625</ele>
      </trkpt>
      <trkpt lat="44.04451" lon="6.5236">
        <ele>1360.77734375</ele>
      </trkpt>
      <trkpt lat="44.04483" lon="6.52337">
        <ele>1365.52734375</ele>
      </trkpt>
      <trkpt lat="44.04501" lon="6.5232">
        <ele>1366.8515625</ele>
      </trkpt>
      <trkpt lat="44.04522" lon="6.52309">
        <ele>1367.5078125</ele>
      </trkpt>
      <trkpt lat="44.04539" lon="6.5229">
        <ele>1370.68359375</ele>
      </trkpt>
      <trkpt lat="44.04571" lon="6.5227">
        <ele>1371.5625</ele>
      </trkpt>
      <trkpt lat="44.04593" lon="6.5226">
        <ele>1372.421875</ele>
      </trkpt>
      <trkpt lat="44.04646" lon="6.52234">
        <ele>1373.27734375</ele>
      </trkpt>
      <trkpt lat="44.04827" lon="6.52107">
        <ele>1378.5546875</ele>
      </trkpt>
      <trkpt lat="44.0499" lon="6.52004">
        <ele>1384.20703125</ele>
      </trkpt>
      <trkpt lat="44.05088" lon="6.51951">
        <ele>1390.24609375</ele>
      </trkpt>
      <trkpt lat="44.05116" lon="6.51921">
        <ele>1392.80859375</ele>
      </trkpt>
      <trkpt lat="44.05122" lon="6.51919">
        <ele>1392.91015625</ele>
      </trkpt>
      <trkpt lat="44.05168" lon="6.51908">
        <ele>1396.171875</ele>
      </trkpt>
      <trkpt lat="44.05213" lon="6.51878">
        <ele>1399.45703125</ele>
      </trkpt>
      <trkpt lat="44.05247" lon="6.51867">
        <ele>1400</ele>
      </trkpt>
      <trkpt lat="44.05279" lon="6.51867">
        <ele>1400.04296875</ele>
      </trkpt>
      <trkpt lat="44.0529" lon="6.51841">
        <ele>1400.65625</ele>
      </trkpt>
      <trkpt lat="44.05365" lon="6.51803">
        <ele>1406.01953125</ele>
      </trkpt>
      <trkpt lat="44.05367" lon="6.51788">
        <ele>1406.53515625</ele>
      </trkpt>
      <trkpt lat="44.05372" lon="6.51779">
        <ele>1407.015625</ele>
      </trkpt>
      <trkpt lat="44.05387" lon="6.5177">
        <ele>1408.35546875</ele>
      </trkpt>
      <trkpt lat="44.05421" lon="6.51753">
        <ele>1411.46875</ele>
      </trkpt>
      <trkpt lat="44.0544" lon="6.5174">
        <ele>1414.11328125</ele>
      </trkpt>
      <trkpt lat="44.05475" lon="6.51712">
        <ele>1418.49609375</ele>
      </trkpt>
      <trkpt lat="44.0549" lon="6.51691">
        <ele>1419.5234375</ele>
      </trkpt>
      <trkpt lat="44.05503" lon="6.5167">
        <ele>1421.1640625</ele>
      </trkpt>
      <trkpt lat="44.05515" lon="6.51659">
        <ele>1422.80859375</ele>
      </trkpt>
      <trkpt lat="44.05535" lon="6.51644">
        <ele>1425.3515625</ele>
      </trkpt>
      <trkpt lat="44.0555" lon="6.51637">
        <ele>1427.0390625</ele>
      </trkpt>
      <trkpt lat="44.05565" lon="6.51635">
        <ele>1428.21484375</ele>
      </trkpt>
      <trkpt lat="44.05569" lon="6.51631">
        <ele>1429.17578125</ele>
      </trkpt>
      <trkpt lat="44.05573" lon="6.51622">
        <ele>1430.9296875</ele>
      </trkpt>
      <trkpt lat="44.05565" lon="6.51616">
        <ele>1431.62890625</ele>
      </trkpt>
      <trkpt lat="44.05526" lon="6.51579">
        <ele>1436.796875</ele>
      </trkpt>
      <trkpt lat="44.05518" lon="6.51571">
        <ele>1438.1953125</ele>
      </trkpt>
      <trkpt lat="44.05515" lon="6.5156">
        <ele>1440.41796875</ele>
      </trkpt>
      <trkpt lat="44.05541" lon="6.51556">
        <ele>1441.9921875</ele>
      </trkpt>
      <trkpt lat="44.05588" lon="6.51545">
        <ele>1446.5703125</ele>
      </trkpt>
      <trkpt lat="44.05672" lon="6.51537">
        <ele>1455.01171875</ele>
      </trkpt>
      <trkpt lat="44.05709" lon="6.51537">
        <ele>1459.9921875</ele>
      </trkpt>
      <trkpt lat="44.05773" lon="6.51552">
        <ele>1468.19921875</ele>
      </trkpt>
      <trkpt lat="44.05786" lon="6.51552">
        <ele>1470.171875</ele>
      </trkpt>
      <trkpt lat="44.05786" lon="6.51541">
        <ele>1471.28125</ele>
      </trkpt>
      <trkpt lat="44.05775" lon="6.51487">
        <ele>1473.41015625</ele>
      </trkpt>
      <trkpt lat="44.05767" lon="6.51442">
        <ele>1473.68359375</ele>
      </trkpt>
    </trkseg>
  </trk>
  <trk>
    <name><![CDATA[J2 - RUN 4 - Thibaud]]></name>
    <desc><![CDATA[Physiologie : l'alimentation en raid]]></desc>
    <extensions>
      <line xmlns="http://www.topografix.com/GPX/gpx_style/0/2">
        <color>00ffff</color>
        <width>4</width>
        <dasharray>8</dasharray>
          <extensions>
            <sens>1</sens>
          </extensions>
      </line>
    </extensions>
    <trkseg>
      <trkpt lat="44.05767" lon="6.51442">
        <ele>1473.68359375</ele>
      </trkpt>
      <trkpt lat="44.05788" lon="6.51453">
        <ele>1472.78125</ele>
      </trkpt>
      <trkpt lat="44.0579" lon="6.51455">
        <ele>1474</ele>
        <time>1990-12-07T11:41:38Z</time>
      </trkpt>
      <trkpt lat="44.05828" lon="6.51397">
        <ele>1468</ele>
        <time>1990-12-07T11:41:10Z</time>
      </trkpt>
      <trkpt lat="44.05855" lon="6.51292">
        <ele>1465</ele>
        <time>1990-12-07T11:40:40Z</time>
      </trkpt>
      <trkpt lat="44.05867" lon="6.51215">
        <ele>1459</ele>
        <time>1990-12-07T11:40:11Z</time>
      </trkpt>
      <trkpt lat="44.05897" lon="6.51173">
        <ele>1452</ele>
        <time>1990-12-07T11:39:49Z</time>
      </trkpt>
      <trkpt lat="44.05937" lon="6.5116">
        <ele>1447</ele>
        <time>1990-12-07T11:39:29Z</time>
      </trkpt>
      <trkpt lat="44.05982" lon="6.51168">
        <ele>1443</ele>
        <time>1990-12-07T11:39:10Z</time>
      </trkpt>
      <trkpt lat="44.06048" lon="6.51187">
        <ele>1438</ele>
        <time>1990-12-07T11:38:43Z</time>
      </trkpt>
      <trkpt lat="44.06058" lon="6.5118">
        <ele>1437</ele>
        <time>1990-12-07T11:38:34Z</time>
      </trkpt>
      <trkpt lat="44.06005" lon="6.51093">
        <ele>1435</ele>
        <time>1990-12-07T11:38:16Z</time>
      </trkpt>
      <trkpt lat="44.05963" lon="6.51052">
        <ele>1439</ele>
        <time>1990-12-07T11:38:07Z</time>
      </trkpt>
      <trkpt lat="44.05922" lon="6.51008">
        <ele>1444</ele>
        <time>1990-12-07T11:37:58Z</time>
      </trkpt>
      <trkpt lat="44.05892" lon="6.50987">
        <ele>1448</ele>
        <time>1990-12-07T11:37:51Z</time>
      </trkpt>
      <trkpt lat="44.05853" lon="6.50965">
        <ele>1453</ele>
        <time>1990-12-07T11:37:42Z</time>
      </trkpt>
      <trkpt lat="44.0581" lon="6.50922">
        <ele>1457</ele>
        <time>1990-12-07T11:37:31Z</time>
      </trkpt>
      <trkpt lat="44.0581" lon="6.50867">
        <ele>1461</ele>
        <time>1990-12-07T11:37:20Z</time>
      </trkpt>
      <trkpt lat="44.05833" lon="6.5081">
        <ele>1467</ele>
        <time>1990-12-07T11:37:08Z</time>
      </trkpt>
      <trkpt lat="44.05838" lon="6.50782">
        <ele>1470</ele>
        <time>1990-12-07T11:37:03Z</time>
      </trkpt>
      <trkpt lat="44.05857" lon="6.507">
        <ele>1476</ele>
        <time>1990-12-07T11:36:52Z</time>
      </trkpt>
      <trkpt lat="44.05887" lon="6.50597">
        <ele>1480</ele>
        <time>1990-12-07T11:36:35Z</time>
      </trkpt>
      <trkpt lat="44.05935" lon="6.5053">
        <ele>1479</ele>
        <time>1990-12-07T11:36:18Z</time>
      </trkpt>
      <trkpt lat="44.05985" lon="6.50413">
        <ele>1477</ele>
        <time>1990-12-07T11:35:52Z</time>
      </trkpt>
      <trkpt lat="44.06012" lon="6.50385">
        <ele>1480</ele>
        <time>1990-12-07T11:34:26Z</time>
      </trkpt>
      <trkpt lat="44.06047" lon="6.50323">
        <ele>1480</ele>
        <time>1990-12-07T11:34:00Z</time>
      </trkpt>
      <trkpt lat="44.0609" lon="6.50203">
        <ele>1481</ele>
        <time>1990-12-07T11:33:43Z</time>
      </trkpt>
      <trkpt lat="44.06197" lon="6.5002">
        <ele>1485</ele>
        <time>1990-12-07T11:33:19Z</time>
      </trkpt>
      <trkpt lat="44.06232" lon="6.49997">
        <ele>1490</ele>
        <time>1990-12-07T11:33:12Z</time>
      </trkpt>
      <trkpt lat="44.06252" lon="6.49997">
        <ele>1493</ele>
        <time>1990-12-07T11:33:08Z</time>
      </trkpt>
      <trkpt lat="44.06278" lon="6.49982">
        <ele>1495</ele>
        <time>1990-12-07T11:32:32Z</time>
      </trkpt>
      <trkpt lat="44.06298" lon="6.49932">
        <ele>1492</ele>
        <time>1990-12-07T11:32:16Z</time>
      </trkpt>
      <trkpt lat="44.06297" lon="6.49853">
        <ele>1491</ele>
        <time>1990-12-07T11:32:03Z</time>
      </trkpt>
      <trkpt lat="44.063" lon="6.4983">
        <ele>1491</ele>
        <time>1990-12-07T11:31:59Z</time>
      </trkpt>
      <trkpt lat="44.06353" lon="6.49702">
        <ele>1488</ele>
        <time>1990-12-07T11:31:29Z</time>
      </trkpt>
      <trkpt lat="44.0639" lon="6.49638">
        <ele>1490</ele>
        <time>1990-12-07T11:31:18Z</time>
      </trkpt>
      <trkpt lat="44.06425" lon="6.49605">
        <ele>1493</ele>
        <time>1990-12-07T11:31:09Z</time>
      </trkpt>
      <trkpt lat="44.06498" lon="6.4956">
        <ele>1497</ele>
        <time>1990-12-07T11:30:47Z</time>
      </trkpt>
      <trkpt lat="44.06503" lon="6.49552">
        <ele>1498</ele>
        <time>1990-12-07T11:22:26Z</time>
      </trkpt>
      <trkpt lat="44.06508" lon="6.49518">
        <ele>1495</ele>
        <time>1990-12-07T11:13:44Z</time>
      </trkpt>
      <trkpt lat="44.0651" lon="6.49438">
        <ele>1495</ele>
        <time>1990-12-07T11:13:24Z</time>
      </trkpt>
      <trkpt lat="44.06508" lon="6.49407">
        <ele>1495</ele>
        <time>1990-12-07T11:13:12Z</time>
      </trkpt>
      <trkpt lat="44.06558" lon="6.49418">
        <ele>1495</ele>
        <time>1990-12-07T11:12:50Z</time>
      </trkpt>
      <trkpt lat="44.06597" lon="6.49452">
        <ele>1494</ele>
        <time>1990-12-07T11:12:30Z</time>
      </trkpt>
      <trkpt lat="44.06653" lon="6.49482">
        <ele>1489</ele>
        <time>1990-12-07T11:12:04Z</time>
      </trkpt>
      <trkpt lat="44.06727" lon="6.49478">
        <ele>1485</ele>
        <time>1990-12-07T11:11:34Z</time>
      </trkpt>
      <trkpt lat="44.06775" lon="6.49518">
        <ele>1480</ele>
        <time>1990-12-07T11:11:07Z</time>
      </trkpt>
      <trkpt lat="44.0684" lon="6.49575">
        <ele>1475</ele>
        <time>1990-12-07T11:10:36Z</time>
      </trkpt>
      <trkpt lat="44.06888" lon="6.49637">
        <ele>1470</ele>
        <time>1990-12-07T11:10:09Z</time>
      </trkpt>
      <trkpt lat="44.06945" lon="6.49657">
        <ele>1464</ele>
        <time>1990-12-07T11:09:42Z</time>
      </trkpt>
      <trkpt lat="44.06987" lon="6.49705">
        <ele>1458</ele>
        <time>1990-12-07T11:09:15Z</time>
      </trkpt>
      <trkpt lat="44.07038" lon="6.49755">
        <ele>1452</ele>
        <time>1990-12-07T11:08:46Z</time>
      </trkpt>
      <trkpt lat="44.07057" lon="6.49798">
        <ele>1448</ele>
        <time>1990-12-07T11:08:27Z</time>
      </trkpt>
      <trkpt lat="44.07085" lon="6.49852">
        <ele>1443</ele>
        <time>1990-12-07T11:08:01Z</time>
      </trkpt>
      <trkpt lat="44.07102" lon="6.49927">
        <ele>1437</ele>
        <time>1990-12-07T11:07:34Z</time>
      </trkpt>
      <trkpt lat="44.07103" lon="6.4999">
        <ele>1431</ele>
        <time>1990-12-07T11:07:10Z</time>
      </trkpt>
      <trkpt lat="44.07117" lon="6.50068">
        <ele>1424</ele>
        <time>1990-12-07T11:06:45Z</time>
      </trkpt>
      <trkpt lat="44.07127" lon="6.50148">
        <ele>1419</ele>
        <time>1990-12-07T11:06:20Z</time>
      </trkpt>
      <trkpt lat="44.07138" lon="6.50207">
        <ele>1414</ele>
        <time>1990-12-07T11:06:02Z</time>
      </trkpt>
      <trkpt lat="44.07138" lon="6.5021">
        <ele>1413</ele>
        <time>1990-12-07T11:05:50Z</time>
      </trkpt>
      <trkpt lat="44.0714" lon="6.50218">
        <ele>1413</ele>
        <time>1990-12-07T11:04:09Z</time>
      </trkpt>
      <trkpt lat="44.07153" lon="6.50278">
        <ele>1408</ele>
        <time>1990-12-07T11:03:47Z</time>
      </trkpt>
      <trkpt lat="44.07153" lon="6.50312">
        <ele>1406</ele>
        <time>1990-12-07T11:03:35Z</time>
      </trkpt>
      <trkpt lat="44.07165" lon="6.50348">
        <ele>1402</ele>
        <time>1990-12-07T11:03:19Z</time>
      </trkpt>
      <trkpt lat="44.07193" lon="6.5042">
        <ele>1396</ele>
        <time>1990-12-07T11:02:51Z</time>
      </trkpt>
      <trkpt lat="44.07215" lon="6.50483">
        <ele>1390</ele>
        <time>1990-12-07T11:02:26Z</time>
      </trkpt>
      <trkpt lat="44.07242" lon="6.50553">
        <ele>1384</ele>
        <time>1990-12-07T11:01:59Z</time>
      </trkpt>
      <trkpt lat="44.07248" lon="6.50605">
        <ele>1380</ele>
        <time>1990-12-07T11:01:42Z</time>
      </trkpt>
      <trkpt lat="44.07267" lon="6.50702">
        <ele>1376</ele>
        <time>1990-12-07T11:01:16Z</time>
      </trkpt>
      <trkpt lat="44.07295" lon="6.50787">
        <ele>1370</ele>
        <time>1990-12-07T11:00:49Z</time>
      </trkpt>
      <trkpt lat="44.07327" lon="6.50863">
        <ele>1363</ele>
        <time>1990-12-07T11:00:20Z</time>
      </trkpt>
      <trkpt lat="44.07353" lon="6.50918">
        <ele>1358</ele>
        <time>1990-12-07T10:59:57Z</time>
      </trkpt>
      <trkpt lat="44.07377" lon="6.50962">
        <ele>1353</ele>
        <time>1990-12-07T10:59:38Z</time>
      </trkpt>
      <trkpt lat="44.07423" lon="6.50993">
        <ele>1347</ele>
        <time>1990-12-07T10:59:12Z</time>
      </trkpt>
      <trkpt lat="44.07478" lon="6.51018">
        <ele>1342</ele>
        <time>1990-12-07T10:58:45Z</time>
      </trkpt>
      <trkpt lat="44.07533" lon="6.51037">
        <ele>1336</ele>
        <time>1990-12-07T10:58:19Z</time>
      </trkpt>
      <trkpt lat="44.0755" lon="6.51105">
        <ele>1330</ele>
        <time>1990-12-07T10:57:54Z</time>
      </trkpt>
      <trkpt lat="44.07577" lon="6.51175">
        <ele>1325</ele>
        <time>1990-12-07T10:57:27Z</time>
      </trkpt>
      <trkpt lat="44.07592" lon="6.51228">
        <ele>1321</ele>
        <time>1990-12-07T10:57:09Z</time>
      </trkpt>
      <trkpt lat="44.0763" lon="6.51235">
        <ele>1317</ele>
        <time>1990-12-07T10:56:54Z</time>
      </trkpt>
      <trkpt lat="44.07685" lon="6.51212">
        <ele>1312</ele>
        <time>1990-12-07T10:56:31Z</time>
      </trkpt>
      <trkpt lat="44.07705" lon="6.51145">
        <ele>1306</ele>
        <time>1990-12-07T10:56:06Z</time>
      </trkpt>
      <trkpt lat="44.0769" lon="6.5106">
        <ele>1302</ele>
        <time>1990-12-07T10:55:41Z</time>
      </trkpt>
      <trkpt lat="44.07682" lon="6.51027">
        <ele>1301</ele>
        <time>1990-12-07T10:55:31Z</time>
      </trkpt>
      <trkpt lat="44.07698" lon="6.50958">
        <ele>1295</ele>
        <time>1990-12-07T10:55:06Z</time>
      </trkpt>
      <trkpt lat="44.07732" lon="6.50968">
        <ele>1290</ele>
        <time>1990-12-07T10:54:46Z</time>
      </trkpt>
      <trkpt lat="44.0776" lon="6.51043">
        <ele>1284</ele>
        <time>1990-12-07T10:54:20Z</time>
      </trkpt>
      <trkpt lat="44.07812" lon="6.51027">
        <ele>1279</ele>
        <time>1990-12-07T10:53:57Z</time>
      </trkpt>
      <trkpt lat="44.07842" lon="6.5096">
        <ele>1273</ele>
        <time>1990-12-07T10:53:31Z</time>
      </trkpt>
      <trkpt lat="44.07855" lon="6.50915">
        <ele>1268</ele>
        <time>1990-12-07T10:53:13Z</time>
      </trkpt>
      <trkpt lat="44.0787" lon="6.50848">
        <ele>1262</ele>
        <time>1990-12-07T10:52:50Z</time>
      </trkpt>
      <trkpt lat="44.07923" lon="6.50843">
        <ele>1256</ele>
        <time>1990-12-07T10:52:25Z</time>
      </trkpt>
      <trkpt lat="44.07947" lon="6.5085">
        <ele>1252</ele>
        <time>1990-12-07T10:52:15Z</time>
      </trkpt>
      <trkpt lat="44.08008" lon="6.50883">
        <ele>1247</ele>
        <time>1990-12-07T10:51:50Z</time>
      </trkpt>
      <trkpt lat="44.08038" lon="6.50895">
        <ele>1243</ele>
        <time>1990-12-07T10:51:39Z</time>
      </trkpt>
      <trkpt lat="44.08077" lon="6.50883">
        <ele>1240</ele>
        <time>1990-12-07T10:51:24Z</time>
      </trkpt>
      <trkpt lat="44.08078" lon="6.50942">
        <ele>1236</ele>
        <time>1990-12-07T10:51:01Z</time>
      </trkpt>
      <trkpt lat="44.081" lon="6.51025">
        <ele>1231</ele>
        <time>1990-12-07T10:50:37Z</time>
      </trkpt>
      <trkpt lat="44.0807" lon="6.5108">
        <ele>1227</ele>
        <time>1990-12-07T10:50:17Z</time>
      </trkpt>
      <trkpt lat="44.08077" lon="6.51155">
        <ele>1223</ele>
        <time>1990-12-07T10:49:57Z</time>
      </trkpt>
      <trkpt lat="44.0806" lon="6.51222">
        <ele>1219</ele>
        <time>1990-12-07T10:49:32Z</time>
      </trkpt>
      <trkpt lat="44.081" lon="6.51255">
        <ele>1213</ele>
        <time>1990-12-07T10:49:04Z</time>
      </trkpt>
      <trkpt lat="44.0811" lon="6.51275">
        <ele>1211</ele>
        <time>1990-12-07T10:48:55Z</time>
      </trkpt>
      <trkpt lat="44.08147" lon="6.51263">
        <ele>1205</ele>
        <time>1990-12-07T10:48:32Z</time>
      </trkpt>
      <trkpt lat="44.08197" lon="6.5128">
        <ele>1198</ele>
        <time>1990-12-07T10:48:05Z</time>
      </trkpt>
      <trkpt lat="44.0825" lon="6.51303">
        <ele>1192</ele>
        <time>1990-12-07T10:47:42Z</time>
      </trkpt>
      <trkpt lat="44.08273" lon="6.51312">
        <ele>1187</ele>
        <time>1990-12-07T10:47:29Z</time>
      </trkpt>
      <trkpt lat="44.08325" lon="6.51302">
        <ele>1181</ele>
        <time>1990-12-07T10:47:09Z</time>
      </trkpt>
      <trkpt lat="44.08382" lon="6.51287">
        <ele>1174</ele>
        <time>1990-12-07T10:46:43Z</time>
      </trkpt>
      <trkpt lat="44.08412" lon="6.51242">
        <ele>1171</ele>
        <time>1990-12-07T10:46:26Z</time>
      </trkpt>
      <trkpt lat="44.08425" lon="6.5124">
        <ele>1169</ele>
        <time>1990-12-07T10:46:20Z</time>
      </trkpt>
      <trkpt lat="44.0844" lon="6.51248">
        <ele>1167</ele>
        <time>1990-12-07T10:46:12Z</time>
      </trkpt>
      <trkpt lat="44.08488" lon="6.51222">
        <ele>1160</ele>
        <time>1990-12-07T10:45:49Z</time>
      </trkpt>
      <trkpt lat="44.08527" lon="6.51225">
        <ele>1156</ele>
        <time>1990-12-07T10:45:32Z</time>
      </trkpt>
      <trkpt lat="44.08552" lon="6.51213">
        <ele>1153</ele>
        <time>1990-12-07T10:45:21Z</time>
      </trkpt>
      <trkpt lat="44.08602" lon="6.51208">
        <ele>1147</ele>
        <time>1990-12-07T10:44:58Z</time>
      </trkpt>
      <trkpt lat="44.08653" lon="6.51167">
        <ele>1142</ele>
        <time>1990-12-07T10:44:34Z</time>
      </trkpt>
      <trkpt lat="44.08683" lon="6.51097">
        <ele>1138</ele>
        <time>1990-12-07T10:44:12Z</time>
      </trkpt>
      <trkpt lat="44.08737" lon="6.51047">
        <ele>1133</ele>
        <time>1990-12-07T10:43:43Z</time>
      </trkpt>
      <trkpt lat="44.08787" lon="6.51032">
        <ele>1126</ele>
        <time>1990-12-07T10:43:18Z</time>
      </trkpt>
      <trkpt lat="44.08792" lon="6.51015">
        <ele>1125</ele>
        <time>1990-12-07T10:43:11Z</time>
      </trkpt>
      <trkpt lat="44.0876" lon="6.50897">
        <ele>1122</ele>
        <time>1990-12-07T10:42:39Z</time>
      </trkpt>
      <trkpt lat="44.08702" lon="6.50812">
        <ele>1119</ele>
        <time>1990-12-07T10:42:08Z</time>
      </trkpt>
      <trkpt lat="44.0863" lon="6.50732">
        <ele>1117</ele>
        <time>1990-12-07T10:41:37Z</time>
      </trkpt>
      <trkpt lat="44.08585" lon="6.50657">
        <ele>1115</ele>
        <time>1990-12-07T10:41:07Z</time>
      </trkpt>
      <trkpt lat="44.08578" lon="6.50642">
        <ele>1116</ele>
        <time>1990-12-07T10:40:14Z</time>
      </trkpt>
      <trkpt lat="44.08573" lon="6.50625">
        <ele>1116</ele>
        <time>1990-12-07T10:39:45Z</time>
      </trkpt>
      <trkpt lat="44.08562" lon="6.50615">
        <ele>1116</ele>
        <time>1990-12-07T10:39:37Z</time>
      </trkpt>
      <trkpt lat="44.08498" lon="6.50632">
        <ele>1121</ele>
        <time>1990-12-07T10:39:20Z</time>
      </trkpt>
      <trkpt lat="44.08483" lon="6.50648">
        <ele>1125</ele>
        <time>1990-12-07T10:39:11Z</time>
      </trkpt>
      <trkpt lat="44.08493" lon="6.50575">
        <ele>1127</ele>
        <time>1990-12-07T10:38:52Z</time>
      </trkpt>
      <trkpt lat="44.08492" lon="6.50557">
        <ele>1128</ele>
        <time>1990-12-07T10:38:44Z</time>
      </trkpt>
      <trkpt lat="44.0848" lon="6.50525">
        <ele>1123</ele>
        <time>1990-12-07T10:38:28Z</time>
      </trkpt>
      <trkpt lat="44.08477" lon="6.50482">
        <ele>1121</ele>
        <time>1990-12-07T10:38:15Z</time>
      </trkpt>
      <trkpt lat="44.08507" lon="6.50438">
        <ele>1118</ele>
        <time>1990-12-07T10:37:55Z</time>
      </trkpt>
      <trkpt lat="44.08558" lon="6.50373">
        <ele>1114</ele>
        <time>1990-12-07T10:37:30Z</time>
      </trkpt>
      <trkpt lat="44.08617" lon="6.50308">
        <ele>1112</ele>
        <time>1990-12-07T10:37:09Z</time>
      </trkpt>
      <trkpt lat="44.08703" lon="6.50338">
        <ele>1112</ele>
        <time>1990-12-07T10:36:53Z</time>
      </trkpt>
      <trkpt lat="44.08813" lon="6.50307">
        <ele>1113</ele>
        <time>1990-12-07T10:36:38Z</time>
      </trkpt>
      <trkpt lat="44.08857" lon="6.50303">
        <ele>1116</ele>
        <time>1990-12-07T10:36:33Z</time>
      </trkpt>
      <trkpt lat="44.08915" lon="6.5029">
        <ele>1123</ele>
        <time>1990-12-07T10:36:25Z</time>
      </trkpt>
      <trkpt lat="44.09003" lon="6.50288">
        <ele>1127</ele>
        <time>1990-12-07T10:36:07Z</time>
      </trkpt>
      <trkpt lat="44.09057" lon="6.50257">
        <ele>1129</ele>
        <time>1990-12-07T10:35:57Z</time>
      </trkpt>
      <trkpt lat="44.09083" lon="6.5021">
        <ele>1130</ele>
        <time>1990-12-07T10:35:49Z</time>
      </trkpt>
      <trkpt lat="44.0909" lon="6.50153">
        <ele>1131</ele>
        <time>1990-12-07T10:35:41Z</time>
      </trkpt>
      <trkpt lat="44.09093" lon="6.50075">
        <ele>1130</ele>
        <time>1990-12-07T10:35:29Z</time>
      </trkpt>
      <trkpt lat="44.09078" lon="6.50005">
        <ele>1130</ele>
        <time>1990-12-07T10:35:18Z</time>
      </trkpt>
      <trkpt lat="44.0907" lon="6.49973">
        <ele>1130</ele>
        <time>1990-12-07T10:35:13Z</time>
      </trkpt>
    </trkseg>
  </trk>
  <trk>
    <name><![CDATA[J2 - RUN 5]]></name>
    <desc><![CDATA[Patrimoine : la pastoralisme (+ patrimoine local de Thorame-basse)]]></desc>
    <extensions>
      <line xmlns="http://www.topografix.com/GPX/gpx_style/0/2">
        <color>ffff00</color>
        <width>4</width>
        <dasharray>8</dasharray>
          <extensions>
            <sens>1</sens>
          </extensions>
      </line>
    </extensions>
    <trkseg>
      <trkpt lat="44.0907" lon="6.49973">
        <ele>1130</ele>
        <time>1990-12-07T10:35:13Z</time>
      </trkpt>
      <trkpt lat="44.09098" lon="6.49953">
        <ele>1134</ele>
        <time>1990-12-07T10:35:00Z</time>
      </trkpt>
      <trkpt lat="44.09112" lon="6.49953">
        <ele>1136</ele>
        <time>1990-12-07T10:34:57Z</time>
      </trkpt>
      <trkpt lat="44.09158" lon="6.49937">
        <ele>1141</ele>
        <time>1990-12-07T10:34:48Z</time>
      </trkpt>
      <trkpt lat="44.0921" lon="6.49952">
        <ele>1142</ele>
        <time>1990-12-07T10:34:31Z</time>
      </trkpt>
      <trkpt lat="44.09258" lon="6.5">
        <ele>1143</ele>
        <time>1990-12-07T10:34:19Z</time>
      </trkpt>
      <trkpt lat="44.09358" lon="6.50013">
        <ele>1144</ele>
        <time>1990-12-07T10:34:00Z</time>
      </trkpt>
      <trkpt lat="44.0941" lon="6.50028">
        <ele>1145</ele>
        <time>1990-12-07T10:33:49Z</time>
      </trkpt>
      <trkpt lat="44.09445" lon="6.50042">
        <ele>1147</ele>
        <time>1990-12-07T10:33:42Z</time>
      </trkpt>
      <trkpt lat="44.09492" lon="6.50015">
        <ele>1147</ele>
        <time>1990-12-07T10:33:20Z</time>
      </trkpt>
      <trkpt lat="44.09533" lon="6.50003">
        <ele>1147</ele>
        <time>1990-12-07T10:33:03Z</time>
      </trkpt>
      <trkpt lat="44.09552" lon="6.49992">
        <ele>1152</ele>
        <time>1990-12-07T10:32:53Z</time>
      </trkpt>
      <trkpt lat="44.0954" lon="6.49948">
        <ele>1158</ele>
        <time>1990-12-07T10:32:34Z</time>
      </trkpt>
      <trkpt lat="44.0953" lon="6.49898">
        <ele>1159</ele>
        <time>1990-12-07T10:32:25Z</time>
      </trkpt>
      <trkpt lat="44.09528" lon="6.49852">
        <ele>1159</ele>
        <time>1990-12-07T10:32:19Z</time>
      </trkpt>
      <trkpt lat="44.09518" lon="6.49807">
        <ele>1162</ele>
        <time>1990-12-07T10:32:13Z</time>
      </trkpt>
      <trkpt lat="44.0951" lon="6.49757">
        <ele>1168</ele>
        <time>1990-12-07T10:30:49Z</time>
      </trkpt>
      <trkpt lat="44.0951" lon="6.49693">
        <ele>1167</ele>
        <time>1990-12-07T10:30:22Z</time>
      </trkpt>
      <trkpt lat="44.09517" lon="6.49577">
        <ele>1167</ele>
        <time>1990-12-07T10:29:56Z</time>
      </trkpt>
      <trkpt lat="44.09517" lon="6.49537">
        <ele>1166</ele>
        <time>1990-12-07T10:27:28Z</time>
      </trkpt>
      <trkpt lat="44.09517" lon="6.49503">
        <ele>1166</ele>
        <time>1990-12-07T10:27:07Z</time>
      </trkpt>
      <trkpt lat="44.09517" lon="6.49457">
        <ele>1164</ele>
        <time>1990-12-07T10:26:48Z</time>
      </trkpt>
      <trkpt lat="44.09517" lon="6.49437">
        <ele>1163</ele>
        <time>1990-12-07T10:26:38Z</time>
      </trkpt>
      <trkpt lat="44.0952" lon="6.49395">
        <ele>1161</ele>
        <time>1990-12-07T10:26:21Z</time>
      </trkpt>
      <trkpt lat="44.09513" lon="6.49377">
        <ele>1159</ele>
        <time>1990-12-07T10:26:09Z</time>
      </trkpt>
      <trkpt lat="44.09523" lon="6.49325">
        <ele>1155</ele>
        <time>1990-12-07T10:25:50Z</time>
      </trkpt>
      <trkpt lat="44.09497" lon="6.49302">
        <ele>1151</ele>
        <time>1990-12-07T10:25:21Z</time>
      </trkpt>
      <trkpt lat="44.09483" lon="6.49287">
        <ele>1147</ele>
        <time>1990-12-07T10:25:08Z</time>
      </trkpt>
      <trkpt lat="44.09468" lon="6.49277">
        <ele>1142</ele>
        <time>1990-12-07T10:24:57Z</time>
      </trkpt>
      <trkpt lat="44.09458" lon="6.49235">
        <ele>1137</ele>
        <time>1990-12-07T10:24:37Z</time>
      </trkpt>
      <trkpt lat="44.09468" lon="6.49183">
        <ele>1133</ele>
        <time>1990-12-07T10:24:23Z</time>
      </trkpt>
      <trkpt lat="44.09475" lon="6.49123">
        <ele>1130</ele>
        <time>1990-12-07T10:23:56Z</time>
      </trkpt>
      <trkpt lat="44.09472" lon="6.49103">
        <ele>1131</ele>
        <time>1990-12-07T10:23:49Z</time>
      </trkpt>
      <trkpt lat="44.09475" lon="6.49072">
        <ele>1130</ele>
        <time>1990-12-07T10:23:39Z</time>
      </trkpt>
      <trkpt lat="44.09467" lon="6.49033">
        <ele>1128</ele>
        <time>1990-12-07T10:23:24Z</time>
      </trkpt>
      <trkpt lat="44.09467" lon="6.48997">
        <ele>1127</ele>
        <time>1990-12-07T10:22:59Z</time>
      </trkpt>
      <trkpt lat="44.09463" lon="6.48967">
        <ele>1126</ele>
        <time>1990-12-07T10:22:43Z</time>
      </trkpt>
      <trkpt lat="44.0946" lon="6.4892">
        <ele>1127</ele>
        <time>1990-12-07T10:22:17Z</time>
      </trkpt>
      <trkpt lat="44.0947" lon="6.48865">
        <ele>1126</ele>
        <time>1990-12-07T10:21:47Z</time>
      </trkpt>
      <trkpt lat="44.09467" lon="6.48822">
        <ele>1125</ele>
        <time>1990-12-07T10:21:12Z</time>
      </trkpt>
      <trkpt lat="44.09457" lon="6.48782">
        <ele>1127</ele>
        <time>1990-12-07T10:20:57Z</time>
      </trkpt>
      <trkpt lat="44.09455" lon="6.48763">
        <ele>1126</ele>
        <time>1990-12-07T10:20:50Z</time>
      </trkpt>
      <trkpt lat="44.09438" lon="6.48733">
        <ele>1125</ele>
        <time>1990-12-07T10:20:35Z</time>
      </trkpt>
      <trkpt lat="44.09423" lon="6.48685">
        <ele>1127</ele>
        <time>1990-12-07T10:19:58Z</time>
      </trkpt>
      <trkpt lat="44.0941" lon="6.4865">
        <ele>1127</ele>
        <time>1990-12-07T10:19:32Z</time>
      </trkpt>
      <trkpt lat="44.094" lon="6.48632">
        <ele>1124</ele>
        <time>1990-12-07T10:18:58Z</time>
      </trkpt>
      <trkpt lat="44.09398" lon="6.48558">
        <ele>1125</ele>
        <time>1990-12-07T10:18:37Z</time>
      </trkpt>
      <trkpt lat="44.09393" lon="6.48548">
        <ele>1126</ele>
        <time>1990-12-07T10:18:30Z</time>
      </trkpt>
      <trkpt lat="44.09367" lon="6.48475">
        <ele>1123</ele>
        <time>1990-12-07T10:18:05Z</time>
      </trkpt>
      <trkpt lat="44.09343" lon="6.48437">
        <ele>1122</ele>
        <time>1990-12-07T10:17:50Z</time>
      </trkpt>
      <trkpt lat="44.09302" lon="6.48415">
        <ele>1120</ele>
        <time>1990-12-07T10:17:31Z</time>
      </trkpt>
      <trkpt lat="44.09283" lon="6.48395">
        <ele>1118</ele>
        <time>1990-12-07T10:17:14Z</time>
      </trkpt>
      <trkpt lat="44.09245" lon="6.48357">
        <ele>1118</ele>
        <time>1990-12-07T10:16:54Z</time>
      </trkpt>
      <trkpt lat="44.0923" lon="6.48313">
        <ele>1119</ele>
        <time>1990-12-07T10:16:40Z</time>
      </trkpt>
      <trkpt lat="44.0923" lon="6.48307">
        <ele>1119</ele>
        <time>1990-12-07T10:15:55Z</time>
      </trkpt>
      <trkpt lat="44.09192" lon="6.48283">
        <ele>1120</ele>
        <time>1990-12-07T10:15:43Z</time>
      </trkpt>
      <trkpt lat="44.09155" lon="6.48263">
        <ele>1119</ele>
        <time>1990-12-07T10:15:28Z</time>
      </trkpt>
      <trkpt lat="44.09113" lon="6.48242">
        <ele>1118</ele>
        <time>1990-12-07T10:15:10Z</time>
      </trkpt>
      <trkpt lat="44.0906" lon="6.4821">
        <ele>1118</ele>
        <time>1990-12-07T10:14:44Z</time>
      </trkpt>
      <trkpt lat="44.0903" lon="6.48198">
        <ele>1118</ele>
        <time>1990-12-07T10:14:30Z</time>
      </trkpt>
      <trkpt lat="44.08992" lon="6.4819">
        <ele>1117</ele>
        <time>1990-12-07T10:14:16Z</time>
      </trkpt>
      <trkpt lat="44.08943" lon="6.48148">
        <ele>1114</ele>
        <time>1990-12-07T10:13:51Z</time>
      </trkpt>
      <trkpt lat="44.08907" lon="6.48102">
        <ele>1112</ele>
        <time>1990-12-07T10:13:35Z</time>
      </trkpt>
      <trkpt lat="44.0887" lon="6.48077">
        <ele>1113</ele>
        <time>1990-12-07T10:13:22Z</time>
      </trkpt>
      <trkpt lat="44.08805" lon="6.4807">
        <ele>1109</ele>
        <time>1990-12-07T10:12:55Z</time>
      </trkpt>
      <trkpt lat="44.08745" lon="6.4805">
        <ele>1107</ele>
        <time>1990-12-07T10:12:32Z</time>
      </trkpt>
      <trkpt lat="44.08678" lon="6.48022">
        <ele>1104</ele>
        <time>1990-12-07T10:12:05Z</time>
      </trkpt>
      <trkpt lat="44.08648" lon="6.48005">
        <ele>1104</ele>
        <time>1990-12-07T10:02:33Z</time>
      </trkpt>
      <trkpt lat="44.08622" lon="6.4795">
        <ele>1105</ele>
        <time>1990-12-07T10:02:16Z</time>
      </trkpt>
      <trkpt lat="44.08548" lon="6.47938">
        <ele>1105</ele>
        <time>1990-12-07T10:01:56Z</time>
      </trkpt>
      <trkpt lat="44.08502" lon="6.47948">
        <ele>1105</ele>
        <time>1990-12-07T10:01:45Z</time>
      </trkpt>
      <trkpt lat="44.08447" lon="6.47957">
        <ele>1106</ele>
        <time>1990-12-07T10:01:33Z</time>
      </trkpt>
      <trkpt lat="44.08383" lon="6.4794">
        <ele>1106</ele>
        <time>1990-12-07T10:01:14Z</time>
      </trkpt>
      <trkpt lat="44.08347" lon="6.48015">
        <ele>1103</ele>
        <time>1990-12-07T10:00:56Z</time>
      </trkpt>
      <trkpt lat="44.08293" lon="6.48055">
        <ele>1101</ele>
        <time>1990-12-07T10:00:39Z</time>
      </trkpt>
      <trkpt lat="44.08207" lon="6.48125">
        <ele>1097</ele>
        <time>1990-12-07T10:00:11Z</time>
      </trkpt>
      <trkpt lat="44.08148" lon="6.48207">
        <ele>1094</ele>
        <time>1990-12-07T09:59:50Z</time>
      </trkpt>
      <trkpt lat="44.08127" lon="6.48223">
        <ele>1094</ele>
        <time>1990-12-07T09:59:44Z</time>
      </trkpt>
      <trkpt lat="44.08077" lon="6.48245">
        <ele>1093</ele>
        <time>1990-12-07T09:59:32Z</time>
      </trkpt>
      <trkpt lat="44.0805" lon="6.48262">
        <ele>1093</ele>
        <time>1990-12-07T09:59:25Z</time>
      </trkpt>
      <trkpt lat="44.07983" lon="6.48292">
        <ele>1091</ele>
        <time>1990-12-07T09:59:08Z</time>
      </trkpt>
      <trkpt lat="44.07895" lon="6.4834">
        <ele>1090</ele>
        <time>1990-12-07T09:58:44Z</time>
      </trkpt>
      <trkpt lat="44.07797" lon="6.48442">
        <ele>1087</ele>
        <time>1990-12-07T09:58:15Z</time>
      </trkpt>
      <trkpt lat="44.07733" lon="6.48492">
        <ele>1085</ele>
        <time>1990-12-07T09:57:57Z</time>
      </trkpt>
      <trkpt lat="44.0765" lon="6.48438">
        <ele>1084</ele>
        <time>1990-12-07T09:57:34Z</time>
      </trkpt>
      <trkpt lat="44.07625" lon="6.48362">
        <ele>1084</ele>
        <time>1990-12-07T09:57:20Z</time>
      </trkpt>
      <trkpt lat="44.0759" lon="6.48343">
        <ele>1083</ele>
        <time>1990-12-07T09:57:11Z</time>
      </trkpt>
      <trkpt lat="44.07522" lon="6.48257">
        <ele>1081</ele>
        <time>1990-12-07T09:56:48Z</time>
      </trkpt>
      <trkpt lat="44.07522" lon="6.4817">
        <ele>1081</ele>
        <time>1990-12-07T09:56:34Z</time>
      </trkpt>
      <trkpt lat="44.07523" lon="6.481">
        <ele>1080</ele>
        <time>1990-12-07T09:56:21Z</time>
      </trkpt>
      <trkpt lat="44.07492" lon="6.48073">
        <ele>1078</ele>
        <time>1990-12-07T09:56:11Z</time>
      </trkpt>
      <trkpt lat="44.07492" lon="6.48015">
        <ele>1080</ele>
        <time>1990-12-07T09:56:01Z</time>
      </trkpt>
      <trkpt lat="44.07518" lon="6.47952">
        <ele>1086</ele>
        <time>1990-12-07T09:55:51Z</time>
      </trkpt>
      <trkpt lat="44.07447" lon="6.479">
        <ele>1083</ele>
        <time>1990-12-07T09:55:29Z</time>
      </trkpt>
      <trkpt lat="44.07378" lon="6.4782">
        <ele>1080</ele>
        <time>1990-12-07T09:55:04Z</time>
      </trkpt>
      <trkpt lat="44.07358" lon="6.47803">
        <ele>1078</ele>
        <time>1990-12-07T09:54:54Z</time>
      </trkpt>
      <trkpt lat="44.0733" lon="6.47793">
        <ele>1078</ele>
        <time>1990-12-07T09:54:44Z</time>
      </trkpt>
      <trkpt lat="44.07312" lon="6.47753">
        <ele>1079</ele>
        <time>1990-12-07T09:54:37Z</time>
      </trkpt>
      <trkpt lat="44.07257" lon="6.47652">
        <ele>1081</ele>
        <time>1990-12-07T09:54:19Z</time>
      </trkpt>
      <trkpt lat="44.07232" lon="6.47615">
        <ele>1082</ele>
        <time>1990-12-07T09:54:12Z</time>
      </trkpt>
      <trkpt lat="44.07187" lon="6.47612">
        <ele>1084</ele>
        <time>1990-12-07T09:53:59Z</time>
      </trkpt>
      <trkpt lat="44.07182" lon="6.47608">
        <ele>1085</ele>
        <time>1990-12-07T09:52:38Z</time>
      </trkpt>
      <trkpt lat="44.0718" lon="6.47585">
        <ele>1088</ele>
        <time>1990-12-07T09:52:31Z</time>
      </trkpt>
      <trkpt lat="44.07168" lon="6.4756">
        <ele>1093</ele>
        <time>1990-12-07T09:52:21Z</time>
      </trkpt>
      <trkpt lat="44.07167" lon="6.47568">
        <ele>1097</ele>
        <time>1990-12-07T09:52:05Z</time>
      </trkpt>
      <trkpt lat="44.07147" lon="6.47558">
        <ele>1099</ele>
        <time>1990-12-07T09:51:54Z</time>
      </trkpt>
      <trkpt lat="44.07148" lon="6.47538">
        <ele>1099</ele>
        <time>1990-12-07T09:51:44Z</time>
      </trkpt>
      <trkpt lat="44.0715" lon="6.47518">
        <ele>1102</ele>
        <time>1990-12-07T09:51:39Z</time>
      </trkpt>
      <trkpt lat="44.07155" lon="6.47463">
        <ele>1110</ele>
        <time>1990-12-07T09:51:30Z</time>
      </trkpt>
      <trkpt lat="44.0715" lon="6.4743">
        <ele>1114</ele>
        <time>1990-12-07T09:51:21Z</time>
      </trkpt>
      <trkpt lat="44.07165" lon="6.47412">
        <ele>1113</ele>
        <time>1990-12-07T09:50:14Z</time>
      </trkpt>
      <trkpt lat="44.07167" lon="6.4736">
        <ele>1116</ele>
        <time>1990-12-07T09:50:02Z</time>
      </trkpt>
      <trkpt lat="44.07147" lon="6.47353">
        <ele>1120</ele>
        <time>1990-12-07T09:49:50Z</time>
      </trkpt>
      <trkpt lat="44.07142" lon="6.47333">
        <ele>1125</ele>
        <time>1990-12-07T09:49:24Z</time>
      </trkpt>
      <trkpt lat="44.07137" lon="6.47312">
        <ele>1129</ele>
        <time>1990-12-07T09:48:40Z</time>
      </trkpt>
      <trkpt lat="44.07133" lon="6.47293">
        <ele>1133</ele>
        <time>1990-12-07T09:48:25Z</time>
      </trkpt>
      <trkpt lat="44.07117" lon="6.47272">
        <ele>1139</ele>
        <time>1990-12-07T09:48:13Z</time>
      </trkpt>
      <trkpt lat="44.07098" lon="6.47233">
        <ele>1147</ele>
        <time>1990-12-07T09:48:04Z</time>
      </trkpt>
      <trkpt lat="44.07102" lon="6.4719">
        <ele>1154</ele>
        <time>1990-12-07T09:47:55Z</time>
      </trkpt>
      <trkpt lat="44.07098" lon="6.47173">
        <ele>1158</ele>
        <time>1990-12-07T09:47:50Z</time>
      </trkpt>
      <trkpt lat="44.07107" lon="6.47137">
        <ele>1166</ele>
        <time>1990-12-07T09:47:42Z</time>
      </trkpt>
      <trkpt lat="44.0711" lon="6.47107">
        <ele>1170</ele>
        <time>1990-12-07T09:45:57Z</time>
      </trkpt>
      <trkpt lat="44.0711" lon="6.47075">
        <ele>1173</ele>
        <time>1990-12-07T09:45:49Z</time>
      </trkpt>
      <trkpt lat="44.07105" lon="6.47048">
        <ele>1180</ele>
        <time>1990-12-07T09:45:41Z</time>
      </trkpt>
      <trkpt lat="44.07107" lon="6.47027">
        <ele>1185</ele>
        <time>1990-12-07T09:45:34Z</time>
      </trkpt>
      <trkpt lat="44.071" lon="6.47015">
        <ele>1188</ele>
        <time>1990-12-07T09:45:29Z</time>
      </trkpt>
      <trkpt lat="44.0709" lon="6.47003">
        <ele>1194</ele>
        <time>1990-12-07T09:45:21Z</time>
      </trkpt>
      <trkpt lat="44.07063" lon="6.46992">
        <ele>1200</ele>
        <time>1990-12-07T09:45:14Z</time>
      </trkpt>
      <trkpt lat="44.0704" lon="6.46983">
        <ele>1205</ele>
        <time>1990-12-07T09:45:08Z</time>
      </trkpt>
      <trkpt lat="44.07002" lon="6.46927">
        <ele>1211</ele>
        <time>1990-12-07T09:44:54Z</time>
      </trkpt>
      <trkpt lat="44.06992" lon="6.46877">
        <ele>1219</ele>
        <time>1990-12-07T09:44:46Z</time>
      </trkpt>
      <trkpt lat="44.06988" lon="6.46853">
        <ele>1223</ele>
        <time>1990-12-07T09:44:41Z</time>
      </trkpt>
      <trkpt lat="44.06992" lon="6.46828">
        <ele>1224</ele>
        <time>1990-12-07T09:44:33Z</time>
      </trkpt>
      <trkpt lat="44.06982" lon="6.46785">
        <ele>1232</ele>
        <time>1990-12-07T09:44:24Z</time>
      </trkpt>
      <trkpt lat="44.06968" lon="6.46765">
        <ele>1235</ele>
        <time>1990-12-07T09:44:17Z</time>
      </trkpt>
      <trkpt lat="44.06963" lon="6.46723">
        <ele>1241</ele>
        <time>1990-12-07T09:44:09Z</time>
      </trkpt>
      <trkpt lat="44.06968" lon="6.46683">
        <ele>1245</ele>
        <time>1990-12-07T09:44:02Z</time>
      </trkpt>
      <trkpt lat="44.06953" lon="6.46653">
        <ele>1249</ele>
        <time>1990-12-07T09:43:56Z</time>
      </trkpt>
      <trkpt lat="44.06955" lon="6.46635">
        <ele>1251</ele>
        <time>1990-12-07T09:43:51Z</time>
      </trkpt>
      <trkpt lat="44.06953" lon="6.46595">
        <ele>1255</ele>
        <time>1990-12-07T09:43:43Z</time>
      </trkpt>
      <trkpt lat="44.0693" lon="6.46543">
        <ele>1261</ele>
        <time>1990-12-07T09:43:29Z</time>
      </trkpt>
      <trkpt lat="44.06912" lon="6.46495">
        <ele>1266</ele>
        <time>1990-12-07T09:43:11Z</time>
      </trkpt>
      <trkpt lat="44.069" lon="6.465">
        <ele>1269</ele>
        <time>1990-12-07T09:42:30Z</time>
      </trkpt>
      <trkpt lat="44.06875" lon="6.46525">
        <ele>1270</ele>
        <time>1990-12-07T09:42:00Z</time>
      </trkpt>
      <trkpt lat="44.0686" lon="6.46537">
        <ele>1272</ele>
        <time>1990-12-07T09:41:50Z</time>
      </trkpt>
      <trkpt lat="44.06847" lon="6.46533">
        <ele>1274</ele>
        <time>1990-12-07T09:41:45Z</time>
      </trkpt>
      <trkpt lat="44.06835" lon="6.4651">
        <ele>1277</ele>
        <time>1990-12-07T09:41:39Z</time>
      </trkpt>
      <trkpt lat="44.06807" lon="6.46493">
        <ele>1280</ele>
        <time>1990-12-07T09:41:19Z</time>
      </trkpt>
      <trkpt lat="44.06797" lon="6.46467">
        <ele>1283</ele>
        <time>1990-12-07T09:40:57Z</time>
      </trkpt>
      <trkpt lat="44.06793" lon="6.46467">
        <ele>1286</ele>
        <time>1990-12-07T09:40:12Z</time>
      </trkpt>
      <trkpt lat="44.06787" lon="6.46455">
        <ele>1284</ele>
        <time>1990-12-07T09:38:40Z</time>
      </trkpt>
      <trkpt lat="44.06763" lon="6.46427">
        <ele>1288</ele>
        <time>1990-12-07T09:37:54Z</time>
      </trkpt>
      <trkpt lat="44.06767" lon="6.46417">
        <ele>1290</ele>
        <time>1990-12-07T09:37:30Z</time>
      </trkpt>
    </trkseg>
  </trk>
  <trk>
    <name><![CDATA[J2 - RUN 6 - Rémy]]></name>
    <desc><![CDATA[Faune : Le loup et le pastoralisme dans la région]]></desc>
    <extensions>
      <line xmlns="http://www.topografix.com/GPX/gpx_style/0/2">
        <color>ff00ff</color>
        <width>4</width>
        <dasharray>8</dasharray>
          <extensions>
            <sens>1</sens>
          </extensions>
      </line>
    </extensions>
    <trkseg>
      <trkpt lat="44.06767" lon="6.46417">
        <ele>1290</ele>
        <time>1990-12-07T09:37:30Z</time>
      </trkpt>
      <trkpt lat="44.06805" lon="6.46432">
        <ele>1293</ele>
        <time>1990-12-07T09:37:00Z</time>
      </trkpt>
      <trkpt lat="44.06813" lon="6.4643">
        <ele>1296</ele>
        <time>1990-12-07T09:36:34Z</time>
      </trkpt>
      <trkpt lat="44.068" lon="6.46417">
        <ele>1300</ele>
        <time>1990-12-07T09:36:26Z</time>
      </trkpt>
      <trkpt lat="44.06815" lon="6.46412">
        <ele>1304</ele>
        <time>1990-12-07T09:36:15Z</time>
      </trkpt>
      <trkpt lat="44.0686" lon="6.46413">
        <ele>1308</ele>
        <time>1990-12-07T09:35:46Z</time>
      </trkpt>
      <trkpt lat="44.06905" lon="6.46412">
        <ele>1310</ele>
        <time>1990-12-07T09:35:36Z</time>
      </trkpt>
      <trkpt lat="44.06928" lon="6.46405">
        <ele>1311</ele>
        <time>1990-12-07T09:35:28Z</time>
      </trkpt>
      <trkpt lat="44.06982" lon="6.46353">
        <ele>1308</ele>
        <time>1990-12-07T09:35:06Z</time>
      </trkpt>
      <trkpt lat="44.06983" lon="6.46425">
        <ele>1308</ele>
        <time>1990-12-07T09:34:49Z</time>
      </trkpt>
      <trkpt lat="44.06995" lon="6.46465">
        <ele>1305</ele>
        <time>1990-12-07T09:34:36Z</time>
      </trkpt>
      <trkpt lat="44.07007" lon="6.46488">
        <ele>1303</ele>
        <time>1990-12-07T09:34:27Z</time>
      </trkpt>
      <trkpt lat="44.07073" lon="6.46525">
        <ele>1300</ele>
        <time>1990-12-07T09:34:14Z</time>
      </trkpt>
      <trkpt lat="44.07117" lon="6.46493">
        <ele>1303</ele>
        <time>1990-12-07T09:34:07Z</time>
      </trkpt>
      <trkpt lat="44.07167" lon="6.46415">
        <ele>1310</ele>
        <time>1990-12-07T09:33:56Z</time>
      </trkpt>
      <trkpt lat="44.07207" lon="6.46372">
        <ele>1312</ele>
        <time>1990-12-07T09:33:47Z</time>
      </trkpt>
      <trkpt lat="44.07223" lon="6.4634">
        <ele>1314</ele>
        <time>1990-12-07T09:33:42Z</time>
      </trkpt>
      <trkpt lat="44.07257" lon="6.46292">
        <ele>1318</ele>
        <time>1990-12-07T09:33:31Z</time>
      </trkpt>
      <trkpt lat="44.07303" lon="6.46238">
        <ele>1317</ele>
        <time>1990-12-07T09:33:04Z</time>
      </trkpt>
      <trkpt lat="44.07352" lon="6.46193">
        <ele>1310</ele>
        <time>1990-12-07T09:32:40Z</time>
      </trkpt>
      <trkpt lat="44.07417" lon="6.46183">
        <ele>1306</ele>
        <time>1990-12-07T09:32:19Z</time>
      </trkpt>
      <trkpt lat="44.07457" lon="6.46107">
        <ele>1304</ele>
        <time>1990-12-07T09:31:57Z</time>
      </trkpt>
      <trkpt lat="44.07502" lon="6.46013">
        <ele>1302</ele>
        <time>1990-12-07T09:31:33Z</time>
      </trkpt>
      <trkpt lat="44.07557" lon="6.45923">
        <ele>1298</ele>
        <time>1990-12-07T09:31:06Z</time>
      </trkpt>
      <trkpt lat="44.0756" lon="6.45817">
        <ele>1295</ele>
        <time>1990-12-07T09:30:40Z</time>
      </trkpt>
      <trkpt lat="44.0758" lon="6.45735">
        <ele>1294</ele>
        <time>1990-12-07T09:30:20Z</time>
      </trkpt>
      <trkpt lat="44.07615" lon="6.4574">
        <ele>1295</ele>
        <time>1990-12-07T09:30:11Z</time>
      </trkpt>
      <trkpt lat="44.07677" lon="6.45712">
        <ele>1294</ele>
        <time>1990-12-07T09:29:50Z</time>
      </trkpt>
      <trkpt lat="44.07753" lon="6.4565">
        <ele>1292</ele>
        <time>1990-12-07T09:29:23Z</time>
      </trkpt>
      <trkpt lat="44.0782" lon="6.45562">
        <ele>1292</ele>
        <time>1990-12-07T09:28:57Z</time>
      </trkpt>
      <trkpt lat="44.07862" lon="6.45483">
        <ele>1291</ele>
        <time>1990-12-07T09:28:42Z</time>
      </trkpt>
      <trkpt lat="44.07872" lon="6.45462">
        <ele>1293</ele>
        <time>1990-12-07T09:28:38Z</time>
      </trkpt>
      <trkpt lat="44.07903" lon="6.45343">
        <ele>1294</ele>
        <time>1990-12-07T09:28:12Z</time>
      </trkpt>
      <trkpt lat="44.0793" lon="6.45233">
        <ele>1292</ele>
        <time>1990-12-07T09:27:48Z</time>
      </trkpt>
      <trkpt lat="44.07947" lon="6.45113">
        <ele>1291</ele>
        <time>1990-12-07T09:27:21Z</time>
      </trkpt>
      <trkpt lat="44.07973" lon="6.44997">
        <ele>1290</ele>
        <time>1990-12-07T09:26:54Z</time>
      </trkpt>
      <trkpt lat="44.07993" lon="6.44942">
        <ele>1289</ele>
        <time>1990-12-07T09:26:38Z</time>
      </trkpt>
      <trkpt lat="44.08013" lon="6.44867">
        <ele>1285</ele>
        <time>1990-12-07T09:26:12Z</time>
      </trkpt>
      <trkpt lat="44.08027" lon="6.44842">
        <ele>1283</ele>
        <time>1990-12-07T09:25:43Z</time>
      </trkpt>
      <trkpt lat="44.08017" lon="6.44835">
        <ele>1284</ele>
        <time>1990-12-07T09:25:27Z</time>
      </trkpt>
      <trkpt lat="44.08005" lon="6.44805">
        <ele>1289</ele>
        <time>1990-12-07T09:25:20Z</time>
      </trkpt>
      <trkpt lat="44.07997" lon="6.44777">
        <ele>1294</ele>
        <time>1990-12-07T09:25:12Z</time>
      </trkpt>
      <trkpt lat="44.07993" lon="6.4474">
        <ele>1299</ele>
        <time>1990-12-07T09:25:04Z</time>
      </trkpt>
      <trkpt lat="44.07982" lon="6.44687">
        <ele>1306</ele>
        <time>1990-12-07T09:24:55Z</time>
      </trkpt>
      <trkpt lat="44.07973" lon="6.44652">
        <ele>1310</ele>
        <time>1990-12-07T09:24:46Z</time>
      </trkpt>
      <trkpt lat="44.07965" lon="6.4462">
        <ele>1317</ele>
        <time>1990-12-07T09:24:35Z</time>
      </trkpt>
      <trkpt lat="44.07947" lon="6.44612">
        <ele>1321</ele>
        <time>1990-12-07T09:24:29Z</time>
      </trkpt>
      <trkpt lat="44.07928" lon="6.44617">
        <ele>1328</ele>
        <time>1990-12-07T09:24:20Z</time>
      </trkpt>
      <trkpt lat="44.07912" lon="6.44598">
        <ele>1333</ele>
        <time>1990-12-07T09:24:12Z</time>
      </trkpt>
      <trkpt lat="44.07898" lon="6.44575">
        <ele>1339</ele>
        <time>1990-12-07T09:24:05Z</time>
      </trkpt>
      <trkpt lat="44.07892" lon="6.44572">
        <ele>1341</ele>
        <time>1990-12-07T09:24:02Z</time>
      </trkpt>
      <trkpt lat="44.0787" lon="6.44548">
        <ele>1347</ele>
        <time>1990-12-07T09:23:54Z</time>
      </trkpt>
      <trkpt lat="44.07867" lon="6.445">
        <ele>1354</ele>
        <time>1990-12-07T09:23:46Z</time>
      </trkpt>
      <trkpt lat="44.07865" lon="6.44467">
        <ele>1360</ele>
        <time>1990-12-07T09:23:38Z</time>
      </trkpt>
      <trkpt lat="44.0785" lon="6.44438">
        <ele>1365</ele>
        <time>1990-12-07T09:23:31Z</time>
      </trkpt>
      <trkpt lat="44.0783" lon="6.44418">
        <ele>1372</ele>
        <time>1990-12-07T09:23:18Z</time>
      </trkpt>
      <trkpt lat="44.07813" lon="6.44405">
        <ele>1379</ele>
        <time>1990-12-07T09:23:07Z</time>
      </trkpt>
      <trkpt lat="44.07807" lon="6.44395">
        <ele>1382</ele>
        <time>1990-12-07T09:22:40Z</time>
      </trkpt>
      <trkpt lat="44.07803" lon="6.44382">
        <ele>1384</ele>
        <time>1990-12-07T09:22:33Z</time>
      </trkpt>
      <trkpt lat="44.07802" lon="6.4437">
        <ele>1387</ele>
        <time>1990-12-07T09:20:46Z</time>
      </trkpt>
      <trkpt lat="44.078" lon="6.4437">
        <ele>1384</ele>
        <time>1990-12-07T09:10:06Z</time>
      </trkpt>
      <trkpt lat="44.07798" lon="6.44345">
        <ele>1384</ele>
        <time>1990-12-07T09:09:46Z</time>
      </trkpt>
      <trkpt lat="44.07793" lon="6.44325">
        <ele>1381</ele>
        <time>1990-12-07T09:09:34Z</time>
      </trkpt>
      <trkpt lat="44.0779" lon="6.44288">
        <ele>1375</ele>
        <time>1990-12-07T09:09:14Z</time>
      </trkpt>
      <trkpt lat="44.07792" lon="6.44242">
        <ele>1370</ele>
        <time>1990-12-07T09:08:46Z</time>
      </trkpt>
      <trkpt lat="44.07792" lon="6.44228">
        <ele>1369</ele>
        <time>1990-12-07T09:08:39Z</time>
      </trkpt>
      <trkpt lat="44.07797" lon="6.44188">
        <ele>1364</ele>
        <time>1990-12-07T09:08:07Z</time>
      </trkpt>
      <trkpt lat="44.07803" lon="6.44155">
        <ele>1359</ele>
        <time>1990-12-07T09:07:36Z</time>
      </trkpt>
      <trkpt lat="44.07808" lon="6.44133">
        <ele>1355</ele>
        <time>1990-12-07T09:07:01Z</time>
      </trkpt>
      <trkpt lat="44.07788" lon="6.44132">
        <ele>1348</ele>
        <time>1990-12-07T09:06:26Z</time>
      </trkpt>
      <trkpt lat="44.0778" lon="6.4413">
        <ele>1346</ele>
        <time>1990-12-07T09:06:06Z</time>
      </trkpt>
      <trkpt lat="44.07757" lon="6.44122">
        <ele>1341</ele>
        <time>1990-12-07T09:05:45Z</time>
      </trkpt>
      <trkpt lat="44.07743" lon="6.44108">
        <ele>1337</ele>
        <time>1990-12-07T09:05:33Z</time>
      </trkpt>
      <trkpt lat="44.07738" lon="6.44097">
        <ele>1334</ele>
        <time>1990-12-07T09:05:24Z</time>
      </trkpt>
      <trkpt lat="44.07725" lon="6.44077">
        <ele>1330</ele>
        <time>1990-12-07T09:05:07Z</time>
      </trkpt>
      <trkpt lat="44.07713" lon="6.4406">
        <ele>1325</ele>
        <time>1990-12-07T09:04:51Z</time>
      </trkpt>
      <trkpt lat="44.07695" lon="6.44045">
        <ele>1320</ele>
        <time>1990-12-07T09:04:31Z</time>
      </trkpt>
      <trkpt lat="44.07668" lon="6.44032">
        <ele>1313</ele>
        <time>1990-12-07T09:04:08Z</time>
      </trkpt>
      <trkpt lat="44.07647" lon="6.44013">
        <ele>1309</ele>
        <time>1990-12-07T09:03:48Z</time>
      </trkpt>
      <trkpt lat="44.07625" lon="6.43997">
        <ele>1304</ele>
        <time>1990-12-07T09:03:29Z</time>
      </trkpt>
      <trkpt lat="44.076" lon="6.43977">
        <ele>1299</ele>
        <time>1990-12-07T09:03:07Z</time>
      </trkpt>
      <trkpt lat="44.07578" lon="6.43952">
        <ele>1295</ele>
        <time>1990-12-07T09:02:49Z</time>
      </trkpt>
      <trkpt lat="44.07557" lon="6.43923">
        <ele>1292</ele>
        <time>1990-12-07T09:02:27Z</time>
      </trkpt>
      <trkpt lat="44.07543" lon="6.43913">
        <ele>1290</ele>
        <time>1990-12-07T09:02:04Z</time>
      </trkpt>
      <trkpt lat="44.07532" lon="6.43898">
        <ele>1285</ele>
        <time>1990-12-07T09:01:43Z</time>
      </trkpt>
      <trkpt lat="44.07513" lon="6.43878">
        <ele>1281</ele>
        <time>1990-12-07T09:01:12Z</time>
      </trkpt>
      <trkpt lat="44.07495" lon="6.43852">
        <ele>1275</ele>
        <time>1990-12-07T09:00:41Z</time>
      </trkpt>
      <trkpt lat="44.07487" lon="6.43835">
        <ele>1271</ele>
        <time>1990-12-07T09:00:23Z</time>
      </trkpt>
      <trkpt lat="44.0747" lon="6.43825">
        <ele>1265</ele>
        <time>1990-12-07T08:59:46Z</time>
      </trkpt>
      <trkpt lat="44.0746" lon="6.4382">
        <ele>1261</ele>
        <time>1990-12-07T08:59:37Z</time>
      </trkpt>
      <trkpt lat="44.07433" lon="6.43818">
        <ele>1256</ele>
        <time>1990-12-07T08:59:19Z</time>
      </trkpt>
      <trkpt lat="44.07398" lon="6.43792">
        <ele>1250</ele>
        <time>1990-12-07T08:58:53Z</time>
      </trkpt>
      <trkpt lat="44.07358" lon="6.43792">
        <ele>1244</ele>
        <time>1990-12-07T08:58:28Z</time>
      </trkpt>
      <trkpt lat="44.07327" lon="6.43777">
        <ele>1237</ele>
        <time>1990-12-07T08:58:06Z</time>
      </trkpt>
      <trkpt lat="44.07288" lon="6.4377">
        <ele>1231</ele>
        <time>1990-12-07T08:57:43Z</time>
      </trkpt>
      <trkpt lat="44.07243" lon="6.43745">
        <ele>1225</ele>
        <time>1990-12-07T08:57:15Z</time>
      </trkpt>
      <trkpt lat="44.07198" lon="6.4372">
        <ele>1219</ele>
        <time>1990-12-07T08:56:48Z</time>
      </trkpt>
      <trkpt lat="44.07205" lon="6.43703">
        <ele>1220</ele>
        <time>1990-12-07T08:56:40Z</time>
      </trkpt>
      <trkpt lat="44.07252" lon="6.43672">
        <ele>1223</ele>
        <time>1990-12-07T08:56:32Z</time>
      </trkpt>
      <trkpt lat="44.07262" lon="6.4363">
        <ele>1226</ele>
        <time>1990-12-07T08:56:27Z</time>
      </trkpt>
      <trkpt lat="44.07272" lon="6.43542">
        <ele>1232</ele>
        <time>1990-12-07T08:56:18Z</time>
      </trkpt>
      <trkpt lat="44.07312" lon="6.43493">
        <ele>1241</ele>
        <time>1990-12-07T08:56:09Z</time>
      </trkpt>
      <trkpt lat="44.07328" lon="6.43457">
        <ele>1245</ele>
        <time>1990-12-07T08:56:04Z</time>
      </trkpt>
      <trkpt lat="44.07342" lon="6.43432">
        <ele>1247</ele>
        <time>1990-12-07T08:56:00Z</time>
      </trkpt>
      <trkpt lat="44.07358" lon="6.434">
        <ele>1251</ele>
        <time>1990-12-07T08:55:55Z</time>
      </trkpt>
      <trkpt lat="44.07378" lon="6.43333">
        <ele>1259</ele>
        <time>1990-12-07T08:55:44Z</time>
      </trkpt>
      <trkpt lat="44.07405" lon="6.43273">
        <ele>1263</ele>
        <time>1990-12-07T08:55:29Z</time>
      </trkpt>
      <trkpt lat="44.07397" lon="6.43278">
        <ele>1263</ele>
        <time>1990-12-07T08:54:46Z</time>
      </trkpt>
      <trkpt lat="44.07403" lon="6.43252">
        <ele>1262</ele>
        <time>1990-12-07T08:54:30Z</time>
      </trkpt>
      <trkpt lat="44.07415" lon="6.43202">
        <ele>1262</ele>
        <time>1990-12-07T08:54:22Z</time>
      </trkpt>
      <trkpt lat="44.07367" lon="6.43217">
        <ele>1264</ele>
        <time>1990-12-07T08:54:04Z</time>
      </trkpt>
      <trkpt lat="44.07323" lon="6.43258">
        <ele>1264</ele>
        <time>1990-12-07T08:53:48Z</time>
      </trkpt>
      <trkpt lat="44.07292" lon="6.4327">
        <ele>1266</ele>
        <time>1990-12-07T08:53:36Z</time>
      </trkpt>
      <trkpt lat="44.07257" lon="6.43278">
        <ele>1271</ele>
        <time>1990-12-07T08:53:22Z</time>
      </trkpt>
      <trkpt lat="44.07238" lon="6.43275">
        <ele>1275</ele>
        <time>1990-12-07T08:52:54Z</time>
      </trkpt>
      <trkpt lat="44.07227" lon="6.43268">
        <ele>1278</ele>
        <time>1990-12-07T08:52:47Z</time>
      </trkpt>
      <trkpt lat="44.07207" lon="6.43248">
        <ele>1282</ele>
        <time>1990-12-07T08:52:39Z</time>
      </trkpt>
      <trkpt lat="44.07183" lon="6.4323">
        <ele>1287</ele>
        <time>1990-12-07T08:52:22Z</time>
      </trkpt>
      <trkpt lat="44.07162" lon="6.43223">
        <ele>1295</ele>
        <time>1990-12-07T08:52:11Z</time>
      </trkpt>
      <trkpt lat="44.07123" lon="6.43207">
        <ele>1302</ele>
        <time>1990-12-07T08:51:57Z</time>
      </trkpt>
      <trkpt lat="44.07105" lon="6.4321">
        <ele>1305</ele>
        <time>1990-12-07T08:51:49Z</time>
      </trkpt>
      <trkpt lat="44.07073" lon="6.43212">
        <ele>1309</ele>
        <time>1990-12-07T08:51:36Z</time>
      </trkpt>
      <trkpt lat="44.07052" lon="6.43212">
        <ele>1314</ele>
        <time>1990-12-07T08:51:25Z</time>
      </trkpt>
      <trkpt lat="44.07035" lon="6.4321">
        <ele>1318</ele>
        <time>1990-12-07T08:51:18Z</time>
      </trkpt>
      <trkpt lat="44.07023" lon="6.43222">
        <ele>1321</ele>
        <time>1990-12-07T08:51:12Z</time>
      </trkpt>
      <trkpt lat="44.07015" lon="6.43223">
        <ele>1323</ele>
        <time>1990-12-07T08:51:08Z</time>
      </trkpt>
      <trkpt lat="44.06985" lon="6.43215">
        <ele>1329</ele>
        <time>1990-12-07T08:50:59Z</time>
      </trkpt>
      <trkpt lat="44.06953" lon="6.43238">
        <ele>1333</ele>
        <time>1990-12-07T08:50:48Z</time>
      </trkpt>
      <trkpt lat="44.06908" lon="6.4323">
        <ele>1336</ele>
        <time>1990-12-07T08:50:33Z</time>
      </trkpt>
      <trkpt lat="44.0688" lon="6.43187">
        <ele>1339</ele>
        <time>1990-12-07T08:50:13Z</time>
      </trkpt>
      <trkpt lat="44.06853" lon="6.43153">
        <ele>1342</ele>
        <time>1990-12-07T08:49:50Z</time>
      </trkpt>
      <trkpt lat="44.06823" lon="6.43142">
        <ele>1345</ele>
        <time>1990-12-07T08:49:20Z</time>
      </trkpt>
      <trkpt lat="44.068" lon="6.43145">
        <ele>1349</ele>
        <time>1990-12-07T08:49:10Z</time>
      </trkpt>
      <trkpt lat="44.06752" lon="6.43142">
        <ele>1353</ele>
        <time>1990-12-07T08:48:50Z</time>
      </trkpt>
      <trkpt lat="44.06738" lon="6.43115">
        <ele>1349</ele>
        <time>1990-12-07T08:48:32Z</time>
      </trkpt>
      <trkpt lat="44.06737" lon="6.43055">
        <ele>1345</ele>
        <time>1990-12-07T08:48:04Z</time>
      </trkpt>
      <trkpt lat="44.06735" lon="6.43035">
        <ele>1343</ele>
        <time>1990-12-07T08:47:47Z</time>
      </trkpt>
      <trkpt lat="44.06723" lon="6.43032">
        <ele>1343</ele>
        <time>1990-12-07T08:47:34Z</time>
      </trkpt>
      <trkpt lat="44.067" lon="6.43035">
        <ele>1343</ele>
        <time>1990-12-07T08:47:21Z</time>
      </trkpt>
      <trkpt lat="44.06667" lon="6.43025">
        <ele>1343</ele>
        <time>1990-12-07T08:46:58Z</time>
      </trkpt>
      <trkpt lat="44.06582" lon="6.4298">
        <ele>1345</ele>
        <time>1990-12-07T08:46:36Z</time>
      </trkpt>
      <trkpt lat="44.06535" lon="6.42978">
        <ele>1352</ele>
        <time>1990-12-07T08:46:21Z</time>
      </trkpt>
    </trkseg>
  </trk>
  <trk>
    <name><![CDATA[J2 - RUN 7 - Thomas]]></name>
    <desc><![CDATA[Flore : les plantes médicinales de montagne ET/OU les étages de végétation en montagne]]></desc>
    <extensions>
      <line xmlns="http://www.topografix.com/GPX/gpx_style/0/2">
        <color>800040</color>
        <width>4</width>
        <dasharray>8</dasharray>
          <extensions>
            <sens>1</sens>
          </extensions>
      </line>
    </extensions>
    <trkseg>
      <trkpt lat="44.06535" lon="6.42978">
        <ele>1352</ele>
        <time>1990-12-07T08:46:21Z</time>
      </trkpt>
      <trkpt lat="44.06517" lon="6.4297">
        <ele>1355</ele>
        <time>1990-12-07T08:46:11Z</time>
      </trkpt>
      <trkpt lat="44.0652" lon="6.42972">
        <ele>1354</ele>
        <time>1990-12-07T08:43:52Z</time>
      </trkpt>
      <trkpt lat="44.0649" lon="6.42968">
        <ele>1349</ele>
        <time>1990-12-07T08:43:20Z</time>
      </trkpt>
      <trkpt lat="44.06467" lon="6.42963">
        <ele>1343</ele>
        <time>1990-12-07T08:42:48Z</time>
      </trkpt>
      <trkpt lat="44.06457" lon="6.42938">
        <ele>1337</ele>
        <time>1990-12-07T08:42:14Z</time>
      </trkpt>
      <trkpt lat="44.06438" lon="6.4294">
        <ele>1331</ele>
        <time>1990-12-07T08:41:42Z</time>
      </trkpt>
      <trkpt lat="44.06418" lon="6.42935">
        <ele>1326</ele>
        <time>1990-12-07T08:41:17Z</time>
      </trkpt>
      <trkpt lat="44.06408" lon="6.42917">
        <ele>1322</ele>
        <time>1990-12-07T08:40:58Z</time>
      </trkpt>
      <trkpt lat="44.06392" lon="6.42895">
        <ele>1318</ele>
        <time>1990-12-07T08:40:34Z</time>
      </trkpt>
      <trkpt lat="44.06377" lon="6.42867">
        <ele>1312</ele>
        <time>1990-12-07T08:40:02Z</time>
      </trkpt>
      <trkpt lat="44.06375" lon="6.4285">
        <ele>1308</ele>
        <time>1990-12-07T08:39:46Z</time>
      </trkpt>
      <trkpt lat="44.06378" lon="6.42845">
        <ele>1308</ele>
        <time>1990-12-07T08:39:34Z</time>
      </trkpt>
      <trkpt lat="44.06353" lon="6.42843">
        <ele>1305</ele>
        <time>1990-12-07T08:39:19Z</time>
      </trkpt>
      <trkpt lat="44.06297" lon="6.42835">
        <ele>1301</ele>
        <time>1990-12-07T08:38:51Z</time>
      </trkpt>
      <trkpt lat="44.06238" lon="6.42827">
        <ele>1296</ele>
        <time>1990-12-07T08:38:22Z</time>
      </trkpt>
      <trkpt lat="44.06192" lon="6.4282">
        <ele>1292</ele>
        <time>1990-12-07T08:37:57Z</time>
      </trkpt>
      <trkpt lat="44.0613" lon="6.42827">
        <ele>1290</ele>
        <time>1990-12-07T08:37:28Z</time>
      </trkpt>
      <trkpt lat="44.06095" lon="6.42828">
        <ele>1287</ele>
        <time>1990-12-07T08:37:12Z</time>
      </trkpt>
      <trkpt lat="44.06083" lon="6.42823">
        <ele>1287</ele>
        <time>1990-12-07T08:37:06Z</time>
      </trkpt>
      <trkpt lat="44.06053" lon="6.42828">
        <ele>1284</ele>
        <time>1990-12-07T08:36:47Z</time>
      </trkpt>
      <trkpt lat="44.06003" lon="6.42835">
        <ele>1280</ele>
        <time>1990-12-07T08:36:24Z</time>
      </trkpt>
      <trkpt lat="44.05938" lon="6.42825">
        <ele>1279</ele>
        <time>1990-12-07T08:36:02Z</time>
      </trkpt>
      <trkpt lat="44.05858" lon="6.42803">
        <ele>1280</ele>
        <time>1990-12-07T08:35:41Z</time>
      </trkpt>
      <trkpt lat="44.05802" lon="6.42795">
        <ele>1284</ele>
        <time>1990-12-07T08:35:26Z</time>
      </trkpt>
      <trkpt lat="44.05737" lon="6.42787">
        <ele>1285</ele>
        <time>1990-12-07T08:35:00Z</time>
      </trkpt>
      <trkpt lat="44.05687" lon="6.4277">
        <ele>1283</ele>
        <time>1990-12-07T08:34:36Z</time>
      </trkpt>
      <trkpt lat="44.05642" lon="6.42757">
        <ele>1281</ele>
        <time>1990-12-07T08:34:13Z</time>
      </trkpt>
      <trkpt lat="44.05618" lon="6.42757">
        <ele>1280</ele>
        <time>1990-12-07T08:34:02Z</time>
      </trkpt>
      <trkpt lat="44.05575" lon="6.42727">
        <ele>1277</ele>
        <time>1990-12-07T08:33:38Z</time>
      </trkpt>
      <trkpt lat="44.05525" lon="6.42703">
        <ele>1273</ele>
        <time>1990-12-07T08:33:13Z</time>
      </trkpt>
      <trkpt lat="44.05468" lon="6.42703">
        <ele>1269</ele>
        <time>1990-12-07T08:32:46Z</time>
      </trkpt>
      <trkpt lat="44.0544" lon="6.42698">
        <ele>1266</ele>
        <time>1990-12-07T08:27:55Z</time>
      </trkpt>
      <trkpt lat="44.05433" lon="6.42693">
        <ele>1266</ele>
        <time>1990-12-07T08:27:37Z</time>
      </trkpt>
      <trkpt lat="44.0549" lon="6.42625">
        <ele>1262</ele>
        <time>1990-12-07T08:27:09Z</time>
      </trkpt>
      <trkpt lat="44.0556" lon="6.42608">
        <ele>1256</ele>
        <time>1990-12-07T08:26:45Z</time>
      </trkpt>
      <trkpt lat="44.0561" lon="6.42678">
        <ele>1250</ele>
        <time>1990-12-07T08:26:23Z</time>
      </trkpt>
      <trkpt lat="44.05685" lon="6.42693">
        <ele>1245</ele>
        <time>1990-12-07T08:25:58Z</time>
      </trkpt>
      <trkpt lat="44.05732" lon="6.42698">
        <ele>1240</ele>
        <time>1990-12-07T08:25:43Z</time>
      </trkpt>
      <trkpt lat="44.05808" lon="6.42682">
        <ele>1234</ele>
        <time>1990-12-07T08:25:18Z</time>
      </trkpt>
      <trkpt lat="44.05857" lon="6.42675">
        <ele>1231</ele>
        <time>1990-12-07T08:25:02Z</time>
      </trkpt>
      <trkpt lat="44.05938" lon="6.42652">
        <ele>1226</ele>
        <time>1990-12-07T08:24:36Z</time>
      </trkpt>
      <trkpt lat="44.06015" lon="6.42655">
        <ele>1220</ele>
        <time>1990-12-07T08:24:11Z</time>
      </trkpt>
      <trkpt lat="44.06077" lon="6.42592">
        <ele>1214</ele>
        <time>1990-12-07T08:23:45Z</time>
      </trkpt>
      <trkpt lat="44.0615" lon="6.4255">
        <ele>1208</ele>
        <time>1990-12-07T08:23:19Z</time>
      </trkpt>
      <trkpt lat="44.06228" lon="6.42533">
        <ele>1202</ele>
        <time>1990-12-07T08:22:52Z</time>
      </trkpt>
      <trkpt lat="44.063" lon="6.42505">
        <ele>1196</ele>
        <time>1990-12-07T08:22:26Z</time>
      </trkpt>
      <trkpt lat="44.0636" lon="6.42445">
        <ele>1190</ele>
        <time>1990-12-07T08:22:00Z</time>
      </trkpt>
      <trkpt lat="44.06398" lon="6.42353">
        <ele>1184</ele>
        <time>1990-12-07T08:21:34Z</time>
      </trkpt>
      <trkpt lat="44.06468" lon="6.4232">
        <ele>1178</ele>
        <time>1990-12-07T08:21:09Z</time>
      </trkpt>
      <trkpt lat="44.06522" lon="6.4224">
        <ele>1172</ele>
        <time>1990-12-07T08:20:42Z</time>
      </trkpt>
      <trkpt lat="44.06548" lon="6.42143">
        <ele>1166</ele>
        <time>1990-12-07T08:20:14Z</time>
      </trkpt>
      <trkpt lat="44.0663" lon="6.42088">
        <ele>1159</ele>
        <time>1990-12-07T08:19:44Z</time>
      </trkpt>
      <trkpt lat="44.06697" lon="6.42003">
        <ele>1153</ele>
        <time>1990-12-07T08:19:12Z</time>
      </trkpt>
      <trkpt lat="44.0675" lon="6.41922">
        <ele>1147</ele>
        <time>1990-12-07T08:18:45Z</time>
      </trkpt>
      <trkpt lat="44.0677" lon="6.41845">
        <ele>1142</ele>
        <time>1990-12-07T08:18:18Z</time>
      </trkpt>
      <trkpt lat="44.06697" lon="6.41855">
        <ele>1136</ele>
        <time>1990-12-07T08:17:51Z</time>
      </trkpt>
      <trkpt lat="44.06608" lon="6.41857">
        <ele>1130</ele>
        <time>1990-12-07T08:17:22Z</time>
      </trkpt>
      <trkpt lat="44.06532" lon="6.41912">
        <ele>1123</ele>
        <time>1990-12-07T08:16:54Z</time>
      </trkpt>
      <trkpt lat="44.06442" lon="6.41963">
        <ele>1120</ele>
        <time>1990-12-07T08:16:28Z</time>
      </trkpt>
      <trkpt lat="44.06397" lon="6.4204">
        <ele>1118</ele>
        <time>1990-12-07T08:16:06Z</time>
      </trkpt>
      <trkpt lat="44.06398" lon="6.41993">
        <ele>1115</ele>
        <time>1990-12-07T08:15:52Z</time>
      </trkpt>
      <trkpt lat="44.06433" lon="6.41898">
        <ele>1109</ele>
        <time>1990-12-07T08:15:26Z</time>
      </trkpt>
      <trkpt lat="44.06475" lon="6.41813">
        <ele>1104</ele>
        <time>1990-12-07T08:15:00Z</time>
      </trkpt>
      <trkpt lat="44.06515" lon="6.41717">
        <ele>1097</ele>
        <time>1990-12-07T08:14:31Z</time>
      </trkpt>
      <trkpt lat="44.06558" lon="6.4162">
        <ele>1091</ele>
        <time>1990-12-07T08:14:02Z</time>
      </trkpt>
      <trkpt lat="44.0662" lon="6.41592">
        <ele>1086</ele>
        <time>1990-12-07T08:13:34Z</time>
      </trkpt>
      <trkpt lat="44.06688" lon="6.41568">
        <ele>1080</ele>
        <time>1990-12-07T08:13:06Z</time>
      </trkpt>
      <trkpt lat="44.06703" lon="6.415">
        <ele>1075</ele>
        <time>1990-12-07T08:12:41Z</time>
      </trkpt>
      <trkpt lat="44.06773" lon="6.41498">
        <ele>1071</ele>
        <time>1990-12-07T08:12:13Z</time>
      </trkpt>
      <trkpt lat="44.06812" lon="6.41502">
        <ele>1067</ele>
        <time>1990-12-07T08:11:55Z</time>
      </trkpt>
      <trkpt lat="44.0685" lon="6.41538">
        <ele>1062</ele>
        <time>1990-12-07T08:11:29Z</time>
      </trkpt>
      <trkpt lat="44.0689" lon="6.41505">
        <ele>1059</ele>
        <time>1990-12-07T08:11:11Z</time>
      </trkpt>
      <trkpt lat="44.06957" lon="6.41533">
        <ele>1056</ele>
        <time>1990-12-07T08:10:47Z</time>
      </trkpt>
      <trkpt lat="44.06985" lon="6.41488">
        <ele>1056</ele>
        <time>1990-12-07T08:10:36Z</time>
      </trkpt>
      <trkpt lat="44.06992" lon="6.41465">
        <ele>1056</ele>
        <time>1990-12-07T08:10:32Z</time>
      </trkpt>
      <trkpt lat="44.07037" lon="6.41368">
        <ele>1058</ele>
        <time>1990-12-07T08:10:11Z</time>
      </trkpt>
      <trkpt lat="44.07078" lon="6.41342">
        <ele>1059</ele>
        <time>1990-12-07T08:09:58Z</time>
      </trkpt>
      <trkpt lat="44.07095" lon="6.41257">
        <ele>1059</ele>
        <time>1990-12-07T08:09:32Z</time>
      </trkpt>
      <trkpt lat="44.07082" lon="6.4118">
        <ele>1057</ele>
        <time>1990-12-07T08:09:09Z</time>
      </trkpt>
      <trkpt lat="44.0702" lon="6.41168">
        <ele>1056</ele>
        <time>1990-12-07T08:08:42Z</time>
      </trkpt>
      <trkpt lat="44.0701" lon="6.41162">
        <ele>1055</ele>
        <time>1990-12-07T08:08:24Z</time>
      </trkpt>
      <trkpt lat="44.07033" lon="6.41198">
        <ele>1051</ele>
        <time>1990-12-07T08:08:09Z</time>
      </trkpt>
      <trkpt lat="44.07037" lon="6.41267">
        <ele>1047</ele>
        <time>1990-12-07T08:07:46Z</time>
      </trkpt>
      <trkpt lat="44.06985" lon="6.41255">
        <ele>1041</ele>
        <time>1990-12-07T08:07:20Z</time>
      </trkpt>
      <trkpt lat="44.06932" lon="6.4124">
        <ele>1035</ele>
        <time>1990-12-07T08:06:55Z</time>
      </trkpt>
      <trkpt lat="44.06903" lon="6.4124">
        <ele>1034</ele>
        <time>1990-12-07T08:06:42Z</time>
      </trkpt>
      <trkpt lat="44.0685" lon="6.41228">
        <ele>1028</ele>
        <time>1990-12-07T08:06:15Z</time>
      </trkpt>
      <trkpt lat="44.06807" lon="6.41202">
        <ele>1023</ele>
        <time>1990-12-07T08:05:52Z</time>
      </trkpt>
      <trkpt lat="44.06785" lon="6.4119">
        <ele>1021</ele>
        <time>1990-12-07T08:05:42Z</time>
      </trkpt>
      <trkpt lat="44.06758" lon="6.41168">
        <ele>1019</ele>
        <time>1990-12-07T08:05:31Z</time>
      </trkpt>
      <trkpt lat="44.06712" lon="6.4113">
        <ele>1014</ele>
        <time>1990-12-07T08:05:09Z</time>
      </trkpt>
      <trkpt lat="44.06668" lon="6.41063">
        <ele>1009</ele>
        <time>1990-12-07T08:04:41Z</time>
      </trkpt>
      <trkpt lat="44.06607" lon="6.41033">
        <ele>1005</ele>
        <time>1990-12-07T08:04:16Z</time>
      </trkpt>
      <trkpt lat="44.06555" lon="6.41013">
        <ele>1001</ele>
        <time>1990-12-07T08:03:56Z</time>
      </trkpt>
      <trkpt lat="44.06498" lon="6.40967">
        <ele>997</ele>
        <time>1990-12-07T08:03:30Z</time>
      </trkpt>
      <trkpt lat="44.06452" lon="6.40905">
        <ele>992</ele>
        <time>1990-12-07T08:03:03Z</time>
      </trkpt>
      <trkpt lat="44.06423" lon="6.40875">
        <ele>989</ele>
        <time>1990-12-07T08:02:41Z</time>
      </trkpt>
      <trkpt lat="44.06387" lon="6.40892">
        <ele>992</ele>
        <time>1990-12-07T08:02:23Z</time>
      </trkpt>
      <trkpt lat="44.06363" lon="6.40888">
        <ele>992</ele>
        <time>1990-12-07T08:02:12Z</time>
      </trkpt>
      <trkpt lat="44.06315" lon="6.40877">
        <ele>992</ele>
        <time>1990-12-07T08:01:52Z</time>
      </trkpt>
      <trkpt lat="44.06292" lon="6.40855">
        <ele>991</ele>
        <time>1990-12-07T08:01:37Z</time>
      </trkpt>
      <trkpt lat="44.06285" lon="6.4077">
        <ele>985</ele>
        <time>1990-12-07T08:01:10Z</time>
      </trkpt>
      <trkpt lat="44.06317" lon="6.40697">
        <ele>981</ele>
        <time>1990-12-07T08:00:43Z</time>
      </trkpt>
      <trkpt lat="44.06337" lon="6.40662">
        <ele>980</ele>
        <time>1990-12-07T08:00:29Z</time>
      </trkpt>
      <trkpt lat="44.0633" lon="6.40572">
        <ele>978</ele>
        <time>1990-12-07T08:00:08Z</time>
      </trkpt>
      <trkpt lat="44.06315" lon="6.4045">
        <ele>973</ele>
        <time>1990-12-07T07:59:40Z</time>
      </trkpt>
      <trkpt lat="44.06275" lon="6.4035">
        <ele>969</ele>
        <time>1990-12-07T07:59:13Z</time>
      </trkpt>
      <trkpt lat="44.06252" lon="6.40212">
        <ele>964</ele>
        <time>1990-12-07T07:58:43Z</time>
      </trkpt>
      <trkpt lat="44.06255" lon="6.40168">
        <ele>962</ele>
        <time>1990-12-07T07:58:31Z</time>
      </trkpt>
      <trkpt lat="44.06267" lon="6.40095">
        <ele>960</ele>
        <time>1990-12-07T07:58:05Z</time>
      </trkpt>
      <trkpt lat="44.0629" lon="6.39973">
        <ele>956</ele>
        <time>1990-12-07T07:57:38Z</time>
      </trkpt>
      <trkpt lat="44.06317" lon="6.39872">
        <ele>953</ele>
        <time>1990-12-07T07:57:12Z</time>
      </trkpt>
      <trkpt lat="44.06318" lon="6.39748">
        <ele>950</ele>
        <time>1990-12-07T07:56:43Z</time>
      </trkpt>
      <trkpt lat="44.06333" lon="6.3964">
        <ele>948</ele>
        <time>1990-12-07T07:56:17Z</time>
      </trkpt>
      <trkpt lat="44.06377" lon="6.39528">
        <ele>944</ele>
        <time>1990-12-07T07:55:52Z</time>
      </trkpt>
      <trkpt lat="44.06438" lon="6.39523">
        <ele>943</ele>
        <time>1990-12-07T07:55:39Z</time>
      </trkpt>
      <trkpt lat="44.06483" lon="6.39512">
        <ele>945</ele>
        <time>1990-12-07T07:55:26Z</time>
      </trkpt>
      <trkpt lat="44.06502" lon="6.39433">
        <ele>942</ele>
        <time>1990-12-07T07:55:02Z</time>
      </trkpt>
      <trkpt lat="44.06515" lon="6.39353">
        <ele>941</ele>
        <time>1990-12-07T07:54:45Z</time>
      </trkpt>
      <trkpt lat="44.06538" lon="6.39297">
        <ele>941</ele>
        <time>1990-12-07T07:54:36Z</time>
      </trkpt>
      <trkpt lat="44.06592" lon="6.39168">
        <ele>941</ele>
        <time>1990-12-07T07:54:21Z</time>
      </trkpt>
      <trkpt lat="44.06613" lon="6.39093">
        <ele>946</ele>
        <time>1990-12-07T07:54:13Z</time>
      </trkpt>
      <trkpt lat="44.06643" lon="6.39058">
        <ele>947</ele>
        <time>1990-12-07T07:54:07Z</time>
      </trkpt>
      <trkpt lat="44.06717" lon="6.38965">
        <ele>950</ele>
        <time>1990-12-07T07:53:49Z</time>
      </trkpt>
      <trkpt lat="44.0668" lon="6.38948">
        <ele>952</ele>
        <time>1990-12-07T07:53:35Z</time>
      </trkpt>
      <trkpt lat="44.06705" lon="6.38937">
        <ele>956</ele>
        <time>1990-12-07T07:53:26Z</time>
      </trkpt>
      <trkpt lat="44.0668" lon="6.38903">
        <ele>956</ele>
        <time>1990-12-07T07:53:11Z</time>
      </trkpt>
      <trkpt lat="44.06677" lon="6.38902">
        <ele>956</ele>
        <time>1990-12-07T07:50:21Z</time>
      </trkpt>
      <trkpt lat="44.06683" lon="6.38908">
        <ele>956</ele>
        <time>1990-12-07T07:49:01Z</time>
      </trkpt>
      <trkpt lat="44.06683" lon="6.38913">
        <ele>962</ele>
        <time>1990-12-06T19:49:08Z</time>
      </trkpt>
      <trkpt lat="44.06685" lon="6.38872">
        <ele>960</ele>
        <time>1990-12-06T19:48:51Z</time>
      </trkpt>
      <trkpt lat="44.06727" lon="6.3882">
        <ele>963</ele>
        <time>1990-12-06T19:48:40Z</time>
      </trkpt>
      <trkpt lat="44.06753" lon="6.38772">
        <ele>966</ele>
        <time>1990-12-06T19:48:31Z</time>
      </trkpt>
      <trkpt lat="44.06783" lon="6.38708">
        <ele>965</ele>
        <time>1990-12-06T19:48:15Z</time>
      </trkpt>
      <trkpt lat="44.06817" lon="6.38733">
        <ele>966</ele>
        <time>1990-12-06T19:48:06Z</time>
      </trkpt>
      <trkpt lat="44.06915" lon="6.38762">
        <ele>968</ele>
        <time>1990-12-06T19:47:47Z</time>
      </trkpt>
      <trkpt lat="44.06948" lon="6.3875">
        <ele>969</ele>
        <time>1990-12-06T19:47:39Z</time>
      </trkpt>
      <trkpt lat="44.06988" lon="6.3872">
        <ele>971</ele>
        <time>1990-12-06T19:47:15Z</time>
      </trkpt>
    </trkseg>
  </trk>
  <trk>
    <name><![CDATA[J3 - RUN 1 - Aymeric]]></name>
    <desc><![CDATA[Guidage : GPS ou carte ?]]></desc>
    <extensions>
      <line xmlns="http://www.topografix.com/GPX/gpx_style/0/2">
        <color>0000FF</color>
        <width>4</width>
        <dasharray>4</dasharray>
          <extensions>
            <sens>1</sens>
          </extensions>
      </line>
    </extensions>
    <trkseg>
      <trkpt lat="44.0699" lon="6.38758">
        <ele>951.91015625</ele>
      </trkpt>
      <trkpt lat="44.07011" lon="6.38753">
        <ele>953.96875</ele>
      </trkpt>
      <trkpt lat="44.07009" lon="6.38737">
        <ele>953.90625</ele>
      </trkpt>
      <trkpt lat="44.07005" lon="6.38731">
        <ele>953.4921875</ele>
      </trkpt>
      <trkpt lat="44.06985" lon="6.38722">
        <ele>951.5234375</ele>
      </trkpt>
      <trkpt lat="44.06979" lon="6.38724">
        <ele>950.96875</ele>
      </trkpt>
      <trkpt lat="44.06964" lon="6.38733">
        <ele>949.6875</ele>
      </trkpt>
      <trkpt lat="44.06934" lon="6.38758">
        <ele>948.62890625</ele>
      </trkpt>
      <trkpt lat="44.06927" lon="6.38765">
        <ele>948.89453125</ele>
      </trkpt>
      <trkpt lat="44.069" lon="6.38758">
        <ele>948.76171875</ele>
      </trkpt>
      <trkpt lat="44.06874" lon="6.3875">
        <ele>948.953125</ele>
      </trkpt>
      <trkpt lat="44.06859" lon="6.3875">
        <ele>949.41015625</ele>
      </trkpt>
      <trkpt lat="44.06835" lon="6.38746">
        <ele>949.12890625</ele>
      </trkpt>
      <trkpt lat="44.06812" lon="6.38737">
        <ele>948.390625</ele>
      </trkpt>
      <trkpt lat="44.06792" lon="6.38724">
        <ele>947.96484375</ele>
      </trkpt>
      <trkpt lat="44.06781" lon="6.38711">
        <ele>947.91015625</ele>
      </trkpt>
      <trkpt lat="44.06781" lon="6.38696">
        <ele>947.4453125</ele>
      </trkpt>
      <trkpt lat="44.06786" lon="6.38675">
        <ele>946</ele>
      </trkpt>
      <trkpt lat="44.06814" lon="6.38583">
        <ele>940.34375</ele>
      </trkpt>
      <trkpt lat="44.06816" lon="6.38484">
        <ele>939.0859375</ele>
      </trkpt>
      <trkpt lat="44.06837" lon="6.38407">
        <ele>938.34375</ele>
      </trkpt>
      <trkpt lat="44.06839" lon="6.38377">
        <ele>937.7890625</ele>
      </trkpt>
      <trkpt lat="44.06842" lon="6.38346">
        <ele>937.546875</ele>
      </trkpt>
      <trkpt lat="44.06839" lon="6.3828">
        <ele>938.20703125</ele>
      </trkpt>
      <trkpt lat="44.06844" lon="6.3825">
        <ele>939.51953125</ele>
      </trkpt>
      <trkpt lat="44.06848" lon="6.38231">
        <ele>940.5390625</ele>
      </trkpt>
      <trkpt lat="44.06863" lon="6.38213">
        <ele>942.23828125</ele>
      </trkpt>
      <trkpt lat="44.06884" lon="6.38198">
        <ele>944.64453125</ele>
      </trkpt>
      <trkpt lat="44.06891" lon="6.38183">
        <ele>946.75</ele>
      </trkpt>
      <trkpt lat="44.06889" lon="6.38173">
        <ele>947.94921875</ele>
      </trkpt>
      <trkpt lat="44.0688" lon="6.38164">
        <ele>948.5078125</ele>
      </trkpt>
      <trkpt lat="44.06874" lon="6.38153">
        <ele>949.38671875</ele>
      </trkpt>
      <trkpt lat="44.06865" lon="6.38117">
        <ele>953.59375</ele>
      </trkpt>
      <trkpt lat="44.06852" lon="6.38104">
        <ele>954.91015625</ele>
      </trkpt>
      <trkpt lat="44.06824" lon="6.3811">
        <ele>954.01953125</ele>
      </trkpt>
      <trkpt lat="44.06814" lon="6.38102">
        <ele>955.05078125</ele>
      </trkpt>
      <trkpt lat="44.06805" lon="6.38063">
        <ele>960.1875</ele>
      </trkpt>
      <trkpt lat="44.06807" lon="6.38027">
        <ele>965.08984375</ele>
      </trkpt>
      <trkpt lat="44.06801" lon="6.38025">
        <ele>966.23828125</ele>
      </trkpt>
      <trkpt lat="44.06794" lon="6.38025">
        <ele>967.37890625</ele>
      </trkpt>
      <trkpt lat="44.06788" lon="6.38048">
        <ele>965.71484375</ele>
      </trkpt>
      <trkpt lat="44.06745" lon="6.38104">
        <ele>961.95703125</ele>
      </trkpt>
      <trkpt lat="44.0673" lon="6.3811">
        <ele>962.09765625</ele>
      </trkpt>
      <trkpt lat="44.06719" lon="6.3811">
        <ele>963.16015625</ele>
      </trkpt>
      <trkpt lat="44.06704" lon="6.38102">
        <ele>965.81640625</ele>
      </trkpt>
      <trkpt lat="44.06683" lon="6.38093">
        <ele>968.41015625</ele>
      </trkpt>
      <trkpt lat="44.06674" lon="6.3808">
        <ele>971.28515625</ele>
      </trkpt>
      <trkpt lat="44.0667" lon="6.38033">
        <ele>980.21484375</ele>
      </trkpt>
      <trkpt lat="44.06678" lon="6.38029">
        <ele>980.17578125</ele>
      </trkpt>
      <trkpt lat="44.06698" lon="6.38022">
        <ele>979.73046875</ele>
      </trkpt>
      <trkpt lat="44.06709" lon="6.3799">
        <ele>981.34765625</ele>
      </trkpt>
      <trkpt lat="44.06706" lon="6.37975">
        <ele>982.4609375</ele>
      </trkpt>
      <trkpt lat="44.06694" lon="6.3796">
        <ele>984.26953125</ele>
      </trkpt>
      <trkpt lat="44.06691" lon="6.37947">
        <ele>985.2421875</ele>
      </trkpt>
      <trkpt lat="44.06724" lon="6.37898">
        <ele>993.96484375</ele>
      </trkpt>
      <trkpt lat="44.06771" lon="6.37842">
        <ele>1001.53515625</ele>
      </trkpt>
      <trkpt lat="44.06779" lon="6.37825">
        <ele>1002.671875</ele>
      </trkpt>
      <trkpt lat="44.06766" lon="6.37786">
        <ele>1004.26953125</ele>
      </trkpt>
      <trkpt lat="44.06756" lon="6.37735">
        <ele>1007.21875</ele>
      </trkpt>
      <trkpt lat="44.06704" lon="6.37668">
        <ele>1006.92578125</ele>
      </trkpt>
      <trkpt lat="44.06681" lon="6.37628">
        <ele>1011.58203125</ele>
      </trkpt>
      <trkpt lat="44.06655" lon="6.37608">
        <ele>1010.296875</ele>
      </trkpt>
      <trkpt lat="44.06642" lon="6.37587">
        <ele>1012.47265625</ele>
      </trkpt>
      <trkpt lat="44.06584" lon="6.37555">
        <ele>1010.51171875</ele>
      </trkpt>
      <trkpt lat="44.06545" lon="6.37572">
        <ele>1004.84375</ele>
      </trkpt>
      <trkpt lat="44.06494" lon="6.37587">
        <ele>1000.59375</ele>
      </trkpt>
      <trkpt lat="44.06477" lon="6.37576">
        <ele>1001.99609375</ele>
      </trkpt>
      <trkpt lat="44.0647" lon="6.37542">
        <ele>1005.92578125</ele>
      </trkpt>
      <trkpt lat="44.0646" lon="6.37507">
        <ele>1008.16015625</ele>
      </trkpt>
      <trkpt lat="44.06432" lon="6.37467">
        <ele>1007.76953125</ele>
      </trkpt>
      <trkpt lat="44.06434" lon="6.37441">
        <ele>1008.65625</ele>
      </trkpt>
      <trkpt lat="44.0646" lon="6.37389">
        <ele>1010.66796875</ele>
      </trkpt>
      <trkpt lat="44.0646" lon="6.37368">
        <ele>1010.4296875</ele>
      </trkpt>
      <trkpt lat="44.06455" lon="6.37355">
        <ele>1009.51953125</ele>
      </trkpt>
      <trkpt lat="44.06417" lon="6.37317">
        <ele>1001.640625</ele>
      </trkpt>
      <trkpt lat="44.064" lon="6.37239">
        <ele>1004.1171875</ele>
      </trkpt>
      <trkpt lat="44.06376" lon="6.37224">
        <ele>1001.91796875</ele>
      </trkpt>
      <trkpt lat="44.06322" lon="6.37158">
        <ele>999.41796875</ele>
      </trkpt>
      <trkpt lat="44.06312" lon="6.3708">
        <ele>999.98046875</ele>
      </trkpt>
      <trkpt lat="44.06282" lon="6.36973">
        <ele>1001.68359375</ele>
      </trkpt>
      <trkpt lat="44.0626" lon="6.36935">
        <ele>1004.546875</ele>
      </trkpt>
      <trkpt lat="44.06168" lon="6.36819">
        <ele>1005.796875</ele>
      </trkpt>
      <trkpt lat="44.06159" lon="6.36802">
        <ele>1005.796875</ele>
      </trkpt>
      <trkpt lat="44.06164" lon="6.36735">
        <ele>1009.171875</ele>
      </trkpt>
      <trkpt lat="44.06209" lon="6.36726">
        <ele>1018.44140625</ele>
      </trkpt>
      <trkpt lat="44.06211" lon="6.36723">
        <ele>1018.84765625</ele>
      </trkpt>
      <trkpt lat="44.06219" lon="6.36714">
        <ele>1020.1875</ele>
      </trkpt>
      <trkpt lat="44.06232" lon="6.36677">
        <ele>1022.42578125</ele>
      </trkpt>
      <trkpt lat="44.06243" lon="6.36664">
        <ele>1024.51171875</ele>
      </trkpt>
      <trkpt lat="44.0626" lon="6.36658">
        <ele>1027.890625</ele>
      </trkpt>
      <trkpt lat="44.06284" lon="6.36666">
        <ele>1032.7109375</ele>
      </trkpt>
      <trkpt lat="44.0629" lon="6.36686">
        <ele>1034.37109375</ele>
      </trkpt>
      <trkpt lat="44.06297" lon="6.3672">
        <ele>1035.94140625</ele>
      </trkpt>
      <trkpt lat="44.06301" lon="6.36735">
        <ele>1036.796875</ele>
      </trkpt>
      <trkpt lat="44.0632" lon="6.36739">
        <ele>1040.56640625</ele>
      </trkpt>
      <trkpt lat="44.06339" lon="6.36731">
        <ele>1044.515625</ele>
      </trkpt>
      <trkpt lat="44.06357" lon="6.36729">
        <ele>1047.91796875</ele>
      </trkpt>
      <trkpt lat="44.06361" lon="6.36726">
        <ele>1048.80078125</ele>
      </trkpt>
      <trkpt lat="44.06378" lon="6.36748">
        <ele>1051.54296875</ele>
      </trkpt>
      <trkpt lat="44.06389" lon="6.36778">
        <ele>1052.33203125</ele>
      </trkpt>
      <trkpt lat="44.0641" lon="6.36799">
        <ele>1053.53515625</ele>
      </trkpt>
      <trkpt lat="44.06417" lon="6.36799">
        <ele>1054.61328125</ele>
      </trkpt>
      <trkpt lat="44.06425" lon="6.36782">
        <ele>1058.65625</ele>
      </trkpt>
      <trkpt lat="44.06419" lon="6.36756">
        <ele>1059.33203125</ele>
      </trkpt>
      <trkpt lat="44.06419" lon="6.36726">
        <ele>1061.12890625</ele>
      </trkpt>
      <trkpt lat="44.06432" lon="6.36684">
        <ele>1065.26171875</ele>
      </trkpt>
      <trkpt lat="44.0646" lon="6.36656">
        <ele>1070.125</ele>
      </trkpt>
      <trkpt lat="44.06498" lon="6.36608">
        <ele>1075.71875</ele>
      </trkpt>
      <trkpt lat="44.06509" lon="6.36598">
        <ele>1077.39453125</ele>
      </trkpt>
      <trkpt lat="44.0656" lon="6.36578">
        <ele>1085.69140625</ele>
      </trkpt>
      <trkpt lat="44.0664" lon="6.36538">
        <ele>1097.50390625</ele>
      </trkpt>
      <trkpt lat="44.06655" lon="6.36518">
        <ele>1098.89453125</ele>
      </trkpt>
      <trkpt lat="44.06702" lon="6.36435">
        <ele>1100.25</ele>
      </trkpt>
      <trkpt lat="44.06764" lon="6.36405">
        <ele>1108.37109375</ele>
      </trkpt>
      <trkpt lat="44.06822" lon="6.36372">
        <ele>1113.6640625</ele>
      </trkpt>
      <trkpt lat="44.06884" lon="6.36295">
        <ele>1109.15625</ele>
      </trkpt>
      <trkpt lat="44.06977" lon="6.36141">
        <ele>1106.5234375</ele>
      </trkpt>
      <trkpt lat="44.07054" lon="6.36029">
        <ele>1101.91015625</ele>
      </trkpt>
      <trkpt lat="44.07174" lon="6.35958">
        <ele>1106.59375</ele>
      </trkpt>
      <trkpt lat="44.07316" lon="6.35924">
        <ele>1117.33984375</ele>
      </trkpt>
      <trkpt lat="44.07661" lon="6.35849">
        <ele>1138.3671875</ele>
      </trkpt>
      <trkpt lat="44.07758" lon="6.35847">
        <ele>1150.29296875</ele>
      </trkpt>
      <trkpt lat="44.07831" lon="6.35814">
        <ele>1156.8515625</ele>
      </trkpt>
      <trkpt lat="44.07919" lon="6.35746">
        <ele>1165.0234375</ele>
      </trkpt>
      <trkpt lat="44.08088" lon="6.35617">
        <ele>1182.6328125</ele>
      </trkpt>
      <trkpt lat="44.08303" lon="6.35533">
        <ele>1202.17578125</ele>
      </trkpt>
      <trkpt lat="44.08331" lon="6.3551">
        <ele>1202.08203125</ele>
      </trkpt>
      <trkpt lat="44.08539" lon="6.35435">
        <ele>1220.921875</ele>
      </trkpt>
      <trkpt lat="44.08584" lon="6.35407">
        <ele>1222.9453125</ele>
      </trkpt>
      <trkpt lat="44.0862" lon="6.35392">
        <ele>1227.3984375</ele>
      </trkpt>
    </trkseg>
  </trk>
  <trk>
    <name><![CDATA[J3 - RUN 2 - Tony]]></name>
    <desc><![CDATA[Technique Vélo : SRAM ou shimano ?]]></desc>
    <extensions>
      <line xmlns="http://www.topografix.com/GPX/gpx_style/0/2">
        <color>00ff00</color>
        <width>4</width>
        <dasharray>4</dasharray>
          <extensions>
            <sens>1</sens>
          </extensions>
      </line>
    </extensions>
    <trkseg>
      <trkpt lat="44.0862" lon="6.35392">
        <ele>1227.3984375</ele>
      </trkpt>
      <trkpt lat="44.0865" lon="6.35375">
        <ele>1229.5859375</ele>
      </trkpt>
      <trkpt lat="44.08685" lon="6.35368">
        <ele>1234.53515625</ele>
      </trkpt>
      <trkpt lat="44.08711" lon="6.35366">
        <ele>1238.53125</ele>
      </trkpt>
      <trkpt lat="44.08719" lon="6.35372">
        <ele>1242.25390625</ele>
      </trkpt>
      <trkpt lat="44.08764" lon="6.35366">
        <ele>1246.8515625</ele>
      </trkpt>
      <trkpt lat="44.08803" lon="6.35364">
        <ele>1251.16015625</ele>
      </trkpt>
      <trkpt lat="44.08807" lon="6.35375">
        <ele>1256.12109375</ele>
      </trkpt>
      <trkpt lat="44.08773" lon="6.35394">
        <ele>1259.17578125</ele>
      </trkpt>
      <trkpt lat="44.087" lon="6.35478">
        <ele>1270.0390625</ele>
      </trkpt>
      <trkpt lat="44.08642" lon="6.35574">
        <ele>1280.94921875</ele>
      </trkpt>
      <trkpt lat="44.08599" lon="6.35619">
        <ele>1286.3828125</ele>
      </trkpt>
      <trkpt lat="44.08459" lon="6.35724">
        <ele>1299.16015625</ele>
      </trkpt>
      <trkpt lat="44.08432" lon="6.35763">
        <ele>1310.2890625</ele>
      </trkpt>
      <trkpt lat="44.08389" lon="6.35784">
        <ele>1308.328125</ele>
      </trkpt>
      <trkpt lat="44.08354" lon="6.35821">
        <ele>1315.21875</ele>
      </trkpt>
      <trkpt lat="44.0826" lon="6.35892">
        <ele>1320.99609375</ele>
      </trkpt>
      <trkpt lat="44.08208" lon="6.35939">
        <ele>1327.05859375</ele>
      </trkpt>
      <trkpt lat="44.08181" lon="6.3598">
        <ele>1337.58984375</ele>
      </trkpt>
      <trkpt lat="44.08118" lon="6.36029">
        <ele>1340.1328125</ele>
      </trkpt>
      <trkpt lat="44.08041" lon="6.36113">
        <ele>1353.20703125</ele>
      </trkpt>
      <trkpt lat="44.07944" lon="6.36196">
        <ele>1366.53125</ele>
      </trkpt>
      <trkpt lat="44.07908" lon="6.36209">
        <ele>1363.1953125</ele>
      </trkpt>
      <trkpt lat="44.07861" lon="6.36252">
        <ele>1370.34765625</ele>
      </trkpt>
      <trkpt lat="44.07779" lon="6.36293">
        <ele>1378.53515625</ele>
      </trkpt>
      <trkpt lat="44.07666" lon="6.3637">
        <ele>1383.4375</ele>
      </trkpt>
      <trkpt lat="44.07612" lon="6.36417">
        <ele>1392.13671875</ele>
      </trkpt>
      <trkpt lat="44.07618" lon="6.36415">
        <ele>1391.890625</ele>
      </trkpt>
      <trkpt lat="44.07612" lon="6.36417">
        <ele>1392.13671875</ele>
      </trkpt>
      <trkpt lat="44.07723" lon="6.36381">
        <ele>1389.57421875</ele>
      </trkpt>
      <trkpt lat="44.07805" lon="6.36383">
        <ele>1385.921875</ele>
      </trkpt>
      <trkpt lat="44.07844" lon="6.36355">
        <ele>1386.62890625</ele>
      </trkpt>
      <trkpt lat="44.07906" lon="6.36287">
        <ele>1382.85546875</ele>
      </trkpt>
      <trkpt lat="44.07938" lon="6.36259">
        <ele>1384.671875</ele>
      </trkpt>
      <trkpt lat="44.08013" lon="6.36231">
        <ele>1402.16015625</ele>
      </trkpt>
      <trkpt lat="44.08078" lon="6.36192">
        <ele>1402.41015625</ele>
      </trkpt>
      <trkpt lat="44.08146" lon="6.36164">
        <ele>1407.890625</ele>
      </trkpt>
      <trkpt lat="44.08191" lon="6.36138">
        <ele>1411.796875</ele>
      </trkpt>
      <trkpt lat="44.08331" lon="6.36044">
        <ele>1421.39453125</ele>
      </trkpt>
      <trkpt lat="44.08389" lon="6.3601">
        <ele>1421.2421875</ele>
      </trkpt>
      <trkpt lat="44.08633" lon="6.35963">
        <ele>1444.0546875</ele>
      </trkpt>
      <trkpt lat="44.08685" lon="6.35954">
        <ele>1444.16796875</ele>
      </trkpt>
      <trkpt lat="44.08715" lon="6.35963">
        <ele>1445.64453125</ele>
      </trkpt>
      <trkpt lat="44.08751" lon="6.3601">
        <ele>1453.40234375</ele>
      </trkpt>
      <trkpt lat="44.0882" lon="6.36108">
        <ele>1447.2578125</ele>
      </trkpt>
      <trkpt lat="44.08811" lon="6.36141">
        <ele>1454.5546875</ele>
      </trkpt>
      <trkpt lat="44.08799" lon="6.36231">
        <ele>1459.60546875</ele>
      </trkpt>
      <trkpt lat="44.08816" lon="6.36319">
        <ele>1455.51953125</ele>
      </trkpt>
      <trkpt lat="44.08839" lon="6.36366">
        <ele>1458.16796875</ele>
      </trkpt>
      <trkpt lat="44.08912" lon="6.36439">
        <ele>1464.73046875</ele>
      </trkpt>
      <trkpt lat="44.08983" lon="6.3648">
        <ele>1473.92578125</ele>
      </trkpt>
      <trkpt lat="44.09028" lon="6.36495">
        <ele>1473.28515625</ele>
      </trkpt>
      <trkpt lat="44.09041" lon="6.3651">
        <ele>1477.30859375</ele>
      </trkpt>
      <trkpt lat="44.09073" lon="6.3652">
        <ele>1475.21875</ele>
      </trkpt>
      <trkpt lat="44.0909" lon="6.3652">
        <ele>1475.31640625</ele>
      </trkpt>
      <trkpt lat="44.09107" lon="6.36501">
        <ele>1470.09375</ele>
      </trkpt>
      <trkpt lat="44.0914" lon="6.36516">
        <ele>1478.8203125</ele>
      </trkpt>
      <trkpt lat="44.09146" lon="6.36439">
        <ele>1479.30078125</ele>
      </trkpt>
      <trkpt lat="44.09142" lon="6.36415">
        <ele>1478.94140625</ele>
      </trkpt>
      <trkpt lat="44.09118" lon="6.36349">
        <ele>1472.5234375</ele>
      </trkpt>
      <trkpt lat="44.09146" lon="6.36291">
        <ele>1488.53515625</ele>
      </trkpt>
      <trkpt lat="44.09144" lon="6.3625">
        <ele>1487.9140625</ele>
      </trkpt>
      <trkpt lat="44.09144" lon="6.36211">
        <ele>1486.34765625</ele>
      </trkpt>
      <trkpt lat="44.09148" lon="6.36196">
        <ele>1487.70703125</ele>
      </trkpt>
      <trkpt lat="44.09153" lon="6.36186">
        <ele>1489.41015625</ele>
      </trkpt>
      <trkpt lat="44.09165" lon="6.36164">
        <ele>1494.59375</ele>
      </trkpt>
      <trkpt lat="44.09163" lon="6.36134">
        <ele>1490.44921875</ele>
      </trkpt>
      <trkpt lat="44.09155" lon="6.36104">
        <ele>1483.86328125</ele>
      </trkpt>
      <trkpt lat="44.09163" lon="6.36096">
        <ele>1487.9453125</ele>
      </trkpt>
      <trkpt lat="44.09176" lon="6.36117">
        <ele>1496.87109375</ele>
      </trkpt>
      <trkpt lat="44.09185" lon="6.36173">
        <ele>1506.49609375</ele>
      </trkpt>
      <trkpt lat="44.09174" lon="6.36214">
        <ele>1503.578125</ele>
      </trkpt>
      <trkpt lat="44.09178" lon="6.36259">
        <ele>1506.20703125</ele>
      </trkpt>
      <trkpt lat="44.09195" lon="6.36317">
        <ele>1510.97265625</ele>
      </trkpt>
      <trkpt lat="44.09234" lon="6.36372">
        <ele>1523.12890625</ele>
      </trkpt>
      <trkpt lat="44.09247" lon="6.36458">
        <ele>1524.59375</ele>
      </trkpt>
      <trkpt lat="44.09268" lon="6.36576">
        <ele>1535.1171875</ele>
      </trkpt>
      <trkpt lat="44.09268" lon="6.36623">
        <ele>1534.54296875</ele>
      </trkpt>
      <trkpt lat="44.09256" lon="6.36666">
        <ele>1530.765625</ele>
      </trkpt>
      <trkpt lat="44.09262" lon="6.36675">
        <ele>1531.16796875</ele>
      </trkpt>
      <trkpt lat="44.09279" lon="6.36666">
        <ele>1533.15625</ele>
      </trkpt>
    </trkseg>
  </trk>
  <trk>
    <name><![CDATA[J3 - RUN 3 - Matthieu]]></name>
    <desc><![CDATA[Patrimoine - Carto : Pas d'archail : Identifier les sommets environnants (carte + boussole)
https://www.toporandosmontagne.com/04/prealpes-digne/dourbes/dourbes.php
]]></desc>
    <extensions>
      <line xmlns="http://www.topografix.com/GPX/gpx_style/0/2">
        <color>ff0000</color>
        <width>4</width>
        <dasharray>4</dasharray>
          <extensions>
            <sens>1</sens>
          </extensions>
      </line>
    </extensions>
    <trkseg>
      <trkpt lat="44.09279" lon="6.36666">
        <ele>1533.15625</ele>
      </trkpt>
      <trkpt lat="44.09341" lon="6.36568">
        <ele>1547.51171875</ele>
      </trkpt>
      <trkpt lat="44.09419" lon="6.36497">
        <ele>1552.6328125</ele>
      </trkpt>
      <trkpt lat="44.09494" lon="6.36387">
        <ele>1563.5</ele>
      </trkpt>
      <trkpt lat="44.09524" lon="6.36362">
        <ele>1561.9375</ele>
      </trkpt>
      <trkpt lat="44.09526" lon="6.36314">
        <ele>1577.2421875</ele>
      </trkpt>
      <trkpt lat="44.09537" lon="6.36293">
        <ele>1582.63671875</ele>
      </trkpt>
      <trkpt lat="44.09562" lon="6.36278">
        <ele>1580.7421875</ele>
      </trkpt>
      <trkpt lat="44.09597" lon="6.36287">
        <ele>1569.0859375</ele>
      </trkpt>
      <trkpt lat="44.09633" lon="6.36272">
        <ele>1568.484375</ele>
      </trkpt>
      <trkpt lat="44.0965" lon="6.36246">
        <ele>1573.3515625</ele>
      </trkpt>
      <trkpt lat="44.09678" lon="6.36231">
        <ele>1573.06640625</ele>
      </trkpt>
      <trkpt lat="44.09706" lon="6.3619">
        <ele>1582.6953125</ele>
      </trkpt>
      <trkpt lat="44.0973" lon="6.3619">
        <ele>1579.05078125</ele>
      </trkpt>
      <trkpt lat="44.09758" lon="6.36158">
        <ele>1584.6015625</ele>
      </trkpt>
      <trkpt lat="44.09766" lon="6.36136">
        <ele>1590.29296875</ele>
      </trkpt>
      <trkpt lat="44.09826" lon="6.36104">
        <ele>1590.83203125</ele>
      </trkpt>
      <trkpt lat="44.09886" lon="6.36055">
        <ele>1599.2890625</ele>
      </trkpt>
      <trkpt lat="44.09908" lon="6.36038">
        <ele>1602.1015625</ele>
      </trkpt>
      <trkpt lat="44.09919" lon="6.36023">
        <ele>1605.9921875</ele>
      </trkpt>
      <trkpt lat="44.09938" lon="6.36005">
        <ele>1609.33984375</ele>
      </trkpt>
      <trkpt lat="44.09964" lon="6.35999">
        <ele>1608.21875</ele>
      </trkpt>
      <trkpt lat="44.09983" lon="6.35988">
        <ele>1608.9609375</ele>
      </trkpt>
      <trkpt lat="44.09996" lon="6.35988">
        <ele>1607.2890625</ele>
      </trkpt>
      <trkpt lat="44.10004" lon="6.35975">
        <ele>1609.5390625</ele>
      </trkpt>
      <trkpt lat="44.10013" lon="6.35956">
        <ele>1613.52734375</ele>
      </trkpt>
      <trkpt lat="44.10034" lon="6.35935">
        <ele>1616.171875</ele>
      </trkpt>
      <trkpt lat="44.10058" lon="6.3592">
        <ele>1617.6015625</ele>
      </trkpt>
      <trkpt lat="44.10073" lon="6.35894">
        <ele>1624.3671875</ele>
      </trkpt>
      <trkpt lat="44.10099" lon="6.35866">
        <ele>1631.15625</ele>
      </trkpt>
      <trkpt lat="44.10131" lon="6.35868">
        <ele>1627.72265625</ele>
      </trkpt>
      <trkpt lat="44.10159" lon="6.35853">
        <ele>1631.421875</ele>
      </trkpt>
      <trkpt lat="44.10189" lon="6.3584">
        <ele>1634.65625</ele>
      </trkpt>
      <trkpt lat="44.10198" lon="6.35821">
        <ele>1640.640625</ele>
      </trkpt>
      <trkpt lat="44.10219" lon="6.35812">
        <ele>1644.484375</ele>
      </trkpt>
      <trkpt lat="44.10258" lon="6.35819">
        <ele>1643.92578125</ele>
      </trkpt>
      <trkpt lat="44.10286" lon="6.35817">
        <ele>1644.7109375</ele>
      </trkpt>
      <trkpt lat="44.10313" lon="6.35797">
        <ele>1649.4609375</ele>
      </trkpt>
      <trkpt lat="44.10354" lon="6.35778">
        <ele>1653.2734375</ele>
      </trkpt>
      <trkpt lat="44.10369" lon="6.35761">
        <ele>1657.765625</ele>
      </trkpt>
      <trkpt lat="44.10419" lon="6.35729">
        <ele>1665.40625</ele>
      </trkpt>
      <trkpt lat="44.10429" lon="6.35714">
        <ele>1669.08203125</ele>
      </trkpt>
      <trkpt lat="44.10453" lon="6.35699">
        <ele>1672.3359375</ele>
      </trkpt>
      <trkpt lat="44.10483" lon="6.35714">
        <ele>1671.5625</ele>
      </trkpt>
      <trkpt lat="44.10489" lon="6.35719">
        <ele>1670.98046875</ele>
      </trkpt>
      <trkpt lat="44.105" lon="6.35731">
        <ele>1670.390625</ele>
      </trkpt>
      <trkpt lat="44.10519" lon="6.35759">
        <ele>1668.328125</ele>
      </trkpt>
      <trkpt lat="44.10582" lon="6.35825">
        <ele>1666.96875</ele>
      </trkpt>
      <trkpt lat="44.10592" lon="6.35827">
        <ele>1668.1640625</ele>
      </trkpt>
      <trkpt lat="44.10614" lon="6.35823">
        <ele>1667</ele>
      </trkpt>
      <trkpt lat="44.10665" lon="6.35834">
        <ele>1660.6796875</ele>
      </trkpt>
      <trkpt lat="44.10708" lon="6.35836">
        <ele>1657.08984375</ele>
      </trkpt>
      <trkpt lat="44.10736" lon="6.35778">
        <ele>1644.25390625</ele>
      </trkpt>
      <trkpt lat="44.10818" lon="6.3569">
        <ele>1608.984375</ele>
      </trkpt>
      <trkpt lat="44.10824" lon="6.35711">
        <ele>1619.140625</ele>
      </trkpt>
      <trkpt lat="44.10865" lon="6.35744">
        <ele>1629.34765625</ele>
      </trkpt>
      <trkpt lat="44.10826" lon="6.35675">
        <ele>1597.9375</ele>
      </trkpt>
      <trkpt lat="44.10854" lon="6.35694">
        <ele>1601.703125</ele>
      </trkpt>
      <trkpt lat="44.10899" lon="6.35692">
        <ele>1589.44921875</ele>
      </trkpt>
      <trkpt lat="44.10837" lon="6.35658">
        <ele>1587.47265625</ele>
      </trkpt>
      <trkpt lat="44.10891" lon="6.35656">
        <ele>1570.640625</ele>
      </trkpt>
      <trkpt lat="44.10839" lon="6.35621">
        <ele>1573.1015625</ele>
      </trkpt>
      <trkpt lat="44.10852" lon="6.35602">
        <ele>1560.765625</ele>
      </trkpt>
      <trkpt lat="44.1088" lon="6.35598">
        <ele>1544.5078125</ele>
      </trkpt>
      <trkpt lat="44.10923" lon="6.35576">
        <ele>1526.18359375</ele>
      </trkpt>
      <trkpt lat="44.10968" lon="6.35578">
        <ele>1522.0859375</ele>
      </trkpt>
      <trkpt lat="44.10936" lon="6.35553">
        <ele>1515.6875</ele>
      </trkpt>
      <trkpt lat="44.10901" lon="6.35548">
        <ele>1523.81640625</ele>
      </trkpt>
      <trkpt lat="44.10968" lon="6.35493">
        <ele>1482.796875</ele>
      </trkpt>
      <trkpt lat="44.10931" lon="6.3549">
        <ele>1495.6328125</ele>
      </trkpt>
      <trkpt lat="44.10923" lon="6.35469">
        <ele>1493.99609375</ele>
      </trkpt>
      <trkpt lat="44.1091" lon="6.35392">
        <ele>1486.765625</ele>
      </trkpt>
      <trkpt lat="44.10921" lon="6.35383">
        <ele>1477.734375</ele>
      </trkpt>
      <trkpt lat="44.10942" lon="6.35443">
        <ele>1478.94921875</ele>
      </trkpt>
      <trkpt lat="44.10961" lon="6.35443">
        <ele>1470.10546875</ele>
      </trkpt>
      <trkpt lat="44.11002" lon="6.3542">
        <ele>1452.51953125</ele>
      </trkpt>
      <trkpt lat="44.10974" lon="6.35407">
        <ele>1455.6015625</ele>
      </trkpt>
      <trkpt lat="44.10974" lon="6.35381">
        <ele>1449.51171875</ele>
      </trkpt>
      <trkpt lat="44.10985" lon="6.35342">
        <ele>1437.08203125</ele>
      </trkpt>
      <trkpt lat="44.10979" lon="6.35315">
        <ele>1433.859375</ele>
      </trkpt>
      <trkpt lat="44.10961" lon="6.35287">
        <ele>1437.421875</ele>
      </trkpt>
      <trkpt lat="44.10955" lon="6.3525">
        <ele>1435.37109375</ele>
      </trkpt>
      <trkpt lat="44.10961" lon="6.35209">
        <ele>1425.0234375</ele>
      </trkpt>
      <trkpt lat="44.10959" lon="6.35154">
        <ele>1414.53515625</ele>
      </trkpt>
      <trkpt lat="44.10949" lon="6.35081">
        <ele>1402.234375</ele>
      </trkpt>
      <trkpt lat="44.10927" lon="6.35008">
        <ele>1395.96484375</ele>
      </trkpt>
      <trkpt lat="44.10916" lon="6.34927">
        <ele>1382.18359375</ele>
      </trkpt>
      <trkpt lat="44.10906" lon="6.34851">
        <ele>1371.5234375</ele>
      </trkpt>
      <trkpt lat="44.10895" lon="6.34842">
        <ele>1374.328125</ele>
      </trkpt>
      <trkpt lat="44.10891" lon="6.34746">
        <ele>1357.0859375</ele>
      </trkpt>
      <trkpt lat="44.10854" lon="6.34658">
        <ele>1348.125</ele>
      </trkpt>
      <trkpt lat="44.10835" lon="6.34364">
        <ele>1304.84765625</ele>
      </trkpt>
      <trkpt lat="44.10822" lon="6.34321">
        <ele>1300.3125</ele>
      </trkpt>
      <trkpt lat="44.10809" lon="6.3428">
        <ele>1294.41015625</ele>
      </trkpt>
      <trkpt lat="44.10852" lon="6.34297">
        <ele>1287.66015625</ele>
      </trkpt>
      <trkpt lat="44.10869" lon="6.34282">
        <ele>1280.25390625</ele>
      </trkpt>
      <trkpt lat="44.10822" lon="6.34244">
        <ele>1282.296875</ele>
      </trkpt>
      <trkpt lat="44.1067" lon="6.34145">
        <ele>1257.94921875</ele>
      </trkpt>
      <trkpt lat="44.10648" lon="6.34194">
        <ele>1275.26953125</ele>
      </trkpt>
      <trkpt lat="44.10582" lon="6.34197">
        <ele>1265.4765625</ele>
      </trkpt>
      <trkpt lat="44.10552" lon="6.34182">
        <ele>1255.625</ele>
      </trkpt>
      <trkpt lat="44.10592" lon="6.34169">
        <ele>1254.39453125</ele>
      </trkpt>
      <trkpt lat="44.10625" lon="6.34139">
        <ele>1247.390625</ele>
      </trkpt>
      <trkpt lat="44.10584" lon="6.34145">
        <ele>1243.67578125</ele>
      </trkpt>
      <trkpt lat="44.10554" lon="6.3413">
        <ele>1236.765625</ele>
      </trkpt>
      <trkpt lat="44.10592" lon="6.34106">
        <ele>1230.55859375</ele>
      </trkpt>
      <trkpt lat="44.10547" lon="6.34094">
        <ele>1226.60546875</ele>
      </trkpt>
      <trkpt lat="44.10547" lon="6.34059">
        <ele>1217.35546875</ele>
      </trkpt>
      <trkpt lat="44.10519" lon="6.34051">
        <ele>1220.90625</ele>
      </trkpt>
      <trkpt lat="44.10517" lon="6.34025">
        <ele>1218.04296875</ele>
      </trkpt>
      <trkpt lat="44.1053" lon="6.33999">
        <ele>1211.67578125</ele>
      </trkpt>
      <trkpt lat="44.10528" lon="6.33946">
        <ele>1207.83984375</ele>
      </trkpt>
      <trkpt lat="44.10524" lon="6.33913">
        <ele>1208.0078125</ele>
      </trkpt>
      <trkpt lat="44.10502" lon="6.33905">
        <ele>1214.27734375</ele>
      </trkpt>
      <trkpt lat="44.10522" lon="6.33851">
        <ele>1207.55859375</ele>
      </trkpt>
      <trkpt lat="44.10468" lon="6.33774">
        <ele>1216.4453125</ele>
      </trkpt>
      <trkpt lat="44.10472" lon="6.33832">
        <ele>1222.64453125</ele>
      </trkpt>
      <trkpt lat="44.10416" lon="6.33787">
        <ele>1235.5859375</ele>
      </trkpt>
      <trkpt lat="44.10401" lon="6.33789">
        <ele>1240.6328125</ele>
      </trkpt>
      <trkpt lat="44.10369" lon="6.33733">
        <ele>1246.7734375</ele>
      </trkpt>
      <trkpt lat="44.1035" lon="6.33729">
        <ele>1252.390625</ele>
      </trkpt>
      <trkpt lat="44.10348" lon="6.33709">
        <ele>1253.63671875</ele>
      </trkpt>
      <trkpt lat="44.10331" lon="6.33694">
        <ele>1258.64453125</ele>
      </trkpt>
      <trkpt lat="44.10322" lon="6.33669">
        <ele>1262.30078125</ele>
      </trkpt>
      <trkpt lat="44.10305" lon="6.33649">
        <ele>1269.546875</ele>
      </trkpt>
      <trkpt lat="44.10298" lon="6.33622">
        <ele>1274.59765625</ele>
      </trkpt>
      <trkpt lat="44.10309" lon="6.33613">
        <ele>1272.3359375</ele>
      </trkpt>
      <trkpt lat="44.10301" lon="6.33596">
        <ele>1277.03515625</ele>
      </trkpt>
      <trkpt lat="44.10309" lon="6.33596">
        <ele>1274.62109375</ele>
      </trkpt>
      <trkpt lat="44.10307" lon="6.33583">
        <ele>1276.53515625</ele>
      </trkpt>
      <trkpt lat="44.1032" lon="6.3357">
        <ele>1274.8359375</ele>
      </trkpt>
      <trkpt lat="44.10309" lon="6.33553">
        <ele>1279.1484375</ele>
      </trkpt>
      <trkpt lat="44.10324" lon="6.3354">
        <ele>1277.375</ele>
      </trkpt>
      <trkpt lat="44.10309" lon="6.3354">
        <ele>1280.28125</ele>
      </trkpt>
      <trkpt lat="44.10288" lon="6.33506">
        <ele>1283.7421875</ele>
      </trkpt>
    </trkseg>
  </trk>
  <trk>
    <name><![CDATA[J3 - RUN 4 - Julio]]></name>
    <desc><![CDATA[Géologie : Les Terres Noires, c'est quoi ?]]></desc>
    <extensions>
      <line xmlns="http://www.topografix.com/GPX/gpx_style/0/2">
        <color>00ffff</color>
        <width>4</width>
        <dasharray>4</dasharray>
          <extensions>
            <sens>1</sens>
          </extensions>
      </line>
    </extensions>
    <trkseg>
      <trkpt lat="44.10288" lon="6.33506">
        <ele>1283.7421875</ele>
      </trkpt>
      <trkpt lat="44.10301" lon="6.33452">
        <ele>1281.80078125</ele>
      </trkpt>
      <trkpt lat="44.10311" lon="6.33433">
        <ele>1279.27734375</ele>
      </trkpt>
      <trkpt lat="44.10341" lon="6.33426">
        <ele>1273.94140625</ele>
      </trkpt>
      <trkpt lat="44.10343" lon="6.334">
        <ele>1269.9375</ele>
      </trkpt>
      <trkpt lat="44.10331" lon="6.33373">
        <ele>1267.04296875</ele>
      </trkpt>
      <trkpt lat="44.10309" lon="6.33353">
        <ele>1262.80859375</ele>
      </trkpt>
      <trkpt lat="44.10307" lon="6.33347">
        <ele>1261.27734375</ele>
      </trkpt>
      <trkpt lat="44.10309" lon="6.33334">
        <ele>1258.63671875</ele>
      </trkpt>
      <trkpt lat="44.10365" lon="6.3331">
        <ele>1254.67578125</ele>
      </trkpt>
      <trkpt lat="44.10404" lon="6.333">
        <ele>1252.06640625</ele>
      </trkpt>
      <trkpt lat="44.10423" lon="6.33282">
        <ele>1250.3203125</ele>
      </trkpt>
      <trkpt lat="44.10459" lon="6.33278">
        <ele>1248.77734375</ele>
      </trkpt>
      <trkpt lat="44.10481" lon="6.33259">
        <ele>1244.93359375</ele>
      </trkpt>
      <trkpt lat="44.10494" lon="6.33231">
        <ele>1241.45703125</ele>
      </trkpt>
      <trkpt lat="44.10494" lon="6.33194">
        <ele>1239.08203125</ele>
      </trkpt>
      <trkpt lat="44.10494" lon="6.3316">
        <ele>1236.3671875</ele>
      </trkpt>
      <trkpt lat="44.10507" lon="6.33053">
        <ele>1229.71875</ele>
      </trkpt>
      <trkpt lat="44.10515" lon="6.32993">
        <ele>1226.08984375</ele>
      </trkpt>
      <trkpt lat="44.10528" lon="6.32967">
        <ele>1225.5546875</ele>
      </trkpt>
      <trkpt lat="44.10543" lon="6.32952">
        <ele>1226.0859375</ele>
      </trkpt>
      <trkpt lat="44.10537" lon="6.32918">
        <ele>1221.97265625</ele>
      </trkpt>
      <trkpt lat="44.10524" lon="6.32892">
        <ele>1217.12890625</ele>
      </trkpt>
      <trkpt lat="44.10513" lon="6.32862">
        <ele>1210.9921875</ele>
      </trkpt>
      <trkpt lat="44.10498" lon="6.32832">
        <ele>1203.0625</ele>
      </trkpt>
      <trkpt lat="44.10498" lon="6.32806">
        <ele>1198.44140625</ele>
      </trkpt>
      <trkpt lat="44.10507" lon="6.32772">
        <ele>1193.6171875</ele>
      </trkpt>
      <trkpt lat="44.10537" lon="6.32695">
        <ele>1185.8671875</ele>
      </trkpt>
      <trkpt lat="44.1054" lon="6.32684">
        <ele>1184.9140625</ele>
      </trkpt>
      <trkpt lat="44.10547" lon="6.32658">
        <ele>1183.1953125</ele>
      </trkpt>
      <trkpt lat="44.10541" lon="6.32632">
        <ele>1178.69140625</ele>
      </trkpt>
      <trkpt lat="44.10547" lon="6.32602">
        <ele>1178.0625</ele>
      </trkpt>
      <trkpt lat="44.10543" lon="6.32578">
        <ele>1175.546875</ele>
      </trkpt>
      <trkpt lat="44.10534" lon="6.32531">
        <ele>1170.890625</ele>
      </trkpt>
      <trkpt lat="44.10541" lon="6.32501">
        <ele>1170.3359375</ele>
      </trkpt>
      <trkpt lat="44.10539" lon="6.32486">
        <ele>1168.8984375</ele>
      </trkpt>
      <trkpt lat="44.10532" lon="6.32461">
        <ele>1165.0234375</ele>
      </trkpt>
      <trkpt lat="44.10528" lon="6.3245">
        <ele>1163.11328125</ele>
      </trkpt>
      <trkpt lat="44.10513" lon="6.32426">
        <ele>1157.70703125</ele>
      </trkpt>
      <trkpt lat="44.10507" lon="6.32405">
        <ele>1154.0859375</ele>
      </trkpt>
      <trkpt lat="44.10502" lon="6.32401">
        <ele>1152.078125</ele>
      </trkpt>
      <trkpt lat="44.10492" lon="6.32396">
        <ele>1147.87109375</ele>
      </trkpt>
      <trkpt lat="44.10485" lon="6.3239">
        <ele>1145.171875</ele>
      </trkpt>
      <trkpt lat="44.10479" lon="6.32377">
        <ele>1142.19140625</ele>
      </trkpt>
      <trkpt lat="44.10449" lon="6.32295">
        <ele>1130.63671875</ele>
      </trkpt>
      <trkpt lat="44.10438" lon="6.32276">
        <ele>1127.75390625</ele>
      </trkpt>
      <trkpt lat="44.10425" lon="6.32265">
        <ele>1125.33984375</ele>
      </trkpt>
      <trkpt lat="44.10414" lon="6.32259">
        <ele>1123.67578125</ele>
      </trkpt>
      <trkpt lat="44.10406" lon="6.32259">
        <ele>1121.55078125</ele>
      </trkpt>
      <trkpt lat="44.10389" lon="6.32268">
        <ele>1116.51171875</ele>
      </trkpt>
      <trkpt lat="44.10373" lon="6.32265">
        <ele>1112.80859375</ele>
      </trkpt>
      <trkpt lat="44.10367" lon="6.32261">
        <ele>1111.86328125</ele>
      </trkpt>
      <trkpt lat="44.10356" lon="6.32244">
        <ele>1108.68359375</ele>
      </trkpt>
      <trkpt lat="44.10346" lon="6.32233">
        <ele>1104.27734375</ele>
      </trkpt>
      <trkpt lat="44.10341" lon="6.32231">
        <ele>1103.1171875</ele>
      </trkpt>
      <trkpt lat="44.1032" lon="6.32244">
        <ele>1103.8671875</ele>
      </trkpt>
      <trkpt lat="44.10298" lon="6.32242">
        <ele>1099.82421875</ele>
      </trkpt>
      <trkpt lat="44.10292" lon="6.3224">
        <ele>1098.36328125</ele>
      </trkpt>
      <trkpt lat="44.10288" lon="6.32235">
        <ele>1096.90625</ele>
      </trkpt>
      <trkpt lat="44.10281" lon="6.32222">
        <ele>1093.84765625</ele>
      </trkpt>
      <trkpt lat="44.10275" lon="6.32216">
        <ele>1092.16796875</ele>
      </trkpt>
      <trkpt lat="44.10264" lon="6.32214">
        <ele>1090.6328125</ele>
      </trkpt>
      <trkpt lat="44.10258" lon="6.32205">
        <ele>1089.21484375</ele>
      </trkpt>
      <trkpt lat="44.10253" lon="6.32195">
        <ele>1088.046875</ele>
      </trkpt>
      <trkpt lat="44.10243" lon="6.32165">
        <ele>1086.703125</ele>
      </trkpt>
      <trkpt lat="44.1024" lon="6.3216">
        <ele>1086.59765625</ele>
      </trkpt>
      <trkpt lat="44.10236" lon="6.32154">
        <ele>1085.51171875</ele>
      </trkpt>
      <trkpt lat="44.10223" lon="6.32147">
        <ele>1084.45703125</ele>
      </trkpt>
      <trkpt lat="44.10217" lon="6.32139">
        <ele>1082.5078125</ele>
      </trkpt>
      <trkpt lat="44.10215" lon="6.32124">
        <ele>1079.63671875</ele>
      </trkpt>
      <trkpt lat="44.1021" lon="6.32113">
        <ele>1077.81640625</ele>
      </trkpt>
      <trkpt lat="44.10193" lon="6.32089">
        <ele>1074.79296875</ele>
      </trkpt>
      <trkpt lat="44.10185" lon="6.32074">
        <ele>1073.6328125</ele>
      </trkpt>
      <trkpt lat="44.1018" lon="6.3207">
        <ele>1073.34375</ele>
      </trkpt>
      <trkpt lat="44.10155" lon="6.32064">
        <ele>1073.1796875</ele>
      </trkpt>
      <trkpt lat="44.10148" lon="6.32059">
        <ele>1072.6796875</ele>
      </trkpt>
      <trkpt lat="44.10144" lon="6.32053">
        <ele>1071.7421875</ele>
      </trkpt>
      <trkpt lat="44.10137" lon="6.32038">
        <ele>1069.64453125</ele>
      </trkpt>
      <trkpt lat="44.10135" lon="6.32023">
        <ele>1067.08984375</ele>
      </trkpt>
      <trkpt lat="44.10137" lon="6.32006">
        <ele>1063.3359375</ele>
      </trkpt>
      <trkpt lat="44.10137" lon="6.31976">
        <ele>1056.84375</ele>
      </trkpt>
      <trkpt lat="44.10142" lon="6.31961">
        <ele>1053.3515625</ele>
      </trkpt>
      <trkpt lat="44.10159" lon="6.31935">
        <ele>1045.578125</ele>
      </trkpt>
      <trkpt lat="44.10163" lon="6.31933">
        <ele>1044.38671875</ele>
      </trkpt>
      <trkpt lat="44.10172" lon="6.31933">
        <ele>1042.70703125</ele>
      </trkpt>
      <trkpt lat="44.10183" lon="6.31939">
        <ele>1041.58203125</ele>
      </trkpt>
      <trkpt lat="44.10187" lon="6.31941">
        <ele>1041.29296875</ele>
      </trkpt>
      <trkpt lat="44.10195" lon="6.31937">
        <ele>1039.53125</ele>
      </trkpt>
      <trkpt lat="44.10204" lon="6.31928">
        <ele>1037.1796875</ele>
      </trkpt>
      <trkpt lat="44.10213" lon="6.31909">
        <ele>1033.859375</ele>
      </trkpt>
      <trkpt lat="44.10221" lon="6.31873">
        <ele>1029.1171875</ele>
      </trkpt>
      <trkpt lat="44.10228" lon="6.31858">
        <ele>1028.15234375</ele>
      </trkpt>
      <trkpt lat="44.10228" lon="6.31849">
        <ele>1028.08984375</ele>
      </trkpt>
      <trkpt lat="44.10225" lon="6.31843">
        <ele>1028.08203125</ele>
      </trkpt>
      <trkpt lat="44.10219" lon="6.31836">
        <ele>1028.00390625</ele>
      </trkpt>
      <trkpt lat="44.10217" lon="6.31748">
        <ele>1021</ele>
      </trkpt>
      <trkpt lat="44.10217" lon="6.31752">
        <ele>1020</ele>
      </trkpt>
      <trkpt lat="44.1021" lon="6.31725">
        <ele>1018</ele>
      </trkpt>
      <trkpt lat="44.10213" lon="6.31717">
        <ele>1018</ele>
      </trkpt>
      <trkpt lat="44.10215" lon="6.31706">
        <ele>1018</ele>
      </trkpt>
      <trkpt lat="44.1022" lon="6.31701">
        <ele>1019</ele>
      </trkpt>
      <trkpt lat="44.10224" lon="6.31694">
        <ele>1020</ele>
      </trkpt>
      <trkpt lat="44.10226" lon="6.31682">
        <ele>1019</ele>
      </trkpt>
      <trkpt lat="44.10232" lon="6.31671">
        <ele>1019</ele>
      </trkpt>
      <trkpt lat="44.10254" lon="6.3165">
        <ele>1017</ele>
      </trkpt>
      <trkpt lat="44.10269" lon="6.31642">
        <ele>1015</ele>
      </trkpt>
      <trkpt lat="44.10274" lon="6.31638">
        <ele>1014</ele>
      </trkpt>
      <trkpt lat="44.10304" lon="6.31619">
        <ele>1006</ele>
      </trkpt>
      <trkpt lat="44.10308" lon="6.31615">
        <ele>1005</ele>
      </trkpt>
      <trkpt lat="44.10309" lon="6.31606">
        <ele>1003</ele>
      </trkpt>
      <trkpt lat="44.10294" lon="6.31599">
        <ele>1005</ele>
      </trkpt>
      <trkpt lat="44.10286" lon="6.31598">
        <ele>1006</ele>
      </trkpt>
      <trkpt lat="44.10276" lon="6.31594">
        <ele>1006</ele>
      </trkpt>
      <trkpt lat="44.10272" lon="6.31586">
        <ele>1006</ele>
      </trkpt>
      <trkpt lat="44.10269" lon="6.31579">
        <ele>1005</ele>
      </trkpt>
      <trkpt lat="44.10263" lon="6.31573">
        <ele>1005</ele>
      </trkpt>
      <trkpt lat="44.10254" lon="6.31569">
        <ele>1006</ele>
      </trkpt>
      <trkpt lat="44.10245" lon="6.31563">
        <ele>1005</ele>
      </trkpt>
      <trkpt lat="44.10237" lon="6.31555">
        <ele>1003</ele>
      </trkpt>
      <trkpt lat="44.10229" lon="6.31544">
        <ele>1002</ele>
      </trkpt>
      <trkpt lat="44.10224" lon="6.31533">
        <ele>1000</ele>
      </trkpt>
      <trkpt lat="44.10226" lon="6.31522">
        <ele>999</ele>
      </trkpt>
      <trkpt lat="44.10234" lon="6.31511">
        <ele>998</ele>
      </trkpt>
      <trkpt lat="44.10244" lon="6.31504">
        <ele>997</ele>
      </trkpt>
      <trkpt lat="44.10249" lon="6.31499">
        <ele>997</ele>
      </trkpt>
      <trkpt lat="44.1025" lon="6.31483">
        <ele>995</ele>
      </trkpt>
      <trkpt lat="44.10244" lon="6.31473">
        <ele>994</ele>
      </trkpt>
      <trkpt lat="44.10239" lon="6.31459">
        <ele>993</ele>
      </trkpt>
      <trkpt lat="44.10243" lon="6.31445">
        <ele>991</ele>
      </trkpt>
      <trkpt lat="44.10245" lon="6.31435">
        <ele>990</ele>
      </trkpt>
      <trkpt lat="44.10242" lon="6.31423">
        <ele>989</ele>
      </trkpt>
      <trkpt lat="44.10237" lon="6.31415">
        <ele>989</ele>
      </trkpt>
      <trkpt lat="44.10233" lon="6.31403">
        <ele>989</ele>
      </trkpt>
      <trkpt lat="44.10236" lon="6.31386">
        <ele>989</ele>
      </trkpt>
      <trkpt lat="44.10234" lon="6.31378">
        <ele>989</ele>
      </trkpt>
      <trkpt lat="44.1023" lon="6.31373">
        <ele>990</ele>
      </trkpt>
      <trkpt lat="44.10223" lon="6.31361">
        <ele>990</ele>
      </trkpt>
      <trkpt lat="44.10216" lon="6.31345">
        <ele>990</ele>
      </trkpt>
      <trkpt lat="44.10216" lon="6.31326">
        <ele>990</ele>
      </trkpt>
      <trkpt lat="44.10212" lon="6.31321">
        <ele>989</ele>
      </trkpt>
      <trkpt lat="44.10202" lon="6.31324">
        <ele>988</ele>
      </trkpt>
      <trkpt lat="44.10191" lon="6.31323">
        <ele>986</ele>
      </trkpt>
      <trkpt lat="44.10179" lon="6.31308">
        <ele>983</ele>
      </trkpt>
      <trkpt lat="44.10174" lon="6.31292">
        <ele>981</ele>
      </trkpt>
      <trkpt lat="44.10167" lon="6.31281">
        <ele>978</ele>
      </trkpt>
      <trkpt lat="44.10166" lon="6.31271">
        <ele>977</ele>
      </trkpt>
      <trkpt lat="44.10155" lon="6.31257">
        <ele>973</ele>
      </trkpt>
      <trkpt lat="44.10148" lon="6.31239">
        <ele>970</ele>
      </trkpt>
      <trkpt lat="44.10149" lon="6.31226">
        <ele>970</ele>
      </trkpt>
      <trkpt lat="44.10155" lon="6.31214">
        <ele>970</ele>
      </trkpt>
      <trkpt lat="44.10154" lon="6.31196">
        <ele>967</ele>
      </trkpt>
      <trkpt lat="44.1015" lon="6.31192">
        <ele>965</ele>
      </trkpt>
      <trkpt lat="44.10145" lon="6.3119">
        <ele>964</ele>
      </trkpt>
      <trkpt lat="44.10146" lon="6.31177">
        <ele>962</ele>
      </trkpt>
      <trkpt lat="44.10139" lon="6.31175">
        <ele>960</ele>
      </trkpt>
      <trkpt lat="44.10119" lon="6.31172">
        <ele>957</ele>
      </trkpt>
      <trkpt lat="44.10113" lon="6.31169">
        <ele>955</ele>
      </trkpt>
      <trkpt lat="44.10107" lon="6.31167">
        <ele>954</ele>
      </trkpt>
      <trkpt lat="44.10095" lon="6.31162">
        <ele>952</ele>
      </trkpt>
      <trkpt lat="44.10089" lon="6.31157">
        <ele>951</ele>
      </trkpt>
      <trkpt lat="44.10087" lon="6.31146">
        <ele>950</ele>
      </trkpt>
      <trkpt lat="44.10086" lon="6.31138">
        <ele>949</ele>
      </trkpt>
      <trkpt lat="44.10088" lon="6.3113">
        <ele>949</ele>
      </trkpt>
      <trkpt lat="44.1009" lon="6.31124">
        <ele>948</ele>
      </trkpt>
      <trkpt lat="44.10093" lon="6.3112">
        <ele>948</ele>
      </trkpt>
      <trkpt lat="44.10101" lon="6.31108">
        <ele>947</ele>
      </trkpt>
      <trkpt lat="44.10103" lon="6.31101">
        <ele>947</ele>
      </trkpt>
      <trkpt lat="44.10105" lon="6.31096">
        <ele>946</ele>
      </trkpt>
      <trkpt lat="44.10103" lon="6.31086">
        <ele>945</ele>
      </trkpt>
      <trkpt lat="44.10102" lon="6.31077">
        <ele>944</ele>
      </trkpt>
      <trkpt lat="44.10104" lon="6.31062">
        <ele>942</ele>
      </trkpt>
      <trkpt lat="44.10102" lon="6.31055">
        <ele>941</ele>
      </trkpt>
      <trkpt lat="44.10094" lon="6.31048">
        <ele>940</ele>
      </trkpt>
      <trkpt lat="44.10088" lon="6.31044">
        <ele>939</ele>
      </trkpt>
      <trkpt lat="44.10082" lon="6.31038">
        <ele>938</ele>
      </trkpt>
      <trkpt lat="44.10076" lon="6.31024">
        <ele>935</ele>
      </trkpt>
      <trkpt lat="44.10034" lon="6.30974">
        <ele>923</ele>
      </trkpt>
      <trkpt lat="44.10038" lon="6.30968">
        <ele>923</ele>
      </trkpt>
      <trkpt lat="44.10046" lon="6.30962">
        <ele>922</ele>
      </trkpt>
      <trkpt lat="44.10062" lon="6.30973">
        <ele>924</ele>
      </trkpt>
      <trkpt lat="44.10066" lon="6.30977">
        <ele>925</ele>
      </trkpt>
      <trkpt lat="44.10069" lon="6.30978">
        <ele>926</ele>
      </trkpt>
      <trkpt lat="44.10074" lon="6.30975">
        <ele>926</ele>
      </trkpt>
      <trkpt lat="44.10079" lon="6.30974">
        <ele>926</ele>
      </trkpt>
      <trkpt lat="44.10082" lon="6.30972">
        <ele>926</ele>
      </trkpt>
      <trkpt lat="44.10086" lon="6.30974">
        <ele>926</ele>
      </trkpt>
      <trkpt lat="44.10103" lon="6.30987">
        <ele>930</ele>
      </trkpt>
      <trkpt lat="44.10107" lon="6.30988">
        <ele>930</ele>
      </trkpt>
      <trkpt lat="44.10111" lon="6.30988">
        <ele>931</ele>
      </trkpt>
      <trkpt lat="44.10117" lon="6.30989">
        <ele>931</ele>
      </trkpt>
      <trkpt lat="44.10121" lon="6.30989">
        <ele>932</ele>
      </trkpt>
      <trkpt lat="44.10124" lon="6.30983">
        <ele>931</ele>
      </trkpt>
      <trkpt lat="44.10128" lon="6.30978">
        <ele>930</ele>
      </trkpt>
      <trkpt lat="44.10133" lon="6.30968">
        <ele>929</ele>
      </trkpt>
      <trkpt lat="44.10137" lon="6.3096">
        <ele>929</ele>
      </trkpt>
      <trkpt lat="44.10136" lon="6.30953">
        <ele>928</ele>
      </trkpt>
      <trkpt lat="44.10135" lon="6.30944">
        <ele>928</ele>
      </trkpt>
      <trkpt lat="44.10134" lon="6.3094">
        <ele>927</ele>
      </trkpt>
      <trkpt lat="44.1013" lon="6.30937">
        <ele>927</ele>
      </trkpt>
      <trkpt lat="44.10126" lon="6.30932">
        <ele>926</ele>
      </trkpt>
      <trkpt lat="44.10123" lon="6.30926">
        <ele>925</ele>
      </trkpt>
      <trkpt lat="44.10119" lon="6.3092">
        <ele>925</ele>
      </trkpt>
      <trkpt lat="44.10115" lon="6.30913">
        <ele>924</ele>
      </trkpt>
      <trkpt lat="44.10111" lon="6.30907">
        <ele>923</ele>
      </trkpt>
      <trkpt lat="44.10111" lon="6.30899">
        <ele>923</ele>
      </trkpt>
      <trkpt lat="44.10112" lon="6.30894">
        <ele>923</ele>
      </trkpt>
      <trkpt lat="44.10112" lon="6.30885">
        <ele>923</ele>
      </trkpt>
      <trkpt lat="44.10114" lon="6.30881">
        <ele>923</ele>
      </trkpt>
      <trkpt lat="44.10116" lon="6.30874">
        <ele>923</ele>
      </trkpt>
      <trkpt lat="44.10127" lon="6.30859">
        <ele>924</ele>
      </trkpt>
      <trkpt lat="44.10134" lon="6.30851">
        <ele>925</ele>
      </trkpt>
      <trkpt lat="44.10144" lon="6.30837">
        <ele>926</ele>
      </trkpt>
      <trkpt lat="44.10149" lon="6.30832">
        <ele>926</ele>
      </trkpt>
      <trkpt lat="44.10155" lon="6.30829">
        <ele>926</ele>
      </trkpt>
      <trkpt lat="44.10159" lon="6.3082">
        <ele>926</ele>
      </trkpt>
      <trkpt lat="44.10168" lon="6.30801">
        <ele>926</ele>
      </trkpt>
      <trkpt lat="44.1017" lon="6.30796">
        <ele>926</ele>
      </trkpt>
      <trkpt lat="44.10172" lon="6.30786">
        <ele>926</ele>
      </trkpt>
      <trkpt lat="44.10177" lon="6.30782">
        <ele>926</ele>
      </trkpt>
      <trkpt lat="44.10188" lon="6.30781">
        <ele>925</ele>
      </trkpt>
      <trkpt lat="44.10198" lon="6.30775">
        <ele>923</ele>
      </trkpt>
      <trkpt lat="44.10204" lon="6.30775">
        <ele>921</ele>
      </trkpt>
      <trkpt lat="44.10224" lon="6.30777">
        <ele>915</ele>
      </trkpt>
      <trkpt lat="44.10232" lon="6.30773">
        <ele>913</ele>
      </trkpt>
      <trkpt lat="44.10239" lon="6.30769">
        <ele>911</ele>
      </trkpt>
      <trkpt lat="44.10246" lon="6.30764">
        <ele>909</ele>
      </trkpt>
      <trkpt lat="44.10254" lon="6.30766">
        <ele>906</ele>
      </trkpt>
      <trkpt lat="44.1026" lon="6.30758">
        <ele>904</ele>
      </trkpt>
      <trkpt lat="44.10265" lon="6.30748">
        <ele>902</ele>
      </trkpt>
      <trkpt lat="44.103" lon="6.30734">
        <ele>891</ele>
      </trkpt>
      <trkpt lat="44.10317" lon="6.3073">
        <ele>886</ele>
      </trkpt>
      <trkpt lat="44.10324" lon="6.30718">
        <ele>884</ele>
      </trkpt>
      <trkpt lat="44.10331" lon="6.30719">
        <ele>882</ele>
      </trkpt>
      <trkpt lat="44.10336" lon="6.30724">
        <ele>882</ele>
      </trkpt>
      <trkpt lat="44.10339" lon="6.30716">
        <ele>882</ele>
      </trkpt>
      <trkpt lat="44.1034" lon="6.30709">
        <ele>881</ele>
      </trkpt>
      <trkpt lat="44.10336" lon="6.30702">
        <ele>882</ele>
      </trkpt>
      <trkpt lat="44.10334" lon="6.30691">
        <ele>882</ele>
      </trkpt>
      <trkpt lat="44.10328" lon="6.30686">
        <ele>882</ele>
      </trkpt>
      <trkpt lat="44.10322" lon="6.30678">
        <ele>883</ele>
      </trkpt>
      <trkpt lat="44.10317" lon="6.30665">
        <ele>884</ele>
      </trkpt>
      <trkpt lat="44.10316" lon="6.3066">
        <ele>883</ele>
      </trkpt>
      <trkpt lat="44.10312" lon="6.30658">
        <ele>884</ele>
      </trkpt>
      <trkpt lat="44.10308" lon="6.30657">
        <ele>884</ele>
      </trkpt>
      <trkpt lat="44.10304" lon="6.30655">
        <ele>885</ele>
      </trkpt>
      <trkpt lat="44.103" lon="6.30651">
        <ele>885</ele>
      </trkpt>
      <trkpt lat="44.10294" lon="6.30648">
        <ele>885</ele>
      </trkpt>
      <trkpt lat="44.10291" lon="6.30646">
        <ele>885</ele>
      </trkpt>
      <trkpt lat="44.10282" lon="6.30641">
        <ele>886</ele>
      </trkpt>
      <trkpt lat="44.10273" lon="6.30631">
        <ele>888</ele>
      </trkpt>
      <trkpt lat="44.10251" lon="6.30575">
        <ele>889</ele>
      </trkpt>
      <trkpt lat="44.10241" lon="6.30566">
        <ele>890</ele>
      </trkpt>
      <trkpt lat="44.10234" lon="6.30563">
        <ele>890</ele>
      </trkpt>
      <trkpt lat="44.10228" lon="6.30574">
        <ele>893</ele>
      </trkpt>
      <trkpt lat="44.1022" lon="6.30573">
        <ele>894</ele>
      </trkpt>
      <trkpt lat="44.10206" lon="6.3058">
        <ele>899</ele>
      </trkpt>
      <trkpt lat="44.10197" lon="6.30581">
        <ele>901</ele>
      </trkpt>
      <trkpt lat="44.10187" lon="6.30586">
        <ele>904</ele>
      </trkpt>
      <trkpt lat="44.10182" lon="6.30582">
        <ele>902</ele>
      </trkpt>
      <trkpt lat="44.10176" lon="6.30575">
        <ele>900</ele>
      </trkpt>
      <trkpt lat="44.10173" lon="6.30569">
        <ele>897</ele>
      </trkpt>
      <trkpt lat="44.10166" lon="6.30566">
        <ele>897</ele>
      </trkpt>
      <trkpt lat="44.1015" lon="6.3056">
        <ele>895</ele>
      </trkpt>
      <trkpt lat="44.10143" lon="6.30558">
        <ele>895</ele>
      </trkpt>
      <trkpt lat="44.10137" lon="6.30555">
        <ele>893</ele>
      </trkpt>
      <trkpt lat="44.10131" lon="6.30553">
        <ele>893</ele>
      </trkpt>
      <trkpt lat="44.10124" lon="6.3055">
        <ele>892</ele>
      </trkpt>
      <trkpt lat="44.10119" lon="6.30552">
        <ele>893</ele>
      </trkpt>
      <trkpt lat="44.10115" lon="6.30552">
        <ele>894</ele>
      </trkpt>
      <trkpt lat="44.10103" lon="6.30558">
        <ele>895</ele>
      </trkpt>
      <trkpt lat="44.10096" lon="6.30558">
        <ele>894</ele>
      </trkpt>
      <trkpt lat="44.10074" lon="6.3056">
        <ele>893</ele>
      </trkpt>
      <trkpt lat="44.1006" lon="6.3056">
        <ele>891</ele>
      </trkpt>
      <trkpt lat="44.10044" lon="6.30549">
        <ele>886</ele>
      </trkpt>
      <trkpt lat="44.10039" lon="6.30547">
        <ele>885</ele>
      </trkpt>
      <trkpt lat="44.10027" lon="6.30548">
        <ele>883</ele>
      </trkpt>
      <trkpt lat="44.10019" lon="6.30543">
        <ele>880</ele>
      </trkpt>
      <trkpt lat="44.10014" lon="6.30533">
        <ele>878</ele>
      </trkpt>
      <trkpt lat="44.10011" lon="6.30529">
        <ele>877</ele>
      </trkpt>
      <trkpt lat="44.10005" lon="6.30516">
        <ele>875</ele>
      </trkpt>
      <trkpt lat="44.09997" lon="6.30508">
        <ele>873</ele>
      </trkpt>
      <trkpt lat="44.09993" lon="6.30504">
        <ele>873</ele>
      </trkpt>
      <trkpt lat="44.09989" lon="6.30502">
        <ele>873</ele>
      </trkpt>
      <trkpt lat="44.09984" lon="6.30503">
        <ele>872</ele>
      </trkpt>
      <trkpt lat="44.09978" lon="6.30502">
        <ele>872</ele>
      </trkpt>
      <trkpt lat="44.09972" lon="6.305">
        <ele>872</ele>
      </trkpt>
      <trkpt lat="44.09968" lon="6.30502">
        <ele>872</ele>
      </trkpt>
      <trkpt lat="44.09961" lon="6.30502">
        <ele>873</ele>
      </trkpt>
      <trkpt lat="44.09959" lon="6.30508">
        <ele>873</ele>
      </trkpt>
      <trkpt lat="44.09956" lon="6.30513">
        <ele>873</ele>
      </trkpt>
      <trkpt lat="44.09953" lon="6.30517">
        <ele>873</ele>
      </trkpt>
      <trkpt lat="44.09948" lon="6.30515">
        <ele>873</ele>
      </trkpt>
      <trkpt lat="44.09945" lon="6.30511">
        <ele>873</ele>
      </trkpt>
      <trkpt lat="44.09941" lon="6.30509">
        <ele>874</ele>
      </trkpt>
      <trkpt lat="44.09938" lon="6.30505">
        <ele>874</ele>
      </trkpt>
      <trkpt lat="44.09935" lon="6.30499">
        <ele>875</ele>
      </trkpt>
      <trkpt lat="44.09934" lon="6.30493">
        <ele>875</ele>
      </trkpt>
      <trkpt lat="44.09934" lon="6.30482">
        <ele>876</ele>
      </trkpt>
      <trkpt lat="44.09932" lon="6.30477">
        <ele>876</ele>
      </trkpt>
      <trkpt lat="44.09927" lon="6.30472">
        <ele>877</ele>
      </trkpt>
      <trkpt lat="44.09923" lon="6.30462">
        <ele>878</ele>
      </trkpt>
      <trkpt lat="44.09923" lon="6.30456">
        <ele>878</ele>
      </trkpt>
      <trkpt lat="44.09921" lon="6.30449">
        <ele>879</ele>
      </trkpt>
      <trkpt lat="44.0992" lon="6.30434">
        <ele>880</ele>
      </trkpt>
      <trkpt lat="44.09916" lon="6.30421">
        <ele>881</ele>
      </trkpt>
      <trkpt lat="44.09912" lon="6.30407">
        <ele>882</ele>
      </trkpt>
      <trkpt lat="44.09913" lon="6.30403">
        <ele>882</ele>
      </trkpt>
      <trkpt lat="44.09913" lon="6.30387">
        <ele>882</ele>
      </trkpt>
      <trkpt lat="44.09911" lon="6.3038">
        <ele>882</ele>
      </trkpt>
      <trkpt lat="44.09907" lon="6.30377">
        <ele>882</ele>
      </trkpt>
      <trkpt lat="44.099" lon="6.30375">
        <ele>882</ele>
      </trkpt>
      <trkpt lat="44.0989" lon="6.30379">
        <ele>882</ele>
      </trkpt>
      <trkpt lat="44.09885" lon="6.3038">
        <ele>882</ele>
      </trkpt>
      <trkpt lat="44.09876" lon="6.30375">
        <ele>882</ele>
      </trkpt>
      <trkpt lat="44.0986" lon="6.30375">
        <ele>882</ele>
      </trkpt>
      <trkpt lat="44.09854" lon="6.30373">
        <ele>881</ele>
      </trkpt>
      <trkpt lat="44.09843" lon="6.30369">
        <ele>881</ele>
      </trkpt>
      <trkpt lat="44.09819" lon="6.30356">
        <ele>880</ele>
      </trkpt>
      <trkpt lat="44.09814" lon="6.30353">
        <ele>880</ele>
      </trkpt>
      <trkpt lat="44.09805" lon="6.30354">
        <ele>880</ele>
      </trkpt>
      <trkpt lat="44.0981" lon="6.30345">
        <ele>880</ele>
      </trkpt>
      <trkpt lat="44.09808" lon="6.30333">
        <ele>879</ele>
      </trkpt>
      <trkpt lat="44.09807" lon="6.30325">
        <ele>879</ele>
      </trkpt>
      <trkpt lat="44.09808" lon="6.30312">
        <ele>877</ele>
      </trkpt>
      <trkpt lat="44.09796" lon="6.303">
        <ele>873</ele>
      </trkpt>
      <trkpt lat="44.09788" lon="6.30291">
        <ele>870</ele>
      </trkpt>
      <trkpt lat="44.09783" lon="6.30289">
        <ele>869</ele>
      </trkpt>
      <trkpt lat="44.09778" lon="6.30282">
        <ele>867</ele>
      </trkpt>
      <trkpt lat="44.09777" lon="6.30262">
        <ele>863</ele>
      </trkpt>
      <trkpt lat="44.09758" lon="6.30213">
        <ele>854</ele>
      </trkpt>
      <trkpt lat="44.09754" lon="6.30209">
        <ele>854</ele>
      </trkpt>
      <trkpt lat="44.09745" lon="6.30213">
        <ele>854</ele>
      </trkpt>
      <trkpt lat="44.09723" lon="6.30219">
        <ele>854</ele>
      </trkpt>
      <trkpt lat="44.09716" lon="6.30219">
        <ele>854</ele>
      </trkpt>
      <trkpt lat="44.09711" lon="6.30217">
        <ele>853</ele>
      </trkpt>
      <trkpt lat="44.09668" lon="6.30177">
        <ele>850</ele>
      </trkpt>
      <trkpt lat="44.0966" lon="6.30178">
        <ele>849</ele>
      </trkpt>
      <trkpt lat="44.09652" lon="6.30177">
        <ele>848</ele>
      </trkpt>
      <trkpt lat="44.09645" lon="6.30169">
        <ele>847</ele>
      </trkpt>
      <trkpt lat="44.09637" lon="6.30165">
        <ele>846</ele>
      </trkpt>
      <trkpt lat="44.09629" lon="6.3016">
        <ele>845</ele>
      </trkpt>
      <trkpt lat="44.09597" lon="6.30153">
        <ele>839</ele>
      </trkpt>
      <trkpt lat="44.09584" lon="6.30152">
        <ele>837</ele>
      </trkpt>
      <trkpt lat="44.09572" lon="6.30147">
        <ele>833</ele>
      </trkpt>
      <trkpt lat="44.09566" lon="6.30146">
        <ele>830</ele>
      </trkpt>
      <trkpt lat="44.09556" lon="6.30144">
        <ele>827</ele>
      </trkpt>
      <trkpt lat="44.09547" lon="6.30148">
        <ele>824</ele>
      </trkpt>
      <trkpt lat="44.09533" lon="6.30146">
        <ele>820</ele>
      </trkpt>
      <trkpt lat="44.09529" lon="6.30144">
        <ele>818</ele>
      </trkpt>
      <trkpt lat="44.09519" lon="6.30144">
        <ele>816</ele>
      </trkpt>
      <trkpt lat="44.09513" lon="6.30143">
        <ele>814</ele>
      </trkpt>
      <trkpt lat="44.09506" lon="6.3014">
        <ele>811</ele>
      </trkpt>
      <trkpt lat="44.09503" lon="6.3013">
        <ele>810</ele>
      </trkpt>
      <trkpt lat="44.0951" lon="6.30126">
        <ele>812</ele>
      </trkpt>
      <trkpt lat="44.09523" lon="6.30117">
        <ele>813</ele>
      </trkpt>
      <trkpt lat="44.09518" lon="6.3011">
        <ele>811</ele>
      </trkpt>
      <trkpt lat="44.09508" lon="6.30101">
        <ele>807</ele>
      </trkpt>
      <trkpt lat="44.09502" lon="6.3009">
        <ele>803</ele>
      </trkpt>
      <trkpt lat="44.09492" lon="6.30085">
        <ele>800</ele>
      </trkpt>
      <trkpt lat="44.09501" lon="6.30079">
        <ele>800</ele>
      </trkpt>
      <trkpt lat="44.09508" lon="6.30068">
        <ele>798</ele>
      </trkpt>
      <trkpt lat="44.09496" lon="6.3006">
        <ele>794</ele>
      </trkpt>
      <trkpt lat="44.09489" lon="6.30059">
        <ele>794</ele>
      </trkpt>
      <trkpt lat="44.09416" lon="6.30078">
        <ele>779</ele>
      </trkpt>
      <trkpt lat="44.0941" lon="6.30077">
        <ele>776</ele>
      </trkpt>
      <trkpt lat="44.094" lon="6.30073">
        <ele>774</ele>
      </trkpt>
      <trkpt lat="44.09386" lon="6.3006">
        <ele>770</ele>
      </trkpt>
      <trkpt lat="44.09379" lon="6.30058">
        <ele>769</ele>
      </trkpt>
      <trkpt lat="44.0937" lon="6.30051">
        <ele>766</ele>
      </trkpt>
      <trkpt lat="44.09368" lon="6.30045">
        <ele>765</ele>
      </trkpt>
      <trkpt lat="44.09362" lon="6.30046">
        <ele>764</ele>
      </trkpt>
      <trkpt lat="44.0934" lon="6.30018">
        <ele>765</ele>
      </trkpt>
      <trkpt lat="44.09348" lon="6.30011">
        <ele>764</ele>
      </trkpt>
      <trkpt lat="44.09344" lon="6.3">
        <ele>764</ele>
      </trkpt>
      <trkpt lat="44.09342" lon="6.29987">
        <ele>764</ele>
      </trkpt>
      <trkpt lat="44.09349" lon="6.29987">
        <ele>763</ele>
      </trkpt>
      <trkpt lat="44.09353" lon="6.29984">
        <ele>763</ele>
      </trkpt>
      <trkpt lat="44.09354" lon="6.29974">
        <ele>763</ele>
      </trkpt>
      <trkpt lat="44.0934" lon="6.29962">
        <ele>764</ele>
      </trkpt>
      <trkpt lat="44.09337" lon="6.2995">
        <ele>764</ele>
      </trkpt>
      <trkpt lat="44.09338" lon="6.29938">
        <ele>765</ele>
      </trkpt>
      <trkpt lat="44.09336" lon="6.29922">
        <ele>765</ele>
      </trkpt>
      <trkpt lat="44.09338" lon="6.29908">
        <ele>767</ele>
      </trkpt>
      <trkpt lat="44.09338" lon="6.29901">
        <ele>767</ele>
      </trkpt>
      <trkpt lat="44.09336" lon="6.2989">
        <ele>768</ele>
      </trkpt>
      <trkpt lat="44.09329" lon="6.29883">
        <ele>766</ele>
      </trkpt>
      <trkpt lat="44.09321" lon="6.29868">
        <ele>765</ele>
      </trkpt>
      <trkpt lat="44.09314" lon="6.29862">
        <ele>765</ele>
      </trkpt>
      <trkpt lat="44.09309" lon="6.2985">
        <ele>764</ele>
      </trkpt>
      <trkpt lat="44.09302" lon="6.29838">
        <ele>765</ele>
      </trkpt>
    </trkseg>
  </trk>
  <trk>
    <name><![CDATA[J3 - RUN 5 - Benoît]]></name>
    <desc><![CDATA[Géologie - Étude stratigraphique (http://www.geol-alp.com/gap_digne/_lieux/_ss_digne_lieux/dourbes.html)]]></desc>
    <extensions>
      <line xmlns="http://www.topografix.com/GPX/gpx_style/0/2">
        <color>ffff00</color>
        <width>4</width>
        <dasharray>4</dasharray>
          <extensions>
            <sens>1</sens>
          </extensions>
      </line>
    </extensions>
    <trkseg>
      <trkpt lat="44.09302" lon="6.29838">
        <ele>765</ele>
      </trkpt>
      <trkpt lat="44.09304" lon="6.29827">
        <ele>767</ele>
      </trkpt>
      <trkpt lat="44.09299" lon="6.29822">
        <ele>766</ele>
      </trkpt>
      <trkpt lat="44.09299" lon="6.2982">
        <ele>767</ele>
      </trkpt>
      <trkpt lat="44.09307" lon="6.29815">
        <ele>770</ele>
      </trkpt>
      <trkpt lat="44.09309" lon="6.29824">
        <ele>769</ele>
      </trkpt>
      <trkpt lat="44.09312" lon="6.29831">
        <ele>769</ele>
      </trkpt>
      <trkpt lat="44.09316" lon="6.29837">
        <ele>769</ele>
      </trkpt>
      <trkpt lat="44.09326" lon="6.29848">
        <ele>769</ele>
      </trkpt>
      <trkpt lat="44.09333" lon="6.29856">
        <ele>771</ele>
      </trkpt>
      <trkpt lat="44.09336" lon="6.29864">
        <ele>772</ele>
      </trkpt>
      <trkpt lat="44.09344" lon="6.29877">
        <ele>773</ele>
      </trkpt>
      <trkpt lat="44.09345" lon="6.29885">
        <ele>773</ele>
      </trkpt>
      <trkpt lat="44.09348" lon="6.29894">
        <ele>772</ele>
      </trkpt>
      <trkpt lat="44.09353" lon="6.29899">
        <ele>774</ele>
      </trkpt>
      <trkpt lat="44.09367" lon="6.29907">
        <ele>778</ele>
      </trkpt>
      <trkpt lat="44.09371" lon="6.29918">
        <ele>777</ele>
      </trkpt>
      <trkpt lat="44.09373" lon="6.29925">
        <ele>776</ele>
      </trkpt>
      <trkpt lat="44.09374" lon="6.29924">
        <ele>776</ele>
      </trkpt>
      <trkpt lat="44.09375" lon="6.29917">
        <ele>778</ele>
      </trkpt>
      <trkpt lat="44.09378" lon="6.29913">
        <ele>779</ele>
      </trkpt>
      <trkpt lat="44.09383" lon="6.2992">
        <ele>779</ele>
      </trkpt>
      <trkpt lat="44.09389" lon="6.29919">
        <ele>781</ele>
      </trkpt>
      <trkpt lat="44.09399" lon="6.29915">
        <ele>785</ele>
      </trkpt>
      <trkpt lat="44.09405" lon="6.29916">
        <ele>787</ele>
      </trkpt>
      <trkpt lat="44.09409" lon="6.29912">
        <ele>789</ele>
      </trkpt>
      <trkpt lat="44.0942" lon="6.29899">
        <ele>792</ele>
      </trkpt>
      <trkpt lat="44.09423" lon="6.29894">
        <ele>793</ele>
      </trkpt>
      <trkpt lat="44.09427" lon="6.29889">
        <ele>795</ele>
      </trkpt>
      <trkpt lat="44.09432" lon="6.29884">
        <ele>796</ele>
      </trkpt>
      <trkpt lat="44.09436" lon="6.29877">
        <ele>797</ele>
      </trkpt>
      <trkpt lat="44.09444" lon="6.29844">
        <ele>805</ele>
      </trkpt>
      <trkpt lat="44.09447" lon="6.29837">
        <ele>806</ele>
      </trkpt>
      <trkpt lat="44.09448" lon="6.29829">
        <ele>807</ele>
      </trkpt>
      <trkpt lat="44.09457" lon="6.29818">
        <ele>810</ele>
      </trkpt>
      <trkpt lat="44.09458" lon="6.29813">
        <ele>811</ele>
      </trkpt>
      <trkpt lat="44.09458" lon="6.298">
        <ele>813</ele>
      </trkpt>
      <trkpt lat="44.09456" lon="6.29793">
        <ele>814</ele>
      </trkpt>
      <trkpt lat="44.09456" lon="6.29783">
        <ele>816</ele>
      </trkpt>
      <trkpt lat="44.09457" lon="6.29778">
        <ele>817</ele>
      </trkpt>
      <trkpt lat="44.09462" lon="6.29763">
        <ele>819</ele>
      </trkpt>
      <trkpt lat="44.09467" lon="6.29757">
        <ele>820</ele>
      </trkpt>
      <trkpt lat="44.09478" lon="6.29734">
        <ele>824</ele>
      </trkpt>
      <trkpt lat="44.09484" lon="6.29719">
        <ele>828</ele>
      </trkpt>
      <trkpt lat="44.09485" lon="6.29704">
        <ele>831</ele>
      </trkpt>
      <trkpt lat="44.09491" lon="6.29693">
        <ele>834</ele>
      </trkpt>
      <trkpt lat="44.09496" lon="6.29678">
        <ele>838</ele>
      </trkpt>
      <trkpt lat="44.09499" lon="6.29668">
        <ele>840</ele>
      </trkpt>
      <trkpt lat="44.09501" lon="6.2966">
        <ele>841</ele>
      </trkpt>
      <trkpt lat="44.095" lon="6.29653">
        <ele>842</ele>
      </trkpt>
      <trkpt lat="44.09499" lon="6.29635">
        <ele>845</ele>
      </trkpt>
      <trkpt lat="44.095" lon="6.29628">
        <ele>846</ele>
      </trkpt>
      <trkpt lat="44.09501" lon="6.29619">
        <ele>847</ele>
      </trkpt>
      <trkpt lat="44.09496" lon="6.29616">
        <ele>847</ele>
      </trkpt>
      <trkpt lat="44.09497" lon="6.29597">
        <ele>851</ele>
      </trkpt>
      <trkpt lat="44.09506" lon="6.29584">
        <ele>854</ele>
      </trkpt>
      <trkpt lat="44.09523" lon="6.29586">
        <ele>854</ele>
      </trkpt>
      <trkpt lat="44.09528" lon="6.2958">
        <ele>854</ele>
      </trkpt>
      <trkpt lat="44.09529" lon="6.29589">
        <ele>853</ele>
      </trkpt>
      <trkpt lat="44.09535" lon="6.2958">
        <ele>854</ele>
      </trkpt>
      <trkpt lat="44.09546" lon="6.29557">
        <ele>859</ele>
      </trkpt>
      <trkpt lat="44.09554" lon="6.29545">
        <ele>861</ele>
      </trkpt>
      <trkpt lat="44.09562" lon="6.29533">
        <ele>864</ele>
      </trkpt>
      <trkpt lat="44.09567" lon="6.29527">
        <ele>865</ele>
      </trkpt>
      <trkpt lat="44.0957" lon="6.29521">
        <ele>867</ele>
      </trkpt>
      <trkpt lat="44.09572" lon="6.29513">
        <ele>868</ele>
      </trkpt>
      <trkpt lat="44.09576" lon="6.29507">
        <ele>870</ele>
      </trkpt>
      <trkpt lat="44.09586" lon="6.29497">
        <ele>872</ele>
      </trkpt>
      <trkpt lat="44.09592" lon="6.29494">
        <ele>872</ele>
      </trkpt>
      <trkpt lat="44.09598" lon="6.29489">
        <ele>873</ele>
      </trkpt>
      <trkpt lat="44.09604" lon="6.29489">
        <ele>872</ele>
      </trkpt>
      <trkpt lat="44.0961" lon="6.29485">
        <ele>873</ele>
      </trkpt>
      <trkpt lat="44.09615" lon="6.29486">
        <ele>873</ele>
      </trkpt>
      <trkpt lat="44.0963" lon="6.29481">
        <ele>875</ele>
      </trkpt>
      <trkpt lat="44.09641" lon="6.29475">
        <ele>877</ele>
      </trkpt>
      <trkpt lat="44.09646" lon="6.29474">
        <ele>877</ele>
      </trkpt>
      <trkpt lat="44.09681" lon="6.29443">
        <ele>885</ele>
      </trkpt>
      <trkpt lat="44.09686" lon="6.29439">
        <ele>886</ele>
      </trkpt>
      <trkpt lat="44.09699" lon="6.29435">
        <ele>888</ele>
      </trkpt>
      <trkpt lat="44.09704" lon="6.29436">
        <ele>888</ele>
      </trkpt>
      <trkpt lat="44.09741" lon="6.29468">
        <ele>889</ele>
      </trkpt>
      <trkpt lat="44.09746" lon="6.29468">
        <ele>889</ele>
      </trkpt>
      <trkpt lat="44.09753" lon="6.29469">
        <ele>888</ele>
      </trkpt>
      <trkpt lat="44.09759" lon="6.29466">
        <ele>888</ele>
      </trkpt>
      <trkpt lat="44.09766" lon="6.29464">
        <ele>888</ele>
      </trkpt>
      <trkpt lat="44.09772" lon="6.29458">
        <ele>889</ele>
      </trkpt>
      <trkpt lat="44.09777" lon="6.29453">
        <ele>890</ele>
      </trkpt>
      <trkpt lat="44.09784" lon="6.29446">
        <ele>892</ele>
      </trkpt>
      <trkpt lat="44.09791" lon="6.29443">
        <ele>893</ele>
      </trkpt>
      <trkpt lat="44.09796" lon="6.29439">
        <ele>893</ele>
      </trkpt>
      <trkpt lat="44.09802" lon="6.29436">
        <ele>894</ele>
      </trkpt>
      <trkpt lat="44.09829" lon="6.29435">
        <ele>892</ele>
      </trkpt>
      <trkpt lat="44.09842" lon="6.29431">
        <ele>893</ele>
      </trkpt>
      <trkpt lat="44.09847" lon="6.29428">
        <ele>894</ele>
      </trkpt>
      <trkpt lat="44.09854" lon="6.29428">
        <ele>894</ele>
      </trkpt>
      <trkpt lat="44.0986" lon="6.29424">
        <ele>895</ele>
      </trkpt>
      <trkpt lat="44.09879" lon="6.29421">
        <ele>897</ele>
      </trkpt>
      <trkpt lat="44.09895" lon="6.29421">
        <ele>900</ele>
      </trkpt>
      <trkpt lat="44.09896" lon="6.2943">
        <ele>899</ele>
      </trkpt>
      <trkpt lat="44.09894" lon="6.2945">
        <ele>894</ele>
      </trkpt>
      <trkpt lat="44.09895" lon="6.29472">
        <ele>895</ele>
      </trkpt>
      <trkpt lat="44.09893" lon="6.29487">
        <ele>895</ele>
      </trkpt>
      <trkpt lat="44.0989" lon="6.29495">
        <ele>894</ele>
      </trkpt>
      <trkpt lat="44.09883" lon="6.29509">
        <ele>893</ele>
      </trkpt>
      <trkpt lat="44.09881" lon="6.29517">
        <ele>892</ele>
      </trkpt>
      <trkpt lat="44.09883" lon="6.29547">
        <ele>892</ele>
      </trkpt>
      <trkpt lat="44.09882" lon="6.29557">
        <ele>892</ele>
      </trkpt>
      <trkpt lat="44.0988" lon="6.29565">
        <ele>891</ele>
      </trkpt>
      <trkpt lat="44.09881" lon="6.29574">
        <ele>891</ele>
      </trkpt>
      <trkpt lat="44.09886" lon="6.29583">
        <ele>893</ele>
      </trkpt>
      <trkpt lat="44.09888" lon="6.29591">
        <ele>893</ele>
      </trkpt>
      <trkpt lat="44.09892" lon="6.29599">
        <ele>894</ele>
      </trkpt>
      <trkpt lat="44.09894" lon="6.29606">
        <ele>895</ele>
      </trkpt>
      <trkpt lat="44.09898" lon="6.29615">
        <ele>895</ele>
      </trkpt>
      <trkpt lat="44.09906" lon="6.29626">
        <ele>897</ele>
      </trkpt>
      <trkpt lat="44.09919" lon="6.29632">
        <ele>900</ele>
      </trkpt>
      <trkpt lat="44.09932" lon="6.29646">
        <ele>900</ele>
      </trkpt>
      <trkpt lat="44.0994" lon="6.2966">
        <ele>899</ele>
      </trkpt>
      <trkpt lat="44.09943" lon="6.29668">
        <ele>899</ele>
      </trkpt>
      <trkpt lat="44.09952" lon="6.29679">
        <ele>898</ele>
      </trkpt>
      <trkpt lat="44.09957" lon="6.29683">
        <ele>898</ele>
      </trkpt>
      <trkpt lat="44.09969" lon="6.2968">
        <ele>899</ele>
      </trkpt>
      <trkpt lat="44.09998" lon="6.29678">
        <ele>900</ele>
      </trkpt>
      <trkpt lat="44.10004" lon="6.29683">
        <ele>900</ele>
      </trkpt>
      <trkpt lat="44.10011" lon="6.29679">
        <ele>900</ele>
      </trkpt>
      <trkpt lat="44.10017" lon="6.29679">
        <ele>900</ele>
      </trkpt>
      <trkpt lat="44.10025" lon="6.29676">
        <ele>901</ele>
      </trkpt>
      <trkpt lat="44.10037" lon="6.29675">
        <ele>901</ele>
      </trkpt>
      <trkpt lat="44.10045" lon="6.29669">
        <ele>903</ele>
      </trkpt>
      <trkpt lat="44.10057" lon="6.2967">
        <ele>903</ele>
      </trkpt>
      <trkpt lat="44.10065" lon="6.29688">
        <ele>899</ele>
      </trkpt>
      <trkpt lat="44.10074" lon="6.29712">
        <ele>894</ele>
      </trkpt>
      <trkpt lat="44.10093" lon="6.29734">
        <ele>894</ele>
      </trkpt>
      <trkpt lat="44.10103" lon="6.29753">
        <ele>897</ele>
      </trkpt>
      <trkpt lat="44.10137" lon="6.29787">
        <ele>907</ele>
      </trkpt>
      <trkpt lat="44.10143" lon="6.29788">
        <ele>908</ele>
      </trkpt>
      <trkpt lat="44.10154" lon="6.29794">
        <ele>910</ele>
      </trkpt>
      <trkpt lat="44.10162" lon="6.29795">
        <ele>913</ele>
      </trkpt>
      <trkpt lat="44.10171" lon="6.29795">
        <ele>915</ele>
      </trkpt>
      <trkpt lat="44.10179" lon="6.29798">
        <ele>917</ele>
      </trkpt>
      <trkpt lat="44.10186" lon="6.29806">
        <ele>917</ele>
      </trkpt>
      <trkpt lat="44.1019" lon="6.29814">
        <ele>916</ele>
      </trkpt>
      <trkpt lat="44.10197" lon="6.29823">
        <ele>916</ele>
      </trkpt>
      <trkpt lat="44.10206" lon="6.29836">
        <ele>916</ele>
      </trkpt>
      <trkpt lat="44.10208" lon="6.29844">
        <ele>915</ele>
      </trkpt>
      <trkpt lat="44.10229" lon="6.29878">
        <ele>915</ele>
      </trkpt>
      <trkpt lat="44.1024" lon="6.29886">
        <ele>917</ele>
      </trkpt>
      <trkpt lat="44.10256" lon="6.29906">
        <ele>918</ele>
      </trkpt>
      <trkpt lat="44.10262" lon="6.29909">
        <ele>919</ele>
      </trkpt>
      <trkpt lat="44.10266" lon="6.29915">
        <ele>919</ele>
      </trkpt>
      <trkpt lat="44.10273" lon="6.2992">
        <ele>919</ele>
      </trkpt>
      <trkpt lat="44.10278" lon="6.29926">
        <ele>918</ele>
      </trkpt>
      <trkpt lat="44.10291" lon="6.29936">
        <ele>918</ele>
      </trkpt>
      <trkpt lat="44.10297" lon="6.2994">
        <ele>918</ele>
      </trkpt>
      <trkpt lat="44.10301" lon="6.29945">
        <ele>918</ele>
      </trkpt>
      <trkpt lat="44.10312" lon="6.2997">
        <ele>913</ele>
      </trkpt>
      <trkpt lat="44.10314" lon="6.29977">
        <ele>911</ele>
      </trkpt>
      <trkpt lat="44.10316" lon="6.29987">
        <ele>910</ele>
      </trkpt>
      <trkpt lat="44.10325" lon="6.3">
        <ele>912</ele>
      </trkpt>
      <trkpt lat="44.10336" lon="6.30013">
        <ele>915</ele>
      </trkpt>
      <trkpt lat="44.10368" lon="6.30035">
        <ele>925</ele>
      </trkpt>
      <trkpt lat="44.10379" lon="6.30053">
        <ele>926</ele>
      </trkpt>
      <trkpt lat="44.10383" lon="6.30065">
        <ele>925</ele>
      </trkpt>
      <trkpt lat="44.10388" lon="6.30077">
        <ele>924</ele>
      </trkpt>
      <trkpt lat="44.10399" lon="6.30086">
        <ele>925</ele>
      </trkpt>
      <trkpt lat="44.10412" lon="6.30093">
        <ele>925</ele>
      </trkpt>
      <trkpt lat="44.10417" lon="6.30091">
        <ele>927</ele>
      </trkpt>
      <trkpt lat="44.10423" lon="6.30101">
        <ele>925</ele>
      </trkpt>
      <trkpt lat="44.10428" lon="6.30104">
        <ele>925</ele>
      </trkpt>
      <trkpt lat="44.10435" lon="6.30099">
        <ele>927</ele>
      </trkpt>
      <trkpt lat="44.10441" lon="6.30098">
        <ele>928</ele>
      </trkpt>
      <trkpt lat="44.10449" lon="6.30105">
        <ele>928</ele>
      </trkpt>
      <trkpt lat="44.10481" lon="6.30108">
        <ele>931</ele>
      </trkpt>
      <trkpt lat="44.10486" lon="6.30106">
        <ele>932</ele>
      </trkpt>
      <trkpt lat="44.10501" lon="6.30107">
        <ele>934</ele>
      </trkpt>
      <trkpt lat="44.10515" lon="6.30112">
        <ele>934</ele>
      </trkpt>
      <trkpt lat="44.10523" lon="6.30118">
        <ele>934</ele>
      </trkpt>
      <trkpt lat="44.10543" lon="6.30115">
        <ele>938</ele>
      </trkpt>
      <trkpt lat="44.10549" lon="6.30117">
        <ele>938</ele>
      </trkpt>
      <trkpt lat="44.10557" lon="6.30117">
        <ele>940</ele>
      </trkpt>
      <trkpt lat="44.10563" lon="6.30125">
        <ele>939</ele>
      </trkpt>
      <trkpt lat="44.10568" lon="6.30129">
        <ele>940</ele>
      </trkpt>
      <trkpt lat="44.10573" lon="6.30136">
        <ele>940</ele>
      </trkpt>
      <trkpt lat="44.10589" lon="6.30165">
        <ele>940</ele>
      </trkpt>
      <trkpt lat="44.10593" lon="6.30168">
        <ele>940</ele>
      </trkpt>
      <trkpt lat="44.10597" lon="6.30172">
        <ele>941</ele>
      </trkpt>
      <trkpt lat="44.10603" lon="6.30177">
        <ele>941</ele>
      </trkpt>
      <trkpt lat="44.10615" lon="6.3017">
        <ele>943</ele>
      </trkpt>
      <trkpt lat="44.10618" lon="6.30168">
        <ele>944</ele>
      </trkpt>
      <trkpt lat="44.10625" lon="6.30166">
        <ele>944</ele>
      </trkpt>
      <trkpt lat="44.10629" lon="6.30162">
        <ele>944</ele>
      </trkpt>
      <trkpt lat="44.10637" lon="6.30159">
        <ele>944</ele>
      </trkpt>
      <trkpt lat="44.10641" lon="6.3016">
        <ele>944</ele>
      </trkpt>
      <trkpt lat="44.10645" lon="6.30162">
        <ele>944</ele>
      </trkpt>
      <trkpt lat="44.10646" lon="6.30168">
        <ele>944</ele>
      </trkpt>
      <trkpt lat="44.10654" lon="6.30177">
        <ele>944</ele>
      </trkpt>
      <trkpt lat="44.1066" lon="6.30181">
        <ele>944</ele>
      </trkpt>
      <trkpt lat="44.10663" lon="6.30187">
        <ele>944</ele>
      </trkpt>
      <trkpt lat="44.10666" lon="6.30198">
        <ele>944</ele>
      </trkpt>
      <trkpt lat="44.10674" lon="6.30206">
        <ele>943</ele>
      </trkpt>
      <trkpt lat="44.10694" lon="6.30244">
        <ele>941</ele>
      </trkpt>
      <trkpt lat="44.10711" lon="6.30269">
        <ele>938</ele>
      </trkpt>
      <trkpt lat="44.10733" lon="6.30339">
        <ele>929</ele>
      </trkpt>
      <trkpt lat="44.10734" lon="6.30358">
        <ele>928</ele>
      </trkpt>
      <trkpt lat="44.1074" lon="6.30386">
        <ele>927</ele>
      </trkpt>
      <trkpt lat="44.1074" lon="6.3039">
        <ele>927</ele>
      </trkpt>
      <trkpt lat="44.10745" lon="6.30397">
        <ele>927</ele>
      </trkpt>
      <trkpt lat="44.10746" lon="6.30405">
        <ele>926</ele>
      </trkpt>
      <trkpt lat="44.10747" lon="6.30416">
        <ele>926</ele>
      </trkpt>
      <trkpt lat="44.10746" lon="6.3043">
        <ele>926</ele>
      </trkpt>
      <trkpt lat="44.10747" lon="6.3044">
        <ele>926</ele>
      </trkpt>
      <trkpt lat="44.10749" lon="6.30449">
        <ele>926</ele>
      </trkpt>
      <trkpt lat="44.10752" lon="6.30457">
        <ele>925</ele>
      </trkpt>
      <trkpt lat="44.10754" lon="6.30464">
        <ele>925</ele>
      </trkpt>
      <trkpt lat="44.10756" lon="6.30477">
        <ele>924</ele>
      </trkpt>
      <trkpt lat="44.10757" lon="6.30486">
        <ele>924</ele>
      </trkpt>
      <trkpt lat="44.10762" lon="6.30506">
        <ele>924</ele>
      </trkpt>
      <trkpt lat="44.10763" lon="6.30513">
        <ele>924</ele>
      </trkpt>
      <trkpt lat="44.10765" lon="6.30518">
        <ele>924</ele>
      </trkpt>
      <trkpt lat="44.10767" lon="6.30524">
        <ele>925</ele>
      </trkpt>
      <trkpt lat="44.10765" lon="6.30542">
        <ele>926</ele>
      </trkpt>
      <trkpt lat="44.10762" lon="6.30551">
        <ele>927</ele>
      </trkpt>
      <trkpt lat="44.1076" lon="6.3057">
        <ele>929</ele>
      </trkpt>
      <trkpt lat="44.10757" lon="6.3058">
        <ele>929</ele>
      </trkpt>
      <trkpt lat="44.1076" lon="6.30586">
        <ele>930</ele>
      </trkpt>
      <trkpt lat="44.10758" lon="6.30596">
        <ele>931</ele>
      </trkpt>
      <trkpt lat="44.10762" lon="6.30608">
        <ele>933</ele>
      </trkpt>
      <trkpt lat="44.1076" lon="6.30617">
        <ele>934</ele>
      </trkpt>
      <trkpt lat="44.10761" lon="6.30626">
        <ele>935</ele>
      </trkpt>
      <trkpt lat="44.10761" lon="6.3062">
        <ele>934</ele>
      </trkpt>
      <trkpt lat="44.10766" lon="6.30629">
        <ele>936</ele>
      </trkpt>
      <trkpt lat="44.10761" lon="6.30636">
        <ele>936</ele>
      </trkpt>
      <trkpt lat="44.10759" lon="6.30644">
        <ele>936</ele>
      </trkpt>
      <trkpt lat="44.10766" lon="6.30644">
        <ele>937</ele>
      </trkpt>
      <trkpt lat="44.10763" lon="6.30655">
        <ele>937</ele>
      </trkpt>
      <trkpt lat="44.10759" lon="6.3066">
        <ele>936</ele>
      </trkpt>
      <trkpt lat="44.10766" lon="6.30662">
        <ele>938</ele>
      </trkpt>
      <trkpt lat="44.10772" lon="6.30665">
        <ele>939</ele>
      </trkpt>
      <trkpt lat="44.10772" lon="6.30671">
        <ele>940</ele>
      </trkpt>
      <trkpt lat="44.1077" lon="6.30671">
        <ele>939</ele>
      </trkpt>
      <trkpt lat="44.10769" lon="6.30665">
        <ele>939</ele>
      </trkpt>
      <trkpt lat="44.10766" lon="6.30659">
        <ele>938</ele>
      </trkpt>
      <trkpt lat="44.1076" lon="6.30659">
        <ele>936</ele>
      </trkpt>
      <trkpt lat="44.10761" lon="6.30653">
        <ele>937</ele>
      </trkpt>
      <trkpt lat="44.10764" lon="6.30649">
        <ele>937</ele>
      </trkpt>
      <trkpt lat="44.10765" lon="6.30644">
        <ele>937</ele>
      </trkpt>
      <trkpt lat="44.10769" lon="6.30645">
        <ele>938</ele>
      </trkpt>
      <trkpt lat="44.10775" lon="6.30654">
        <ele>939</ele>
      </trkpt>
      <trkpt lat="44.10774" lon="6.30662">
        <ele>939</ele>
      </trkpt>
      <trkpt lat="44.10769" lon="6.30665">
        <ele>939</ele>
      </trkpt>
      <trkpt lat="44.10769" lon="6.30659">
        <ele>938</ele>
      </trkpt>
      <trkpt lat="44.10773" lon="6.30647">
        <ele>938</ele>
      </trkpt>
      <trkpt lat="44.10767" lon="6.30651">
        <ele>938</ele>
      </trkpt>
      <trkpt lat="44.10769" lon="6.30658">
        <ele>938</ele>
      </trkpt>
      <trkpt lat="44.10769" lon="6.30667">
        <ele>939</ele>
      </trkpt>
      <trkpt lat="44.10772" lon="6.3067">
        <ele>940</ele>
      </trkpt>
      <trkpt lat="44.10767" lon="6.3068">
        <ele>939</ele>
      </trkpt>
      <trkpt lat="44.10775" lon="6.30685">
        <ele>942</ele>
      </trkpt>
      <trkpt lat="44.10779" lon="6.30688">
        <ele>943</ele>
      </trkpt>
      <trkpt lat="44.10784" lon="6.30693">
        <ele>943</ele>
      </trkpt>
      <trkpt lat="44.10788" lon="6.30702">
        <ele>943</ele>
      </trkpt>
      <trkpt lat="44.10792" lon="6.3071">
        <ele>946</ele>
      </trkpt>
      <trkpt lat="44.10799" lon="6.30721">
        <ele>950</ele>
      </trkpt>
      <trkpt lat="44.10803" lon="6.30724">
        <ele>951</ele>
      </trkpt>
      <trkpt lat="44.10807" lon="6.30724">
        <ele>950</ele>
      </trkpt>
      <trkpt lat="44.1083" lon="6.30736">
        <ele>951</ele>
      </trkpt>
      <trkpt lat="44.10844" lon="6.3074">
        <ele>949</ele>
      </trkpt>
      <trkpt lat="44.10857" lon="6.30749">
        <ele>949</ele>
      </trkpt>
      <trkpt lat="44.1087" lon="6.30758">
        <ele>948</ele>
      </trkpt>
      <trkpt lat="44.10875" lon="6.30763">
        <ele>948</ele>
      </trkpt>
      <trkpt lat="44.10879" lon="6.30769">
        <ele>948</ele>
      </trkpt>
      <trkpt lat="44.10886" lon="6.30775">
        <ele>948</ele>
      </trkpt>
      <trkpt lat="44.10899" lon="6.30796">
        <ele>949</ele>
      </trkpt>
      <trkpt lat="44.10904" lon="6.30802">
        <ele>949</ele>
      </trkpt>
      <trkpt lat="44.10909" lon="6.30806">
        <ele>948</ele>
      </trkpt>
      <trkpt lat="44.1092" lon="6.30815">
        <ele>947</ele>
      </trkpt>
      <trkpt lat="44.10925" lon="6.30819">
        <ele>947</ele>
      </trkpt>
      <trkpt lat="44.1093" lon="6.30822">
        <ele>947</ele>
      </trkpt>
      <trkpt lat="44.10949" lon="6.30851">
        <ele>949</ele>
      </trkpt>
      <trkpt lat="44.10955" lon="6.30854">
        <ele>948</ele>
      </trkpt>
      <trkpt lat="44.10961" lon="6.30858">
        <ele>948</ele>
      </trkpt>
      <trkpt lat="44.10967" lon="6.30863">
        <ele>947</ele>
      </trkpt>
      <trkpt lat="44.10973" lon="6.30877">
        <ele>948</ele>
      </trkpt>
      <trkpt lat="44.10981" lon="6.30895">
        <ele>949</ele>
      </trkpt>
      <trkpt lat="44.11" lon="6.30908">
        <ele>945</ele>
      </trkpt>
      <trkpt lat="44.11012" lon="6.30914">
        <ele>942</ele>
      </trkpt>
      <trkpt lat="44.11015" lon="6.30922">
        <ele>943</ele>
      </trkpt>
      <trkpt lat="44.1102" lon="6.30928">
        <ele>942</ele>
      </trkpt>
      <trkpt lat="44.1103" lon="6.30932">
        <ele>940</ele>
      </trkpt>
      <trkpt lat="44.11052" lon="6.3094">
        <ele>937</ele>
      </trkpt>
      <trkpt lat="44.11059" lon="6.30948">
        <ele>939</ele>
      </trkpt>
      <trkpt lat="44.11067" lon="6.30951">
        <ele>940</ele>
      </trkpt>
      <trkpt lat="44.11071" lon="6.30955">
        <ele>941</ele>
      </trkpt>
      <trkpt lat="44.11094" lon="6.30963">
        <ele>943</ele>
      </trkpt>
      <trkpt lat="44.1112" lon="6.30967">
        <ele>945</ele>
      </trkpt>
      <trkpt lat="44.11139" lon="6.30976">
        <ele>946</ele>
      </trkpt>
      <trkpt lat="44.11144" lon="6.30972">
        <ele>944</ele>
      </trkpt>
      <trkpt lat="44.1115" lon="6.30977">
        <ele>944</ele>
      </trkpt>
      <trkpt lat="44.11155" lon="6.30982">
        <ele>944</ele>
      </trkpt>
      <trkpt lat="44.11164" lon="6.30989">
        <ele>944</ele>
      </trkpt>
      <trkpt lat="44.11171" lon="6.31">
        <ele>945</ele>
      </trkpt>
      <trkpt lat="44.11177" lon="6.31005">
        <ele>943</ele>
      </trkpt>
      <trkpt lat="44.11185" lon="6.31019">
        <ele>941</ele>
      </trkpt>
      <trkpt lat="44.11194" lon="6.3103">
        <ele>939</ele>
      </trkpt>
      <trkpt lat="44.11215" lon="6.31079">
        <ele>935</ele>
      </trkpt>
      <trkpt lat="44.11217" lon="6.31089">
        <ele>936</ele>
      </trkpt>
      <trkpt lat="44.11223" lon="6.31093">
        <ele>937</ele>
      </trkpt>
      <trkpt lat="44.11228" lon="6.31094">
        <ele>937</ele>
      </trkpt>
      <trkpt lat="44.11235" lon="6.31095">
        <ele>937</ele>
      </trkpt>
      <trkpt lat="44.11243" lon="6.31103">
        <ele>938</ele>
      </trkpt>
      <trkpt lat="44.11248" lon="6.31114">
        <ele>941</ele>
      </trkpt>
      <trkpt lat="44.11256" lon="6.31128">
        <ele>943</ele>
      </trkpt>
      <trkpt lat="44.1126" lon="6.31131">
        <ele>943</ele>
      </trkpt>
      <trkpt lat="44.11268" lon="6.31143">
        <ele>944</ele>
      </trkpt>
      <trkpt lat="44.11274" lon="6.31147">
        <ele>944</ele>
      </trkpt>
      <trkpt lat="44.11281" lon="6.31154">
        <ele>945</ele>
      </trkpt>
      <trkpt lat="44.11285" lon="6.31167">
        <ele>946</ele>
      </trkpt>
      <trkpt lat="44.1129" lon="6.31184">
        <ele>947</ele>
      </trkpt>
      <trkpt lat="44.1129" lon="6.31191">
        <ele>948</ele>
      </trkpt>
      <trkpt lat="44.11291" lon="6.31201">
        <ele>948</ele>
      </trkpt>
      <trkpt lat="44.11302" lon="6.3123">
        <ele>949</ele>
      </trkpt>
      <trkpt lat="44.11308" lon="6.31256">
        <ele>948</ele>
      </trkpt>
      <trkpt lat="44.11307" lon="6.31265">
        <ele>948</ele>
      </trkpt>
      <trkpt lat="44.11302" lon="6.31274">
        <ele>950</ele>
      </trkpt>
      <trkpt lat="44.11298" lon="6.3129">
        <ele>951</ele>
      </trkpt>
      <trkpt lat="44.11289" lon="6.31302">
        <ele>954</ele>
      </trkpt>
      <trkpt lat="44.11288" lon="6.3131">
        <ele>954</ele>
      </trkpt>
      <trkpt lat="44.11284" lon="6.31318">
        <ele>955</ele>
      </trkpt>
      <trkpt lat="44.11271" lon="6.31343">
        <ele>958</ele>
      </trkpt>
      <trkpt lat="44.11267" lon="6.3135">
        <ele>959</ele>
      </trkpt>
      <trkpt lat="44.11264" lon="6.31359">
        <ele>959</ele>
      </trkpt>
      <trkpt lat="44.11263" lon="6.31367">
        <ele>959</ele>
      </trkpt>
      <trkpt lat="44.11265" lon="6.31381">
        <ele>958</ele>
      </trkpt>
      <trkpt lat="44.11265" lon="6.31396">
        <ele>958</ele>
      </trkpt>
      <trkpt lat="44.1126" lon="6.31407">
        <ele>958</ele>
      </trkpt>
      <trkpt lat="44.11242" lon="6.31447">
        <ele>961</ele>
      </trkpt>
      <trkpt lat="44.11236" lon="6.31447">
        <ele>962</ele>
      </trkpt>
      <trkpt lat="44.112" lon="6.31409">
        <ele>971</ele>
      </trkpt>
      <trkpt lat="44.11196" lon="6.31402">
        <ele>972</ele>
      </trkpt>
      <trkpt lat="44.11192" lon="6.31397">
        <ele>973</ele>
      </trkpt>
      <trkpt lat="44.11175" lon="6.31362">
        <ele>976</ele>
      </trkpt>
      <trkpt lat="44.1117" lon="6.31356">
        <ele>977</ele>
      </trkpt>
      <trkpt lat="44.11165" lon="6.31353">
        <ele>977</ele>
      </trkpt>
      <trkpt lat="44.11158" lon="6.31352">
        <ele>979</ele>
      </trkpt>
      <trkpt lat="44.11145" lon="6.31346">
        <ele>981</ele>
      </trkpt>
      <trkpt lat="44.11139" lon="6.31345">
        <ele>983</ele>
      </trkpt>
      <trkpt lat="44.11134" lon="6.31341">
        <ele>984</ele>
      </trkpt>
      <trkpt lat="44.11121" lon="6.31324">
        <ele>985</ele>
      </trkpt>
      <trkpt lat="44.11119" lon="6.31317">
        <ele>985</ele>
      </trkpt>
      <trkpt lat="44.11109" lon="6.31287">
        <ele>984</ele>
      </trkpt>
      <trkpt lat="44.11108" lon="6.31271">
        <ele>984</ele>
      </trkpt>
      <trkpt lat="44.11109" lon="6.31264">
        <ele>983</ele>
      </trkpt>
      <trkpt lat="44.11104" lon="6.31229">
        <ele>983</ele>
      </trkpt>
      <trkpt lat="44.111" lon="6.3121">
        <ele>983</ele>
      </trkpt>
      <trkpt lat="44.11092" lon="6.31199">
        <ele>984</ele>
      </trkpt>
      <trkpt lat="44.11087" lon="6.31196">
        <ele>984</ele>
      </trkpt>
      <trkpt lat="44.11081" lon="6.31198">
        <ele>985</ele>
      </trkpt>
      <trkpt lat="44.11066" lon="6.31218">
        <ele>988</ele>
      </trkpt>
      <trkpt lat="44.11063" lon="6.31224">
        <ele>988</ele>
      </trkpt>
      <trkpt lat="44.11057" lon="6.3123">
        <ele>990</ele>
      </trkpt>
      <trkpt lat="44.11039" lon="6.31244">
        <ele>994</ele>
      </trkpt>
      <trkpt lat="44.11035" lon="6.31249">
        <ele>995</ele>
      </trkpt>
      <trkpt lat="44.11029" lon="6.31246">
        <ele>995</ele>
      </trkpt>
      <trkpt lat="44.11023" lon="6.31246">
        <ele>996</ele>
      </trkpt>
      <trkpt lat="44.11017" lon="6.31253">
        <ele>999</ele>
      </trkpt>
      <trkpt lat="44.11011" lon="6.31255">
        <ele>1000</ele>
      </trkpt>
      <trkpt lat="44.11" lon="6.31257">
        <ele>1002</ele>
      </trkpt>
      <trkpt lat="44.10988" lon="6.31255">
        <ele>1004</ele>
      </trkpt>
      <trkpt lat="44.10972" lon="6.31241">
        <ele>1006</ele>
      </trkpt>
      <trkpt lat="44.1096" lon="6.31224">
        <ele>1007</ele>
      </trkpt>
      <trkpt lat="44.10952" lon="6.31209">
        <ele>1008</ele>
      </trkpt>
      <trkpt lat="44.10944" lon="6.31197">
        <ele>1009</ele>
      </trkpt>
      <trkpt lat="44.10941" lon="6.3119">
        <ele>1009</ele>
      </trkpt>
      <trkpt lat="44.10937" lon="6.31185">
        <ele>1010</ele>
      </trkpt>
      <trkpt lat="44.10917" lon="6.31143">
        <ele>1010</ele>
      </trkpt>
      <trkpt lat="44.1091" lon="6.31121">
        <ele>1010</ele>
      </trkpt>
      <trkpt lat="44.10888" lon="6.31087">
        <ele>1010</ele>
      </trkpt>
      <trkpt lat="44.10874" lon="6.31045">
        <ele>1008</ele>
      </trkpt>
      <trkpt lat="44.10868" lon="6.3104">
        <ele>1009</ele>
      </trkpt>
    </trkseg>
  </trk>
  <trk>
    <name><![CDATA[J3 - RUN 6 - Nicolas]]></name>
    <desc><![CDATA[Faune : La faune locale et ses adaptations]]></desc>
    <extensions>
      <line xmlns="http://www.topografix.com/GPX/gpx_style/0/2">
        <color>ff00ff</color>
        <width>4</width>
        <dasharray>4</dasharray>
          <extensions>
            <sens>1</sens>
          </extensions>
      </line>
    </extensions>
    <trkseg>
      <trkpt lat="44.10868" lon="6.3104">
        <ele>1009</ele>
      </trkpt>
      <trkpt lat="44.10861" lon="6.31037">
        <ele>1009</ele>
      </trkpt>
      <trkpt lat="44.10856" lon="6.3104">
        <ele>1010</ele>
      </trkpt>
      <trkpt lat="44.10857" lon="6.31051">
        <ele>1010</ele>
      </trkpt>
      <trkpt lat="44.10859" lon="6.31058">
        <ele>1011</ele>
      </trkpt>
      <trkpt lat="44.10867" lon="6.31101">
        <ele>1014</ele>
      </trkpt>
      <trkpt lat="44.10864" lon="6.31162">
        <ele>1020</ele>
      </trkpt>
      <trkpt lat="44.10867" lon="6.31177">
        <ele>1021</ele>
      </trkpt>
      <trkpt lat="44.1087" lon="6.31185">
        <ele>1022</ele>
      </trkpt>
      <trkpt lat="44.10879" lon="6.31207">
        <ele>1024</ele>
      </trkpt>
      <trkpt lat="44.10883" lon="6.31277">
        <ele>1031</ele>
      </trkpt>
      <trkpt lat="44.10879" lon="6.31358">
        <ele>1039</ele>
      </trkpt>
      <trkpt lat="44.10875" lon="6.3141">
        <ele>1043</ele>
      </trkpt>
      <trkpt lat="44.10875" lon="6.31452">
        <ele>1047</ele>
      </trkpt>
      <trkpt lat="44.10871" lon="6.31485">
        <ele>1051</ele>
      </trkpt>
      <trkpt lat="44.10865" lon="6.315">
        <ele>1053</ele>
      </trkpt>
      <trkpt lat="44.1086" lon="6.31495">
        <ele>1053</ele>
      </trkpt>
      <trkpt lat="44.10852" lon="6.31496">
        <ele>1053</ele>
      </trkpt>
      <trkpt lat="44.10847" lon="6.3149">
        <ele>1053</ele>
      </trkpt>
      <trkpt lat="44.10843" lon="6.31482">
        <ele>1052</ele>
      </trkpt>
      <trkpt lat="44.10839" lon="6.31478">
        <ele>1052</ele>
      </trkpt>
      <trkpt lat="44.10832" lon="6.31478">
        <ele>1051</ele>
      </trkpt>
      <trkpt lat="44.10826" lon="6.3148">
        <ele>1051</ele>
      </trkpt>
      <trkpt lat="44.10816" lon="6.31489">
        <ele>1051</ele>
      </trkpt>
      <trkpt lat="44.10805" lon="6.3151">
        <ele>1052</ele>
      </trkpt>
      <trkpt lat="44.10801" lon="6.31519">
        <ele>1053</ele>
      </trkpt>
      <trkpt lat="44.10799" lon="6.31526">
        <ele>1053</ele>
      </trkpt>
      <trkpt lat="44.10789" lon="6.31548">
        <ele>1054</ele>
      </trkpt>
      <trkpt lat="44.10787" lon="6.31556">
        <ele>1054</ele>
      </trkpt>
      <trkpt lat="44.10773" lon="6.31598">
        <ele>1059</ele>
      </trkpt>
      <trkpt lat="44.10764" lon="6.31612">
        <ele>1060</ele>
      </trkpt>
      <trkpt lat="44.10758" lon="6.31619">
        <ele>1061</ele>
      </trkpt>
      <trkpt lat="44.10723" lon="6.31683">
        <ele>1068</ele>
      </trkpt>
      <trkpt lat="44.10719" lon="6.31689">
        <ele>1068</ele>
      </trkpt>
      <trkpt lat="44.10716" lon="6.31695">
        <ele>1068</ele>
      </trkpt>
      <trkpt lat="44.10712" lon="6.31704">
        <ele>1069</ele>
      </trkpt>
      <trkpt lat="44.10649" lon="6.31783">
        <ele>1069</ele>
      </trkpt>
      <trkpt lat="44.10645" lon="6.31788">
        <ele>1069</ele>
      </trkpt>
      <trkpt lat="44.1064" lon="6.31798">
        <ele>1071</ele>
      </trkpt>
      <trkpt lat="44.10629" lon="6.31814">
        <ele>1071</ele>
      </trkpt>
      <trkpt lat="44.10621" lon="6.31818">
        <ele>1071</ele>
      </trkpt>
      <trkpt lat="44.10611" lon="6.3183">
        <ele>1071</ele>
      </trkpt>
      <trkpt lat="44.10586" lon="6.31843">
        <ele>1070</ele>
      </trkpt>
      <trkpt lat="44.10578" lon="6.31848">
        <ele>1070</ele>
      </trkpt>
      <trkpt lat="44.10536" lon="6.31838">
        <ele>1063</ele>
      </trkpt>
      <trkpt lat="44.10516" lon="6.31831">
        <ele>1061</ele>
      </trkpt>
      <trkpt lat="44.10518" lon="6.31827">
        <ele>1060</ele>
      </trkpt>
      <trkpt lat="44.10535" lon="6.31836">
        <ele>1063</ele>
      </trkpt>
      <trkpt lat="44.1054" lon="6.31841">
        <ele>1064</ele>
      </trkpt>
      <trkpt lat="44.10549" lon="6.3184">
        <ele>1064</ele>
      </trkpt>
      <trkpt lat="44.10553" lon="6.31838">
        <ele>1064</ele>
      </trkpt>
      <trkpt lat="44.10557" lon="6.3184">
        <ele>1065</ele>
      </trkpt>
      <trkpt lat="44.10562" lon="6.31839">
        <ele>1065</ele>
      </trkpt>
      <trkpt lat="44.10569" lon="6.31844">
        <ele>1067</ele>
      </trkpt>
      <trkpt lat="44.10573" lon="6.31842">
        <ele>1068</ele>
      </trkpt>
      <trkpt lat="44.10583" lon="6.31843">
        <ele>1069</ele>
      </trkpt>
      <trkpt lat="44.10595" lon="6.31835">
        <ele>1069</ele>
      </trkpt>
      <trkpt lat="44.106" lon="6.31837">
        <ele>1071</ele>
      </trkpt>
      <trkpt lat="44.10604" lon="6.31837">
        <ele>1071</ele>
      </trkpt>
      <trkpt lat="44.10608" lon="6.31836">
        <ele>1072</ele>
      </trkpt>
      <trkpt lat="44.10615" lon="6.31835">
        <ele>1073</ele>
      </trkpt>
      <trkpt lat="44.10618" lon="6.31836">
        <ele>1074</ele>
      </trkpt>
      <trkpt lat="44.10626" lon="6.31834">
        <ele>1076</ele>
      </trkpt>
      <trkpt lat="44.1063" lon="6.31831">
        <ele>1076</ele>
      </trkpt>
      <trkpt lat="44.10637" lon="6.31832">
        <ele>1078</ele>
      </trkpt>
      <trkpt lat="44.10641" lon="6.3183">
        <ele>1078</ele>
      </trkpt>
      <trkpt lat="44.10644" lon="6.31827">
        <ele>1079</ele>
      </trkpt>
      <trkpt lat="44.10648" lon="6.31828">
        <ele>1080</ele>
      </trkpt>
      <trkpt lat="44.10658" lon="6.31823">
        <ele>1081</ele>
      </trkpt>
      <trkpt lat="44.10664" lon="6.31814">
        <ele>1080</ele>
      </trkpt>
      <trkpt lat="44.10667" lon="6.3181">
        <ele>1080</ele>
      </trkpt>
      <trkpt lat="44.10671" lon="6.3181">
        <ele>1081</ele>
      </trkpt>
      <trkpt lat="44.10678" lon="6.31807">
        <ele>1082</ele>
      </trkpt>
      <trkpt lat="44.10692" lon="6.31797">
        <ele>1083</ele>
      </trkpt>
      <trkpt lat="44.10696" lon="6.318">
        <ele>1084</ele>
      </trkpt>
      <trkpt lat="44.10702" lon="6.31799">
        <ele>1085</ele>
      </trkpt>
      <trkpt lat="44.10708" lon="6.31801">
        <ele>1086</ele>
      </trkpt>
      <trkpt lat="44.10711" lon="6.31803">
        <ele>1087</ele>
      </trkpt>
      <trkpt lat="44.10715" lon="6.31796">
        <ele>1086</ele>
      </trkpt>
      <trkpt lat="44.10739" lon="6.31785">
        <ele>1088</ele>
      </trkpt>
      <trkpt lat="44.10746" lon="6.3178">
        <ele>1088</ele>
      </trkpt>
      <trkpt lat="44.10755" lon="6.31779">
        <ele>1089</ele>
      </trkpt>
      <trkpt lat="44.10761" lon="6.31782">
        <ele>1090</ele>
      </trkpt>
      <trkpt lat="44.10787" lon="6.31806">
        <ele>1094</ele>
      </trkpt>
      <trkpt lat="44.10794" lon="6.31815">
        <ele>1094</ele>
      </trkpt>
      <trkpt lat="44.10802" lon="6.31842">
        <ele>1096</ele>
      </trkpt>
      <trkpt lat="44.10804" lon="6.31859">
        <ele>1097</ele>
      </trkpt>
      <trkpt lat="44.10806" lon="6.31868">
        <ele>1097</ele>
      </trkpt>
      <trkpt lat="44.10808" lon="6.31875">
        <ele>1097</ele>
      </trkpt>
      <trkpt lat="44.10812" lon="6.31883">
        <ele>1097</ele>
      </trkpt>
      <trkpt lat="44.10818" lon="6.31908">
        <ele>1098</ele>
      </trkpt>
      <trkpt lat="44.1082" lon="6.31918">
        <ele>1098</ele>
      </trkpt>
      <trkpt lat="44.1082" lon="6.31928">
        <ele>1099</ele>
      </trkpt>
      <trkpt lat="44.10824" lon="6.31945">
        <ele>1099</ele>
      </trkpt>
      <trkpt lat="44.10828" lon="6.3197">
        <ele>1101</ele>
      </trkpt>
      <trkpt lat="44.10829" lon="6.3198">
        <ele>1101</ele>
      </trkpt>
      <trkpt lat="44.10826" lon="6.31997">
        <ele>1103</ele>
      </trkpt>
      <trkpt lat="44.10834" lon="6.32042">
        <ele>1106</ele>
      </trkpt>
      <trkpt lat="44.10836" lon="6.32051">
        <ele>1107</ele>
      </trkpt>
      <trkpt lat="44.10836" lon="6.32059">
        <ele>1108</ele>
      </trkpt>
      <trkpt lat="44.10835" lon="6.32067">
        <ele>1109</ele>
      </trkpt>
      <trkpt lat="44.10836" lon="6.32074">
        <ele>1109</ele>
      </trkpt>
      <trkpt lat="44.10839" lon="6.32081">
        <ele>1110</ele>
      </trkpt>
      <trkpt lat="44.10846" lon="6.32089">
        <ele>1110</ele>
      </trkpt>
      <trkpt lat="44.10851" lon="6.32094">
        <ele>1110</ele>
      </trkpt>
      <trkpt lat="44.10855" lon="6.32094">
        <ele>1110</ele>
      </trkpt>
      <trkpt lat="44.10859" lon="6.32096">
        <ele>1110</ele>
      </trkpt>
      <trkpt lat="44.10862" lon="6.32097">
        <ele>1109</ele>
      </trkpt>
      <trkpt lat="44.10866" lon="6.32106">
        <ele>1110</ele>
      </trkpt>
      <trkpt lat="44.10866" lon="6.32115">
        <ele>1111</ele>
      </trkpt>
      <trkpt lat="44.10862" lon="6.32122">
        <ele>1112</ele>
      </trkpt>
      <trkpt lat="44.10831" lon="6.32133">
        <ele>1115</ele>
      </trkpt>
      <trkpt lat="44.10812" lon="6.32123">
        <ele>1116</ele>
      </trkpt>
      <trkpt lat="44.108" lon="6.32114">
        <ele>1117</ele>
      </trkpt>
      <trkpt lat="44.10769" lon="6.3207">
        <ele>1116</ele>
      </trkpt>
      <trkpt lat="44.10764" lon="6.32066">
        <ele>1117</ele>
      </trkpt>
      <trkpt lat="44.1076" lon="6.32059">
        <ele>1117</ele>
      </trkpt>
      <trkpt lat="44.10756" lon="6.32054">
        <ele>1117</ele>
      </trkpt>
      <trkpt lat="44.10751" lon="6.3205">
        <ele>1117</ele>
      </trkpt>
      <trkpt lat="44.10745" lon="6.3205">
        <ele>1118</ele>
      </trkpt>
      <trkpt lat="44.10739" lon="6.32053">
        <ele>1119</ele>
      </trkpt>
      <trkpt lat="44.10716" lon="6.32067">
        <ele>1124</ele>
      </trkpt>
      <trkpt lat="44.10711" lon="6.32067">
        <ele>1125</ele>
      </trkpt>
      <trkpt lat="44.10706" lon="6.32066">
        <ele>1125</ele>
      </trkpt>
      <trkpt lat="44.10694" lon="6.32069">
        <ele>1127</ele>
      </trkpt>
      <trkpt lat="44.10665" lon="6.32085">
        <ele>1129</ele>
      </trkpt>
      <trkpt lat="44.1066" lon="6.32091">
        <ele>1129</ele>
      </trkpt>
      <trkpt lat="44.10653" lon="6.32105">
        <ele>1130</ele>
      </trkpt>
      <trkpt lat="44.10648" lon="6.32108">
        <ele>1130</ele>
      </trkpt>
      <trkpt lat="44.10644" lon="6.32115">
        <ele>1130</ele>
      </trkpt>
      <trkpt lat="44.10634" lon="6.32121">
        <ele>1130</ele>
      </trkpt>
      <trkpt lat="44.10632" lon="6.32126">
        <ele>1130</ele>
      </trkpt>
      <trkpt lat="44.10635" lon="6.32133">
        <ele>1131</ele>
      </trkpt>
      <trkpt lat="44.10638" lon="6.32136">
        <ele>1131</ele>
      </trkpt>
      <trkpt lat="44.10641" lon="6.3214">
        <ele>1132</ele>
      </trkpt>
      <trkpt lat="44.10645" lon="6.32143">
        <ele>1132</ele>
      </trkpt>
      <trkpt lat="44.10647" lon="6.32148">
        <ele>1133</ele>
      </trkpt>
      <trkpt lat="44.10661" lon="6.32205">
        <ele>1138</ele>
      </trkpt>
      <trkpt lat="44.10664" lon="6.32209">
        <ele>1138</ele>
      </trkpt>
      <trkpt lat="44.1067" lon="6.32228">
        <ele>1140</ele>
      </trkpt>
      <trkpt lat="44.10673" lon="6.32234">
        <ele>1141</ele>
      </trkpt>
      <trkpt lat="44.10678" lon="6.32242">
        <ele>1142</ele>
      </trkpt>
      <trkpt lat="44.10687" lon="6.3225">
        <ele>1142</ele>
      </trkpt>
      <trkpt lat="44.10693" lon="6.32259">
        <ele>1143</ele>
      </trkpt>
      <trkpt lat="44.10712" lon="6.32273">
        <ele>1144</ele>
      </trkpt>
      <trkpt lat="44.10717" lon="6.3228">
        <ele>1145</ele>
      </trkpt>
      <trkpt lat="44.10727" lon="6.32299">
        <ele>1147</ele>
      </trkpt>
      <trkpt lat="44.10731" lon="6.32312">
        <ele>1148</ele>
      </trkpt>
      <trkpt lat="44.10735" lon="6.32319">
        <ele>1148</ele>
      </trkpt>
      <trkpt lat="44.10742" lon="6.3235">
        <ele>1152</ele>
      </trkpt>
      <trkpt lat="44.10743" lon="6.32369">
        <ele>1154</ele>
      </trkpt>
      <trkpt lat="44.10745" lon="6.32398">
        <ele>1157</ele>
      </trkpt>
      <trkpt lat="44.10745" lon="6.32404">
        <ele>1158</ele>
      </trkpt>
      <trkpt lat="44.10751" lon="6.3246">
        <ele>1163</ele>
      </trkpt>
      <trkpt lat="44.10755" lon="6.32467">
        <ele>1163</ele>
      </trkpt>
      <trkpt lat="44.10758" lon="6.32488">
        <ele>1166</ele>
      </trkpt>
      <trkpt lat="44.10763" lon="6.32506">
        <ele>1168</ele>
      </trkpt>
      <trkpt lat="44.10769" lon="6.32517">
        <ele>1168</ele>
      </trkpt>
      <trkpt lat="44.10774" lon="6.3252">
        <ele>1168</ele>
      </trkpt>
      <trkpt lat="44.10779" lon="6.32521">
        <ele>1167</ele>
      </trkpt>
      <trkpt lat="44.10793" lon="6.32518">
        <ele>1164</ele>
      </trkpt>
      <trkpt lat="44.1079" lon="6.32518">
        <ele>1164</ele>
      </trkpt>
      <trkpt lat="44.10799" lon="6.32507">
        <ele>1162</ele>
      </trkpt>
      <trkpt lat="44.10824" lon="6.32469">
        <ele>1153</ele>
      </trkpt>
      <trkpt lat="44.10828" lon="6.32463">
        <ele>1152</ele>
      </trkpt>
      <trkpt lat="44.10837" lon="6.32459">
        <ele>1150</ele>
      </trkpt>
      <trkpt lat="44.10843" lon="6.32453">
        <ele>1149</ele>
      </trkpt>
      <trkpt lat="44.10847" lon="6.32445">
        <ele>1148</ele>
      </trkpt>
      <trkpt lat="44.10851" lon="6.32435">
        <ele>1147</ele>
      </trkpt>
      <trkpt lat="44.1086" lon="6.32436">
        <ele>1144</ele>
      </trkpt>
      <trkpt lat="44.10862" lon="6.32427">
        <ele>1143</ele>
      </trkpt>
      <trkpt lat="44.10866" lon="6.32415">
        <ele>1142</ele>
      </trkpt>
      <trkpt lat="44.10884" lon="6.32416">
        <ele>1138</ele>
      </trkpt>
      <trkpt lat="44.10892" lon="6.32411">
        <ele>1136</ele>
      </trkpt>
      <trkpt lat="44.10899" lon="6.32401">
        <ele>1135</ele>
      </trkpt>
      <trkpt lat="44.10906" lon="6.32395">
        <ele>1133</ele>
      </trkpt>
      <trkpt lat="44.10914" lon="6.32396">
        <ele>1132</ele>
      </trkpt>
      <trkpt lat="44.10919" lon="6.32393">
        <ele>1131</ele>
      </trkpt>
      <trkpt lat="44.10928" lon="6.32389">
        <ele>1129</ele>
      </trkpt>
      <trkpt lat="44.10947" lon="6.32393">
        <ele>1126</ele>
      </trkpt>
      <trkpt lat="44.1096" lon="6.3239">
        <ele>1123</ele>
      </trkpt>
      <trkpt lat="44.10966" lon="6.32388">
        <ele>1121</ele>
      </trkpt>
      <trkpt lat="44.10975" lon="6.32394">
        <ele>1120</ele>
      </trkpt>
      <trkpt lat="44.10982" lon="6.32393">
        <ele>1119</ele>
      </trkpt>
      <trkpt lat="44.10987" lon="6.32391">
        <ele>1118</ele>
      </trkpt>
      <trkpt lat="44.10992" lon="6.32381">
        <ele>1115</ele>
      </trkpt>
      <trkpt lat="44.10992" lon="6.32361">
        <ele>1115</ele>
      </trkpt>
      <trkpt lat="44.10998" lon="6.32343">
        <ele>1114</ele>
      </trkpt>
      <trkpt lat="44.11006" lon="6.32331">
        <ele>1110</ele>
      </trkpt>
      <trkpt lat="44.11009" lon="6.32327">
        <ele>1109</ele>
      </trkpt>
      <trkpt lat="44.11016" lon="6.32326">
        <ele>1107</ele>
      </trkpt>
      <trkpt lat="44.11031" lon="6.32327">
        <ele>1103</ele>
      </trkpt>
      <trkpt lat="44.11042" lon="6.32322">
        <ele>1099</ele>
      </trkpt>
      <trkpt lat="44.11048" lon="6.3232">
        <ele>1097</ele>
      </trkpt>
      <trkpt lat="44.11054" lon="6.32319">
        <ele>1095</ele>
      </trkpt>
      <trkpt lat="44.11061" lon="6.32313">
        <ele>1093</ele>
      </trkpt>
      <trkpt lat="44.11075" lon="6.32311">
        <ele>1088</ele>
      </trkpt>
      <trkpt lat="44.11084" lon="6.32315">
        <ele>1086</ele>
      </trkpt>
      <trkpt lat="44.11093" lon="6.32316">
        <ele>1085</ele>
      </trkpt>
      <trkpt lat="44.111" lon="6.32318">
        <ele>1084</ele>
      </trkpt>
      <trkpt lat="44.11106" lon="6.32314">
        <ele>1083</ele>
      </trkpt>
      <trkpt lat="44.11111" lon="6.3231">
        <ele>1082</ele>
      </trkpt>
      <trkpt lat="44.11116" lon="6.32304">
        <ele>1081</ele>
      </trkpt>
      <trkpt lat="44.11124" lon="6.32303">
        <ele>1080</ele>
      </trkpt>
      <trkpt lat="44.11134" lon="6.32306">
        <ele>1077</ele>
      </trkpt>
      <trkpt lat="44.1114" lon="6.3231">
        <ele>1076</ele>
      </trkpt>
      <trkpt lat="44.11146" lon="6.32316">
        <ele>1074</ele>
      </trkpt>
      <trkpt lat="44.11153" lon="6.32332">
        <ele>1071</ele>
      </trkpt>
      <trkpt lat="44.11155" lon="6.32336">
        <ele>1071</ele>
      </trkpt>
      <trkpt lat="44.11159" lon="6.32346">
        <ele>1069</ele>
      </trkpt>
      <trkpt lat="44.1116" lon="6.32356">
        <ele>1069</ele>
      </trkpt>
      <trkpt lat="44.11166" lon="6.32362">
        <ele>1067</ele>
      </trkpt>
      <trkpt lat="44.11172" lon="6.32362">
        <ele>1066</ele>
      </trkpt>
      <trkpt lat="44.11181" lon="6.32359">
        <ele>1065</ele>
      </trkpt>
      <trkpt lat="44.11186" lon="6.32356">
        <ele>1065</ele>
      </trkpt>
      <trkpt lat="44.11193" lon="6.32363">
        <ele>1064</ele>
      </trkpt>
      <trkpt lat="44.11206" lon="6.32367">
        <ele>1062</ele>
      </trkpt>
      <trkpt lat="44.11213" lon="6.32369">
        <ele>1061</ele>
      </trkpt>
      <trkpt lat="44.11219" lon="6.32368">
        <ele>1061</ele>
      </trkpt>
      <trkpt lat="44.11232" lon="6.32372">
        <ele>1061</ele>
      </trkpt>
      <trkpt lat="44.11246" lon="6.32366">
        <ele>1063</ele>
      </trkpt>
      <trkpt lat="44.11253" lon="6.32361">
        <ele>1064</ele>
      </trkpt>
      <trkpt lat="44.11262" lon="6.32352">
        <ele>1065</ele>
      </trkpt>
      <trkpt lat="44.11271" lon="6.32351">
        <ele>1066</ele>
      </trkpt>
      <trkpt lat="44.11276" lon="6.32348">
        <ele>1067</ele>
      </trkpt>
      <trkpt lat="44.11281" lon="6.32352">
        <ele>1068</ele>
      </trkpt>
      <trkpt lat="44.11287" lon="6.32346">
        <ele>1069</ele>
      </trkpt>
      <trkpt lat="44.11292" lon="6.32342">
        <ele>1070</ele>
      </trkpt>
      <trkpt lat="44.113" lon="6.32336">
        <ele>1071</ele>
      </trkpt>
      <trkpt lat="44.11306" lon="6.32338">
        <ele>1072</ele>
      </trkpt>
      <trkpt lat="44.11311" lon="6.32339">
        <ele>1072</ele>
      </trkpt>
      <trkpt lat="44.11321" lon="6.3233">
        <ele>1074</ele>
      </trkpt>
      <trkpt lat="44.11328" lon="6.32325">
        <ele>1075</ele>
      </trkpt>
      <trkpt lat="44.11334" lon="6.32323">
        <ele>1076</ele>
      </trkpt>
      <trkpt lat="44.1134" lon="6.3232">
        <ele>1077</ele>
      </trkpt>
      <trkpt lat="44.11346" lon="6.32311">
        <ele>1079</ele>
      </trkpt>
      <trkpt lat="44.11352" lon="6.32308">
        <ele>1080</ele>
      </trkpt>
      <trkpt lat="44.11371" lon="6.32305">
        <ele>1081</ele>
      </trkpt>
      <trkpt lat="44.11378" lon="6.32307">
        <ele>1080</ele>
      </trkpt>
      <trkpt lat="44.11379" lon="6.32295">
        <ele>1080</ele>
      </trkpt>
      <trkpt lat="44.11384" lon="6.32291">
        <ele>1080</ele>
      </trkpt>
      <trkpt lat="44.11398" lon="6.32293">
        <ele>1080</ele>
      </trkpt>
      <trkpt lat="44.11403" lon="6.32296">
        <ele>1078</ele>
      </trkpt>
      <trkpt lat="44.11403" lon="6.32305">
        <ele>1077</ele>
      </trkpt>
      <trkpt lat="44.114" lon="6.32316">
        <ele>1076</ele>
      </trkpt>
      <trkpt lat="44.114" lon="6.32324">
        <ele>1074</ele>
      </trkpt>
      <trkpt lat="44.11398" lon="6.32333">
        <ele>1073</ele>
      </trkpt>
      <trkpt lat="44.11397" lon="6.32342">
        <ele>1071</ele>
      </trkpt>
      <trkpt lat="44.11397" lon="6.32347">
        <ele>1069</ele>
      </trkpt>
      <trkpt lat="44.11395" lon="6.3236">
        <ele>1067</ele>
      </trkpt>
      <trkpt lat="44.11405" lon="6.32375">
        <ele>1060</ele>
      </trkpt>
      <trkpt lat="44.11412" lon="6.32377">
        <ele>1057</ele>
      </trkpt>
      <trkpt lat="44.11418" lon="6.32378">
        <ele>1056</ele>
      </trkpt>
      <trkpt lat="44.11428" lon="6.32396">
        <ele>1051</ele>
      </trkpt>
      <trkpt lat="44.11444" lon="6.32412">
        <ele>1047</ele>
      </trkpt>
      <trkpt lat="44.11449" lon="6.32418">
        <ele>1046</ele>
      </trkpt>
      <trkpt lat="44.11463" lon="6.32429">
        <ele>1044</ele>
      </trkpt>
      <trkpt lat="44.1147" lon="6.32434">
        <ele>1044</ele>
      </trkpt>
      <trkpt lat="44.11478" lon="6.32439">
        <ele>1043</ele>
      </trkpt>
      <trkpt lat="44.1148" lon="6.32445">
        <ele>1042</ele>
      </trkpt>
      <trkpt lat="44.11487" lon="6.32441">
        <ele>1041</ele>
      </trkpt>
      <trkpt lat="44.11496" lon="6.3244">
        <ele>1040</ele>
      </trkpt>
      <trkpt lat="44.11503" lon="6.32451">
        <ele>1036</ele>
      </trkpt>
      <trkpt lat="44.11515" lon="6.32449">
        <ele>1034</ele>
      </trkpt>
      <trkpt lat="44.11546" lon="6.32433">
        <ele>1027</ele>
      </trkpt>
      <trkpt lat="44.11551" lon="6.32432">
        <ele>1025</ele>
      </trkpt>
      <trkpt lat="44.11559" lon="6.32432">
        <ele>1023</ele>
      </trkpt>
      <trkpt lat="44.11574" lon="6.32408">
        <ele>1023</ele>
      </trkpt>
      <trkpt lat="44.11577" lon="6.324">
        <ele>1024</ele>
      </trkpt>
      <trkpt lat="44.11589" lon="6.32391">
        <ele>1024</ele>
      </trkpt>
      <trkpt lat="44.11589" lon="6.32386">
        <ele>1025</ele>
      </trkpt>
      <trkpt lat="44.11595" lon="6.3239">
        <ele>1023</ele>
      </trkpt>
      <trkpt lat="44.11619" lon="6.32396">
        <ele>1020</ele>
      </trkpt>
      <trkpt lat="44.11624" lon="6.32397">
        <ele>1019</ele>
      </trkpt>
      <trkpt lat="44.1163" lon="6.32398">
        <ele>1018</ele>
      </trkpt>
      <trkpt lat="44.11635" lon="6.32392">
        <ele>1018</ele>
      </trkpt>
      <trkpt lat="44.11643" lon="6.32385">
        <ele>1018</ele>
      </trkpt>
      <trkpt lat="44.11662" lon="6.32361">
        <ele>1015</ele>
      </trkpt>
      <trkpt lat="44.11684" lon="6.32353">
        <ele>1010</ele>
      </trkpt>
      <trkpt lat="44.11689" lon="6.32352">
        <ele>1009</ele>
      </trkpt>
      <trkpt lat="44.11695" lon="6.32345">
        <ele>1009</ele>
      </trkpt>
      <trkpt lat="44.11701" lon="6.32342">
        <ele>1008</ele>
      </trkpt>
      <trkpt lat="44.11742" lon="6.32325">
        <ele>1005</ele>
      </trkpt>
      <trkpt lat="44.11753" lon="6.32324">
        <ele>1004</ele>
      </trkpt>
      <trkpt lat="44.11766" lon="6.32328">
        <ele>1001</ele>
      </trkpt>
      <trkpt lat="44.11774" lon="6.32328">
        <ele>999</ele>
      </trkpt>
      <trkpt lat="44.11778" lon="6.32319">
        <ele>998</ele>
      </trkpt>
      <trkpt lat="44.11778" lon="6.3231">
        <ele>999</ele>
      </trkpt>
      <trkpt lat="44.11767" lon="6.3231">
        <ele>1001</ele>
      </trkpt>
      <trkpt lat="44.11762" lon="6.32309">
        <ele>1002</ele>
      </trkpt>
      <trkpt lat="44.11765" lon="6.32296">
        <ele>1001</ele>
      </trkpt>
      <trkpt lat="44.11771" lon="6.32284">
        <ele>1001</ele>
      </trkpt>
      <trkpt lat="44.11781" lon="6.32284">
        <ele>999</ele>
      </trkpt>
      <trkpt lat="44.11785" lon="6.32288">
        <ele>999</ele>
      </trkpt>
      <trkpt lat="44.11792" lon="6.32289">
        <ele>998</ele>
      </trkpt>
      <trkpt lat="44.11806" lon="6.32288">
        <ele>995</ele>
      </trkpt>
      <trkpt lat="44.11817" lon="6.32285">
        <ele>993</ele>
      </trkpt>
      <trkpt lat="44.11823" lon="6.32274">
        <ele>994</ele>
      </trkpt>
      <trkpt lat="44.11846" lon="6.32233">
        <ele>995</ele>
      </trkpt>
      <trkpt lat="44.11855" lon="6.32224">
        <ele>996</ele>
      </trkpt>
      <trkpt lat="44.11867" lon="6.3222">
        <ele>995</ele>
      </trkpt>
      <trkpt lat="44.11873" lon="6.32214">
        <ele>996</ele>
      </trkpt>
      <trkpt lat="44.11884" lon="6.32206">
        <ele>995</ele>
      </trkpt>
      <trkpt lat="44.1189" lon="6.322">
        <ele>995</ele>
      </trkpt>
      <trkpt lat="44.1189" lon="6.32192">
        <ele>996</ele>
      </trkpt>
      <trkpt lat="44.11865" lon="6.3214">
        <ele>998</ele>
      </trkpt>
      <trkpt lat="44.11869" lon="6.32129">
        <ele>998</ele>
      </trkpt>
      <trkpt lat="44.11874" lon="6.32131">
        <ele>997</ele>
      </trkpt>
      <trkpt lat="44.11877" lon="6.32138">
        <ele>997</ele>
      </trkpt>
      <trkpt lat="44.11886" lon="6.32139">
        <ele>996</ele>
      </trkpt>
      <trkpt lat="44.11892" lon="6.32134">
        <ele>995</ele>
      </trkpt>
      <trkpt lat="44.11898" lon="6.32134">
        <ele>994</ele>
      </trkpt>
      <trkpt lat="44.11904" lon="6.32134">
        <ele>992</ele>
      </trkpt>
      <trkpt lat="44.11909" lon="6.32128">
        <ele>989</ele>
      </trkpt>
      <trkpt lat="44.11915" lon="6.32129">
        <ele>987</ele>
      </trkpt>
      <trkpt lat="44.11924" lon="6.32129">
        <ele>984</ele>
      </trkpt>
      <trkpt lat="44.11926" lon="6.3212">
        <ele>983</ele>
      </trkpt>
      <trkpt lat="44.11919" lon="6.32114">
        <ele>985</ele>
      </trkpt>
      <trkpt lat="44.11909" lon="6.32107">
        <ele>988</ele>
      </trkpt>
      <trkpt lat="44.119" lon="6.32097">
        <ele>989</ele>
      </trkpt>
      <trkpt lat="44.11904" lon="6.32084">
        <ele>986</ele>
      </trkpt>
      <trkpt lat="44.11912" lon="6.3208">
        <ele>984</ele>
      </trkpt>
      <trkpt lat="44.11916" lon="6.3207">
        <ele>982</ele>
      </trkpt>
      <trkpt lat="44.11919" lon="6.32065">
        <ele>980</ele>
      </trkpt>
      <trkpt lat="44.1193" lon="6.32064">
        <ele>977</ele>
      </trkpt>
      <trkpt lat="44.11937" lon="6.32066">
        <ele>976</ele>
      </trkpt>
      <trkpt lat="44.11943" lon="6.32073">
        <ele>975</ele>
      </trkpt>
      <trkpt lat="44.11948" lon="6.32078">
        <ele>975</ele>
      </trkpt>
      <trkpt lat="44.11954" lon="6.32079">
        <ele>974</ele>
      </trkpt>
      <trkpt lat="44.11959" lon="6.32077">
        <ele>973</ele>
      </trkpt>
      <trkpt lat="44.11965" lon="6.3208">
        <ele>972</ele>
      </trkpt>
      <trkpt lat="44.11971" lon="6.32083">
        <ele>971</ele>
      </trkpt>
      <trkpt lat="44.11975" lon="6.3209">
        <ele>971</ele>
      </trkpt>
      <trkpt lat="44.11979" lon="6.32096">
        <ele>971</ele>
      </trkpt>
      <trkpt lat="44.11985" lon="6.321">
        <ele>970</ele>
      </trkpt>
      <trkpt lat="44.11989" lon="6.32103">
        <ele>968</ele>
      </trkpt>
      <trkpt lat="44.11994" lon="6.32103">
        <ele>968</ele>
      </trkpt>
      <trkpt lat="44.12004" lon="6.32102">
        <ele>967</ele>
      </trkpt>
      <trkpt lat="44.12011" lon="6.32102">
        <ele>967</ele>
      </trkpt>
      <trkpt lat="44.12016" lon="6.32105">
        <ele>966</ele>
      </trkpt>
      <trkpt lat="44.1202" lon="6.32108">
        <ele>965</ele>
      </trkpt>
      <trkpt lat="44.12025" lon="6.32121">
        <ele>963</ele>
      </trkpt>
      <trkpt lat="44.12032" lon="6.32133">
        <ele>960</ele>
      </trkpt>
      <trkpt lat="44.12035" lon="6.32138">
        <ele>960</ele>
      </trkpt>
      <trkpt lat="44.12037" lon="6.32143">
        <ele>959</ele>
      </trkpt>
      <trkpt lat="44.12044" lon="6.32145">
        <ele>958</ele>
      </trkpt>
      <trkpt lat="44.12051" lon="6.32149">
        <ele>957</ele>
      </trkpt>
      <trkpt lat="44.12057" lon="6.3215">
        <ele>956</ele>
      </trkpt>
      <trkpt lat="44.12062" lon="6.32155">
        <ele>956</ele>
      </trkpt>
      <trkpt lat="44.12073" lon="6.32166">
        <ele>954</ele>
      </trkpt>
      <trkpt lat="44.12088" lon="6.32171">
        <ele>953</ele>
      </trkpt>
      <trkpt lat="44.12096" lon="6.32172">
        <ele>953</ele>
      </trkpt>
      <trkpt lat="44.12105" lon="6.32176">
        <ele>952</ele>
      </trkpt>
      <trkpt lat="44.12111" lon="6.32176">
        <ele>952</ele>
      </trkpt>
      <trkpt lat="44.12119" lon="6.32178">
        <ele>951</ele>
      </trkpt>
      <trkpt lat="44.12127" lon="6.32182">
        <ele>951</ele>
      </trkpt>
      <trkpt lat="44.12136" lon="6.32179">
        <ele>951</ele>
      </trkpt>
      <trkpt lat="44.1214" lon="6.32181">
        <ele>951</ele>
      </trkpt>
      <trkpt lat="44.12145" lon="6.32185">
        <ele>951</ele>
      </trkpt>
      <trkpt lat="44.1215" lon="6.32195">
        <ele>949</ele>
      </trkpt>
      <trkpt lat="44.12157" lon="6.32192">
        <ele>950</ele>
      </trkpt>
      <trkpt lat="44.12163" lon="6.32179">
        <ele>953</ele>
      </trkpt>
      <trkpt lat="44.12166" lon="6.32172">
        <ele>954</ele>
      </trkpt>
      <trkpt lat="44.12159" lon="6.32163">
        <ele>954</ele>
      </trkpt>
      <trkpt lat="44.12152" lon="6.32142">
        <ele>955</ele>
      </trkpt>
      <trkpt lat="44.12145" lon="6.3213">
        <ele>955</ele>
      </trkpt>
      <trkpt lat="44.12138" lon="6.3212">
        <ele>955</ele>
      </trkpt>
      <trkpt lat="44.12132" lon="6.3211">
        <ele>955</ele>
      </trkpt>
      <trkpt lat="44.12124" lon="6.32098">
        <ele>954</ele>
      </trkpt>
      <trkpt lat="44.12114" lon="6.32083">
        <ele>954</ele>
      </trkpt>
      <trkpt lat="44.121" lon="6.32064">
        <ele>955</ele>
      </trkpt>
      <trkpt lat="44.12092" lon="6.32047">
        <ele>956</ele>
      </trkpt>
      <trkpt lat="44.12086" lon="6.32015">
        <ele>954</ele>
      </trkpt>
      <trkpt lat="44.12082" lon="6.32004">
        <ele>954</ele>
      </trkpt>
      <trkpt lat="44.12079" lon="6.31997">
        <ele>954</ele>
      </trkpt>
      <trkpt lat="44.12068" lon="6.31954">
        <ele>951</ele>
      </trkpt>
      <trkpt lat="44.12066" lon="6.31949">
        <ele>951</ele>
      </trkpt>
      <trkpt lat="44.12061" lon="6.31941">
        <ele>951</ele>
      </trkpt>
      <trkpt lat="44.12052" lon="6.31933">
        <ele>952</ele>
      </trkpt>
      <trkpt lat="44.12045" lon="6.31931">
        <ele>953</ele>
      </trkpt>
      <trkpt lat="44.12041" lon="6.31929">
        <ele>953</ele>
      </trkpt>
      <trkpt lat="44.12034" lon="6.31923">
        <ele>953</ele>
      </trkpt>
      <trkpt lat="44.1203" lon="6.31923">
        <ele>953</ele>
      </trkpt>
      <trkpt lat="44.12022" lon="6.31915">
        <ele>952</ele>
      </trkpt>
      <trkpt lat="44.12002" lon="6.31881">
        <ele>948</ele>
      </trkpt>
      <trkpt lat="44.11996" lon="6.31874">
        <ele>948</ele>
      </trkpt>
      <trkpt lat="44.1199" lon="6.31867">
        <ele>949</ele>
      </trkpt>
      <trkpt lat="44.11984" lon="6.31862">
        <ele>950</ele>
      </trkpt>
      <trkpt lat="44.11981" lon="6.31856">
        <ele>950</ele>
      </trkpt>
      <trkpt lat="44.11974" lon="6.31827">
        <ele>952</ele>
      </trkpt>
      <trkpt lat="44.11972" lon="6.31816">
        <ele>952</ele>
      </trkpt>
      <trkpt lat="44.11972" lon="6.31799">
        <ele>952</ele>
      </trkpt>
      <trkpt lat="44.11971" lon="6.31789">
        <ele>952</ele>
      </trkpt>
      <trkpt lat="44.11968" lon="6.3178">
        <ele>952</ele>
      </trkpt>
      <trkpt lat="44.11964" lon="6.31775">
        <ele>953</ele>
      </trkpt>
      <trkpt lat="44.11951" lon="6.31764">
        <ele>954</ele>
      </trkpt>
      <trkpt lat="44.11942" lon="6.31759">
        <ele>953</ele>
      </trkpt>
      <trkpt lat="44.11935" lon="6.31756">
        <ele>953</ele>
      </trkpt>
      <trkpt lat="44.11928" lon="6.31752">
        <ele>952</ele>
      </trkpt>
      <trkpt lat="44.11925" lon="6.31753">
        <ele>952</ele>
      </trkpt>
      <trkpt lat="44.11915" lon="6.3175">
        <ele>951</ele>
      </trkpt>
      <trkpt lat="44.1191" lon="6.3175">
        <ele>951</ele>
      </trkpt>
      <trkpt lat="44.11906" lon="6.31744">
        <ele>949</ele>
      </trkpt>
      <trkpt lat="44.11899" lon="6.31742">
        <ele>949</ele>
      </trkpt>
      <trkpt lat="44.11893" lon="6.31744">
        <ele>950</ele>
      </trkpt>
      <trkpt lat="44.1189" lon="6.31737">
        <ele>948</ele>
      </trkpt>
      <trkpt lat="44.11886" lon="6.31731">
        <ele>946</ele>
      </trkpt>
      <trkpt lat="44.11885" lon="6.31714">
        <ele>941</ele>
      </trkpt>
      <trkpt lat="44.11884" lon="6.31686">
        <ele>943</ele>
      </trkpt>
      <trkpt lat="44.1188" lon="6.3167">
        <ele>945</ele>
      </trkpt>
      <trkpt lat="44.11874" lon="6.31663">
        <ele>948</ele>
      </trkpt>
      <trkpt lat="44.1187" lon="6.31658">
        <ele>950</ele>
      </trkpt>
      <trkpt lat="44.11863" lon="6.31653">
        <ele>953</ele>
      </trkpt>
      <trkpt lat="44.1186" lon="6.31645">
        <ele>954</ele>
      </trkpt>
      <trkpt lat="44.11862" lon="6.31637">
        <ele>954</ele>
      </trkpt>
      <trkpt lat="44.11868" lon="6.31625">
        <ele>954</ele>
      </trkpt>
      <trkpt lat="44.11869" lon="6.31617">
        <ele>954</ele>
      </trkpt>
      <trkpt lat="44.11872" lon="6.31607">
        <ele>954</ele>
      </trkpt>
      <trkpt lat="44.11872" lon="6.316">
        <ele>955</ele>
      </trkpt>
      <trkpt lat="44.11867" lon="6.31585">
        <ele>955</ele>
      </trkpt>
      <trkpt lat="44.11862" lon="6.31578">
        <ele>955</ele>
      </trkpt>
      <trkpt lat="44.11854" lon="6.31577">
        <ele>956</ele>
      </trkpt>
      <trkpt lat="44.11836" lon="6.31568">
        <ele>958</ele>
      </trkpt>
      <trkpt lat="44.11824" lon="6.31566">
        <ele>960</ele>
      </trkpt>
      <trkpt lat="44.11818" lon="6.31566">
        <ele>961</ele>
      </trkpt>
      <trkpt lat="44.11812" lon="6.31557">
        <ele>961</ele>
      </trkpt>
      <trkpt lat="44.1181" lon="6.31548">
        <ele>960</ele>
      </trkpt>
      <trkpt lat="44.11808" lon="6.31539">
        <ele>959</ele>
      </trkpt>
      <trkpt lat="44.11808" lon="6.3152">
        <ele>957</ele>
      </trkpt>
      <trkpt lat="44.1181" lon="6.3151">
        <ele>955</ele>
      </trkpt>
      <trkpt lat="44.11807" lon="6.31494">
        <ele>955</ele>
      </trkpt>
      <trkpt lat="44.11803" lon="6.31487">
        <ele>955</ele>
      </trkpt>
      <trkpt lat="44.11797" lon="6.31478">
        <ele>955</ele>
      </trkpt>
      <trkpt lat="44.11774" lon="6.31455">
        <ele>957</ele>
      </trkpt>
      <trkpt lat="44.11769" lon="6.3145">
        <ele>957</ele>
      </trkpt>
      <trkpt lat="44.11765" lon="6.31442">
        <ele>957</ele>
      </trkpt>
      <trkpt lat="44.11765" lon="6.31428">
        <ele>956</ele>
      </trkpt>
      <trkpt lat="44.11766" lon="6.31419">
        <ele>955</ele>
      </trkpt>
      <trkpt lat="44.11764" lon="6.31411">
        <ele>954</ele>
      </trkpt>
      <trkpt lat="44.1176" lon="6.31401">
        <ele>953</ele>
      </trkpt>
      <trkpt lat="44.11744" lon="6.31382">
        <ele>952</ele>
      </trkpt>
      <trkpt lat="44.11737" lon="6.31356">
        <ele>951</ele>
      </trkpt>
      <trkpt lat="44.11752" lon="6.31338">
        <ele>950</ele>
      </trkpt>
      <trkpt lat="44.11766" lon="6.31325">
        <ele>951</ele>
      </trkpt>
      <trkpt lat="44.11764" lon="6.31332">
        <ele>951</ele>
      </trkpt>
      <trkpt lat="44.11774" lon="6.31326">
        <ele>951</ele>
      </trkpt>
      <trkpt lat="44.11774" lon="6.31324">
        <ele>951</ele>
      </trkpt>
      <trkpt lat="44.11773" lon="6.31297">
        <ele>952</ele>
      </trkpt>
      <trkpt lat="44.11772" lon="6.31277">
        <ele>952</ele>
      </trkpt>
      <trkpt lat="44.11781" lon="6.31258">
        <ele>955</ele>
      </trkpt>
      <trkpt lat="44.11799" lon="6.31243">
        <ele>958</ele>
      </trkpt>
      <trkpt lat="44.11807" lon="6.31241">
        <ele>959</ele>
      </trkpt>
      <trkpt lat="44.11814" lon="6.31243">
        <ele>959</ele>
      </trkpt>
      <trkpt lat="44.11821" lon="6.31248">
        <ele>959</ele>
      </trkpt>
      <trkpt lat="44.11825" lon="6.31238">
        <ele>961</ele>
      </trkpt>
      <trkpt lat="44.11821" lon="6.31227">
        <ele>962</ele>
      </trkpt>
      <trkpt lat="44.11818" lon="6.31216">
        <ele>964</ele>
      </trkpt>
      <trkpt lat="44.11812" lon="6.31207">
        <ele>964</ele>
      </trkpt>
      <trkpt lat="44.11808" lon="6.31195">
        <ele>966</ele>
      </trkpt>
      <trkpt lat="44.11809" lon="6.31184">
        <ele>967</ele>
      </trkpt>
      <trkpt lat="44.11809" lon="6.31177">
        <ele>968</ele>
      </trkpt>
      <trkpt lat="44.11809" lon="6.31171">
        <ele>969</ele>
      </trkpt>
      <trkpt lat="44.11809" lon="6.31164">
        <ele>970</ele>
      </trkpt>
      <trkpt lat="44.11808" lon="6.31166">
        <ele>970</ele>
      </trkpt>
      <trkpt lat="44.11812" lon="6.31162">
        <ele>971</ele>
      </trkpt>
      <trkpt lat="44.11814" lon="6.31167">
        <ele>971</ele>
      </trkpt>
      <trkpt lat="44.11815" lon="6.31179">
        <ele>969</ele>
      </trkpt>
      <trkpt lat="44.11816" lon="6.31189">
        <ele>967</ele>
      </trkpt>
      <trkpt lat="44.11819" lon="6.31197">
        <ele>967</ele>
      </trkpt>
      <trkpt lat="44.11832" lon="6.31212">
        <ele>965</ele>
      </trkpt>
      <trkpt lat="44.11838" lon="6.31215">
        <ele>966</ele>
      </trkpt>
      <trkpt lat="44.11842" lon="6.3122">
        <ele>965</ele>
      </trkpt>
      <trkpt lat="44.11848" lon="6.31225">
        <ele>966</ele>
      </trkpt>
      <trkpt lat="44.11859" lon="6.31229">
        <ele>967</ele>
      </trkpt>
      <trkpt lat="44.11867" lon="6.31233">
        <ele>967</ele>
      </trkpt>
      <trkpt lat="44.11873" lon="6.31234">
        <ele>968</ele>
      </trkpt>
      <trkpt lat="44.11878" lon="6.31238">
        <ele>968</ele>
      </trkpt>
      <trkpt lat="44.11882" lon="6.31241">
        <ele>968</ele>
      </trkpt>
      <trkpt lat="44.11895" lon="6.31246">
        <ele>970</ele>
      </trkpt>
      <trkpt lat="44.11903" lon="6.31246">
        <ele>971</ele>
      </trkpt>
      <trkpt lat="44.11907" lon="6.31246">
        <ele>972</ele>
      </trkpt>
      <trkpt lat="44.11911" lon="6.31244">
        <ele>973</ele>
      </trkpt>
      <trkpt lat="44.11915" lon="6.31245">
        <ele>974</ele>
      </trkpt>
      <trkpt lat="44.1192" lon="6.31247">
        <ele>974</ele>
      </trkpt>
      <trkpt lat="44.11923" lon="6.31251">
        <ele>974</ele>
      </trkpt>
      <trkpt lat="44.11933" lon="6.31261">
        <ele>975</ele>
      </trkpt>
      <trkpt lat="44.11936" lon="6.31262">
        <ele>975</ele>
      </trkpt>
      <trkpt lat="44.11939" lon="6.31267">
        <ele>975</ele>
      </trkpt>
      <trkpt lat="44.11943" lon="6.31271">
        <ele>975</ele>
      </trkpt>
      <trkpt lat="44.11947" lon="6.31274">
        <ele>975</ele>
      </trkpt>
      <trkpt lat="44.11956" lon="6.31276">
        <ele>976</ele>
      </trkpt>
      <trkpt lat="44.1196" lon="6.31276">
        <ele>977</ele>
      </trkpt>
      <trkpt lat="44.11964" lon="6.31278">
        <ele>978</ele>
      </trkpt>
      <trkpt lat="44.11969" lon="6.3128">
        <ele>978</ele>
      </trkpt>
      <trkpt lat="44.11986" lon="6.31283">
        <ele>980</ele>
      </trkpt>
      <trkpt lat="44.11995" lon="6.31284">
        <ele>981</ele>
      </trkpt>
      <trkpt lat="44.12002" lon="6.31285">
        <ele>982</ele>
      </trkpt>
      <trkpt lat="44.12006" lon="6.31288">
        <ele>982</ele>
      </trkpt>
      <trkpt lat="44.1201" lon="6.31291">
        <ele>981</ele>
      </trkpt>
      <trkpt lat="44.12013" lon="6.31294">
        <ele>981</ele>
      </trkpt>
      <trkpt lat="44.12017" lon="6.31297">
        <ele>980</ele>
      </trkpt>
      <trkpt lat="44.12022" lon="6.31295">
        <ele>981</ele>
      </trkpt>
      <trkpt lat="44.1202" lon="6.31287">
        <ele>983</ele>
      </trkpt>
      <trkpt lat="44.12016" lon="6.31275">
        <ele>985</ele>
      </trkpt>
      <trkpt lat="44.1202" lon="6.31279">
        <ele>985</ele>
      </trkpt>
      <trkpt lat="44.12024" lon="6.31281">
        <ele>985</ele>
      </trkpt>
      <trkpt lat="44.12028" lon="6.31282">
        <ele>984</ele>
      </trkpt>
      <trkpt lat="44.12033" lon="6.31281">
        <ele>985</ele>
      </trkpt>
      <trkpt lat="44.12035" lon="6.31274">
        <ele>986</ele>
      </trkpt>
      <trkpt lat="44.12035" lon="6.31268">
        <ele>988</ele>
      </trkpt>
      <trkpt lat="44.12032" lon="6.31262">
        <ele>989</ele>
      </trkpt>
      <trkpt lat="44.12029" lon="6.31258">
        <ele>990</ele>
      </trkpt>
      <trkpt lat="44.12026" lon="6.31254">
        <ele>990</ele>
      </trkpt>
      <trkpt lat="44.12023" lon="6.31251">
        <ele>990</ele>
      </trkpt>
      <trkpt lat="44.12018" lon="6.31248">
        <ele>991</ele>
      </trkpt>
      <trkpt lat="44.12015" lon="6.31244">
        <ele>991</ele>
      </trkpt>
      <trkpt lat="44.12012" lon="6.31239">
        <ele>991</ele>
      </trkpt>
      <trkpt lat="44.12012" lon="6.31233">
        <ele>992</ele>
      </trkpt>
      <trkpt lat="44.12017" lon="6.31234">
        <ele>993</ele>
      </trkpt>
      <trkpt lat="44.12021" lon="6.31234">
        <ele>994</ele>
      </trkpt>
      <trkpt lat="44.12025" lon="6.31239">
        <ele>993</ele>
      </trkpt>
      <trkpt lat="44.12029" lon="6.3124">
        <ele>993</ele>
      </trkpt>
      <trkpt lat="44.12034" lon="6.31243">
        <ele>993</ele>
      </trkpt>
      <trkpt lat="44.12039" lon="6.31244">
        <ele>993</ele>
      </trkpt>
      <trkpt lat="44.12045" lon="6.31247">
        <ele>993</ele>
      </trkpt>
      <trkpt lat="44.12051" lon="6.31246">
        <ele>994</ele>
      </trkpt>
      <trkpt lat="44.12049" lon="6.31237">
        <ele>996</ele>
      </trkpt>
      <trkpt lat="44.12045" lon="6.31231">
        <ele>997</ele>
      </trkpt>
      <trkpt lat="44.12042" lon="6.31218">
        <ele>998</ele>
      </trkpt>
      <trkpt lat="44.12041" lon="6.31212">
        <ele>998</ele>
      </trkpt>
      <trkpt lat="44.12038" lon="6.31201">
        <ele>999</ele>
      </trkpt>
      <trkpt lat="44.12037" lon="6.31195">
        <ele>1000</ele>
      </trkpt>
      <trkpt lat="44.12034" lon="6.3119">
        <ele>1000</ele>
      </trkpt>
      <trkpt lat="44.12031" lon="6.31185">
        <ele>1000</ele>
      </trkpt>
      <trkpt lat="44.12028" lon="6.31183">
        <ele>1000</ele>
      </trkpt>
      <trkpt lat="44.12022" lon="6.31181">
        <ele>1000</ele>
      </trkpt>
      <trkpt lat="44.12017" lon="6.31179">
        <ele>1000</ele>
      </trkpt>
      <trkpt lat="44.12007" lon="6.3117">
        <ele>1000</ele>
      </trkpt>
      <trkpt lat="44.12003" lon="6.31164">
        <ele>1000</ele>
      </trkpt>
      <trkpt lat="44.11998" lon="6.31154">
        <ele>1001</ele>
      </trkpt>
      <trkpt lat="44.11994" lon="6.31152">
        <ele>1001</ele>
      </trkpt>
      <trkpt lat="44.11989" lon="6.31149">
        <ele>1001</ele>
      </trkpt>
      <trkpt lat="44.11982" lon="6.31145">
        <ele>1001</ele>
      </trkpt>
      <trkpt lat="44.11977" lon="6.3114">
        <ele>1001</ele>
      </trkpt>
      <trkpt lat="44.11975" lon="6.31136">
        <ele>1001</ele>
      </trkpt>
      <trkpt lat="44.11976" lon="6.31129">
        <ele>1002</ele>
      </trkpt>
      <trkpt lat="44.11975" lon="6.31121">
        <ele>1003</ele>
      </trkpt>
      <trkpt lat="44.11974" lon="6.31116">
        <ele>1004</ele>
      </trkpt>
      <trkpt lat="44.11971" lon="6.3111">
        <ele>1004</ele>
      </trkpt>
      <trkpt lat="44.11969" lon="6.31107">
        <ele>1004</ele>
      </trkpt>
      <trkpt lat="44.11964" lon="6.31103">
        <ele>1004</ele>
      </trkpt>
      <trkpt lat="44.1196" lon="6.311">
        <ele>1004</ele>
      </trkpt>
      <trkpt lat="44.11956" lon="6.31096">
        <ele>1004</ele>
      </trkpt>
      <trkpt lat="44.11948" lon="6.31088">
        <ele>1004</ele>
      </trkpt>
      <trkpt lat="44.1194" lon="6.31083">
        <ele>1004</ele>
      </trkpt>
      <trkpt lat="44.11937" lon="6.31079">
        <ele>1004</ele>
      </trkpt>
      <trkpt lat="44.11935" lon="6.31075">
        <ele>1004</ele>
      </trkpt>
      <trkpt lat="44.11934" lon="6.31069">
        <ele>1004</ele>
      </trkpt>
      <trkpt lat="44.11935" lon="6.31065">
        <ele>1005</ele>
      </trkpt>
      <trkpt lat="44.11939" lon="6.31066">
        <ele>1006</ele>
      </trkpt>
      <trkpt lat="44.11948" lon="6.31065">
        <ele>1007</ele>
      </trkpt>
      <trkpt lat="44.11958" lon="6.31066">
        <ele>1008</ele>
      </trkpt>
      <trkpt lat="44.11962" lon="6.31066">
        <ele>1009</ele>
      </trkpt>
      <trkpt lat="44.11967" lon="6.31066">
        <ele>1009</ele>
      </trkpt>
      <trkpt lat="44.1197" lon="6.31071">
        <ele>1009</ele>
      </trkpt>
      <trkpt lat="44.11974" lon="6.31073">
        <ele>1009</ele>
      </trkpt>
      <trkpt lat="44.11976" lon="6.31078">
        <ele>1009</ele>
      </trkpt>
      <trkpt lat="44.11979" lon="6.31082">
        <ele>1009</ele>
      </trkpt>
      <trkpt lat="44.11983" lon="6.3109">
        <ele>1008</ele>
      </trkpt>
      <trkpt lat="44.11987" lon="6.3109">
        <ele>1008</ele>
      </trkpt>
      <trkpt lat="44.11993" lon="6.31093">
        <ele>1008</ele>
      </trkpt>
      <trkpt lat="44.12008" lon="6.31091">
        <ele>1009</ele>
      </trkpt>
      <trkpt lat="44.12014" lon="6.31093">
        <ele>1009</ele>
      </trkpt>
      <trkpt lat="44.12023" lon="6.31094">
        <ele>1009</ele>
      </trkpt>
      <trkpt lat="44.12029" lon="6.31093">
        <ele>1009</ele>
      </trkpt>
      <trkpt lat="44.12028" lon="6.31088">
        <ele>1010</ele>
      </trkpt>
      <trkpt lat="44.12024" lon="6.31083">
        <ele>1010</ele>
      </trkpt>
      <trkpt lat="44.12022" lon="6.31079">
        <ele>1010</ele>
      </trkpt>
      <trkpt lat="44.1202" lon="6.31074">
        <ele>1011</ele>
      </trkpt>
      <trkpt lat="44.12015" lon="6.3107">
        <ele>1011</ele>
      </trkpt>
      <trkpt lat="44.12012" lon="6.31067">
        <ele>1011</ele>
      </trkpt>
      <trkpt lat="44.1201" lon="6.31061">
        <ele>1012</ele>
      </trkpt>
      <trkpt lat="44.12013" lon="6.31057">
        <ele>1012</ele>
      </trkpt>
      <trkpt lat="44.12019" lon="6.31056">
        <ele>1012</ele>
      </trkpt>
      <trkpt lat="44.12026" lon="6.31054">
        <ele>1012</ele>
      </trkpt>
      <trkpt lat="44.12031" lon="6.31049">
        <ele>1011</ele>
      </trkpt>
      <trkpt lat="44.12031" lon="6.31041">
        <ele>1012</ele>
      </trkpt>
      <trkpt lat="44.12029" lon="6.31032">
        <ele>1013</ele>
      </trkpt>
      <trkpt lat="44.12025" lon="6.31027">
        <ele>1013</ele>
      </trkpt>
      <trkpt lat="44.12018" lon="6.31022">
        <ele>1014</ele>
      </trkpt>
      <trkpt lat="44.12012" lon="6.31018">
        <ele>1014</ele>
      </trkpt>
      <trkpt lat="44.12009" lon="6.31016">
        <ele>1015</ele>
      </trkpt>
      <trkpt lat="44.12006" lon="6.31013">
        <ele>1015</ele>
      </trkpt>
      <trkpt lat="44.12003" lon="6.31003">
        <ele>1016</ele>
      </trkpt>
      <trkpt lat="44.12002" lon="6.30996">
        <ele>1017</ele>
      </trkpt>
      <trkpt lat="44.11999" lon="6.30989">
        <ele>1017</ele>
      </trkpt>
      <trkpt lat="44.11998" lon="6.30983">
        <ele>1018</ele>
      </trkpt>
      <trkpt lat="44.11995" lon="6.30974">
        <ele>1019</ele>
      </trkpt>
      <trkpt lat="44.11993" lon="6.30968">
        <ele>1020</ele>
      </trkpt>
      <trkpt lat="44.11995" lon="6.3096">
        <ele>1021</ele>
      </trkpt>
      <trkpt lat="44.11993" lon="6.30952">
        <ele>1022</ele>
      </trkpt>
      <trkpt lat="44.11991" lon="6.30947">
        <ele>1023</ele>
      </trkpt>
      <trkpt lat="44.11988" lon="6.30943">
        <ele>1024</ele>
      </trkpt>
      <trkpt lat="44.11985" lon="6.30937">
        <ele>1026</ele>
      </trkpt>
      <trkpt lat="44.11984" lon="6.3093">
        <ele>1027</ele>
      </trkpt>
      <trkpt lat="44.11982" lon="6.30925">
        <ele>1027</ele>
      </trkpt>
      <trkpt lat="44.11978" lon="6.30912">
        <ele>1029</ele>
      </trkpt>
      <trkpt lat="44.11976" lon="6.30907">
        <ele>1030</ele>
      </trkpt>
      <trkpt lat="44.11975" lon="6.30902">
        <ele>1031</ele>
      </trkpt>
      <trkpt lat="44.11972" lon="6.30895">
        <ele>1032</ele>
      </trkpt>
      <trkpt lat="44.11965" lon="6.3088">
        <ele>1035</ele>
      </trkpt>
      <trkpt lat="44.11961" lon="6.30874">
        <ele>1036</ele>
      </trkpt>
      <trkpt lat="44.11959" lon="6.30869">
        <ele>1037</ele>
      </trkpt>
      <trkpt lat="44.11955" lon="6.30857">
        <ele>1039</ele>
      </trkpt>
      <trkpt lat="44.11953" lon="6.30853">
        <ele>1039</ele>
      </trkpt>
      <trkpt lat="44.11951" lon="6.30848">
        <ele>1040</ele>
      </trkpt>
      <trkpt lat="44.11946" lon="6.30836">
        <ele>1041</ele>
      </trkpt>
      <trkpt lat="44.11942" lon="6.30833">
        <ele>1041</ele>
      </trkpt>
      <trkpt lat="44.11938" lon="6.30829">
        <ele>1041</ele>
      </trkpt>
      <trkpt lat="44.11928" lon="6.30822">
        <ele>1040</ele>
      </trkpt>
      <trkpt lat="44.11924" lon="6.3082">
        <ele>1040</ele>
      </trkpt>
      <trkpt lat="44.11918" lon="6.30811">
        <ele>1040</ele>
      </trkpt>
      <trkpt lat="44.11909" lon="6.30795">
        <ele>1041</ele>
      </trkpt>
      <trkpt lat="44.11906" lon="6.30788">
        <ele>1041</ele>
      </trkpt>
      <trkpt lat="44.11904" lon="6.30784">
        <ele>1042</ele>
      </trkpt>
      <trkpt lat="44.11899" lon="6.30778">
        <ele>1042</ele>
      </trkpt>
      <trkpt lat="44.11894" lon="6.30774">
        <ele>1041</ele>
      </trkpt>
      <trkpt lat="44.11891" lon="6.30772">
        <ele>1041</ele>
      </trkpt>
      <trkpt lat="44.11888" lon="6.30768">
        <ele>1041</ele>
      </trkpt>
      <trkpt lat="44.11884" lon="6.30759">
        <ele>1041</ele>
      </trkpt>
      <trkpt lat="44.11882" lon="6.30754">
        <ele>1041</ele>
      </trkpt>
      <trkpt lat="44.11881" lon="6.30749">
        <ele>1042</ele>
      </trkpt>
      <trkpt lat="44.11879" lon="6.30744">
        <ele>1042</ele>
      </trkpt>
      <trkpt lat="44.11874" lon="6.30727">
        <ele>1044</ele>
      </trkpt>
      <trkpt lat="44.11881" lon="6.30733">
        <ele>1044</ele>
      </trkpt>
      <trkpt lat="44.11886" lon="6.30736">
        <ele>1045</ele>
      </trkpt>
      <trkpt lat="44.11891" lon="6.30741">
        <ele>1045</ele>
      </trkpt>
      <trkpt lat="44.11895" lon="6.3075">
        <ele>1044</ele>
      </trkpt>
      <trkpt lat="44.11905" lon="6.30761">
        <ele>1045</ele>
      </trkpt>
      <trkpt lat="44.11911" lon="6.30768">
        <ele>1044</ele>
      </trkpt>
      <trkpt lat="44.11918" lon="6.30774">
        <ele>1044</ele>
      </trkpt>
      <trkpt lat="44.11921" lon="6.30775">
        <ele>1045</ele>
      </trkpt>
      <trkpt lat="44.11933" lon="6.30778">
        <ele>1045</ele>
      </trkpt>
      <trkpt lat="44.1194" lon="6.30783">
        <ele>1045</ele>
      </trkpt>
      <trkpt lat="44.11945" lon="6.30788">
        <ele>1045</ele>
      </trkpt>
      <trkpt lat="44.1195" lon="6.30787">
        <ele>1046</ele>
      </trkpt>
      <trkpt lat="44.11956" lon="6.30788">
        <ele>1045</ele>
      </trkpt>
      <trkpt lat="44.11962" lon="6.30786">
        <ele>1045</ele>
      </trkpt>
      <trkpt lat="44.11967" lon="6.30782">
        <ele>1045</ele>
      </trkpt>
      <trkpt lat="44.11973" lon="6.30778">
        <ele>1045</ele>
      </trkpt>
      <trkpt lat="44.11977" lon="6.30773">
        <ele>1045</ele>
      </trkpt>
      <trkpt lat="44.11982" lon="6.30767">
        <ele>1045</ele>
      </trkpt>
      <trkpt lat="44.11972" lon="6.30728">
        <ele>1048</ele>
      </trkpt>
      <trkpt lat="44.11973" lon="6.30722">
        <ele>1048</ele>
      </trkpt>
      <trkpt lat="44.11972" lon="6.30714">
        <ele>1050</ele>
      </trkpt>
      <trkpt lat="44.11969" lon="6.3071">
        <ele>1051</ele>
      </trkpt>
      <trkpt lat="44.11966" lon="6.30704">
        <ele>1052</ele>
      </trkpt>
      <trkpt lat="44.11959" lon="6.30699">
        <ele>1054</ele>
      </trkpt>
      <trkpt lat="44.11955" lon="6.30696">
        <ele>1055</ele>
      </trkpt>
      <trkpt lat="44.11951" lon="6.30692">
        <ele>1056</ele>
      </trkpt>
      <trkpt lat="44.11948" lon="6.30687">
        <ele>1056</ele>
      </trkpt>
      <trkpt lat="44.11945" lon="6.30684">
        <ele>1057</ele>
      </trkpt>
      <trkpt lat="44.11942" lon="6.3068">
        <ele>1057</ele>
      </trkpt>
      <trkpt lat="44.11935" lon="6.30672">
        <ele>1057</ele>
      </trkpt>
      <trkpt lat="44.11932" lon="6.30669">
        <ele>1057</ele>
      </trkpt>
      <trkpt lat="44.1192" lon="6.30647">
        <ele>1060</ele>
      </trkpt>
      <trkpt lat="44.11923" lon="6.30649">
        <ele>1060</ele>
      </trkpt>
      <trkpt lat="44.11926" lon="6.30651">
        <ele>1059</ele>
      </trkpt>
      <trkpt lat="44.11931" lon="6.30653">
        <ele>1060</ele>
      </trkpt>
      <trkpt lat="44.11939" lon="6.30658">
        <ele>1059</ele>
      </trkpt>
      <trkpt lat="44.11946" lon="6.30663">
        <ele>1059</ele>
      </trkpt>
      <trkpt lat="44.1195" lon="6.30664">
        <ele>1059</ele>
      </trkpt>
      <trkpt lat="44.11957" lon="6.30662">
        <ele>1059</ele>
      </trkpt>
      <trkpt lat="44.1196" lon="6.30658">
        <ele>1060</ele>
      </trkpt>
      <trkpt lat="44.11958" lon="6.3065">
        <ele>1062</ele>
      </trkpt>
      <trkpt lat="44.11957" lon="6.30645">
        <ele>1063</ele>
      </trkpt>
      <trkpt lat="44.11959" lon="6.30639">
        <ele>1064</ele>
      </trkpt>
      <trkpt lat="44.11963" lon="6.30636">
        <ele>1065</ele>
      </trkpt>
      <trkpt lat="44.11968" lon="6.30632">
        <ele>1066</ele>
      </trkpt>
      <trkpt lat="44.1197" lon="6.30629">
        <ele>1066</ele>
      </trkpt>
      <trkpt lat="44.1197" lon="6.30621">
        <ele>1068</ele>
      </trkpt>
      <trkpt lat="44.11972" lon="6.30616">
        <ele>1069</ele>
      </trkpt>
      <trkpt lat="44.11972" lon="6.30609">
        <ele>1071</ele>
      </trkpt>
      <trkpt lat="44.11964" lon="6.30604">
        <ele>1072</ele>
      </trkpt>
      <trkpt lat="44.11961" lon="6.30601">
        <ele>1072</ele>
      </trkpt>
      <trkpt lat="44.11959" lon="6.30597">
        <ele>1073</ele>
      </trkpt>
      <trkpt lat="44.11954" lon="6.30592">
        <ele>1074</ele>
      </trkpt>
      <trkpt lat="44.11951" lon="6.30587">
        <ele>1074</ele>
      </trkpt>
      <trkpt lat="44.11946" lon="6.30572">
        <ele>1075</ele>
      </trkpt>
      <trkpt lat="44.1195" lon="6.30566">
        <ele>1077</ele>
      </trkpt>
      <trkpt lat="44.1195" lon="6.3056">
        <ele>1078</ele>
      </trkpt>
      <trkpt lat="44.11947" lon="6.30555">
        <ele>1078</ele>
      </trkpt>
      <trkpt lat="44.11945" lon="6.30551">
        <ele>1078</ele>
      </trkpt>
      <trkpt lat="44.11941" lon="6.30548">
        <ele>1078</ele>
      </trkpt>
      <trkpt lat="44.11941" lon="6.30543">
        <ele>1079</ele>
      </trkpt>
      <trkpt lat="44.11941" lon="6.30534">
        <ele>1080</ele>
      </trkpt>
      <trkpt lat="44.11941" lon="6.30529">
        <ele>1081</ele>
      </trkpt>
      <trkpt lat="44.11935" lon="6.30518">
        <ele>1081</ele>
      </trkpt>
      <trkpt lat="44.11935" lon="6.30492">
        <ele>1082</ele>
      </trkpt>
      <trkpt lat="44.11934" lon="6.30475">
        <ele>1083</ele>
      </trkpt>
      <trkpt lat="44.11936" lon="6.30463">
        <ele>1083</ele>
      </trkpt>
      <trkpt lat="44.11944" lon="6.30457">
        <ele>1084</ele>
      </trkpt>
      <trkpt lat="44.11954" lon="6.3046">
        <ele>1084</ele>
      </trkpt>
      <trkpt lat="44.11967" lon="6.30461">
        <ele>1085</ele>
      </trkpt>
      <trkpt lat="44.11989" lon="6.30447">
        <ele>1087</ele>
      </trkpt>
      <trkpt lat="44.12001" lon="6.30434">
        <ele>1089</ele>
      </trkpt>
    </trkseg>
  </trk>
  <trk>
    <name><![CDATA[J3 - RUN 7 - Terry]]></name>
    <desc><![CDATA[Technique VTT : 27,5 - 29 - ou mullet ?]]></desc>
    <extensions>
      <line xmlns="http://www.topografix.com/GPX/gpx_style/0/2">
        <color>800040</color>
        <width>4</width>
        <dasharray>4</dasharray>
          <extensions>
            <sens>1</sens>
          </extensions>
      </line>
    </extensions>
    <trkseg>
      <trkpt lat="44.12001" lon="6.30434">
        <ele>1089</ele>
      </trkpt>
      <trkpt lat="44.11997" lon="6.30383">
        <ele>1086</ele>
      </trkpt>
      <trkpt lat="44.11995" lon="6.30369">
        <ele>1084</ele>
      </trkpt>
      <trkpt lat="44.11992" lon="6.30366">
        <ele>1083</ele>
      </trkpt>
      <trkpt lat="44.11991" lon="6.30348">
        <ele>1080</ele>
      </trkpt>
      <trkpt lat="44.11997" lon="6.30328">
        <ele>1079</ele>
      </trkpt>
      <trkpt lat="44.12006" lon="6.30306">
        <ele>1077</ele>
      </trkpt>
      <trkpt lat="44.11997" lon="6.30257">
        <ele>1072</ele>
      </trkpt>
      <trkpt lat="44.12" lon="6.30241">
        <ele>1072</ele>
      </trkpt>
      <trkpt lat="44.11992" lon="6.30218">
        <ele>1073</ele>
      </trkpt>
      <trkpt lat="44.11992" lon="6.30204">
        <ele>1074</ele>
      </trkpt>
      <trkpt lat="44.11985" lon="6.30186">
        <ele>1076</ele>
      </trkpt>
      <trkpt lat="44.11978" lon="6.30162">
        <ele>1077</ele>
      </trkpt>
      <trkpt lat="44.11978" lon="6.30155">
        <ele>1078</ele>
      </trkpt>
      <trkpt lat="44.11979" lon="6.3014">
        <ele>1078</ele>
      </trkpt>
      <trkpt lat="44.1198" lon="6.30107">
        <ele>1079</ele>
      </trkpt>
      <trkpt lat="44.1198" lon="6.30086">
        <ele>1080</ele>
      </trkpt>
      <trkpt lat="44.11989" lon="6.30061">
        <ele>1082</ele>
      </trkpt>
      <trkpt lat="44.11988" lon="6.30037">
        <ele>1083</ele>
      </trkpt>
      <trkpt lat="44.11985" lon="6.30002">
        <ele>1085</ele>
      </trkpt>
      <trkpt lat="44.11981" lon="6.2995">
        <ele>1083</ele>
      </trkpt>
      <trkpt lat="44.11975" lon="6.29927">
        <ele>1079</ele>
      </trkpt>
      <trkpt lat="44.11971" lon="6.29897">
        <ele>1074</ele>
      </trkpt>
      <trkpt lat="44.11972" lon="6.29878">
        <ele>1070</ele>
      </trkpt>
      <trkpt lat="44.11979" lon="6.29859">
        <ele>1069</ele>
      </trkpt>
      <trkpt lat="44.11983" lon="6.29841">
        <ele>1066</ele>
      </trkpt>
      <trkpt lat="44.11991" lon="6.29821">
        <ele>1064</ele>
      </trkpt>
      <trkpt lat="44.11989" lon="6.29805">
        <ele>1063</ele>
      </trkpt>
      <trkpt lat="44.11987" lon="6.29796">
        <ele>1062</ele>
      </trkpt>
      <trkpt lat="44.11978" lon="6.29767">
        <ele>1060</ele>
      </trkpt>
      <trkpt lat="44.11974" lon="6.29749">
        <ele>1059</ele>
      </trkpt>
      <trkpt lat="44.11961" lon="6.29737">
        <ele>1058</ele>
      </trkpt>
      <trkpt lat="44.11952" lon="6.29705">
        <ele>1056</ele>
      </trkpt>
      <trkpt lat="44.11955" lon="6.29669">
        <ele>1052</ele>
      </trkpt>
      <trkpt lat="44.1196" lon="6.29651">
        <ele>1049</ele>
      </trkpt>
      <trkpt lat="44.1197" lon="6.29633">
        <ele>1045</ele>
      </trkpt>
      <trkpt lat="44.11966" lon="6.296">
        <ele>1039</ele>
      </trkpt>
      <trkpt lat="44.11963" lon="6.2959">
        <ele>1036</ele>
      </trkpt>
      <trkpt lat="44.11952" lon="6.29582">
        <ele>1035</ele>
      </trkpt>
      <trkpt lat="44.11944" lon="6.29568">
        <ele>1032</ele>
      </trkpt>
      <trkpt lat="44.11947" lon="6.2956">
        <ele>1030</ele>
      </trkpt>
      <trkpt lat="44.11941" lon="6.29543">
        <ele>1024</ele>
      </trkpt>
      <trkpt lat="44.1193" lon="6.29526">
        <ele>1017</ele>
      </trkpt>
      <trkpt lat="44.11927" lon="6.29507">
        <ele>1013</ele>
      </trkpt>
      <trkpt lat="44.11922" lon="6.29493">
        <ele>1009</ele>
      </trkpt>
      <trkpt lat="44.11919" lon="6.29471">
        <ele>1006</ele>
      </trkpt>
      <trkpt lat="44.11913" lon="6.2947">
        <ele>1006</ele>
      </trkpt>
      <trkpt lat="44.11904" lon="6.29483">
        <ele>1007</ele>
      </trkpt>
      <trkpt lat="44.11913" lon="6.29458">
        <ele>1004</ele>
      </trkpt>
      <trkpt lat="44.11912" lon="6.29449">
        <ele>1002</ele>
      </trkpt>
      <trkpt lat="44.11907" lon="6.29455">
        <ele>1004</ele>
      </trkpt>
      <trkpt lat="44.11902" lon="6.2947">
        <ele>1005</ele>
      </trkpt>
      <trkpt lat="44.11898" lon="6.29471">
        <ele>1003</ele>
      </trkpt>
      <trkpt lat="44.11901" lon="6.29456">
        <ele>1002</ele>
      </trkpt>
      <trkpt lat="44.11906" lon="6.29444">
        <ele>1002</ele>
      </trkpt>
      <trkpt lat="44.11911" lon="6.29439">
        <ele>1000</ele>
      </trkpt>
      <trkpt lat="44.1191" lon="6.29433">
        <ele>1000</ele>
      </trkpt>
      <trkpt lat="44.11903" lon="6.29438">
        <ele>1000</ele>
      </trkpt>
      <trkpt lat="44.11898" lon="6.29445">
        <ele>998</ele>
      </trkpt>
      <trkpt lat="44.11894" lon="6.29455">
        <ele>998</ele>
      </trkpt>
      <trkpt lat="44.11893" lon="6.2946">
        <ele>998</ele>
      </trkpt>
      <trkpt lat="44.11892" lon="6.29449">
        <ele>996</ele>
      </trkpt>
      <trkpt lat="44.11896" lon="6.29427">
        <ele>994</ele>
      </trkpt>
      <trkpt lat="44.11899" lon="6.29422">
        <ele>995</ele>
      </trkpt>
      <trkpt lat="44.11907" lon="6.29416">
        <ele>997</ele>
      </trkpt>
      <trkpt lat="44.11896" lon="6.29417">
        <ele>992</ele>
      </trkpt>
      <trkpt lat="44.11887" lon="6.29435">
        <ele>990</ele>
      </trkpt>
      <trkpt lat="44.11881" lon="6.29446">
        <ele>989</ele>
      </trkpt>
      <trkpt lat="44.11879" lon="6.29456">
        <ele>990</ele>
      </trkpt>
      <trkpt lat="44.11874" lon="6.29451">
        <ele>986</ele>
      </trkpt>
      <trkpt lat="44.11879" lon="6.2943">
        <ele>985</ele>
      </trkpt>
      <trkpt lat="44.11885" lon="6.29419">
        <ele>986</ele>
      </trkpt>
      <trkpt lat="44.11892" lon="6.29412">
        <ele>989</ele>
      </trkpt>
      <trkpt lat="44.11899" lon="6.29401">
        <ele>989</ele>
      </trkpt>
      <trkpt lat="44.1189" lon="6.29405">
        <ele>986</ele>
      </trkpt>
      <trkpt lat="44.11879" lon="6.29414">
        <ele>982</ele>
      </trkpt>
      <trkpt lat="44.11874" lon="6.29427">
        <ele>981</ele>
      </trkpt>
      <trkpt lat="44.11872" lon="6.29411">
        <ele>977</ele>
      </trkpt>
      <trkpt lat="44.11881" lon="6.29403">
        <ele>980</ele>
      </trkpt>
      <trkpt lat="44.11892" lon="6.29391">
        <ele>979</ele>
      </trkpt>
      <trkpt lat="44.11897" lon="6.29384">
        <ele>976</ele>
      </trkpt>
      <trkpt lat="44.11892" lon="6.29371">
        <ele>967</ele>
      </trkpt>
      <trkpt lat="44.11886" lon="6.29358">
        <ele>957</ele>
      </trkpt>
      <trkpt lat="44.11883" lon="6.2934">
        <ele>946</ele>
      </trkpt>
      <trkpt lat="44.11875" lon="6.29301">
        <ele>931</ele>
      </trkpt>
      <trkpt lat="44.11871" lon="6.29284">
        <ele>925</ele>
      </trkpt>
      <trkpt lat="44.11864" lon="6.29273">
        <ele>920</ele>
      </trkpt>
      <trkpt lat="44.11856" lon="6.29261">
        <ele>913</ele>
      </trkpt>
      <trkpt lat="44.11855" lon="6.29246">
        <ele>909</ele>
      </trkpt>
      <trkpt lat="44.11851" lon="6.29236">
        <ele>905</ele>
      </trkpt>
      <trkpt lat="44.11834" lon="6.29224">
        <ele>898</ele>
      </trkpt>
      <trkpt lat="44.11827" lon="6.29213">
        <ele>894</ele>
      </trkpt>
      <trkpt lat="44.11812" lon="6.29204">
        <ele>890</ele>
      </trkpt>
      <trkpt lat="44.11803" lon="6.29189">
        <ele>887</ele>
      </trkpt>
      <trkpt lat="44.118" lon="6.29185">
        <ele>887</ele>
      </trkpt>
      <trkpt lat="44.11797" lon="6.29179">
        <ele>886</ele>
      </trkpt>
      <trkpt lat="44.11792" lon="6.29175">
        <ele>886</ele>
      </trkpt>
      <trkpt lat="44.11781" lon="6.29162">
        <ele>885</ele>
      </trkpt>
      <trkpt lat="44.11776" lon="6.29155">
        <ele>884</ele>
      </trkpt>
      <trkpt lat="44.11765" lon="6.29142">
        <ele>881</ele>
      </trkpt>
      <trkpt lat="44.11754" lon="6.29128">
        <ele>877</ele>
      </trkpt>
      <trkpt lat="44.11741" lon="6.29113">
        <ele>873</ele>
      </trkpt>
      <trkpt lat="44.11729" lon="6.291">
        <ele>869</ele>
      </trkpt>
      <trkpt lat="44.11716" lon="6.29086">
        <ele>865</ele>
      </trkpt>
      <trkpt lat="44.11699" lon="6.2906">
        <ele>859</ele>
      </trkpt>
      <trkpt lat="44.1169" lon="6.29055">
        <ele>857</ele>
      </trkpt>
      <trkpt lat="44.11672" lon="6.29055">
        <ele>854</ele>
      </trkpt>
      <trkpt lat="44.11671" lon="6.2904">
        <ele>853</ele>
      </trkpt>
      <trkpt lat="44.11668" lon="6.2902">
        <ele>851</ele>
      </trkpt>
      <trkpt lat="44.11666" lon="6.29009">
        <ele>850</ele>
      </trkpt>
      <trkpt lat="44.11648" lon="6.2899">
        <ele>849</ele>
      </trkpt>
      <trkpt lat="44.11634" lon="6.28972">
        <ele>847</ele>
      </trkpt>
      <trkpt lat="44.11629" lon="6.28963">
        <ele>846</ele>
      </trkpt>
      <trkpt lat="44.11612" lon="6.28929">
        <ele>844</ele>
      </trkpt>
      <trkpt lat="44.11608" lon="6.28914">
        <ele>844</ele>
      </trkpt>
      <trkpt lat="44.11602" lon="6.28886">
        <ele>844</ele>
      </trkpt>
      <trkpt lat="44.11597" lon="6.28861">
        <ele>846</ele>
      </trkpt>
      <trkpt lat="44.11584" lon="6.28815">
        <ele>852</ele>
      </trkpt>
      <trkpt lat="44.11584" lon="6.28789">
        <ele>854</ele>
      </trkpt>
      <trkpt lat="44.11584" lon="6.2878">
        <ele>855</ele>
      </trkpt>
      <trkpt lat="44.11586" lon="6.28751">
        <ele>858</ele>
      </trkpt>
      <trkpt lat="44.11581" lon="6.28725">
        <ele>861</ele>
      </trkpt>
      <trkpt lat="44.11581" lon="6.2871">
        <ele>863</ele>
      </trkpt>
      <trkpt lat="44.11572" lon="6.28678">
        <ele>867</ele>
      </trkpt>
      <trkpt lat="44.11566" lon="6.28656">
        <ele>867</ele>
      </trkpt>
      <trkpt lat="44.1157" lon="6.28648">
        <ele>868</ele>
      </trkpt>
      <trkpt lat="44.11581" lon="6.28645">
        <ele>866</ele>
      </trkpt>
      <trkpt lat="44.11581" lon="6.28626">
        <ele>866</ele>
      </trkpt>
      <trkpt lat="44.11574" lon="6.28637">
        <ele>868</ele>
      </trkpt>
      <trkpt lat="44.11568" lon="6.28634">
        <ele>868</ele>
      </trkpt>
      <trkpt lat="44.11563" lon="6.28644">
        <ele>867</ele>
      </trkpt>
      <trkpt lat="44.11545" lon="6.28636">
        <ele>867</ele>
      </trkpt>
      <trkpt lat="44.11541" lon="6.28643">
        <ele>866</ele>
      </trkpt>
      <trkpt lat="44.11535" lon="6.2864">
        <ele>866</ele>
      </trkpt>
      <trkpt lat="44.11533" lon="6.28627">
        <ele>866</ele>
      </trkpt>
      <trkpt lat="44.11527" lon="6.28614">
        <ele>865</ele>
      </trkpt>
      <trkpt lat="44.11516" lon="6.28614">
        <ele>864</ele>
      </trkpt>
      <trkpt lat="44.1151" lon="6.28606">
        <ele>862</ele>
      </trkpt>
      <trkpt lat="44.115" lon="6.28586">
        <ele>860</ele>
      </trkpt>
      <trkpt lat="44.11491" lon="6.28584">
        <ele>859</ele>
      </trkpt>
      <trkpt lat="44.11486" lon="6.28569">
        <ele>857</ele>
      </trkpt>
      <trkpt lat="44.11478" lon="6.28563">
        <ele>855</ele>
      </trkpt>
      <trkpt lat="44.11471" lon="6.28558">
        <ele>853</ele>
      </trkpt>
      <trkpt lat="44.1147" lon="6.2855">
        <ele>851</ele>
      </trkpt>
      <trkpt lat="44.11467" lon="6.2854">
        <ele>849</ele>
      </trkpt>
      <trkpt lat="44.11461" lon="6.28533">
        <ele>847</ele>
      </trkpt>
      <trkpt lat="44.11457" lon="6.28537">
        <ele>848</ele>
      </trkpt>
      <trkpt lat="44.11443" lon="6.28522">
        <ele>845</ele>
      </trkpt>
      <trkpt lat="44.11433" lon="6.28512">
        <ele>843</ele>
      </trkpt>
      <trkpt lat="44.1142" lon="6.2851">
        <ele>843</ele>
      </trkpt>
      <trkpt lat="44.11407" lon="6.28503">
        <ele>842</ele>
      </trkpt>
      <trkpt lat="44.11383" lon="6.28488">
        <ele>841</ele>
      </trkpt>
      <trkpt lat="44.11371" lon="6.28467">
        <ele>840</ele>
      </trkpt>
      <trkpt lat="44.11365" lon="6.28454">
        <ele>840</ele>
      </trkpt>
      <trkpt lat="44.11357" lon="6.28445">
        <ele>840</ele>
      </trkpt>
      <trkpt lat="44.11352" lon="6.28432">
        <ele>840</ele>
      </trkpt>
      <trkpt lat="44.11336" lon="6.28425">
        <ele>839</ele>
      </trkpt>
      <trkpt lat="44.1132" lon="6.28427">
        <ele>839</ele>
      </trkpt>
      <trkpt lat="44.113" lon="6.28426">
        <ele>837</ele>
      </trkpt>
      <trkpt lat="44.11285" lon="6.2843">
        <ele>835</ele>
      </trkpt>
      <trkpt lat="44.11271" lon="6.28426">
        <ele>834</ele>
      </trkpt>
      <trkpt lat="44.11263" lon="6.28424">
        <ele>832</ele>
      </trkpt>
      <trkpt lat="44.11258" lon="6.28413">
        <ele>830</ele>
      </trkpt>
      <trkpt lat="44.11249" lon="6.28412">
        <ele>828</ele>
      </trkpt>
      <trkpt lat="44.11236" lon="6.28392">
        <ele>822</ele>
      </trkpt>
      <trkpt lat="44.11228" lon="6.2839">
        <ele>820</ele>
      </trkpt>
      <trkpt lat="44.11223" lon="6.28381">
        <ele>817</ele>
      </trkpt>
      <trkpt lat="44.11213" lon="6.28369">
        <ele>814</ele>
      </trkpt>
      <trkpt lat="44.11199" lon="6.28369">
        <ele>813</ele>
      </trkpt>
      <trkpt lat="44.11179" lon="6.28367">
        <ele>811</ele>
      </trkpt>
      <trkpt lat="44.11158" lon="6.2836">
        <ele>812</ele>
      </trkpt>
      <trkpt lat="44.11131" lon="6.28333">
        <ele>814</ele>
      </trkpt>
      <trkpt lat="44.11111" lon="6.28337">
        <ele>819</ele>
      </trkpt>
      <trkpt lat="44.11089" lon="6.28349">
        <ele>824</ele>
      </trkpt>
      <trkpt lat="44.11075" lon="6.28346">
        <ele>825</ele>
      </trkpt>
      <trkpt lat="44.11066" lon="6.28333">
        <ele>828</ele>
      </trkpt>
      <trkpt lat="44.1105" lon="6.28319">
        <ele>832</ele>
      </trkpt>
      <trkpt lat="44.11048" lon="6.28304">
        <ele>835</ele>
      </trkpt>
      <trkpt lat="44.11051" lon="6.28299">
        <ele>835</ele>
      </trkpt>
      <trkpt lat="44.1105" lon="6.28276">
        <ele>838</ele>
      </trkpt>
      <trkpt lat="44.11048" lon="6.28258">
        <ele>837</ele>
      </trkpt>
      <trkpt lat="44.11055" lon="6.28248">
        <ele>835</ele>
      </trkpt>
      <trkpt lat="44.1106" lon="6.28231">
        <ele>834</ele>
      </trkpt>
      <trkpt lat="44.11067" lon="6.28212">
        <ele>833</ele>
      </trkpt>
      <trkpt lat="44.11075" lon="6.28203">
        <ele>832</ele>
      </trkpt>
      <trkpt lat="44.11089" lon="6.28192">
        <ele>832</ele>
      </trkpt>
      <trkpt lat="44.11104" lon="6.2818">
        <ele>830</ele>
      </trkpt>
      <trkpt lat="44.11115" lon="6.28168">
        <ele>828</ele>
      </trkpt>
      <trkpt lat="44.11125" lon="6.2816">
        <ele>825</ele>
      </trkpt>
      <trkpt lat="44.11116" lon="6.28157">
        <ele>828</ele>
      </trkpt>
      <trkpt lat="44.11115" lon="6.28144">
        <ele>828</ele>
      </trkpt>
      <trkpt lat="44.11114" lon="6.28128">
        <ele>827</ele>
      </trkpt>
      <trkpt lat="44.11116" lon="6.2811">
        <ele>826</ele>
      </trkpt>
      <trkpt lat="44.11105" lon="6.28094">
        <ele>828</ele>
      </trkpt>
      <trkpt lat="44.11093" lon="6.28076">
        <ele>825</ele>
      </trkpt>
      <trkpt lat="44.11088" lon="6.28059">
        <ele>820</ele>
      </trkpt>
      <trkpt lat="44.11094" lon="6.28034">
        <ele>815</ele>
      </trkpt>
      <trkpt lat="44.11103" lon="6.28008">
        <ele>811</ele>
      </trkpt>
      <trkpt lat="44.11122" lon="6.27984">
        <ele>806</ele>
      </trkpt>
      <trkpt lat="44.11136" lon="6.27963">
        <ele>804</ele>
      </trkpt>
      <trkpt lat="44.11143" lon="6.27937">
        <ele>804</ele>
      </trkpt>
      <trkpt lat="44.11147" lon="6.27919">
        <ele>804</ele>
      </trkpt>
      <trkpt lat="44.11149" lon="6.27895">
        <ele>805</ele>
      </trkpt>
      <trkpt lat="44.11139" lon="6.27868">
        <ele>806</ele>
      </trkpt>
      <trkpt lat="44.11116" lon="6.2785">
        <ele>805</ele>
      </trkpt>
      <trkpt lat="44.11101" lon="6.27826">
        <ele>803</ele>
      </trkpt>
      <trkpt lat="44.11109" lon="6.27801">
        <ele>803</ele>
      </trkpt>
      <trkpt lat="44.11107" lon="6.27766">
        <ele>800</ele>
      </trkpt>
      <trkpt lat="44.1111" lon="6.27696">
        <ele>791</ele>
      </trkpt>
      <trkpt lat="44.11111" lon="6.2766">
        <ele>784</ele>
      </trkpt>
      <trkpt lat="44.11127" lon="6.27624">
        <ele>776</ele>
      </trkpt>
      <trkpt lat="44.1115" lon="6.2758">
        <ele>770</ele>
      </trkpt>
      <trkpt lat="44.11156" lon="6.27558">
        <ele>767</ele>
      </trkpt>
      <trkpt lat="44.11186" lon="6.27522">
        <ele>764</ele>
      </trkpt>
      <trkpt lat="44.11213" lon="6.27482">
        <ele>760</ele>
      </trkpt>
      <trkpt lat="44.11263" lon="6.27446">
        <ele>742</ele>
      </trkpt>
      <trkpt lat="44.11278" lon="6.27465">
        <ele>744</ele>
      </trkpt>
      <trkpt lat="44.11287" lon="6.27438">
        <ele>732</ele>
      </trkpt>
      <trkpt lat="44.11306" lon="6.27432">
        <ele>724</ele>
      </trkpt>
      <trkpt lat="44.11327" lon="6.27469">
        <ele>720</ele>
      </trkpt>
      <trkpt lat="44.11337" lon="6.27486">
        <ele>719</ele>
      </trkpt>
      <trkpt lat="44.11372" lon="6.275">
        <ele>700</ele>
      </trkpt>
      <trkpt lat="44.11426" lon="6.2761">
        <ele>681</ele>
      </trkpt>
      <trkpt lat="44.11427" lon="6.27598">
        <ele>680</ele>
      </trkpt>
      <trkpt lat="44.11448" lon="6.27576">
        <ele>674</ele>
      </trkpt>
      <trkpt lat="44.11447" lon="6.27513">
        <ele>670</ele>
      </trkpt>
      <trkpt lat="44.11381" lon="6.27431">
        <ele>681</ele>
      </trkpt>
      <trkpt lat="44.11362" lon="6.27367">
        <ele>682</ele>
      </trkpt>
      <trkpt lat="44.11338" lon="6.27269">
        <ele>671</ele>
      </trkpt>
      <trkpt lat="44.11263" lon="6.27012">
        <ele>660</ele>
      </trkpt>
      <trkpt lat="44.11246" lon="6.27011">
        <ele>665</ele>
      </trkpt>
      <trkpt lat="44.11136" lon="6.26883">
        <ele>672</ele>
      </trkpt>
      <trkpt lat="44.11096" lon="6.2673">
        <ele>660</ele>
      </trkpt>
      <trkpt lat="44.11046" lon="6.26674">
        <ele>667</ele>
      </trkpt>
      <trkpt lat="44.10981" lon="6.26534">
        <ele>665</ele>
      </trkpt>
      <trkpt lat="44.10881" lon="6.26525">
        <ele>674</ele>
      </trkpt>
      <trkpt lat="44.10831" lon="6.26468">
        <ele>667</ele>
      </trkpt>
      <trkpt lat="44.10792" lon="6.26398">
        <ele>674</ele>
      </trkpt>
      <trkpt lat="44.10762" lon="6.26357">
        <ele>669</ele>
      </trkpt>
      <trkpt lat="44.10863" lon="6.26253">
        <ele>653</ele>
      </trkpt>
    </trkseg>
  </trk>
</gpx>